<?xml version="1.0" encoding="UTF-8"?>
<gpx version="1.1" creator="https://www.youtrack.es" xsi:schemaLocation="http://www.topografix.com/GPX/1/1 http://www.topografix.com/GPX/1/1/gpx.xsd http://www.garmin.com/xmlschemas/GpxExtensions/v3 http://www.garmin.com/xmlschemas/GpxExtensionsv3.xsd http://www.garmin.com/xmlschemas/TrackPointExtension/v1 http://www.garmin.com/xmlschemas/TrackPointExtensionv1.xsd" xmlns:gpxtpx="http://www.garmin.com/xmlschemas/TrackPointExtension/v1" xmlns:gpxx="http://www.garmin.com/xmlschemas/GpxExtensions/v3" xmlns:xsi="http://www.w3.org/2001/XMLSchema-instance">
  <metadata>
    <link href="https://www.youtrack.es">
      <text>YouTrack.es</text>
    </link>
    <time>2026-05-08T02:26:43Z</time>
  </metadata>
  <trk>
    <src>https://www.youtrack.es</src>
    <link href="https://www.youtrack.es/ruta/21833-camping-lake-caspe">
      <text>YouTrack.es</text>
    </link>
    <trkseg>
      <trkpt lat="41.3168900" lon="0.0900600">
        <time>2021-05-08T05:08:00Z</time>
      </trkpt>
      <trkpt lat="41.3167400" lon="0.0902800">
        <time>2021-05-08T05:08:00Z</time>
      </trkpt>
      <trkpt lat="41.3166600" lon="0.0903400">
        <time>2021-05-08T05:08:00Z</time>
      </trkpt>
      <trkpt lat="41.3164300" lon="0.0904100">
        <time>2021-05-08T05:08:00Z</time>
      </trkpt>
      <trkpt lat="41.3155900" lon="0.0908300">
        <time>2021-05-08T05:08:00Z</time>
      </trkpt>
      <trkpt lat="41.3153700" lon="0.0909100">
        <time>2021-05-08T05:08:00Z</time>
      </trkpt>
      <trkpt lat="41.3151900" lon="0.0909600">
        <time>2021-05-08T05:08:00Z</time>
      </trkpt>
      <trkpt lat="41.3149400" lon="0.0909900">
        <time>2021-05-08T05:08:00Z</time>
      </trkpt>
      <trkpt lat="41.3146500" lon="0.0909800">
        <time>2021-05-08T05:08:00Z</time>
      </trkpt>
      <trkpt lat="41.3144300" lon="0.0910300">
        <time>2021-05-08T05:08:00Z</time>
      </trkpt>
      <trkpt lat="41.3143300" lon="0.0910700">
        <time>2021-05-08T05:08:00Z</time>
      </trkpt>
      <trkpt lat="41.3142200" lon="0.0911300">
        <time>2021-05-08T05:08:00Z</time>
      </trkpt>
      <trkpt lat="41.3140300" lon="0.0912200">
        <time>2021-05-08T05:08:00Z</time>
      </trkpt>
      <trkpt lat="41.3139200" lon="0.0912500">
        <time>2021-05-08T05:08:00Z</time>
      </trkpt>
      <trkpt lat="41.3136800" lon="0.0912500">
        <time>2021-05-08T05:08:00Z</time>
      </trkpt>
      <trkpt lat="41.3135600" lon="0.0912000">
        <time>2021-05-08T05:08:00Z</time>
      </trkpt>
      <trkpt lat="41.3132100" lon="0.0910600">
        <time>2021-05-08T05:08:00Z</time>
      </trkpt>
      <trkpt lat="41.3130500" lon="0.0910500">
        <time>2021-05-08T05:08:00Z</time>
      </trkpt>
      <trkpt lat="41.3128600" lon="0.0910400">
        <time>2021-05-08T05:08:00Z</time>
      </trkpt>
      <trkpt lat="41.3122700" lon="0.0907400">
        <time>2021-05-08T05:08:00Z</time>
      </trkpt>
      <trkpt lat="41.3115600" lon="0.0903700">
        <time>2021-05-08T05:08:00Z</time>
      </trkpt>
      <trkpt lat="41.3111900" lon="0.0901600">
        <time>2021-05-08T05:08:00Z</time>
      </trkpt>
      <trkpt lat="41.3109000" lon="0.0899200">
        <time>2021-05-08T05:08:00Z</time>
      </trkpt>
      <trkpt lat="41.3104500" lon="0.0894200">
        <time>2021-05-08T05:08:00Z</time>
      </trkpt>
      <trkpt lat="41.3102700" lon="0.0892600">
        <time>2021-05-08T05:08:00Z</time>
      </trkpt>
      <trkpt lat="41.3096500" lon="0.0887200">
        <time>2021-05-08T05:08:00Z</time>
      </trkpt>
      <trkpt lat="41.3094800" lon="0.0885500">
        <time>2021-05-08T05:08:00Z</time>
      </trkpt>
      <trkpt lat="41.3093200" lon="0.0884800">
        <time>2021-05-08T05:08:00Z</time>
      </trkpt>
      <trkpt lat="41.3090900" lon="0.0884100">
        <time>2021-05-08T05:08:00Z</time>
      </trkpt>
      <trkpt lat="41.3088500" lon="0.0883000">
        <time>2021-05-08T05:08:00Z</time>
      </trkpt>
      <trkpt lat="41.3085800" lon="0.0881000">
        <time>2021-05-08T05:08:00Z</time>
      </trkpt>
      <trkpt lat="41.3080400" lon="0.0877400">
        <time>2021-05-08T05:08:00Z</time>
      </trkpt>
      <trkpt lat="41.3079000" lon="0.0876500">
        <time>2021-05-08T05:08:00Z</time>
      </trkpt>
      <trkpt lat="41.3077200" lon="0.0875700">
        <time>2021-05-08T05:08:00Z</time>
      </trkpt>
      <trkpt lat="41.3075800" lon="0.0875100">
        <time>2021-05-08T05:08:00Z</time>
      </trkpt>
      <trkpt lat="41.3074800" lon="0.0874600">
        <time>2021-05-08T05:08:00Z</time>
      </trkpt>
      <trkpt lat="41.3073700" lon="0.0873500">
        <time>2021-05-08T05:08:00Z</time>
      </trkpt>
      <trkpt lat="41.3073100" lon="0.0872100">
        <time>2021-05-08T05:08:00Z</time>
      </trkpt>
      <trkpt lat="41.3072800" lon="0.0870000">
        <time>2021-05-08T05:08:00Z</time>
      </trkpt>
      <trkpt lat="41.3072400" lon="0.0865300">
        <time>2021-05-08T05:08:00Z</time>
      </trkpt>
      <trkpt lat="41.3071800" lon="0.0863000">
        <time>2021-05-08T05:08:00Z</time>
      </trkpt>
      <trkpt lat="41.3070900" lon="0.0861400">
        <time>2021-05-08T05:08:00Z</time>
      </trkpt>
      <trkpt lat="41.3065500" lon="0.0858600">
        <time>2021-05-08T05:08:00Z</time>
      </trkpt>
      <trkpt lat="41.3064300" lon="0.0857800">
        <time>2021-05-08T05:08:00Z</time>
      </trkpt>
      <trkpt lat="41.3063500" lon="0.0856800">
        <time>2021-05-08T05:08:00Z</time>
      </trkpt>
      <trkpt lat="41.3062800" lon="0.0855400">
        <time>2021-05-08T05:08:00Z</time>
      </trkpt>
      <trkpt lat="41.3060900" lon="0.0852400">
        <time>2021-05-08T05:08:00Z</time>
      </trkpt>
      <trkpt lat="41.3058600" lon="0.0849500">
        <time>2021-05-08T05:08:00Z</time>
      </trkpt>
      <trkpt lat="41.3057600" lon="0.0848700">
        <time>2021-05-08T05:08:00Z</time>
      </trkpt>
      <trkpt lat="41.3056300" lon="0.0848300">
        <time>2021-05-08T05:08:00Z</time>
      </trkpt>
      <trkpt lat="41.3054700" lon="0.0848500">
        <time>2021-05-08T05:08:00Z</time>
      </trkpt>
      <trkpt lat="41.3048700" lon="0.0849000">
        <time>2021-05-08T05:08:00Z</time>
      </trkpt>
      <trkpt lat="41.3046100" lon="0.0848700">
        <time>2021-05-08T05:08:00Z</time>
      </trkpt>
      <trkpt lat="41.3043900" lon="0.0848100">
        <time>2021-05-08T05:08:00Z</time>
      </trkpt>
      <trkpt lat="41.3041900" lon="0.0847700">
        <time>2021-05-08T05:08:00Z</time>
      </trkpt>
      <trkpt lat="41.3040100" lon="0.0846900">
        <time>2021-05-08T05:08:00Z</time>
      </trkpt>
      <trkpt lat="41.3038900" lon="0.0846200">
        <time>2021-05-08T05:08:00Z</time>
      </trkpt>
      <trkpt lat="41.3037500" lon="0.0845500">
        <time>2021-05-08T05:08:00Z</time>
      </trkpt>
      <trkpt lat="41.3036000" lon="0.0844700">
        <time>2021-05-08T05:08:00Z</time>
      </trkpt>
      <trkpt lat="41.3034900" lon="0.0844200">
        <time>2021-05-08T05:08:00Z</time>
      </trkpt>
      <trkpt lat="41.3033600" lon="0.0843400">
        <time>2021-05-08T05:08:00Z</time>
      </trkpt>
      <trkpt lat="41.3032500" lon="0.0843000">
        <time>2021-05-08T05:08:00Z</time>
      </trkpt>
      <trkpt lat="41.3030900" lon="0.0842100">
        <time>2021-05-08T05:08:00Z</time>
      </trkpt>
      <trkpt lat="41.3029600" lon="0.0841500">
        <time>2021-05-08T05:08:00Z</time>
      </trkpt>
      <trkpt lat="41.3028200" lon="0.0840600">
        <time>2021-05-08T05:08:00Z</time>
      </trkpt>
      <trkpt lat="41.3027200" lon="0.0840200">
        <time>2021-05-08T05:08:00Z</time>
      </trkpt>
      <trkpt lat="41.3025900" lon="0.0839900">
        <time>2021-05-08T05:08:00Z</time>
      </trkpt>
      <trkpt lat="41.3025000" lon="0.0839700">
        <time>2021-05-08T05:08:00Z</time>
      </trkpt>
      <trkpt lat="41.3024100" lon="0.0839900">
        <time>2021-05-08T05:08:00Z</time>
      </trkpt>
      <trkpt lat="41.3023300" lon="0.0840600">
        <time>2021-05-08T05:08:00Z</time>
      </trkpt>
      <trkpt lat="41.3019800" lon="0.0844700">
        <time>2021-05-08T05:08:00Z</time>
      </trkpt>
      <trkpt lat="41.3010900" lon="0.0855300">
        <time>2021-05-08T05:08:00Z</time>
      </trkpt>
      <trkpt lat="41.3010100" lon="0.0856300">
        <time>2021-05-08T05:08:00Z</time>
      </trkpt>
      <trkpt lat="41.3009000" lon="0.0857100">
        <time>2021-05-08T05:08:00Z</time>
      </trkpt>
      <trkpt lat="41.3007900" lon="0.0857100">
        <time>2021-05-08T05:08:00Z</time>
      </trkpt>
      <trkpt lat="41.3007200" lon="0.0856800">
        <time>2021-05-08T05:08:00Z</time>
      </trkpt>
      <trkpt lat="41.3006500" lon="0.0856300">
        <time>2021-05-08T05:08:00Z</time>
      </trkpt>
      <trkpt lat="41.3005400" lon="0.0854500">
        <time>2021-05-08T05:08:00Z</time>
      </trkpt>
      <trkpt lat="41.3001700" lon="0.0848400">
        <time>2021-05-08T05:08:00Z</time>
      </trkpt>
      <trkpt lat="41.3000300" lon="0.0845800">
        <time>2021-05-08T05:08:00Z</time>
      </trkpt>
      <trkpt lat="41.2999100" lon="0.0844300">
        <time>2021-05-08T05:08:00Z</time>
      </trkpt>
      <trkpt lat="41.2997300" lon="0.0843400">
        <time>2021-05-08T05:08:00Z</time>
      </trkpt>
      <trkpt lat="41.2996300" lon="0.0843200">
        <time>2021-05-08T05:08:00Z</time>
      </trkpt>
      <trkpt lat="41.2995000" lon="0.0843500">
        <time>2021-05-08T05:08:00Z</time>
      </trkpt>
      <trkpt lat="41.2990900" lon="0.0844300">
        <time>2021-05-08T05:08:00Z</time>
      </trkpt>
      <trkpt lat="41.2987700" lon="0.0845400">
        <time>2021-05-08T05:08:00Z</time>
      </trkpt>
      <trkpt lat="41.2984700" lon="0.0847100">
        <time>2021-05-08T05:08:00Z</time>
      </trkpt>
      <trkpt lat="41.2982900" lon="0.0847600">
        <time>2021-05-08T05:08:00Z</time>
      </trkpt>
      <trkpt lat="41.2981100" lon="0.0847700">
        <time>2021-05-08T05:08:00Z</time>
      </trkpt>
      <trkpt lat="41.2977500" lon="0.0847200">
        <time>2021-05-08T05:08:00Z</time>
      </trkpt>
      <trkpt lat="41.2970100" lon="0.0846100">
        <time>2021-05-08T05:08:00Z</time>
      </trkpt>
      <trkpt lat="41.2968300" lon="0.0845900">
        <time>2021-05-08T05:08:00Z</time>
      </trkpt>
      <trkpt lat="41.2967000" lon="0.0845800">
        <time>2021-05-08T05:08:00Z</time>
      </trkpt>
      <trkpt lat="41.2965800" lon="0.0845700">
        <time>2021-05-08T05:08:00Z</time>
      </trkpt>
      <trkpt lat="41.2965600" lon="0.0846500">
        <time>2021-05-08T05:08:00Z</time>
      </trkpt>
      <trkpt lat="41.2965800" lon="0.0847000">
        <time>2021-05-08T05:08:00Z</time>
      </trkpt>
      <trkpt lat="41.2966200" lon="0.0847600">
        <time>2021-05-08T05:08:00Z</time>
      </trkpt>
      <trkpt lat="41.2967100" lon="0.0848700">
        <time>2021-05-08T05:08:00Z</time>
      </trkpt>
      <trkpt lat="41.2968000" lon="0.0849800">
        <time>2021-05-08T05:08:00Z</time>
      </trkpt>
      <trkpt lat="41.2974500" lon="0.0858200">
        <time>2021-05-08T05:08:00Z</time>
      </trkpt>
      <trkpt lat="41.2976500" lon="0.0860500">
        <time>2021-05-08T05:08:00Z</time>
      </trkpt>
      <trkpt lat="41.2978000" lon="0.0862200">
        <time>2021-05-08T05:08:00Z</time>
      </trkpt>
      <trkpt lat="41.2980500" lon="0.0865600">
        <time>2021-05-08T05:08:00Z</time>
      </trkpt>
      <trkpt lat="41.2981000" lon="0.0866100">
        <time>2021-05-08T05:08:00Z</time>
      </trkpt>
      <trkpt lat="41.2982400" lon="0.0866900">
        <time>2021-05-08T05:08:00Z</time>
      </trkpt>
      <trkpt lat="41.2983300" lon="0.0867900">
        <time>2021-05-08T05:08:00Z</time>
      </trkpt>
      <trkpt lat="41.2984100" lon="0.0868700">
        <time>2021-05-08T05:08:00Z</time>
      </trkpt>
      <trkpt lat="41.2985000" lon="0.0869500">
        <time>2021-05-08T05:08:00Z</time>
      </trkpt>
      <trkpt lat="41.2985500" lon="0.0870400">
        <time>2021-05-08T05:08:00Z</time>
      </trkpt>
      <trkpt lat="41.2985700" lon="0.0871100">
        <time>2021-05-08T05:08:00Z</time>
      </trkpt>
      <trkpt lat="41.2986300" lon="0.0872600">
        <time>2021-05-08T05:08:00Z</time>
      </trkpt>
      <trkpt lat="41.2986900" lon="0.0873400">
        <time>2021-05-08T05:08:00Z</time>
      </trkpt>
      <trkpt lat="41.2990400" lon="0.0877900">
        <time>2021-05-08T05:08:00Z</time>
      </trkpt>
      <trkpt lat="41.2991000" lon="0.0878500">
        <time>2021-05-08T05:08:00Z</time>
      </trkpt>
      <trkpt lat="41.2992900" lon="0.0880000">
        <time>2021-05-08T05:08:00Z</time>
      </trkpt>
      <trkpt lat="41.2993300" lon="0.0880800">
        <time>2021-05-08T05:08:00Z</time>
      </trkpt>
      <trkpt lat="41.2993700" lon="0.0881400">
        <time>2021-05-08T05:08:00Z</time>
      </trkpt>
      <trkpt lat="41.2994500" lon="0.0881600">
        <time>2021-05-08T05:08:00Z</time>
      </trkpt>
      <trkpt lat="41.2995300" lon="0.0882500">
        <time>2021-05-08T05:08:00Z</time>
      </trkpt>
      <trkpt lat="41.2996000" lon="0.0882700">
        <time>2021-05-08T05:08:00Z</time>
      </trkpt>
      <trkpt lat="41.2997500" lon="0.0884500">
        <time>2021-05-08T05:08:00Z</time>
      </trkpt>
      <trkpt lat="41.2997900" lon="0.0884900">
        <time>2021-05-08T05:08:00Z</time>
      </trkpt>
      <trkpt lat="41.2998400" lon="0.0885900">
        <time>2021-05-08T05:08:00Z</time>
      </trkpt>
      <trkpt lat="41.2998900" lon="0.0886600">
        <time>2021-05-08T05:08:00Z</time>
      </trkpt>
      <trkpt lat="41.2999300" lon="0.0886800">
        <time>2021-05-08T05:08:00Z</time>
      </trkpt>
      <trkpt lat="41.2999300" lon="0.0887200">
        <time>2021-05-08T05:08:00Z</time>
      </trkpt>
      <trkpt lat="41.2999500" lon="0.0887600">
        <time>2021-05-08T05:08:00Z</time>
      </trkpt>
      <trkpt lat="41.2999900" lon="0.0887900">
        <time>2021-05-08T05:08:00Z</time>
      </trkpt>
      <trkpt lat="41.3000600" lon="0.0888100">
        <time>2021-05-08T05:08:00Z</time>
      </trkpt>
      <trkpt lat="41.3001000" lon="0.0888500">
        <time>2021-05-08T05:08:00Z</time>
      </trkpt>
      <trkpt lat="41.3001300" lon="0.0889300">
        <time>2021-05-08T05:08:00Z</time>
      </trkpt>
      <trkpt lat="41.3001400" lon="0.0890100">
        <time>2021-05-08T05:08:00Z</time>
      </trkpt>
      <trkpt lat="41.3001900" lon="0.0891100">
        <time>2021-05-08T05:08:00Z</time>
      </trkpt>
      <trkpt lat="41.3002200" lon="0.0891500">
        <time>2021-05-08T05:08:00Z</time>
      </trkpt>
      <trkpt lat="41.3002600" lon="0.0892400">
        <time>2021-05-08T05:08:00Z</time>
      </trkpt>
      <trkpt lat="41.3003200" lon="0.0893400">
        <time>2021-05-08T05:08:00Z</time>
      </trkpt>
      <trkpt lat="41.3003700" lon="0.0894400">
        <time>2021-05-08T05:08:00Z</time>
      </trkpt>
      <trkpt lat="41.3004000" lon="0.0895500">
        <time>2021-05-08T05:08:00Z</time>
      </trkpt>
      <trkpt lat="41.3005000" lon="0.0896800">
        <time>2021-05-08T05:08:00Z</time>
      </trkpt>
      <trkpt lat="41.3005700" lon="0.0897800">
        <time>2021-05-08T05:08:00Z</time>
      </trkpt>
      <trkpt lat="41.3006100" lon="0.0898500">
        <time>2021-05-08T05:08:00Z</time>
      </trkpt>
      <trkpt lat="41.3007000" lon="0.0900200">
        <time>2021-05-08T05:08:00Z</time>
      </trkpt>
      <trkpt lat="41.3007100" lon="0.0900600">
        <time>2021-05-08T05:08:00Z</time>
      </trkpt>
      <trkpt lat="41.3007200" lon="0.0901100">
        <time>2021-05-08T05:08:00Z</time>
      </trkpt>
      <trkpt lat="41.3007400" lon="0.0902100">
        <time>2021-05-08T05:08:00Z</time>
      </trkpt>
      <trkpt lat="41.3008300" lon="0.0903300">
        <time>2021-05-08T05:08:00Z</time>
      </trkpt>
      <trkpt lat="41.3009100" lon="0.0904200">
        <time>2021-05-08T05:08:00Z</time>
      </trkpt>
      <trkpt lat="41.3010100" lon="0.0905100">
        <time>2021-05-08T05:08:00Z</time>
      </trkpt>
      <trkpt lat="41.3010500" lon="0.0905800">
        <time>2021-05-08T05:08:00Z</time>
      </trkpt>
      <trkpt lat="41.3010900" lon="0.0906700">
        <time>2021-05-08T05:08:00Z</time>
      </trkpt>
      <trkpt lat="41.3011300" lon="0.0907800">
        <time>2021-05-08T05:08:00Z</time>
      </trkpt>
      <trkpt lat="41.3011600" lon="0.0908900">
        <time>2021-05-08T05:08:00Z</time>
      </trkpt>
      <trkpt lat="41.3011700" lon="0.0910700">
        <time>2021-05-08T05:08:00Z</time>
      </trkpt>
      <trkpt lat="41.3011700" lon="0.0912100">
        <time>2021-05-08T05:08:00Z</time>
      </trkpt>
      <trkpt lat="41.3011400" lon="0.0913800">
        <time>2021-05-08T05:08:00Z</time>
      </trkpt>
      <trkpt lat="41.3011500" lon="0.0914600">
        <time>2021-05-08T05:08:00Z</time>
      </trkpt>
      <trkpt lat="41.3011800" lon="0.0915800">
        <time>2021-05-08T05:08:00Z</time>
      </trkpt>
      <trkpt lat="41.3012400" lon="0.0916700">
        <time>2021-05-08T05:08:00Z</time>
      </trkpt>
      <trkpt lat="41.3012800" lon="0.0917200">
        <time>2021-05-08T05:08:00Z</time>
      </trkpt>
      <trkpt lat="41.3012900" lon="0.0917700">
        <time>2021-05-08T05:08:00Z</time>
      </trkpt>
      <trkpt lat="41.3013000" lon="0.0918400">
        <time>2021-05-08T05:08:00Z</time>
      </trkpt>
      <trkpt lat="41.3013100" lon="0.0919400">
        <time>2021-05-08T05:08:00Z</time>
      </trkpt>
      <trkpt lat="41.3013600" lon="0.0921000">
        <time>2021-05-08T05:08:00Z</time>
      </trkpt>
      <trkpt lat="41.3014000" lon="0.0922000">
        <time>2021-05-08T05:08:00Z</time>
      </trkpt>
      <trkpt lat="41.3013900" lon="0.0922600">
        <time>2021-05-08T05:08:00Z</time>
      </trkpt>
      <trkpt lat="41.3014000" lon="0.0923000">
        <time>2021-05-08T05:08:00Z</time>
      </trkpt>
      <trkpt lat="41.3014300" lon="0.0923500">
        <time>2021-05-08T05:08:00Z</time>
      </trkpt>
      <trkpt lat="41.3015100" lon="0.0925100">
        <time>2021-05-08T05:08:00Z</time>
      </trkpt>
      <trkpt lat="41.3015700" lon="0.0926200">
        <time>2021-05-08T05:08:00Z</time>
      </trkpt>
      <trkpt lat="41.3016600" lon="0.0928100">
        <time>2021-05-08T05:08:00Z</time>
      </trkpt>
      <trkpt lat="41.3017500" lon="0.0930300">
        <time>2021-05-08T05:08:00Z</time>
      </trkpt>
      <trkpt lat="41.3018300" lon="0.0931900">
        <time>2021-05-08T05:08:00Z</time>
      </trkpt>
      <trkpt lat="41.3018700" lon="0.0932300">
        <time>2021-05-08T05:08:00Z</time>
      </trkpt>
      <trkpt lat="41.3019200" lon="0.0932500">
        <time>2021-05-08T05:08:00Z</time>
      </trkpt>
      <trkpt lat="41.3019800" lon="0.0932900">
        <time>2021-05-08T05:08:00Z</time>
      </trkpt>
      <trkpt lat="41.3020000" lon="0.0933200">
        <time>2021-05-08T05:08:00Z</time>
      </trkpt>
      <trkpt lat="41.3019800" lon="0.0933500">
        <time>2021-05-08T05:08:00Z</time>
      </trkpt>
      <trkpt lat="41.3019500" lon="0.0933700">
        <time>2021-05-08T05:08:00Z</time>
      </trkpt>
      <trkpt lat="41.3019000" lon="0.0933700">
        <time>2021-05-08T05:08:00Z</time>
      </trkpt>
      <trkpt lat="41.3018500" lon="0.0933600">
        <time>2021-05-08T05:08:00Z</time>
      </trkpt>
      <trkpt lat="41.3018000" lon="0.0933500">
        <time>2021-05-08T05:08:00Z</time>
      </trkpt>
      <trkpt lat="41.3017500" lon="0.0933400">
        <time>2021-05-08T05:08:00Z</time>
      </trkpt>
      <trkpt lat="41.3017300" lon="0.0933500">
        <time>2021-05-08T05:08:00Z</time>
      </trkpt>
      <trkpt lat="41.3017700" lon="0.0934300">
        <time>2021-05-08T05:08:00Z</time>
      </trkpt>
      <trkpt lat="41.3018300" lon="0.0935300">
        <time>2021-05-08T05:08:00Z</time>
      </trkpt>
      <trkpt lat="41.3018500" lon="0.0935700">
        <time>2021-05-08T05:08:00Z</time>
      </trkpt>
      <trkpt lat="41.3018200" lon="0.0936100">
        <time>2021-05-08T05:08:00Z</time>
      </trkpt>
      <trkpt lat="41.3018100" lon="0.0936500">
        <time>2021-05-08T05:08:00Z</time>
      </trkpt>
      <trkpt lat="41.3018100" lon="0.0937200">
        <time>2021-05-08T05:08:00Z</time>
      </trkpt>
      <trkpt lat="41.3017700" lon="0.0937700">
        <time>2021-05-08T05:08:00Z</time>
      </trkpt>
      <trkpt lat="41.3017100" lon="0.0937800">
        <time>2021-05-08T05:08:00Z</time>
      </trkpt>
      <trkpt lat="41.3016200" lon="0.0938000">
        <time>2021-05-08T05:08:00Z</time>
      </trkpt>
      <trkpt lat="41.3015300" lon="0.0938500">
        <time>2021-05-08T05:08:00Z</time>
      </trkpt>
      <trkpt lat="41.3014400" lon="0.0939000">
        <time>2021-05-08T05:08:00Z</time>
      </trkpt>
      <trkpt lat="41.3014600" lon="0.0939800">
        <time>2021-05-08T05:08:00Z</time>
      </trkpt>
      <trkpt lat="41.3014600" lon="0.0940700">
        <time>2021-05-08T05:08:00Z</time>
      </trkpt>
      <trkpt lat="41.3015400" lon="0.0942500">
        <time>2021-05-08T05:08:00Z</time>
      </trkpt>
      <trkpt lat="41.3016500" lon="0.0945300">
        <time>2021-05-08T05:08:00Z</time>
      </trkpt>
      <trkpt lat="41.3016800" lon="0.0946400">
        <time>2021-05-08T05:08:00Z</time>
      </trkpt>
      <trkpt lat="41.3015600" lon="0.0946900">
        <time>2021-05-08T05:08:00Z</time>
      </trkpt>
      <trkpt lat="41.3015700" lon="0.0947600">
        <time>2021-05-08T05:08:00Z</time>
      </trkpt>
      <trkpt lat="41.3016300" lon="0.0948100">
        <time>2021-05-08T05:08:00Z</time>
      </trkpt>
      <trkpt lat="41.3017200" lon="0.0949300">
        <time>2021-05-08T05:08:00Z</time>
      </trkpt>
      <trkpt lat="41.3018100" lon="0.0950500">
        <time>2021-05-08T05:08:00Z</time>
      </trkpt>
      <trkpt lat="41.3018800" lon="0.0951800">
        <time>2021-05-08T05:08:00Z</time>
      </trkpt>
      <trkpt lat="41.3019000" lon="0.0952900">
        <time>2021-05-08T05:08:00Z</time>
      </trkpt>
      <trkpt lat="41.3018900" lon="0.0954300">
        <time>2021-05-08T05:08:00Z</time>
      </trkpt>
      <trkpt lat="41.3019300" lon="0.0955300">
        <time>2021-05-08T05:08:00Z</time>
      </trkpt>
      <trkpt lat="41.3019600" lon="0.0956700">
        <time>2021-05-08T05:08:00Z</time>
      </trkpt>
      <trkpt lat="41.3019900" lon="0.0958200">
        <time>2021-05-08T05:08:00Z</time>
      </trkpt>
      <trkpt lat="41.3020300" lon="0.0959600">
        <time>2021-05-08T05:08:00Z</time>
      </trkpt>
      <trkpt lat="41.3020900" lon="0.0963500">
        <time>2021-05-08T05:08:00Z</time>
      </trkpt>
      <trkpt lat="41.3020700" lon="0.0964900">
        <time>2021-05-08T05:08:00Z</time>
      </trkpt>
      <trkpt lat="41.3020900" lon="0.0966600">
        <time>2021-05-08T05:08:00Z</time>
      </trkpt>
      <trkpt lat="41.3021000" lon="0.0968500">
        <time>2021-05-08T05:08:00Z</time>
      </trkpt>
      <trkpt lat="41.3020600" lon="0.0970300">
        <time>2021-05-08T05:08:00Z</time>
      </trkpt>
      <trkpt lat="41.3020300" lon="0.0971300">
        <time>2021-05-08T05:08:00Z</time>
      </trkpt>
      <trkpt lat="41.3020300" lon="0.0972000">
        <time>2021-05-08T05:08:00Z</time>
      </trkpt>
      <trkpt lat="41.3020100" lon="0.0973600">
        <time>2021-05-08T05:08:00Z</time>
      </trkpt>
      <trkpt lat="41.3020100" lon="0.0974800">
        <time>2021-05-08T05:08:00Z</time>
      </trkpt>
      <trkpt lat="41.3020400" lon="0.0975900">
        <time>2021-05-08T05:08:00Z</time>
      </trkpt>
      <trkpt lat="41.3020900" lon="0.0977300">
        <time>2021-05-08T05:08:00Z</time>
      </trkpt>
      <trkpt lat="41.3021200" lon="0.0977700">
        <time>2021-05-08T05:08:00Z</time>
      </trkpt>
      <trkpt lat="41.3021500" lon="0.0978200">
        <time>2021-05-08T05:08:00Z</time>
      </trkpt>
      <trkpt lat="41.3021800" lon="0.0979000">
        <time>2021-05-08T05:08:00Z</time>
      </trkpt>
      <trkpt lat="41.3022000" lon="0.0980100">
        <time>2021-05-08T05:08:00Z</time>
      </trkpt>
      <trkpt lat="41.3022200" lon="0.0983300">
        <time>2021-05-08T05:08:00Z</time>
      </trkpt>
      <trkpt lat="41.3022300" lon="0.0984900">
        <time>2021-05-08T05:08:00Z</time>
      </trkpt>
      <trkpt lat="41.3022600" lon="0.0985900">
        <time>2021-05-08T05:08:00Z</time>
      </trkpt>
      <trkpt lat="41.3022700" lon="0.0987200">
        <time>2021-05-08T05:08:00Z</time>
      </trkpt>
      <trkpt lat="41.3022800" lon="0.0988400">
        <time>2021-05-08T05:08:00Z</time>
      </trkpt>
      <trkpt lat="41.3022400" lon="0.0991000">
        <time>2021-05-08T05:08:00Z</time>
      </trkpt>
      <trkpt lat="41.3022400" lon="0.0992100">
        <time>2021-05-08T05:08:00Z</time>
      </trkpt>
      <trkpt lat="41.3022500" lon="0.0995500">
        <time>2021-05-08T05:08:00Z</time>
      </trkpt>
      <trkpt lat="41.3022600" lon="0.0997400">
        <time>2021-05-08T05:08:00Z</time>
      </trkpt>
      <trkpt lat="41.3022800" lon="0.0998600">
        <time>2021-05-08T05:08:00Z</time>
      </trkpt>
      <trkpt lat="41.3023500" lon="0.0999600">
        <time>2021-05-08T05:08:00Z</time>
      </trkpt>
      <trkpt lat="41.3023900" lon="0.1001000">
        <time>2021-05-08T05:08:00Z</time>
      </trkpt>
      <trkpt lat="41.3024900" lon="0.1003800">
        <time>2021-05-08T05:08:00Z</time>
      </trkpt>
      <trkpt lat="41.3025600" lon="0.1005200">
        <time>2021-05-08T05:08:00Z</time>
      </trkpt>
      <trkpt lat="41.3026400" lon="0.1006500">
        <time>2021-05-08T05:08:00Z</time>
      </trkpt>
      <trkpt lat="41.3026200" lon="0.1007500">
        <time>2021-05-08T05:08:00Z</time>
      </trkpt>
      <trkpt lat="41.3025900" lon="0.1009000">
        <time>2021-05-08T05:08:00Z</time>
      </trkpt>
      <trkpt lat="41.3025800" lon="0.1010500">
        <time>2021-05-08T05:08:00Z</time>
      </trkpt>
      <trkpt lat="41.3025800" lon="0.1012200">
        <time>2021-05-08T05:08:00Z</time>
      </trkpt>
      <trkpt lat="41.3025900" lon="0.1014900">
        <time>2021-05-08T05:08:00Z</time>
      </trkpt>
      <trkpt lat="41.3026200" lon="0.1015200">
        <time>2021-05-08T05:08:00Z</time>
      </trkpt>
      <trkpt lat="41.3026400" lon="0.1014900">
        <time>2021-05-08T05:08:00Z</time>
      </trkpt>
      <trkpt lat="41.3027000" lon="0.1013000">
        <time>2021-05-08T05:08:00Z</time>
      </trkpt>
      <trkpt lat="41.3027400" lon="0.1011300">
        <time>2021-05-08T05:08:00Z</time>
      </trkpt>
      <trkpt lat="41.3027700" lon="0.1010900">
        <time>2021-05-08T05:08:00Z</time>
      </trkpt>
      <trkpt lat="41.3027900" lon="0.1011300">
        <time>2021-05-08T05:08:00Z</time>
      </trkpt>
      <trkpt lat="41.3028000" lon="0.1011600">
        <time>2021-05-08T05:08:00Z</time>
      </trkpt>
      <trkpt lat="41.3028100" lon="0.1012300">
        <time>2021-05-08T05:08:00Z</time>
      </trkpt>
      <trkpt lat="41.3028600" lon="0.1014700">
        <time>2021-05-08T05:08:00Z</time>
      </trkpt>
      <trkpt lat="41.3029100" lon="0.1018000">
        <time>2021-05-08T05:08:00Z</time>
      </trkpt>
      <trkpt lat="41.3029800" lon="0.1021500">
        <time>2021-05-08T05:08:00Z</time>
      </trkpt>
      <trkpt lat="41.3030400" lon="0.1023300">
        <time>2021-05-08T05:08:00Z</time>
      </trkpt>
      <trkpt lat="41.3031400" lon="0.1025900">
        <time>2021-05-08T05:08:00Z</time>
      </trkpt>
      <trkpt lat="41.3032400" lon="0.1027900">
        <time>2021-05-08T05:08:00Z</time>
      </trkpt>
      <trkpt lat="41.3033600" lon="0.1030700">
        <time>2021-05-08T05:08:00Z</time>
      </trkpt>
      <trkpt lat="41.3034300" lon="0.1031900">
        <time>2021-05-08T05:08:00Z</time>
      </trkpt>
      <trkpt lat="41.3034500" lon="0.1032500">
        <time>2021-05-08T05:08:00Z</time>
      </trkpt>
      <trkpt lat="41.3034700" lon="0.1033100">
        <time>2021-05-08T05:08:00Z</time>
      </trkpt>
      <trkpt lat="41.3035300" lon="0.1034100">
        <time>2021-05-08T05:08:00Z</time>
      </trkpt>
      <trkpt lat="41.3035600" lon="0.1034700">
        <time>2021-05-08T05:08:00Z</time>
      </trkpt>
      <trkpt lat="41.3036300" lon="0.1036900">
        <time>2021-05-08T05:08:00Z</time>
      </trkpt>
      <trkpt lat="41.3036800" lon="0.1037900">
        <time>2021-05-08T05:08:00Z</time>
      </trkpt>
      <trkpt lat="41.3037200" lon="0.1039300">
        <time>2021-05-08T05:08:00Z</time>
      </trkpt>
      <trkpt lat="41.3037900" lon="0.1041800">
        <time>2021-05-08T05:08:00Z</time>
      </trkpt>
      <trkpt lat="41.3038200" lon="0.1042900">
        <time>2021-05-08T05:08:00Z</time>
      </trkpt>
      <trkpt lat="41.3038600" lon="0.1044400">
        <time>2021-05-08T05:08:00Z</time>
      </trkpt>
      <trkpt lat="41.3039200" lon="0.1046000">
        <time>2021-05-08T05:08:00Z</time>
      </trkpt>
      <trkpt lat="41.3039300" lon="0.1046700">
        <time>2021-05-08T05:08:00Z</time>
      </trkpt>
      <trkpt lat="41.3039400" lon="0.1047500">
        <time>2021-05-08T05:08:00Z</time>
      </trkpt>
      <trkpt lat="41.3039900" lon="0.1048600">
        <time>2021-05-08T05:08:00Z</time>
      </trkpt>
      <trkpt lat="41.3040100" lon="0.1049900">
        <time>2021-05-08T05:08:00Z</time>
      </trkpt>
      <trkpt lat="41.3040300" lon="0.1050800">
        <time>2021-05-08T05:08:00Z</time>
      </trkpt>
      <trkpt lat="41.3041000" lon="0.1052100">
        <time>2021-05-08T05:08:00Z</time>
      </trkpt>
      <trkpt lat="41.3041400" lon="0.1053600">
        <time>2021-05-08T05:08:00Z</time>
      </trkpt>
      <trkpt lat="41.3041800" lon="0.1055100">
        <time>2021-05-08T05:08:00Z</time>
      </trkpt>
      <trkpt lat="41.3042100" lon="0.1055700">
        <time>2021-05-08T05:08:00Z</time>
      </trkpt>
      <trkpt lat="41.3042600" lon="0.1056800">
        <time>2021-05-08T05:08:00Z</time>
      </trkpt>
      <trkpt lat="41.3042900" lon="0.1058000">
        <time>2021-05-08T05:08:00Z</time>
      </trkpt>
      <trkpt lat="41.3043100" lon="0.1059800">
        <time>2021-05-08T05:08:00Z</time>
      </trkpt>
      <trkpt lat="41.3043400" lon="0.1061200">
        <time>2021-05-08T05:08:00Z</time>
      </trkpt>
      <trkpt lat="41.3043600" lon="0.1063300">
        <time>2021-05-08T05:08:00Z</time>
      </trkpt>
      <trkpt lat="41.3043500" lon="0.1065900">
        <time>2021-05-08T05:08:00Z</time>
      </trkpt>
      <trkpt lat="41.3043400" lon="0.1068300">
        <time>2021-05-08T05:08:00Z</time>
      </trkpt>
      <trkpt lat="41.3043100" lon="0.1071000">
        <time>2021-05-08T05:08:00Z</time>
      </trkpt>
      <trkpt lat="41.3042900" lon="0.1072400">
        <time>2021-05-08T05:08:00Z</time>
      </trkpt>
      <trkpt lat="41.3042500" lon="0.1075000">
        <time>2021-05-08T05:08:00Z</time>
      </trkpt>
      <trkpt lat="41.3042000" lon="0.1078800">
        <time>2021-05-08T05:08:00Z</time>
      </trkpt>
      <trkpt lat="41.3041200" lon="0.1083900">
        <time>2021-05-08T05:08:00Z</time>
      </trkpt>
      <trkpt lat="41.3040800" lon="0.1087700">
        <time>2021-05-08T05:08:00Z</time>
      </trkpt>
      <trkpt lat="41.3040500" lon="0.1088200">
        <time>2021-05-08T05:08:00Z</time>
      </trkpt>
      <trkpt lat="41.3040400" lon="0.1088600">
        <time>2021-05-08T05:08:00Z</time>
      </trkpt>
      <trkpt lat="41.3040300" lon="0.1089700">
        <time>2021-05-08T05:08:00Z</time>
      </trkpt>
      <trkpt lat="41.3040200" lon="0.1091400">
        <time>2021-05-08T05:08:00Z</time>
      </trkpt>
      <trkpt lat="41.3040000" lon="0.1092200">
        <time>2021-05-08T05:08:00Z</time>
      </trkpt>
      <trkpt lat="41.3039500" lon="0.1093600">
        <time>2021-05-08T05:08:00Z</time>
      </trkpt>
      <trkpt lat="41.3039600" lon="0.1094100">
        <time>2021-05-08T05:08:00Z</time>
      </trkpt>
      <trkpt lat="41.3039700" lon="0.1095400">
        <time>2021-05-08T05:08:00Z</time>
      </trkpt>
      <trkpt lat="41.3039700" lon="0.1095800">
        <time>2021-05-08T05:08:00Z</time>
      </trkpt>
      <trkpt lat="41.3039500" lon="0.1097300">
        <time>2021-05-08T05:08:00Z</time>
      </trkpt>
      <trkpt lat="41.3039200" lon="0.1099700">
        <time>2021-05-08T05:08:00Z</time>
      </trkpt>
      <trkpt lat="41.3039000" lon="0.1101700">
        <time>2021-05-08T05:08:00Z</time>
      </trkpt>
      <trkpt lat="41.3038600" lon="0.1104400">
        <time>2021-05-08T05:08:00Z</time>
      </trkpt>
      <trkpt lat="41.3038400" lon="0.1107400">
        <time>2021-05-08T05:08:00Z</time>
      </trkpt>
      <trkpt lat="41.3038100" lon="0.1109700">
        <time>2021-05-08T05:08:00Z</time>
      </trkpt>
      <trkpt lat="41.3037600" lon="0.1113300">
        <time>2021-05-08T05:08:00Z</time>
      </trkpt>
      <trkpt lat="41.3037500" lon="0.1114100">
        <time>2021-05-08T05:08:00Z</time>
      </trkpt>
      <trkpt lat="41.3039100" lon="0.1114100">
        <time>2021-05-08T05:08:00Z</time>
      </trkpt>
      <trkpt lat="41.3039800" lon="0.1114000">
        <time>2021-05-08T05:08:00Z</time>
      </trkpt>
      <trkpt lat="41.3041500" lon="0.1113700">
        <time>2021-05-08T05:08:00Z</time>
      </trkpt>
      <trkpt lat="41.3043000" lon="0.1113400">
        <time>2021-05-08T05:08:00Z</time>
      </trkpt>
      <trkpt lat="41.3044100" lon="0.1112900">
        <time>2021-05-08T05:08:00Z</time>
      </trkpt>
      <trkpt lat="41.3045300" lon="0.1112100">
        <time>2021-05-08T05:08:00Z</time>
      </trkpt>
      <trkpt lat="41.3045700" lon="0.1112300">
        <time>2021-05-08T05:08:00Z</time>
      </trkpt>
      <trkpt lat="41.3046000" lon="0.1112700">
        <time>2021-05-08T05:08:00Z</time>
      </trkpt>
      <trkpt lat="41.3047000" lon="0.1112300">
        <time>2021-05-08T05:08:00Z</time>
      </trkpt>
      <trkpt lat="41.3047800" lon="0.1111700">
        <time>2021-05-08T05:08:00Z</time>
      </trkpt>
      <trkpt lat="41.3048400" lon="0.1111900">
        <time>2021-05-08T05:08:00Z</time>
      </trkpt>
      <trkpt lat="41.3048400" lon="0.1112400">
        <time>2021-05-08T05:08:00Z</time>
      </trkpt>
      <trkpt lat="41.3048100" lon="0.1113200">
        <time>2021-05-08T05:08:00Z</time>
      </trkpt>
      <trkpt lat="41.3047700" lon="0.1114700">
        <time>2021-05-08T05:08:00Z</time>
      </trkpt>
      <trkpt lat="41.3047800" lon="0.1115600">
        <time>2021-05-08T05:08:00Z</time>
      </trkpt>
      <trkpt lat="41.3048300" lon="0.1116600">
        <time>2021-05-08T05:08:00Z</time>
      </trkpt>
      <trkpt lat="41.3048700" lon="0.1117300">
        <time>2021-05-08T05:08:00Z</time>
      </trkpt>
      <trkpt lat="41.3049300" lon="0.1119100">
        <time>2021-05-08T05:08:00Z</time>
      </trkpt>
      <trkpt lat="41.3050100" lon="0.1121000">
        <time>2021-05-08T05:08:00Z</time>
      </trkpt>
      <trkpt lat="41.3050200" lon="0.1121800">
        <time>2021-05-08T05:08:00Z</time>
      </trkpt>
      <trkpt lat="41.3050100" lon="0.1122900">
        <time>2021-05-08T05:08:00Z</time>
      </trkpt>
      <trkpt lat="41.3050100" lon="0.1124500">
        <time>2021-05-08T05:08:00Z</time>
      </trkpt>
      <trkpt lat="41.3049900" lon="0.1126300">
        <time>2021-05-08T05:08:00Z</time>
      </trkpt>
      <trkpt lat="41.3049900" lon="0.1127600">
        <time>2021-05-08T05:08:00Z</time>
      </trkpt>
      <trkpt lat="41.3049700" lon="0.1128600">
        <time>2021-05-08T05:08:00Z</time>
      </trkpt>
      <trkpt lat="41.3049500" lon="0.1129400">
        <time>2021-05-08T05:08:00Z</time>
      </trkpt>
      <trkpt lat="41.3048900" lon="0.1130400">
        <time>2021-05-08T05:08:00Z</time>
      </trkpt>
      <trkpt lat="41.3048600" lon="0.1131400">
        <time>2021-05-08T05:08:00Z</time>
      </trkpt>
      <trkpt lat="41.3048100" lon="0.1133300">
        <time>2021-05-08T05:08:00Z</time>
      </trkpt>
      <trkpt lat="41.3047800" lon="0.1134500">
        <time>2021-05-08T05:08:00Z</time>
      </trkpt>
      <trkpt lat="41.3048300" lon="0.1136400">
        <time>2021-05-08T05:08:00Z</time>
      </trkpt>
      <trkpt lat="41.3048800" lon="0.1138600">
        <time>2021-05-08T05:08:00Z</time>
      </trkpt>
      <trkpt lat="41.3048600" lon="0.1139000">
        <time>2021-05-08T05:08:00Z</time>
      </trkpt>
      <trkpt lat="41.3047100" lon="0.1140000">
        <time>2021-05-08T05:08:00Z</time>
      </trkpt>
      <trkpt lat="41.3046200" lon="0.1140600">
        <time>2021-05-08T05:08:00Z</time>
      </trkpt>
      <trkpt lat="41.3045800" lon="0.1142000">
        <time>2021-05-08T05:08:00Z</time>
      </trkpt>
      <trkpt lat="41.3045300" lon="0.1142500">
        <time>2021-05-08T05:08:00Z</time>
      </trkpt>
      <trkpt lat="41.3044800" lon="0.1142900">
        <time>2021-05-08T05:08:00Z</time>
      </trkpt>
      <trkpt lat="41.3044300" lon="0.1143900">
        <time>2021-05-08T05:08:00Z</time>
      </trkpt>
      <trkpt lat="41.3043900" lon="0.1145000">
        <time>2021-05-08T05:08:00Z</time>
      </trkpt>
      <trkpt lat="41.3043300" lon="0.1146300">
        <time>2021-05-08T05:08:00Z</time>
      </trkpt>
      <trkpt lat="41.3043000" lon="0.1146800">
        <time>2021-05-08T05:08:00Z</time>
      </trkpt>
      <trkpt lat="41.3042600" lon="0.1146900">
        <time>2021-05-08T05:08:00Z</time>
      </trkpt>
      <trkpt lat="41.3041700" lon="0.1147200">
        <time>2021-05-08T05:08:00Z</time>
      </trkpt>
      <trkpt lat="41.3041100" lon="0.1147400">
        <time>2021-05-08T05:08:00Z</time>
      </trkpt>
      <trkpt lat="41.3040600" lon="0.1147600">
        <time>2021-05-08T05:08:00Z</time>
      </trkpt>
      <trkpt lat="41.3040200" lon="0.1148800">
        <time>2021-05-08T05:08:00Z</time>
      </trkpt>
      <trkpt lat="41.3040000" lon="0.1150200">
        <time>2021-05-08T05:08:00Z</time>
      </trkpt>
      <trkpt lat="41.3039500" lon="0.1151100">
        <time>2021-05-08T05:08:00Z</time>
      </trkpt>
      <trkpt lat="41.3039200" lon="0.1151700">
        <time>2021-05-08T05:08:00Z</time>
      </trkpt>
      <trkpt lat="41.3039100" lon="0.1153100">
        <time>2021-05-08T05:08:00Z</time>
      </trkpt>
      <trkpt lat="41.3039500" lon="0.1153400">
        <time>2021-05-08T05:08:00Z</time>
      </trkpt>
      <trkpt lat="41.3040200" lon="0.1153000">
        <time>2021-05-08T05:08:00Z</time>
      </trkpt>
      <trkpt lat="41.3040800" lon="0.1152300">
        <time>2021-05-08T05:08:00Z</time>
      </trkpt>
      <trkpt lat="41.3041500" lon="0.1151900">
        <time>2021-05-08T05:08:00Z</time>
      </trkpt>
      <trkpt lat="41.3042600" lon="0.1151400">
        <time>2021-05-08T05:08:00Z</time>
      </trkpt>
      <trkpt lat="41.3043500" lon="0.1151200">
        <time>2021-05-08T05:08:00Z</time>
      </trkpt>
      <trkpt lat="41.3044800" lon="0.1151000">
        <time>2021-05-08T05:08:00Z</time>
      </trkpt>
      <trkpt lat="41.3045600" lon="0.1151000">
        <time>2021-05-08T05:08:00Z</time>
      </trkpt>
      <trkpt lat="41.3046500" lon="0.1151000">
        <time>2021-05-08T05:08:00Z</time>
      </trkpt>
      <trkpt lat="41.3046900" lon="0.1151900">
        <time>2021-05-08T05:08:00Z</time>
      </trkpt>
      <trkpt lat="41.3047000" lon="0.1152200">
        <time>2021-05-08T05:08:00Z</time>
      </trkpt>
      <trkpt lat="41.3046800" lon="0.1153400">
        <time>2021-05-08T05:08:00Z</time>
      </trkpt>
      <trkpt lat="41.3046700" lon="0.1154700">
        <time>2021-05-08T05:08:00Z</time>
      </trkpt>
      <trkpt lat="41.3046900" lon="0.1156900">
        <time>2021-05-08T05:08:00Z</time>
      </trkpt>
      <trkpt lat="41.3047000" lon="0.1157200">
        <time>2021-05-08T05:08:00Z</time>
      </trkpt>
      <trkpt lat="41.3047400" lon="0.1157500">
        <time>2021-05-08T05:08:00Z</time>
      </trkpt>
      <trkpt lat="41.3048200" lon="0.1157700">
        <time>2021-05-08T05:08:00Z</time>
      </trkpt>
      <trkpt lat="41.3048500" lon="0.1158000">
        <time>2021-05-08T05:08:00Z</time>
      </trkpt>
      <trkpt lat="41.3048600" lon="0.1158500">
        <time>2021-05-08T05:08:00Z</time>
      </trkpt>
      <trkpt lat="41.3048800" lon="0.1159700">
        <time>2021-05-08T05:08:00Z</time>
      </trkpt>
      <trkpt lat="41.3049400" lon="0.1160100">
        <time>2021-05-08T05:08:00Z</time>
      </trkpt>
      <trkpt lat="41.3050100" lon="0.1160000">
        <time>2021-05-08T05:08:00Z</time>
      </trkpt>
      <trkpt lat="41.3050700" lon="0.1159500">
        <time>2021-05-08T05:08:00Z</time>
      </trkpt>
      <trkpt lat="41.3051000" lon="0.1158500">
        <time>2021-05-08T05:08:00Z</time>
      </trkpt>
      <trkpt lat="41.3051700" lon="0.1157400">
        <time>2021-05-08T05:08:00Z</time>
      </trkpt>
      <trkpt lat="41.3052400" lon="0.1156600">
        <time>2021-05-08T05:08:00Z</time>
      </trkpt>
      <trkpt lat="41.3053200" lon="0.1156400">
        <time>2021-05-08T05:08:00Z</time>
      </trkpt>
      <trkpt lat="41.3053800" lon="0.1156300">
        <time>2021-05-08T05:08:00Z</time>
      </trkpt>
      <trkpt lat="41.3054200" lon="0.1156500">
        <time>2021-05-08T05:08:00Z</time>
      </trkpt>
      <trkpt lat="41.3054400" lon="0.1157500">
        <time>2021-05-08T05:08:00Z</time>
      </trkpt>
      <trkpt lat="41.3054800" lon="0.1158800">
        <time>2021-05-08T05:08:00Z</time>
      </trkpt>
      <trkpt lat="41.3055200" lon="0.1159900">
        <time>2021-05-08T05:08:00Z</time>
      </trkpt>
      <trkpt lat="41.3056200" lon="0.1160800">
        <time>2021-05-08T05:08:00Z</time>
      </trkpt>
      <trkpt lat="41.3056800" lon="0.1161000">
        <time>2021-05-08T05:08:00Z</time>
      </trkpt>
      <trkpt lat="41.3057300" lon="0.1161200">
        <time>2021-05-08T05:08:00Z</time>
      </trkpt>
      <trkpt lat="41.3057900" lon="0.1160700">
        <time>2021-05-08T05:08:00Z</time>
      </trkpt>
      <trkpt lat="41.3058300" lon="0.1159800">
        <time>2021-05-08T05:08:00Z</time>
      </trkpt>
      <trkpt lat="41.3058200" lon="0.1158600">
        <time>2021-05-08T05:08:00Z</time>
      </trkpt>
      <trkpt lat="41.3058300" lon="0.1157000">
        <time>2021-05-08T05:08:00Z</time>
      </trkpt>
      <trkpt lat="41.3058400" lon="0.1155900">
        <time>2021-05-08T05:08:00Z</time>
      </trkpt>
      <trkpt lat="41.3058700" lon="0.1155100">
        <time>2021-05-08T05:08:00Z</time>
      </trkpt>
      <trkpt lat="41.3059300" lon="0.1154500">
        <time>2021-05-08T05:08:00Z</time>
      </trkpt>
      <trkpt lat="41.3059900" lon="0.1153400">
        <time>2021-05-08T05:08:00Z</time>
      </trkpt>
      <trkpt lat="41.3060200" lon="0.1152700">
        <time>2021-05-08T05:08:00Z</time>
      </trkpt>
      <trkpt lat="41.3060600" lon="0.1152000">
        <time>2021-05-08T05:08:00Z</time>
      </trkpt>
      <trkpt lat="41.3061400" lon="0.1151200">
        <time>2021-05-08T05:08:00Z</time>
      </trkpt>
      <trkpt lat="41.3061900" lon="0.1149800">
        <time>2021-05-08T05:08:00Z</time>
      </trkpt>
      <trkpt lat="41.3061800" lon="0.1149100">
        <time>2021-05-08T05:08:00Z</time>
      </trkpt>
      <trkpt lat="41.3062000" lon="0.1148800">
        <time>2021-05-08T05:08:00Z</time>
      </trkpt>
      <trkpt lat="41.3062600" lon="0.1148600">
        <time>2021-05-08T05:08:00Z</time>
      </trkpt>
      <trkpt lat="41.3063100" lon="0.1148300">
        <time>2021-05-08T05:08:00Z</time>
      </trkpt>
      <trkpt lat="41.3063800" lon="0.1148100">
        <time>2021-05-08T05:08:00Z</time>
      </trkpt>
      <trkpt lat="41.3064300" lon="0.1148600">
        <time>2021-05-08T05:08:00Z</time>
      </trkpt>
      <trkpt lat="41.3065200" lon="0.1149600">
        <time>2021-05-08T05:08:00Z</time>
      </trkpt>
      <trkpt lat="41.3065600" lon="0.1150200">
        <time>2021-05-08T05:08:00Z</time>
      </trkpt>
      <trkpt lat="41.3065700" lon="0.1151300">
        <time>2021-05-08T05:08:00Z</time>
      </trkpt>
      <trkpt lat="41.3065900" lon="0.1152100">
        <time>2021-05-08T05:08:00Z</time>
      </trkpt>
      <trkpt lat="41.3066400" lon="0.1153200">
        <time>2021-05-08T05:08:00Z</time>
      </trkpt>
      <trkpt lat="41.3066600" lon="0.1154000">
        <time>2021-05-08T05:08:00Z</time>
      </trkpt>
      <trkpt lat="41.3066700" lon="0.1155700">
        <time>2021-05-08T05:08:00Z</time>
      </trkpt>
      <trkpt lat="41.3066600" lon="0.1157800">
        <time>2021-05-08T05:08:00Z</time>
      </trkpt>
      <trkpt lat="41.3066500" lon="0.1159600">
        <time>2021-05-08T05:08:00Z</time>
      </trkpt>
      <trkpt lat="41.3066900" lon="0.1160700">
        <time>2021-05-08T05:08:00Z</time>
      </trkpt>
      <trkpt lat="41.3067600" lon="0.1161200">
        <time>2021-05-08T05:08:00Z</time>
      </trkpt>
      <trkpt lat="41.3068100" lon="0.1161900">
        <time>2021-05-08T05:08:00Z</time>
      </trkpt>
      <trkpt lat="41.3068100" lon="0.1162700">
        <time>2021-05-08T05:08:00Z</time>
      </trkpt>
      <trkpt lat="41.3067500" lon="0.1164100">
        <time>2021-05-08T05:08:00Z</time>
      </trkpt>
      <trkpt lat="41.3067200" lon="0.1165400">
        <time>2021-05-08T05:08:00Z</time>
      </trkpt>
      <trkpt lat="41.3067100" lon="0.1166900">
        <time>2021-05-08T05:08:00Z</time>
      </trkpt>
      <trkpt lat="41.3067000" lon="0.1167500">
        <time>2021-05-08T05:08:00Z</time>
      </trkpt>
      <trkpt lat="41.3066500" lon="0.1168400">
        <time>2021-05-08T05:08:00Z</time>
      </trkpt>
      <trkpt lat="41.3066200" lon="0.1169500">
        <time>2021-05-08T05:08:00Z</time>
      </trkpt>
      <trkpt lat="41.3065800" lon="0.1170800">
        <time>2021-05-08T05:08:00Z</time>
      </trkpt>
      <trkpt lat="41.3065400" lon="0.1171800">
        <time>2021-05-08T05:08:00Z</time>
      </trkpt>
      <trkpt lat="41.3065500" lon="0.1173000">
        <time>2021-05-08T05:08:00Z</time>
      </trkpt>
      <trkpt lat="41.3065300" lon="0.1175000">
        <time>2021-05-08T05:08:00Z</time>
      </trkpt>
      <trkpt lat="41.3065200" lon="0.1176400">
        <time>2021-05-08T05:08:00Z</time>
      </trkpt>
      <trkpt lat="41.3064600" lon="0.1177700">
        <time>2021-05-08T05:08:00Z</time>
      </trkpt>
      <trkpt lat="41.3064700" lon="0.1178300">
        <time>2021-05-08T05:08:00Z</time>
      </trkpt>
      <trkpt lat="41.3065100" lon="0.1178900">
        <time>2021-05-08T05:08:00Z</time>
      </trkpt>
      <trkpt lat="41.3064900" lon="0.1179500">
        <time>2021-05-08T05:08:00Z</time>
      </trkpt>
      <trkpt lat="41.3064200" lon="0.1181000">
        <time>2021-05-08T05:08:00Z</time>
      </trkpt>
      <trkpt lat="41.3063700" lon="0.1181300">
        <time>2021-05-08T05:08:00Z</time>
      </trkpt>
      <trkpt lat="41.3063100" lon="0.1182000">
        <time>2021-05-08T05:08:00Z</time>
      </trkpt>
      <trkpt lat="41.3062400" lon="0.1183000">
        <time>2021-05-08T05:08:00Z</time>
      </trkpt>
      <trkpt lat="41.3061600" lon="0.1184000">
        <time>2021-05-08T05:08:00Z</time>
      </trkpt>
      <trkpt lat="41.3061400" lon="0.1185000">
        <time>2021-05-08T05:08:00Z</time>
      </trkpt>
      <trkpt lat="41.3061600" lon="0.1185600">
        <time>2021-05-08T05:08:00Z</time>
      </trkpt>
      <trkpt lat="41.3062600" lon="0.1186200">
        <time>2021-05-08T05:08:00Z</time>
      </trkpt>
      <trkpt lat="41.3063400" lon="0.1186700">
        <time>2021-05-08T05:08:00Z</time>
      </trkpt>
      <trkpt lat="41.3063700" lon="0.1187300">
        <time>2021-05-08T05:08:00Z</time>
      </trkpt>
      <trkpt lat="41.3064300" lon="0.1188400">
        <time>2021-05-08T05:08:00Z</time>
      </trkpt>
      <trkpt lat="41.3064300" lon="0.1189400">
        <time>2021-05-08T05:08:00Z</time>
      </trkpt>
      <trkpt lat="41.3063900" lon="0.1190100">
        <time>2021-05-08T05:08:00Z</time>
      </trkpt>
      <trkpt lat="41.3063400" lon="0.1191400">
        <time>2021-05-08T05:08:00Z</time>
      </trkpt>
      <trkpt lat="41.3063400" lon="0.1192600">
        <time>2021-05-08T05:08:00Z</time>
      </trkpt>
      <trkpt lat="41.3063500" lon="0.1194600">
        <time>2021-05-08T05:08:00Z</time>
      </trkpt>
      <trkpt lat="41.3063800" lon="0.1195500">
        <time>2021-05-08T05:08:00Z</time>
      </trkpt>
      <trkpt lat="41.3064000" lon="0.1196000">
        <time>2021-05-08T05:08:00Z</time>
      </trkpt>
      <trkpt lat="41.3063700" lon="0.1196700">
        <time>2021-05-08T05:08:00Z</time>
      </trkpt>
      <trkpt lat="41.3063300" lon="0.1198000">
        <time>2021-05-08T05:08:00Z</time>
      </trkpt>
      <trkpt lat="41.3063300" lon="0.1198900">
        <time>2021-05-08T05:08:00Z</time>
      </trkpt>
      <trkpt lat="41.3064400" lon="0.1200300">
        <time>2021-05-08T05:08:00Z</time>
      </trkpt>
      <trkpt lat="41.3065000" lon="0.1200700">
        <time>2021-05-08T05:08:00Z</time>
      </trkpt>
      <trkpt lat="41.3065600" lon="0.1200600">
        <time>2021-05-08T05:08:00Z</time>
      </trkpt>
      <trkpt lat="41.3066600" lon="0.1200200">
        <time>2021-05-08T05:08:00Z</time>
      </trkpt>
      <trkpt lat="41.3067200" lon="0.1200300">
        <time>2021-05-08T05:08:00Z</time>
      </trkpt>
      <trkpt lat="41.3067800" lon="0.1200800">
        <time>2021-05-08T05:08:00Z</time>
      </trkpt>
      <trkpt lat="41.3068500" lon="0.1201900">
        <time>2021-05-08T05:08:00Z</time>
      </trkpt>
      <trkpt lat="41.3069100" lon="0.1203200">
        <time>2021-05-08T05:08:00Z</time>
      </trkpt>
      <trkpt lat="41.3069600" lon="0.1204200">
        <time>2021-05-08T05:08:00Z</time>
      </trkpt>
      <trkpt lat="41.3069600" lon="0.1204700">
        <time>2021-05-08T05:08:00Z</time>
      </trkpt>
      <trkpt lat="41.3068700" lon="0.1205600">
        <time>2021-05-08T05:08:00Z</time>
      </trkpt>
      <trkpt lat="41.3067700" lon="0.1207300">
        <time>2021-05-08T05:08:00Z</time>
      </trkpt>
      <trkpt lat="41.3067400" lon="0.1207800">
        <time>2021-05-08T05:08:00Z</time>
      </trkpt>
      <trkpt lat="41.3067900" lon="0.1208400">
        <time>2021-05-08T05:08:00Z</time>
      </trkpt>
      <trkpt lat="41.3068300" lon="0.1210000">
        <time>2021-05-08T05:08:00Z</time>
      </trkpt>
      <trkpt lat="41.3069200" lon="0.1212300">
        <time>2021-05-08T05:08:00Z</time>
      </trkpt>
      <trkpt lat="41.3069200" lon="0.1213200">
        <time>2021-05-08T05:08:00Z</time>
      </trkpt>
      <trkpt lat="41.3069500" lon="0.1214200">
        <time>2021-05-08T05:08:00Z</time>
      </trkpt>
      <trkpt lat="41.3069900" lon="0.1215200">
        <time>2021-05-08T05:08:00Z</time>
      </trkpt>
      <trkpt lat="41.3070300" lon="0.1216200">
        <time>2021-05-08T05:08:00Z</time>
      </trkpt>
      <trkpt lat="41.3070200" lon="0.1217300">
        <time>2021-05-08T05:08:00Z</time>
      </trkpt>
      <trkpt lat="41.3070200" lon="0.1218300">
        <time>2021-05-08T05:08:00Z</time>
      </trkpt>
      <trkpt lat="41.3070200" lon="0.1219500">
        <time>2021-05-08T05:08:00Z</time>
      </trkpt>
      <trkpt lat="41.3070200" lon="0.1221000">
        <time>2021-05-08T05:08:00Z</time>
      </trkpt>
      <trkpt lat="41.3070200" lon="0.1221900">
        <time>2021-05-08T05:08:00Z</time>
      </trkpt>
      <trkpt lat="41.3070500" lon="0.1223600">
        <time>2021-05-08T05:08:00Z</time>
      </trkpt>
      <trkpt lat="41.3071500" lon="0.1225100">
        <time>2021-05-08T05:08:00Z</time>
      </trkpt>
      <trkpt lat="41.3072200" lon="0.1225800">
        <time>2021-05-08T05:08:00Z</time>
      </trkpt>
      <trkpt lat="41.3073000" lon="0.1226800">
        <time>2021-05-08T05:08:00Z</time>
      </trkpt>
      <trkpt lat="41.3073800" lon="0.1227700">
        <time>2021-05-08T05:08:00Z</time>
      </trkpt>
      <trkpt lat="41.3076700" lon="0.1230400">
        <time>2021-05-08T05:08:00Z</time>
      </trkpt>
      <trkpt lat="41.3079100" lon="0.1233600">
        <time>2021-05-08T05:08:00Z</time>
      </trkpt>
      <trkpt lat="41.3080100" lon="0.1234700">
        <time>2021-05-08T05:08:00Z</time>
      </trkpt>
      <trkpt lat="41.3083300" lon="0.1237000">
        <time>2021-05-08T05:08:00Z</time>
      </trkpt>
      <trkpt lat="41.3085200" lon="0.1238500">
        <time>2021-05-08T05:08:00Z</time>
      </trkpt>
      <trkpt lat="41.3088900" lon="0.1241600">
        <time>2021-05-08T05:08:00Z</time>
      </trkpt>
      <trkpt lat="41.3089900" lon="0.1241900">
        <time>2021-05-08T05:08:00Z</time>
      </trkpt>
      <trkpt lat="41.3091000" lon="0.1241400">
        <time>2021-05-08T05:08:00Z</time>
      </trkpt>
      <trkpt lat="41.3091400" lon="0.1240800">
        <time>2021-05-08T05:08:00Z</time>
      </trkpt>
      <trkpt lat="41.3091500" lon="0.1240300">
        <time>2021-05-08T05:08:00Z</time>
      </trkpt>
      <trkpt lat="41.3091500" lon="0.1239300">
        <time>2021-05-08T05:08:00Z</time>
      </trkpt>
      <trkpt lat="41.3091600" lon="0.1237900">
        <time>2021-05-08T05:08:00Z</time>
      </trkpt>
      <trkpt lat="41.3092500" lon="0.1236300">
        <time>2021-05-08T05:08:00Z</time>
      </trkpt>
      <trkpt lat="41.3094200" lon="0.1235000">
        <time>2021-05-08T05:08:00Z</time>
      </trkpt>
      <trkpt lat="41.3097800" lon="0.1233500">
        <time>2021-05-08T05:08:00Z</time>
      </trkpt>
      <trkpt lat="41.3098600" lon="0.1232300">
        <time>2021-05-08T05:08:00Z</time>
      </trkpt>
      <trkpt lat="41.3099200" lon="0.1231800">
        <time>2021-05-08T05:08:00Z</time>
      </trkpt>
      <trkpt lat="41.3099600" lon="0.1231800">
        <time>2021-05-08T05:08:00Z</time>
      </trkpt>
      <trkpt lat="41.3100500" lon="0.1232700">
        <time>2021-05-08T05:08:00Z</time>
      </trkpt>
      <trkpt lat="41.3101700" lon="0.1235400">
        <time>2021-05-08T05:08:00Z</time>
      </trkpt>
      <trkpt lat="41.3102200" lon="0.1238300">
        <time>2021-05-08T05:08:00Z</time>
      </trkpt>
      <trkpt lat="41.3103000" lon="0.1239800">
        <time>2021-05-08T05:08:00Z</time>
      </trkpt>
      <trkpt lat="41.3103600" lon="0.1240500">
        <time>2021-05-08T05:08:00Z</time>
      </trkpt>
      <trkpt lat="41.3104300" lon="0.1240900">
        <time>2021-05-08T05:08:00Z</time>
      </trkpt>
      <trkpt lat="41.3104900" lon="0.1241200">
        <time>2021-05-08T05:08:00Z</time>
      </trkpt>
      <trkpt lat="41.3106300" lon="0.1241600">
        <time>2021-05-08T05:08:00Z</time>
      </trkpt>
      <trkpt lat="41.3107400" lon="0.1241400">
        <time>2021-05-08T05:08:00Z</time>
      </trkpt>
      <trkpt lat="41.3108600" lon="0.1240900">
        <time>2021-05-08T05:08:00Z</time>
      </trkpt>
      <trkpt lat="41.3109900" lon="0.1241100">
        <time>2021-05-08T05:08:00Z</time>
      </trkpt>
      <trkpt lat="41.3111900" lon="0.1241200">
        <time>2021-05-08T05:08:00Z</time>
      </trkpt>
      <trkpt lat="41.3114000" lon="0.1241100">
        <time>2021-05-08T05:08:00Z</time>
      </trkpt>
      <trkpt lat="41.3115000" lon="0.1241400">
        <time>2021-05-08T05:08:00Z</time>
      </trkpt>
      <trkpt lat="41.3115700" lon="0.1242000">
        <time>2021-05-08T05:08:00Z</time>
      </trkpt>
      <trkpt lat="41.3116700" lon="0.1242800">
        <time>2021-05-08T05:08:00Z</time>
      </trkpt>
      <trkpt lat="41.3117100" lon="0.1243300">
        <time>2021-05-08T05:08:00Z</time>
      </trkpt>
      <trkpt lat="41.3117500" lon="0.1243300">
        <time>2021-05-08T05:08:00Z</time>
      </trkpt>
      <trkpt lat="41.3118600" lon="0.1243200">
        <time>2021-05-08T05:08:00Z</time>
      </trkpt>
      <trkpt lat="41.3120300" lon="0.1241400">
        <time>2021-05-08T05:08:00Z</time>
      </trkpt>
      <trkpt lat="41.3121400" lon="0.1240500">
        <time>2021-05-08T05:08:00Z</time>
      </trkpt>
      <trkpt lat="41.3122200" lon="0.1240000">
        <time>2021-05-08T05:08:00Z</time>
      </trkpt>
      <trkpt lat="41.3122700" lon="0.1239200">
        <time>2021-05-08T05:08:00Z</time>
      </trkpt>
      <trkpt lat="41.3123300" lon="0.1237300">
        <time>2021-05-08T05:08:00Z</time>
      </trkpt>
      <trkpt lat="41.3124000" lon="0.1236200">
        <time>2021-05-08T05:08:00Z</time>
      </trkpt>
      <trkpt lat="41.3126200" lon="0.1234900">
        <time>2021-05-08T05:08:00Z</time>
      </trkpt>
      <trkpt lat="41.3126800" lon="0.1234500">
        <time>2021-05-08T05:08:00Z</time>
      </trkpt>
      <trkpt lat="41.3127200" lon="0.1233700">
        <time>2021-05-08T05:08:00Z</time>
      </trkpt>
      <trkpt lat="41.3127100" lon="0.1232100">
        <time>2021-05-08T05:08:00Z</time>
      </trkpt>
      <trkpt lat="41.3127100" lon="0.1229700">
        <time>2021-05-08T05:08:00Z</time>
      </trkpt>
      <trkpt lat="41.3127300" lon="0.1228700">
        <time>2021-05-08T05:08:00Z</time>
      </trkpt>
      <trkpt lat="41.3127900" lon="0.1228000">
        <time>2021-05-08T05:08:00Z</time>
      </trkpt>
      <trkpt lat="41.3128500" lon="0.1227900">
        <time>2021-05-08T05:08:00Z</time>
      </trkpt>
      <trkpt lat="41.3129500" lon="0.1228800">
        <time>2021-05-08T05:08:00Z</time>
      </trkpt>
      <trkpt lat="41.3130400" lon="0.1229300">
        <time>2021-05-08T05:08:00Z</time>
      </trkpt>
      <trkpt lat="41.3131300" lon="0.1229600">
        <time>2021-05-08T05:08:00Z</time>
      </trkpt>
      <trkpt lat="41.3132200" lon="0.1230000">
        <time>2021-05-08T05:08:00Z</time>
      </trkpt>
      <trkpt lat="41.3133600" lon="0.1229500">
        <time>2021-05-08T05:08:00Z</time>
      </trkpt>
      <trkpt lat="41.3134300" lon="0.1228500">
        <time>2021-05-08T05:08:00Z</time>
      </trkpt>
      <trkpt lat="41.3135000" lon="0.1225700">
        <time>2021-05-08T05:08:00Z</time>
      </trkpt>
      <trkpt lat="41.3135400" lon="0.1224300">
        <time>2021-05-08T05:08:00Z</time>
      </trkpt>
      <trkpt lat="41.3136200" lon="0.1223300">
        <time>2021-05-08T05:08:00Z</time>
      </trkpt>
      <trkpt lat="41.3136900" lon="0.1223500">
        <time>2021-05-08T05:08:00Z</time>
      </trkpt>
      <trkpt lat="41.3137400" lon="0.1224300">
        <time>2021-05-08T05:08:00Z</time>
      </trkpt>
      <trkpt lat="41.3137500" lon="0.1225700">
        <time>2021-05-08T05:08:00Z</time>
      </trkpt>
      <trkpt lat="41.3137800" lon="0.1227600">
        <time>2021-05-08T05:08:00Z</time>
      </trkpt>
      <trkpt lat="41.3138600" lon="0.1229900">
        <time>2021-05-08T05:08:00Z</time>
      </trkpt>
      <trkpt lat="41.3139400" lon="0.1231700">
        <time>2021-05-08T05:08:00Z</time>
      </trkpt>
      <trkpt lat="41.3141100" lon="0.1233900">
        <time>2021-05-08T05:08:00Z</time>
      </trkpt>
      <trkpt lat="41.3141600" lon="0.1235600">
        <time>2021-05-08T05:08:00Z</time>
      </trkpt>
      <trkpt lat="41.3141700" lon="0.1237000">
        <time>2021-05-08T05:08:00Z</time>
      </trkpt>
      <trkpt lat="41.3142700" lon="0.1238100">
        <time>2021-05-08T05:08:00Z</time>
      </trkpt>
      <trkpt lat="41.3143400" lon="0.1238100">
        <time>2021-05-08T05:08:00Z</time>
      </trkpt>
      <trkpt lat="41.3144100" lon="0.1238100">
        <time>2021-05-08T05:08:00Z</time>
      </trkpt>
      <trkpt lat="41.3144700" lon="0.1238000">
        <time>2021-05-08T05:08:00Z</time>
      </trkpt>
      <trkpt lat="41.3145400" lon="0.1237800">
        <time>2021-05-08T05:08:00Z</time>
      </trkpt>
      <trkpt lat="41.3146100" lon="0.1237700">
        <time>2021-05-08T05:08:00Z</time>
      </trkpt>
      <trkpt lat="41.3146800" lon="0.1237500">
        <time>2021-05-08T05:08:00Z</time>
      </trkpt>
      <trkpt lat="41.3147400" lon="0.1237400">
        <time>2021-05-08T05:08:00Z</time>
      </trkpt>
      <trkpt lat="41.3148000" lon="0.1237300">
        <time>2021-05-08T05:08:00Z</time>
      </trkpt>
      <trkpt lat="41.3149000" lon="0.1237100">
        <time>2021-05-08T05:08:00Z</time>
      </trkpt>
      <trkpt lat="41.3149800" lon="0.1237400">
        <time>2021-05-08T05:08:00Z</time>
      </trkpt>
      <trkpt lat="41.3150900" lon="0.1237100">
        <time>2021-05-08T05:08:00Z</time>
      </trkpt>
      <trkpt lat="41.3152300" lon="0.1236300">
        <time>2021-05-08T05:08:00Z</time>
      </trkpt>
      <trkpt lat="41.3154100" lon="0.1234500">
        <time>2021-05-08T05:08:00Z</time>
      </trkpt>
      <trkpt lat="41.3156300" lon="0.1232500">
        <time>2021-05-08T05:08:00Z</time>
      </trkpt>
      <trkpt lat="41.3157800" lon="0.1230900">
        <time>2021-05-08T05:08:00Z</time>
      </trkpt>
      <trkpt lat="41.3158600" lon="0.1230600">
        <time>2021-05-08T05:08:00Z</time>
      </trkpt>
      <trkpt lat="41.3159800" lon="0.1230800">
        <time>2021-05-08T05:08:00Z</time>
      </trkpt>
      <trkpt lat="41.3160400" lon="0.1231000">
        <time>2021-05-08T05:08:00Z</time>
      </trkpt>
      <trkpt lat="41.3161100" lon="0.1231200">
        <time>2021-05-08T05:08:00Z</time>
      </trkpt>
      <trkpt lat="41.3161900" lon="0.1231400">
        <time>2021-05-08T05:08:00Z</time>
      </trkpt>
      <trkpt lat="41.3162600" lon="0.1231600">
        <time>2021-05-08T05:08:00Z</time>
      </trkpt>
      <trkpt lat="41.3163300" lon="0.1231800">
        <time>2021-05-08T05:08:00Z</time>
      </trkpt>
      <trkpt lat="41.3164000" lon="0.1232000">
        <time>2021-05-08T05:08:00Z</time>
      </trkpt>
      <trkpt lat="41.3164700" lon="0.1232100">
        <time>2021-05-08T05:08:00Z</time>
      </trkpt>
      <trkpt lat="41.3165400" lon="0.1232100">
        <time>2021-05-08T05:08:00Z</time>
      </trkpt>
      <trkpt lat="41.3166000" lon="0.1232200">
        <time>2021-05-08T05:08:00Z</time>
      </trkpt>
      <trkpt lat="41.3166700" lon="0.1232200">
        <time>2021-05-08T05:08:00Z</time>
      </trkpt>
      <trkpt lat="41.3167800" lon="0.1232200">
        <time>2021-05-08T05:08:00Z</time>
      </trkpt>
      <trkpt lat="41.3168600" lon="0.1232200">
        <time>2021-05-08T05:08:00Z</time>
      </trkpt>
      <trkpt lat="41.3169100" lon="0.1232100">
        <time>2021-05-08T05:08:00Z</time>
      </trkpt>
      <trkpt lat="41.3169900" lon="0.1232300">
        <time>2021-05-08T05:08:00Z</time>
      </trkpt>
      <trkpt lat="41.3170400" lon="0.1232600">
        <time>2021-05-08T05:08:00Z</time>
      </trkpt>
      <trkpt lat="41.3170700" lon="0.1233500">
        <time>2021-05-08T05:08:00Z</time>
      </trkpt>
      <trkpt lat="41.3170900" lon="0.1235200">
        <time>2021-05-08T05:08:00Z</time>
      </trkpt>
      <trkpt lat="41.3170800" lon="0.1236200">
        <time>2021-05-08T05:08:00Z</time>
      </trkpt>
      <trkpt lat="41.3170400" lon="0.1237200">
        <time>2021-05-08T05:08:00Z</time>
      </trkpt>
      <trkpt lat="41.3169900" lon="0.1237400">
        <time>2021-05-08T05:08:00Z</time>
      </trkpt>
      <trkpt lat="41.3169000" lon="0.1237100">
        <time>2021-05-08T05:08:00Z</time>
      </trkpt>
      <trkpt lat="41.3168200" lon="0.1236700">
        <time>2021-05-08T05:08:00Z</time>
      </trkpt>
      <trkpt lat="41.3167400" lon="0.1236300">
        <time>2021-05-08T05:08:00Z</time>
      </trkpt>
      <trkpt lat="41.3166600" lon="0.1236000">
        <time>2021-05-08T05:08:00Z</time>
      </trkpt>
      <trkpt lat="41.3165800" lon="0.1235800">
        <time>2021-05-08T05:08:00Z</time>
      </trkpt>
      <trkpt lat="41.3164900" lon="0.1235500">
        <time>2021-05-08T05:08:00Z</time>
      </trkpt>
      <trkpt lat="41.3164000" lon="0.1235200">
        <time>2021-05-08T05:08:00Z</time>
      </trkpt>
      <trkpt lat="41.3163200" lon="0.1235100">
        <time>2021-05-08T05:08:00Z</time>
      </trkpt>
      <trkpt lat="41.3162500" lon="0.1235500">
        <time>2021-05-08T05:08:00Z</time>
      </trkpt>
      <trkpt lat="41.3162200" lon="0.1236000">
        <time>2021-05-08T05:08:00Z</time>
      </trkpt>
      <trkpt lat="41.3161700" lon="0.1236700">
        <time>2021-05-08T05:08:00Z</time>
      </trkpt>
      <trkpt lat="41.3161200" lon="0.1237100">
        <time>2021-05-08T05:08:00Z</time>
      </trkpt>
      <trkpt lat="41.3160300" lon="0.1237500">
        <time>2021-05-08T05:08:00Z</time>
      </trkpt>
      <trkpt lat="41.3159900" lon="0.1237800">
        <time>2021-05-08T05:08:00Z</time>
      </trkpt>
      <trkpt lat="41.3159600" lon="0.1238300">
        <time>2021-05-08T05:08:00Z</time>
      </trkpt>
      <trkpt lat="41.3159600" lon="0.1238800">
        <time>2021-05-08T05:08:00Z</time>
      </trkpt>
      <trkpt lat="41.3160000" lon="0.1239600">
        <time>2021-05-08T05:08:00Z</time>
      </trkpt>
      <trkpt lat="41.3160300" lon="0.1239900">
        <time>2021-05-08T05:08:00Z</time>
      </trkpt>
      <trkpt lat="41.3161800" lon="0.1240400">
        <time>2021-05-08T05:08:00Z</time>
      </trkpt>
      <trkpt lat="41.3162700" lon="0.1240700">
        <time>2021-05-08T05:08:00Z</time>
      </trkpt>
      <trkpt lat="41.3164100" lon="0.1241000">
        <time>2021-05-08T05:08:00Z</time>
      </trkpt>
      <trkpt lat="41.3164800" lon="0.1241600">
        <time>2021-05-08T05:08:00Z</time>
      </trkpt>
      <trkpt lat="41.3165400" lon="0.1242500">
        <time>2021-05-08T05:08:00Z</time>
      </trkpt>
      <trkpt lat="41.3165800" lon="0.1243400">
        <time>2021-05-08T05:08:00Z</time>
      </trkpt>
      <trkpt lat="41.3166000" lon="0.1244100">
        <time>2021-05-08T05:08:00Z</time>
      </trkpt>
      <trkpt lat="41.3166200" lon="0.1244400">
        <time>2021-05-08T05:08:00Z</time>
      </trkpt>
      <trkpt lat="41.3166400" lon="0.1244600">
        <time>2021-05-08T05:08:00Z</time>
      </trkpt>
      <trkpt lat="41.3166900" lon="0.1245100">
        <time>2021-05-08T05:08:00Z</time>
      </trkpt>
      <trkpt lat="41.3167700" lon="0.1245700">
        <time>2021-05-08T05:08:00Z</time>
      </trkpt>
      <trkpt lat="41.3168400" lon="0.1246400">
        <time>2021-05-08T05:08:00Z</time>
      </trkpt>
      <trkpt lat="41.3169000" lon="0.1247400">
        <time>2021-05-08T05:08:00Z</time>
      </trkpt>
      <trkpt lat="41.3169500" lon="0.1248400">
        <time>2021-05-08T05:08:00Z</time>
      </trkpt>
      <trkpt lat="41.3169700" lon="0.1249400">
        <time>2021-05-08T05:08:00Z</time>
      </trkpt>
      <trkpt lat="41.3169700" lon="0.1250300">
        <time>2021-05-08T05:08:00Z</time>
      </trkpt>
      <trkpt lat="41.3170000" lon="0.1251100">
        <time>2021-05-08T05:08:00Z</time>
      </trkpt>
      <trkpt lat="41.3170500" lon="0.1251400">
        <time>2021-05-08T05:08:00Z</time>
      </trkpt>
      <trkpt lat="41.3172700" lon="0.1251200">
        <time>2021-05-08T05:08:00Z</time>
      </trkpt>
      <trkpt lat="41.3173600" lon="0.1251300">
        <time>2021-05-08T05:08:00Z</time>
      </trkpt>
      <trkpt lat="41.3174500" lon="0.1251900">
        <time>2021-05-08T05:08:00Z</time>
      </trkpt>
      <trkpt lat="41.3175100" lon="0.1252600">
        <time>2021-05-08T05:08:00Z</time>
      </trkpt>
      <trkpt lat="41.3175700" lon="0.1253500">
        <time>2021-05-08T05:08:00Z</time>
      </trkpt>
      <trkpt lat="41.3176700" lon="0.1255000">
        <time>2021-05-08T05:08:00Z</time>
      </trkpt>
      <trkpt lat="41.3177000" lon="0.1256000">
        <time>2021-05-08T05:08:00Z</time>
      </trkpt>
      <trkpt lat="41.3177100" lon="0.1257400">
        <time>2021-05-08T05:08:00Z</time>
      </trkpt>
      <trkpt lat="41.3177200" lon="0.1258400">
        <time>2021-05-08T05:08:00Z</time>
      </trkpt>
      <trkpt lat="41.3177300" lon="0.1259600">
        <time>2021-05-08T05:08:00Z</time>
      </trkpt>
      <trkpt lat="41.3177500" lon="0.1260700">
        <time>2021-05-08T05:08:00Z</time>
      </trkpt>
      <trkpt lat="41.3177400" lon="0.1262300">
        <time>2021-05-08T05:08:00Z</time>
      </trkpt>
      <trkpt lat="41.3176900" lon="0.1264500">
        <time>2021-05-08T05:08:00Z</time>
      </trkpt>
      <trkpt lat="41.3176200" lon="0.1266700">
        <time>2021-05-08T05:08:00Z</time>
      </trkpt>
      <trkpt lat="41.3175300" lon="0.1268600">
        <time>2021-05-08T05:08:00Z</time>
      </trkpt>
      <trkpt lat="41.3174300" lon="0.1270800">
        <time>2021-05-08T05:08:00Z</time>
      </trkpt>
      <trkpt lat="41.3174200" lon="0.1271500">
        <time>2021-05-08T05:08:00Z</time>
      </trkpt>
      <trkpt lat="41.3174200" lon="0.1272100">
        <time>2021-05-08T05:08:00Z</time>
      </trkpt>
      <trkpt lat="41.3173600" lon="0.1272400">
        <time>2021-05-08T05:08:00Z</time>
      </trkpt>
      <trkpt lat="41.3173000" lon="0.1272100">
        <time>2021-05-08T05:08:00Z</time>
      </trkpt>
      <trkpt lat="41.3172600" lon="0.1272300">
        <time>2021-05-08T05:08:00Z</time>
      </trkpt>
      <trkpt lat="41.3171100" lon="0.1273200">
        <time>2021-05-08T05:08:00Z</time>
      </trkpt>
      <trkpt lat="41.3170100" lon="0.1273500">
        <time>2021-05-08T05:08:00Z</time>
      </trkpt>
      <trkpt lat="41.3168800" lon="0.1273500">
        <time>2021-05-08T05:08:00Z</time>
      </trkpt>
      <trkpt lat="41.3167100" lon="0.1273800">
        <time>2021-05-08T05:08:00Z</time>
      </trkpt>
      <trkpt lat="41.3163000" lon="0.1273600">
        <time>2021-05-08T05:08:00Z</time>
      </trkpt>
      <trkpt lat="41.3162200" lon="0.1274100">
        <time>2021-05-08T05:08:00Z</time>
      </trkpt>
      <trkpt lat="41.3161100" lon="0.1275200">
        <time>2021-05-08T05:08:00Z</time>
      </trkpt>
      <trkpt lat="41.3160500" lon="0.1276100">
        <time>2021-05-08T05:08:00Z</time>
      </trkpt>
      <trkpt lat="41.3160300" lon="0.1276900">
        <time>2021-05-08T05:08:00Z</time>
      </trkpt>
      <trkpt lat="41.3159900" lon="0.1277500">
        <time>2021-05-08T05:08:00Z</time>
      </trkpt>
      <trkpt lat="41.3156800" lon="0.1279200">
        <time>2021-05-08T05:08:00Z</time>
      </trkpt>
      <trkpt lat="41.3155300" lon="0.1280500">
        <time>2021-05-08T05:08:00Z</time>
      </trkpt>
      <trkpt lat="41.3153100" lon="0.1282500">
        <time>2021-05-08T05:08:00Z</time>
      </trkpt>
      <trkpt lat="41.3152000" lon="0.1283500">
        <time>2021-05-08T05:08:00Z</time>
      </trkpt>
      <trkpt lat="41.3151900" lon="0.1283800">
        <time>2021-05-08T05:08:00Z</time>
      </trkpt>
      <trkpt lat="41.3152700" lon="0.1284200">
        <time>2021-05-08T05:08:00Z</time>
      </trkpt>
      <trkpt lat="41.3153100" lon="0.1285400">
        <time>2021-05-08T05:08:00Z</time>
      </trkpt>
      <trkpt lat="41.3153100" lon="0.1286800">
        <time>2021-05-08T05:08:00Z</time>
      </trkpt>
      <trkpt lat="41.3152400" lon="0.1287800">
        <time>2021-05-08T05:08:00Z</time>
      </trkpt>
      <trkpt lat="41.3152100" lon="0.1289000">
        <time>2021-05-08T05:08:00Z</time>
      </trkpt>
      <trkpt lat="41.3152400" lon="0.1289700">
        <time>2021-05-08T05:08:00Z</time>
      </trkpt>
      <trkpt lat="41.3153700" lon="0.1289700">
        <time>2021-05-08T05:08:00Z</time>
      </trkpt>
      <trkpt lat="41.3154800" lon="0.1289300">
        <time>2021-05-08T05:08:00Z</time>
      </trkpt>
      <trkpt lat="41.3155600" lon="0.1289000">
        <time>2021-05-08T05:08:00Z</time>
      </trkpt>
      <trkpt lat="41.3156500" lon="0.1288900">
        <time>2021-05-08T05:08:00Z</time>
      </trkpt>
      <trkpt lat="41.3156900" lon="0.1289200">
        <time>2021-05-08T05:08:00Z</time>
      </trkpt>
      <trkpt lat="41.3157400" lon="0.1288900">
        <time>2021-05-08T05:08:00Z</time>
      </trkpt>
      <trkpt lat="41.3158100" lon="0.1288500">
        <time>2021-05-08T05:08:00Z</time>
      </trkpt>
      <trkpt lat="41.3158900" lon="0.1288100">
        <time>2021-05-08T05:08:00Z</time>
      </trkpt>
      <trkpt lat="41.3159700" lon="0.1287500">
        <time>2021-05-08T05:08:00Z</time>
      </trkpt>
      <trkpt lat="41.3160500" lon="0.1287000">
        <time>2021-05-08T05:08:00Z</time>
      </trkpt>
      <trkpt lat="41.3161600" lon="0.1286600">
        <time>2021-05-08T05:08:00Z</time>
      </trkpt>
      <trkpt lat="41.3162200" lon="0.1286500">
        <time>2021-05-08T05:08:00Z</time>
      </trkpt>
      <trkpt lat="41.3162900" lon="0.1286500">
        <time>2021-05-08T05:08:00Z</time>
      </trkpt>
      <trkpt lat="41.3163800" lon="0.1286300">
        <time>2021-05-08T05:08:00Z</time>
      </trkpt>
      <trkpt lat="41.3164600" lon="0.1285400">
        <time>2021-05-08T05:08:00Z</time>
      </trkpt>
      <trkpt lat="41.3165200" lon="0.1284700">
        <time>2021-05-08T05:08:00Z</time>
      </trkpt>
      <trkpt lat="41.3165500" lon="0.1284100">
        <time>2021-05-08T05:08:00Z</time>
      </trkpt>
      <trkpt lat="41.3166300" lon="0.1284000">
        <time>2021-05-08T05:08:00Z</time>
      </trkpt>
      <trkpt lat="41.3166700" lon="0.1284300">
        <time>2021-05-08T05:08:00Z</time>
      </trkpt>
      <trkpt lat="41.3167700" lon="0.1284500">
        <time>2021-05-08T05:08:00Z</time>
      </trkpt>
      <trkpt lat="41.3168800" lon="0.1285100">
        <time>2021-05-08T05:08:00Z</time>
      </trkpt>
      <trkpt lat="41.3169600" lon="0.1285100">
        <time>2021-05-08T05:08:00Z</time>
      </trkpt>
      <trkpt lat="41.3170300" lon="0.1285300">
        <time>2021-05-08T05:08:00Z</time>
      </trkpt>
      <trkpt lat="41.3171000" lon="0.1285400">
        <time>2021-05-08T05:08:00Z</time>
      </trkpt>
      <trkpt lat="41.3171300" lon="0.1286100">
        <time>2021-05-08T05:08:00Z</time>
      </trkpt>
      <trkpt lat="41.3171400" lon="0.1286800">
        <time>2021-05-08T05:08:00Z</time>
      </trkpt>
      <trkpt lat="41.3172200" lon="0.1288000">
        <time>2021-05-08T05:08:00Z</time>
      </trkpt>
      <trkpt lat="41.3172600" lon="0.1288900">
        <time>2021-05-08T05:08:00Z</time>
      </trkpt>
      <trkpt lat="41.3173000" lon="0.1289800">
        <time>2021-05-08T05:08:00Z</time>
      </trkpt>
      <trkpt lat="41.3173100" lon="0.1291200">
        <time>2021-05-08T05:08:00Z</time>
      </trkpt>
      <trkpt lat="41.3173300" lon="0.1292300">
        <time>2021-05-08T05:08:00Z</time>
      </trkpt>
      <trkpt lat="41.3173500" lon="0.1293800">
        <time>2021-05-08T05:08:00Z</time>
      </trkpt>
      <trkpt lat="41.3173300" lon="0.1295000">
        <time>2021-05-08T05:08:00Z</time>
      </trkpt>
      <trkpt lat="41.3172800" lon="0.1296000">
        <time>2021-05-08T05:08:00Z</time>
      </trkpt>
      <trkpt lat="41.3172100" lon="0.1296700">
        <time>2021-05-08T05:08:00Z</time>
      </trkpt>
      <trkpt lat="41.3171200" lon="0.1297200">
        <time>2021-05-08T05:08:00Z</time>
      </trkpt>
      <trkpt lat="41.3171200" lon="0.1298300">
        <time>2021-05-08T05:08:00Z</time>
      </trkpt>
      <trkpt lat="41.3172000" lon="0.1299300">
        <time>2021-05-08T05:08:00Z</time>
      </trkpt>
      <trkpt lat="41.3172200" lon="0.1300000">
        <time>2021-05-08T05:08:00Z</time>
      </trkpt>
      <trkpt lat="41.3172300" lon="0.1301400">
        <time>2021-05-08T05:08:00Z</time>
      </trkpt>
      <trkpt lat="41.3172400" lon="0.1302600">
        <time>2021-05-08T05:08:00Z</time>
      </trkpt>
      <trkpt lat="41.3172500" lon="0.1304000">
        <time>2021-05-08T05:08:00Z</time>
      </trkpt>
      <trkpt lat="41.3172600" lon="0.1305200">
        <time>2021-05-08T05:08:00Z</time>
      </trkpt>
      <trkpt lat="41.3172600" lon="0.1306400">
        <time>2021-05-08T05:08:00Z</time>
      </trkpt>
      <trkpt lat="41.3172600" lon="0.1307400">
        <time>2021-05-08T05:08:00Z</time>
      </trkpt>
      <trkpt lat="41.3172200" lon="0.1308600">
        <time>2021-05-08T05:08:00Z</time>
      </trkpt>
      <trkpt lat="41.3172000" lon="0.1309500">
        <time>2021-05-08T05:08:00Z</time>
      </trkpt>
      <trkpt lat="41.3172200" lon="0.1310900">
        <time>2021-05-08T05:08:00Z</time>
      </trkpt>
      <trkpt lat="41.3172700" lon="0.1313100">
        <time>2021-05-08T05:08:00Z</time>
      </trkpt>
      <trkpt lat="41.3173000" lon="0.1315000">
        <time>2021-05-08T05:08:00Z</time>
      </trkpt>
      <trkpt lat="41.3173100" lon="0.1316200">
        <time>2021-05-08T05:08:00Z</time>
      </trkpt>
      <trkpt lat="41.3173400" lon="0.1317200">
        <time>2021-05-08T05:08:00Z</time>
      </trkpt>
      <trkpt lat="41.3173800" lon="0.1318300">
        <time>2021-05-08T05:08:00Z</time>
      </trkpt>
      <trkpt lat="41.3173700" lon="0.1319100">
        <time>2021-05-08T05:08:00Z</time>
      </trkpt>
      <trkpt lat="41.3173800" lon="0.1320000">
        <time>2021-05-08T05:08:00Z</time>
      </trkpt>
      <trkpt lat="41.3174000" lon="0.1320500">
        <time>2021-05-08T05:08:00Z</time>
      </trkpt>
      <trkpt lat="41.3174100" lon="0.1321200">
        <time>2021-05-08T05:08:00Z</time>
      </trkpt>
      <trkpt lat="41.3174100" lon="0.1322100">
        <time>2021-05-08T05:08:00Z</time>
      </trkpt>
      <trkpt lat="41.3174100" lon="0.1323400">
        <time>2021-05-08T05:08:00Z</time>
      </trkpt>
      <trkpt lat="41.3174000" lon="0.1324600">
        <time>2021-05-08T05:08:00Z</time>
      </trkpt>
      <trkpt lat="41.3173900" lon="0.1325700">
        <time>2021-05-08T05:08:00Z</time>
      </trkpt>
      <trkpt lat="41.3173800" lon="0.1326500">
        <time>2021-05-08T05:08:00Z</time>
      </trkpt>
      <trkpt lat="41.3173700" lon="0.1327500">
        <time>2021-05-08T05:08:00Z</time>
      </trkpt>
      <trkpt lat="41.3173600" lon="0.1328700">
        <time>2021-05-08T05:08:00Z</time>
      </trkpt>
      <trkpt lat="41.3173700" lon="0.1330900">
        <time>2021-05-08T05:08:00Z</time>
      </trkpt>
      <trkpt lat="41.3173900" lon="0.1332800">
        <time>2021-05-08T05:08:00Z</time>
      </trkpt>
      <trkpt lat="41.3174000" lon="0.1333900">
        <time>2021-05-08T05:08:00Z</time>
      </trkpt>
      <trkpt lat="41.3174200" lon="0.1335000">
        <time>2021-05-08T05:08:00Z</time>
      </trkpt>
      <trkpt lat="41.3174400" lon="0.1335800">
        <time>2021-05-08T05:08:00Z</time>
      </trkpt>
      <trkpt lat="41.3174300" lon="0.1336400">
        <time>2021-05-08T05:08:00Z</time>
      </trkpt>
      <trkpt lat="41.3174000" lon="0.1337200">
        <time>2021-05-08T05:08:00Z</time>
      </trkpt>
      <trkpt lat="41.3173500" lon="0.1338200">
        <time>2021-05-08T05:08:00Z</time>
      </trkpt>
      <trkpt lat="41.3172900" lon="0.1339100">
        <time>2021-05-08T05:08:00Z</time>
      </trkpt>
      <trkpt lat="41.3172500" lon="0.1339700">
        <time>2021-05-08T05:08:00Z</time>
      </trkpt>
      <trkpt lat="41.3172200" lon="0.1340300">
        <time>2021-05-08T05:08:00Z</time>
      </trkpt>
      <trkpt lat="41.3172200" lon="0.1341100">
        <time>2021-05-08T05:08:00Z</time>
      </trkpt>
      <trkpt lat="41.3172100" lon="0.1342200">
        <time>2021-05-08T05:08:00Z</time>
      </trkpt>
      <trkpt lat="41.3171700" lon="0.1343100">
        <time>2021-05-08T05:08:00Z</time>
      </trkpt>
      <trkpt lat="41.3171500" lon="0.1343800">
        <time>2021-05-08T05:08:00Z</time>
      </trkpt>
      <trkpt lat="41.3171600" lon="0.1345400">
        <time>2021-05-08T05:08:00Z</time>
      </trkpt>
      <trkpt lat="41.3171500" lon="0.1346700">
        <time>2021-05-08T05:08:00Z</time>
      </trkpt>
      <trkpt lat="41.3171400" lon="0.1347800">
        <time>2021-05-08T05:08:00Z</time>
      </trkpt>
      <trkpt lat="41.3171200" lon="0.1348900">
        <time>2021-05-08T05:08:00Z</time>
      </trkpt>
      <trkpt lat="41.3170900" lon="0.1350100">
        <time>2021-05-08T05:08:00Z</time>
      </trkpt>
      <trkpt lat="41.3170700" lon="0.1351800">
        <time>2021-05-08T05:08:00Z</time>
      </trkpt>
      <trkpt lat="41.3170700" lon="0.1352500">
        <time>2021-05-08T05:08:00Z</time>
      </trkpt>
      <trkpt lat="41.3170200" lon="0.1353200">
        <time>2021-05-08T05:08:00Z</time>
      </trkpt>
      <trkpt lat="41.3169900" lon="0.1353600">
        <time>2021-05-08T05:08:00Z</time>
      </trkpt>
      <trkpt lat="41.3170100" lon="0.1354400">
        <time>2021-05-08T05:08:00Z</time>
      </trkpt>
      <trkpt lat="41.3170400" lon="0.1355000">
        <time>2021-05-08T05:08:00Z</time>
      </trkpt>
      <trkpt lat="41.3171100" lon="0.1355600">
        <time>2021-05-08T05:08:00Z</time>
      </trkpt>
      <trkpt lat="41.3171800" lon="0.1355800">
        <time>2021-05-08T05:08:00Z</time>
      </trkpt>
      <trkpt lat="41.3172400" lon="0.1355200">
        <time>2021-05-08T05:08:00Z</time>
      </trkpt>
      <trkpt lat="41.3172800" lon="0.1354100">
        <time>2021-05-08T05:08:00Z</time>
      </trkpt>
      <trkpt lat="41.3173200" lon="0.1353300">
        <time>2021-05-08T05:08:00Z</time>
      </trkpt>
      <trkpt lat="41.3173500" lon="0.1352800">
        <time>2021-05-08T05:08:00Z</time>
      </trkpt>
      <trkpt lat="41.3173800" lon="0.1352200">
        <time>2021-05-08T05:08:00Z</time>
      </trkpt>
      <trkpt lat="41.3174100" lon="0.1351300">
        <time>2021-05-08T05:08:00Z</time>
      </trkpt>
      <trkpt lat="41.3174500" lon="0.1350400">
        <time>2021-05-08T05:08:00Z</time>
      </trkpt>
      <trkpt lat="41.3174900" lon="0.1349400">
        <time>2021-05-08T05:08:00Z</time>
      </trkpt>
      <trkpt lat="41.3175300" lon="0.1348500">
        <time>2021-05-08T05:08:00Z</time>
      </trkpt>
      <trkpt lat="41.3175700" lon="0.1347500">
        <time>2021-05-08T05:08:00Z</time>
      </trkpt>
      <trkpt lat="41.3176200" lon="0.1346500">
        <time>2021-05-08T05:08:00Z</time>
      </trkpt>
      <trkpt lat="41.3176600" lon="0.1345400">
        <time>2021-05-08T05:08:00Z</time>
      </trkpt>
      <trkpt lat="41.3177000" lon="0.1344300">
        <time>2021-05-08T05:08:00Z</time>
      </trkpt>
      <trkpt lat="41.3177400" lon="0.1343200">
        <time>2021-05-08T05:08:00Z</time>
      </trkpt>
      <trkpt lat="41.3177700" lon="0.1342100">
        <time>2021-05-08T05:08:00Z</time>
      </trkpt>
      <trkpt lat="41.3178100" lon="0.1341100">
        <time>2021-05-08T05:08:00Z</time>
      </trkpt>
      <trkpt lat="41.3178500" lon="0.1340000">
        <time>2021-05-08T05:08:00Z</time>
      </trkpt>
      <trkpt lat="41.3178900" lon="0.1339000">
        <time>2021-05-08T05:08:00Z</time>
      </trkpt>
      <trkpt lat="41.3179300" lon="0.1337900">
        <time>2021-05-08T05:08:00Z</time>
      </trkpt>
      <trkpt lat="41.3179800" lon="0.1336900">
        <time>2021-05-08T05:08:00Z</time>
      </trkpt>
      <trkpt lat="41.3180100" lon="0.1336000">
        <time>2021-05-08T05:08:00Z</time>
      </trkpt>
      <trkpt lat="41.3180400" lon="0.1334900">
        <time>2021-05-08T05:08:00Z</time>
      </trkpt>
      <trkpt lat="41.3180600" lon="0.1333800">
        <time>2021-05-08T05:08:00Z</time>
      </trkpt>
      <trkpt lat="41.3180700" lon="0.1332700">
        <time>2021-05-08T05:08:00Z</time>
      </trkpt>
      <trkpt lat="41.3180800" lon="0.1331600">
        <time>2021-05-08T05:08:00Z</time>
      </trkpt>
      <trkpt lat="41.3180800" lon="0.1330400">
        <time>2021-05-08T05:08:00Z</time>
      </trkpt>
      <trkpt lat="41.3180800" lon="0.1329200">
        <time>2021-05-08T05:08:00Z</time>
      </trkpt>
      <trkpt lat="41.3180600" lon="0.1328000">
        <time>2021-05-08T05:08:00Z</time>
      </trkpt>
      <trkpt lat="41.3180500" lon="0.1326800">
        <time>2021-05-08T05:08:00Z</time>
      </trkpt>
      <trkpt lat="41.3180500" lon="0.1326100">
        <time>2021-05-08T05:08:00Z</time>
      </trkpt>
      <trkpt lat="41.3180600" lon="0.1324900">
        <time>2021-05-08T05:08:00Z</time>
      </trkpt>
      <trkpt lat="41.3180700" lon="0.1323700">
        <time>2021-05-08T05:08:00Z</time>
      </trkpt>
      <trkpt lat="41.3180900" lon="0.1322600">
        <time>2021-05-08T05:08:00Z</time>
      </trkpt>
      <trkpt lat="41.3181200" lon="0.1321600">
        <time>2021-05-08T05:08:00Z</time>
      </trkpt>
      <trkpt lat="41.3181600" lon="0.1320600">
        <time>2021-05-08T05:08:00Z</time>
      </trkpt>
      <trkpt lat="41.3182000" lon="0.1319700">
        <time>2021-05-08T05:08:00Z</time>
      </trkpt>
      <trkpt lat="41.3182500" lon="0.1318900">
        <time>2021-05-08T05:08:00Z</time>
      </trkpt>
      <trkpt lat="41.3183100" lon="0.1318100">
        <time>2021-05-08T05:08:00Z</time>
      </trkpt>
      <trkpt lat="41.3183700" lon="0.1317400">
        <time>2021-05-08T05:08:00Z</time>
      </trkpt>
      <trkpt lat="41.3184200" lon="0.1316700">
        <time>2021-05-08T05:08:00Z</time>
      </trkpt>
      <trkpt lat="41.3184600" lon="0.1316000">
        <time>2021-05-08T05:08:00Z</time>
      </trkpt>
      <trkpt lat="41.3184800" lon="0.1315100">
        <time>2021-05-08T05:08:00Z</time>
      </trkpt>
      <trkpt lat="41.3185000" lon="0.1314100">
        <time>2021-05-08T05:08:00Z</time>
      </trkpt>
      <trkpt lat="41.3185000" lon="0.1313100">
        <time>2021-05-08T05:08:00Z</time>
      </trkpt>
      <trkpt lat="41.3184900" lon="0.1312100">
        <time>2021-05-08T05:08:00Z</time>
      </trkpt>
      <trkpt lat="41.3184800" lon="0.1311000">
        <time>2021-05-08T05:08:00Z</time>
      </trkpt>
      <trkpt lat="41.3184500" lon="0.1309300">
        <time>2021-05-08T05:08:00Z</time>
      </trkpt>
      <trkpt lat="41.3184400" lon="0.1308300">
        <time>2021-05-08T05:08:00Z</time>
      </trkpt>
      <trkpt lat="41.3184400" lon="0.1307300">
        <time>2021-05-08T05:08:00Z</time>
      </trkpt>
      <trkpt lat="41.3184500" lon="0.1306300">
        <time>2021-05-08T05:08:00Z</time>
      </trkpt>
      <trkpt lat="41.3184500" lon="0.1305200">
        <time>2021-05-08T05:08:00Z</time>
      </trkpt>
      <trkpt lat="41.3184600" lon="0.1304200">
        <time>2021-05-08T05:08:00Z</time>
      </trkpt>
      <trkpt lat="41.3184700" lon="0.1303100">
        <time>2021-05-08T05:08:00Z</time>
      </trkpt>
      <trkpt lat="41.3184700" lon="0.1302100">
        <time>2021-05-08T05:08:00Z</time>
      </trkpt>
      <trkpt lat="41.3184600" lon="0.1301100">
        <time>2021-05-08T05:08:00Z</time>
      </trkpt>
      <trkpt lat="41.3184500" lon="0.1300200">
        <time>2021-05-08T05:08:00Z</time>
      </trkpt>
      <trkpt lat="41.3184400" lon="0.1299400">
        <time>2021-05-08T05:08:00Z</time>
      </trkpt>
      <trkpt lat="41.3184400" lon="0.1298600">
        <time>2021-05-08T05:08:00Z</time>
      </trkpt>
      <trkpt lat="41.3184600" lon="0.1297800">
        <time>2021-05-08T05:08:00Z</time>
      </trkpt>
      <trkpt lat="41.3185000" lon="0.1297300">
        <time>2021-05-08T05:08:00Z</time>
      </trkpt>
      <trkpt lat="41.3186600" lon="0.1296300">
        <time>2021-05-08T05:08:00Z</time>
      </trkpt>
      <trkpt lat="41.3188200" lon="0.1295800">
        <time>2021-05-08T05:08:00Z</time>
      </trkpt>
      <trkpt lat="41.3188600" lon="0.1295500">
        <time>2021-05-08T05:08:00Z</time>
      </trkpt>
      <trkpt lat="41.3189500" lon="0.1294700">
        <time>2021-05-08T05:08:00Z</time>
      </trkpt>
      <trkpt lat="41.3190700" lon="0.1293100">
        <time>2021-05-08T05:08:00Z</time>
      </trkpt>
      <trkpt lat="41.3192200" lon="0.1291400">
        <time>2021-05-08T05:08:00Z</time>
      </trkpt>
      <trkpt lat="41.3192800" lon="0.1290600">
        <time>2021-05-08T05:08:00Z</time>
      </trkpt>
      <trkpt lat="41.3193900" lon="0.1289500">
        <time>2021-05-08T05:08:00Z</time>
      </trkpt>
      <trkpt lat="41.3194700" lon="0.1288700">
        <time>2021-05-08T05:08:00Z</time>
      </trkpt>
      <trkpt lat="41.3195100" lon="0.1288300">
        <time>2021-05-08T05:08:00Z</time>
      </trkpt>
      <trkpt lat="41.3195500" lon="0.1288300">
        <time>2021-05-08T05:08:00Z</time>
      </trkpt>
      <trkpt lat="41.3195900" lon="0.1288600">
        <time>2021-05-08T05:08:00Z</time>
      </trkpt>
      <trkpt lat="41.3196300" lon="0.1289300">
        <time>2021-05-08T05:08:00Z</time>
      </trkpt>
      <trkpt lat="41.3196800" lon="0.1291100">
        <time>2021-05-08T05:08:00Z</time>
      </trkpt>
      <trkpt lat="41.3196800" lon="0.1293800">
        <time>2021-05-08T05:08:00Z</time>
      </trkpt>
      <trkpt lat="41.3196700" lon="0.1295400">
        <time>2021-05-08T05:08:00Z</time>
      </trkpt>
      <trkpt lat="41.3196000" lon="0.1298400">
        <time>2021-05-08T05:08:00Z</time>
      </trkpt>
      <trkpt lat="41.3196000" lon="0.1299800">
        <time>2021-05-08T05:08:00Z</time>
      </trkpt>
      <trkpt lat="41.3196400" lon="0.1301400">
        <time>2021-05-08T05:08:00Z</time>
      </trkpt>
      <trkpt lat="41.3197200" lon="0.1302900">
        <time>2021-05-08T05:08:00Z</time>
      </trkpt>
      <trkpt lat="41.3198100" lon="0.1304800">
        <time>2021-05-08T05:08:00Z</time>
      </trkpt>
      <trkpt lat="41.3198400" lon="0.1306300">
        <time>2021-05-08T05:08:00Z</time>
      </trkpt>
      <trkpt lat="41.3198700" lon="0.1307800">
        <time>2021-05-08T05:08:00Z</time>
      </trkpt>
      <trkpt lat="41.3198800" lon="0.1309100">
        <time>2021-05-08T05:08:00Z</time>
      </trkpt>
      <trkpt lat="41.3198600" lon="0.1310300">
        <time>2021-05-08T05:08:00Z</time>
      </trkpt>
      <trkpt lat="41.3198100" lon="0.1312000">
        <time>2021-05-08T05:08:00Z</time>
      </trkpt>
      <trkpt lat="41.3197300" lon="0.1314400">
        <time>2021-05-08T05:08:00Z</time>
      </trkpt>
      <trkpt lat="41.3196700" lon="0.1316900">
        <time>2021-05-08T05:08:00Z</time>
      </trkpt>
      <trkpt lat="41.3196300" lon="0.1319100">
        <time>2021-05-08T05:08:00Z</time>
      </trkpt>
      <trkpt lat="41.3196200" lon="0.1320200">
        <time>2021-05-08T05:08:00Z</time>
      </trkpt>
      <trkpt lat="41.3196200" lon="0.1321800">
        <time>2021-05-08T05:08:00Z</time>
      </trkpt>
      <trkpt lat="41.3196300" lon="0.1323300">
        <time>2021-05-08T05:08:00Z</time>
      </trkpt>
      <trkpt lat="41.3196600" lon="0.1325500">
        <time>2021-05-08T05:08:00Z</time>
      </trkpt>
      <trkpt lat="41.3196800" lon="0.1326500">
        <time>2021-05-08T05:08:00Z</time>
      </trkpt>
      <trkpt lat="41.3197000" lon="0.1326900">
        <time>2021-05-08T05:08:00Z</time>
      </trkpt>
      <trkpt lat="41.3197500" lon="0.1327400">
        <time>2021-05-08T05:08:00Z</time>
      </trkpt>
      <trkpt lat="41.3197900" lon="0.1327500">
        <time>2021-05-08T05:08:00Z</time>
      </trkpt>
      <trkpt lat="41.3198500" lon="0.1327500">
        <time>2021-05-08T05:08:00Z</time>
      </trkpt>
      <trkpt lat="41.3199000" lon="0.1327000">
        <time>2021-05-08T05:08:00Z</time>
      </trkpt>
      <trkpt lat="41.3199200" lon="0.1326600">
        <time>2021-05-08T05:08:00Z</time>
      </trkpt>
      <trkpt lat="41.3199400" lon="0.1326100">
        <time>2021-05-08T05:08:00Z</time>
      </trkpt>
      <trkpt lat="41.3199600" lon="0.1325500">
        <time>2021-05-08T05:08:00Z</time>
      </trkpt>
      <trkpt lat="41.3200000" lon="0.1324300">
        <time>2021-05-08T05:08:00Z</time>
      </trkpt>
      <trkpt lat="41.3200600" lon="0.1323200">
        <time>2021-05-08T05:08:00Z</time>
      </trkpt>
      <trkpt lat="41.3201200" lon="0.1322200">
        <time>2021-05-08T05:08:00Z</time>
      </trkpt>
      <trkpt lat="41.3201700" lon="0.1321400">
        <time>2021-05-08T05:08:00Z</time>
      </trkpt>
      <trkpt lat="41.3202400" lon="0.1320800">
        <time>2021-05-08T05:08:00Z</time>
      </trkpt>
      <trkpt lat="41.3203300" lon="0.1319900">
        <time>2021-05-08T05:08:00Z</time>
      </trkpt>
      <trkpt lat="41.3204000" lon="0.1319400">
        <time>2021-05-08T05:08:00Z</time>
      </trkpt>
      <trkpt lat="41.3204800" lon="0.1318700">
        <time>2021-05-08T05:08:00Z</time>
      </trkpt>
      <trkpt lat="41.3205500" lon="0.1318300">
        <time>2021-05-08T05:08:00Z</time>
      </trkpt>
      <trkpt lat="41.3206500" lon="0.1318800">
        <time>2021-05-08T05:08:00Z</time>
      </trkpt>
      <trkpt lat="41.3207500" lon="0.1320000">
        <time>2021-05-08T05:08:00Z</time>
      </trkpt>
      <trkpt lat="41.3208400" lon="0.1320700">
        <time>2021-05-08T05:08:00Z</time>
      </trkpt>
      <trkpt lat="41.3209400" lon="0.1321700">
        <time>2021-05-08T05:08:00Z</time>
      </trkpt>
      <trkpt lat="41.3210000" lon="0.1322300">
        <time>2021-05-08T05:08:00Z</time>
      </trkpt>
      <trkpt lat="41.3211000" lon="0.1323300">
        <time>2021-05-08T05:08:00Z</time>
      </trkpt>
      <trkpt lat="41.3212100" lon="0.1323700">
        <time>2021-05-08T05:08:00Z</time>
      </trkpt>
      <trkpt lat="41.3212800" lon="0.1323200">
        <time>2021-05-08T05:08:00Z</time>
      </trkpt>
      <trkpt lat="41.3213000" lon="0.1322300">
        <time>2021-05-08T05:08:00Z</time>
      </trkpt>
      <trkpt lat="41.3212400" lon="0.1320600">
        <time>2021-05-08T05:08:00Z</time>
      </trkpt>
      <trkpt lat="41.3211900" lon="0.1318600">
        <time>2021-05-08T05:08:00Z</time>
      </trkpt>
      <trkpt lat="41.3211700" lon="0.1317000">
        <time>2021-05-08T05:08:00Z</time>
      </trkpt>
      <trkpt lat="41.3211500" lon="0.1316000">
        <time>2021-05-08T05:08:00Z</time>
      </trkpt>
      <trkpt lat="41.3211500" lon="0.1315100">
        <time>2021-05-08T05:08:00Z</time>
      </trkpt>
      <trkpt lat="41.3211000" lon="0.1312400">
        <time>2021-05-08T05:08:00Z</time>
      </trkpt>
      <trkpt lat="41.3210900" lon="0.1311500">
        <time>2021-05-08T05:08:00Z</time>
      </trkpt>
      <trkpt lat="41.3211100" lon="0.1310900">
        <time>2021-05-08T05:08:00Z</time>
      </trkpt>
      <trkpt lat="41.3211500" lon="0.1310200">
        <time>2021-05-08T05:08:00Z</time>
      </trkpt>
      <trkpt lat="41.3211900" lon="0.1309000">
        <time>2021-05-08T05:08:00Z</time>
      </trkpt>
      <trkpt lat="41.3212200" lon="0.1308000">
        <time>2021-05-08T05:08:00Z</time>
      </trkpt>
      <trkpt lat="41.3212200" lon="0.1306900">
        <time>2021-05-08T05:08:00Z</time>
      </trkpt>
      <trkpt lat="41.3212200" lon="0.1306300">
        <time>2021-05-08T05:08:00Z</time>
      </trkpt>
      <trkpt lat="41.3212200" lon="0.1305600">
        <time>2021-05-08T05:08:00Z</time>
      </trkpt>
      <trkpt lat="41.3212300" lon="0.1305000">
        <time>2021-05-08T05:08:00Z</time>
      </trkpt>
      <trkpt lat="41.3212700" lon="0.1304200">
        <time>2021-05-08T05:08:00Z</time>
      </trkpt>
      <trkpt lat="41.3213500" lon="0.1303400">
        <time>2021-05-08T05:08:00Z</time>
      </trkpt>
      <trkpt lat="41.3214700" lon="0.1302100">
        <time>2021-05-08T05:08:00Z</time>
      </trkpt>
      <trkpt lat="41.3215200" lon="0.1301300">
        <time>2021-05-08T05:08:00Z</time>
      </trkpt>
      <trkpt lat="41.3215400" lon="0.1300000">
        <time>2021-05-08T05:08:00Z</time>
      </trkpt>
      <trkpt lat="41.3215400" lon="0.1298700">
        <time>2021-05-08T05:08:00Z</time>
      </trkpt>
      <trkpt lat="41.3215300" lon="0.1296900">
        <time>2021-05-08T05:08:00Z</time>
      </trkpt>
      <trkpt lat="41.3215500" lon="0.1294300">
        <time>2021-05-08T05:08:00Z</time>
      </trkpt>
      <trkpt lat="41.3215800" lon="0.1293700">
        <time>2021-05-08T05:08:00Z</time>
      </trkpt>
      <trkpt lat="41.3216300" lon="0.1293200">
        <time>2021-05-08T05:08:00Z</time>
      </trkpt>
      <trkpt lat="41.3217100" lon="0.1293000">
        <time>2021-05-08T05:08:00Z</time>
      </trkpt>
      <trkpt lat="41.3218800" lon="0.1292800">
        <time>2021-05-08T05:08:00Z</time>
      </trkpt>
      <trkpt lat="41.3219900" lon="0.1292700">
        <time>2021-05-08T05:08:00Z</time>
      </trkpt>
      <trkpt lat="41.3222000" lon="0.1292900">
        <time>2021-05-08T05:08:00Z</time>
      </trkpt>
      <trkpt lat="41.3223100" lon="0.1292800">
        <time>2021-05-08T05:08:00Z</time>
      </trkpt>
      <trkpt lat="41.3223900" lon="0.1292400">
        <time>2021-05-08T05:08:00Z</time>
      </trkpt>
      <trkpt lat="41.3224400" lon="0.1291800">
        <time>2021-05-08T05:08:00Z</time>
      </trkpt>
      <trkpt lat="41.3224800" lon="0.1291300">
        <time>2021-05-08T05:08:00Z</time>
      </trkpt>
      <trkpt lat="41.3225200" lon="0.1290400">
        <time>2021-05-08T05:08:00Z</time>
      </trkpt>
      <trkpt lat="41.3225600" lon="0.1289500">
        <time>2021-05-08T05:08:00Z</time>
      </trkpt>
      <trkpt lat="41.3225900" lon="0.1288200">
        <time>2021-05-08T05:08:00Z</time>
      </trkpt>
      <trkpt lat="41.3226200" lon="0.1287000">
        <time>2021-05-08T05:08:00Z</time>
      </trkpt>
      <trkpt lat="41.3226200" lon="0.1286200">
        <time>2021-05-08T05:08:00Z</time>
      </trkpt>
      <trkpt lat="41.3226200" lon="0.1285400">
        <time>2021-05-08T05:08:00Z</time>
      </trkpt>
      <trkpt lat="41.3226400" lon="0.1284900">
        <time>2021-05-08T05:08:00Z</time>
      </trkpt>
      <trkpt lat="41.3227000" lon="0.1284800">
        <time>2021-05-08T05:08:00Z</time>
      </trkpt>
      <trkpt lat="41.3227900" lon="0.1284900">
        <time>2021-05-08T05:08:00Z</time>
      </trkpt>
      <trkpt lat="41.3228800" lon="0.1285800">
        <time>2021-05-08T05:08:00Z</time>
      </trkpt>
      <trkpt lat="41.3229300" lon="0.1286800">
        <time>2021-05-08T05:08:00Z</time>
      </trkpt>
      <trkpt lat="41.3229900" lon="0.1289200">
        <time>2021-05-08T05:08:00Z</time>
      </trkpt>
      <trkpt lat="41.3230500" lon="0.1290700">
        <time>2021-05-08T05:08:00Z</time>
      </trkpt>
      <trkpt lat="41.3231400" lon="0.1292500">
        <time>2021-05-08T05:08:00Z</time>
      </trkpt>
      <trkpt lat="41.3232100" lon="0.1294100">
        <time>2021-05-08T05:08:00Z</time>
      </trkpt>
      <trkpt lat="41.3232800" lon="0.1295800">
        <time>2021-05-08T05:08:00Z</time>
      </trkpt>
      <trkpt lat="41.3233600" lon="0.1298000">
        <time>2021-05-08T05:08:00Z</time>
      </trkpt>
      <trkpt lat="41.3233900" lon="0.1299500">
        <time>2021-05-08T05:08:00Z</time>
      </trkpt>
      <trkpt lat="41.3234000" lon="0.1301300">
        <time>2021-05-08T05:08:00Z</time>
      </trkpt>
      <trkpt lat="41.3233800" lon="0.1303100">
        <time>2021-05-08T05:08:00Z</time>
      </trkpt>
      <trkpt lat="41.3233600" lon="0.1304500">
        <time>2021-05-08T05:08:00Z</time>
      </trkpt>
      <trkpt lat="41.3232900" lon="0.1306800">
        <time>2021-05-08T05:08:00Z</time>
      </trkpt>
      <trkpt lat="41.3232500" lon="0.1307500">
        <time>2021-05-08T05:08:00Z</time>
      </trkpt>
      <trkpt lat="41.3232000" lon="0.1308200">
        <time>2021-05-08T05:08:00Z</time>
      </trkpt>
      <trkpt lat="41.3231500" lon="0.1308900">
        <time>2021-05-08T05:08:00Z</time>
      </trkpt>
      <trkpt lat="41.3231000" lon="0.1309700">
        <time>2021-05-08T05:08:00Z</time>
      </trkpt>
      <trkpt lat="41.3230500" lon="0.1310500">
        <time>2021-05-08T05:08:00Z</time>
      </trkpt>
      <trkpt lat="41.3230100" lon="0.1311300">
        <time>2021-05-08T05:08:00Z</time>
      </trkpt>
      <trkpt lat="41.3229600" lon="0.1312100">
        <time>2021-05-08T05:08:00Z</time>
      </trkpt>
      <trkpt lat="41.3229100" lon="0.1313000">
        <time>2021-05-08T05:08:00Z</time>
      </trkpt>
      <trkpt lat="41.3228400" lon="0.1313700">
        <time>2021-05-08T05:08:00Z</time>
      </trkpt>
      <trkpt lat="41.3227900" lon="0.1314400">
        <time>2021-05-08T05:08:00Z</time>
      </trkpt>
      <trkpt lat="41.3227500" lon="0.1315300">
        <time>2021-05-08T05:08:00Z</time>
      </trkpt>
      <trkpt lat="41.3227100" lon="0.1316100">
        <time>2021-05-08T05:08:00Z</time>
      </trkpt>
      <trkpt lat="41.3226700" lon="0.1317000">
        <time>2021-05-08T05:08:00Z</time>
      </trkpt>
      <trkpt lat="41.3226300" lon="0.1317800">
        <time>2021-05-08T05:08:00Z</time>
      </trkpt>
      <trkpt lat="41.3225900" lon="0.1318700">
        <time>2021-05-08T05:08:00Z</time>
      </trkpt>
      <trkpt lat="41.3225500" lon="0.1319600">
        <time>2021-05-08T05:08:00Z</time>
      </trkpt>
      <trkpt lat="41.3225100" lon="0.1320500">
        <time>2021-05-08T05:08:00Z</time>
      </trkpt>
      <trkpt lat="41.3224700" lon="0.1321300">
        <time>2021-05-08T05:08:00Z</time>
      </trkpt>
      <trkpt lat="41.3223800" lon="0.1324200">
        <time>2021-05-08T05:08:00Z</time>
      </trkpt>
      <trkpt lat="41.3223200" lon="0.1325600">
        <time>2021-05-08T05:08:00Z</time>
      </trkpt>
      <trkpt lat="41.3223000" lon="0.1327000">
        <time>2021-05-08T05:08:00Z</time>
      </trkpt>
      <trkpt lat="41.3222800" lon="0.1327600">
        <time>2021-05-08T05:08:00Z</time>
      </trkpt>
      <trkpt lat="41.3222500" lon="0.1328500">
        <time>2021-05-08T05:08:00Z</time>
      </trkpt>
      <trkpt lat="41.3222400" lon="0.1329600">
        <time>2021-05-08T05:08:00Z</time>
      </trkpt>
      <trkpt lat="41.3222200" lon="0.1332000">
        <time>2021-05-08T05:08:00Z</time>
      </trkpt>
      <trkpt lat="41.3222100" lon="0.1332800">
        <time>2021-05-08T05:08:00Z</time>
      </trkpt>
      <trkpt lat="41.3222200" lon="0.1334500">
        <time>2021-05-08T05:08:00Z</time>
      </trkpt>
      <trkpt lat="41.3221500" lon="0.1337200">
        <time>2021-05-08T05:08:00Z</time>
      </trkpt>
      <trkpt lat="41.3221000" lon="0.1339200">
        <time>2021-05-08T05:08:00Z</time>
      </trkpt>
      <trkpt lat="41.3220400" lon="0.1342000">
        <time>2021-05-08T05:08:00Z</time>
      </trkpt>
      <trkpt lat="41.3220200" lon="0.1344200">
        <time>2021-05-08T05:08:00Z</time>
      </trkpt>
      <trkpt lat="41.3220100" lon="0.1345100">
        <time>2021-05-08T05:08:00Z</time>
      </trkpt>
      <trkpt lat="41.3219900" lon="0.1345700">
        <time>2021-05-08T05:08:00Z</time>
      </trkpt>
      <trkpt lat="41.3219200" lon="0.1346700">
        <time>2021-05-08T05:08:00Z</time>
      </trkpt>
      <trkpt lat="41.3218800" lon="0.1347800">
        <time>2021-05-08T05:08:00Z</time>
      </trkpt>
      <trkpt lat="41.3218400" lon="0.1348900">
        <time>2021-05-08T05:08:00Z</time>
      </trkpt>
      <trkpt lat="41.3218300" lon="0.1350100">
        <time>2021-05-08T05:08:00Z</time>
      </trkpt>
      <trkpt lat="41.3218200" lon="0.1351000">
        <time>2021-05-08T05:08:00Z</time>
      </trkpt>
      <trkpt lat="41.3217700" lon="0.1352200">
        <time>2021-05-08T05:08:00Z</time>
      </trkpt>
      <trkpt lat="41.3217000" lon="0.1352900">
        <time>2021-05-08T05:08:00Z</time>
      </trkpt>
      <trkpt lat="41.3216100" lon="0.1353300">
        <time>2021-05-08T05:08:00Z</time>
      </trkpt>
      <trkpt lat="41.3214700" lon="0.1354000">
        <time>2021-05-08T05:08:00Z</time>
      </trkpt>
      <trkpt lat="41.3214300" lon="0.1354700">
        <time>2021-05-08T05:08:00Z</time>
      </trkpt>
      <trkpt lat="41.3214300" lon="0.1355500">
        <time>2021-05-08T05:08:00Z</time>
      </trkpt>
      <trkpt lat="41.3215200" lon="0.1357000">
        <time>2021-05-08T05:08:00Z</time>
      </trkpt>
      <trkpt lat="41.3215700" lon="0.1357700">
        <time>2021-05-08T05:08:00Z</time>
      </trkpt>
      <trkpt lat="41.3216300" lon="0.1358800">
        <time>2021-05-08T05:08:00Z</time>
      </trkpt>
      <trkpt lat="41.3216900" lon="0.1360300">
        <time>2021-05-08T05:08:00Z</time>
      </trkpt>
      <trkpt lat="41.3217500" lon="0.1362200">
        <time>2021-05-08T05:08:00Z</time>
      </trkpt>
      <trkpt lat="41.3217600" lon="0.1363300">
        <time>2021-05-08T05:08:00Z</time>
      </trkpt>
      <trkpt lat="41.3217600" lon="0.1364800">
        <time>2021-05-08T05:08:00Z</time>
      </trkpt>
      <trkpt lat="41.3217800" lon="0.1366200">
        <time>2021-05-08T05:08:00Z</time>
      </trkpt>
      <trkpt lat="41.3217500" lon="0.1367500">
        <time>2021-05-08T05:08:00Z</time>
      </trkpt>
      <trkpt lat="41.3216800" lon="0.1368700">
        <time>2021-05-08T05:08:00Z</time>
      </trkpt>
      <trkpt lat="41.3215900" lon="0.1369500">
        <time>2021-05-08T05:08:00Z</time>
      </trkpt>
      <trkpt lat="41.3213900" lon="0.1371300">
        <time>2021-05-08T05:08:00Z</time>
      </trkpt>
      <trkpt lat="41.3211500" lon="0.1373500">
        <time>2021-05-08T05:08:00Z</time>
      </trkpt>
      <trkpt lat="41.3210600" lon="0.1374700">
        <time>2021-05-08T05:08:00Z</time>
      </trkpt>
      <trkpt lat="41.3210100" lon="0.1376100">
        <time>2021-05-08T05:08:00Z</time>
      </trkpt>
      <trkpt lat="41.3209600" lon="0.1377100">
        <time>2021-05-08T05:08:00Z</time>
      </trkpt>
      <trkpt lat="41.3207500" lon="0.1379500">
        <time>2021-05-08T05:08:00Z</time>
      </trkpt>
      <trkpt lat="41.3206700" lon="0.1380100">
        <time>2021-05-08T05:08:00Z</time>
      </trkpt>
      <trkpt lat="41.3205800" lon="0.1380100">
        <time>2021-05-08T05:08:00Z</time>
      </trkpt>
      <trkpt lat="41.3205300" lon="0.1379900">
        <time>2021-05-08T05:08:00Z</time>
      </trkpt>
      <trkpt lat="41.3204600" lon="0.1379600">
        <time>2021-05-08T05:08:00Z</time>
      </trkpt>
      <trkpt lat="41.3203900" lon="0.1379300">
        <time>2021-05-08T05:08:00Z</time>
      </trkpt>
      <trkpt lat="41.3203200" lon="0.1379000">
        <time>2021-05-08T05:08:00Z</time>
      </trkpt>
      <trkpt lat="41.3202400" lon="0.1378700">
        <time>2021-05-08T05:08:00Z</time>
      </trkpt>
      <trkpt lat="41.3201600" lon="0.1378400">
        <time>2021-05-08T05:08:00Z</time>
      </trkpt>
      <trkpt lat="41.3200700" lon="0.1378100">
        <time>2021-05-08T05:08:00Z</time>
      </trkpt>
      <trkpt lat="41.3199800" lon="0.1377800">
        <time>2021-05-08T05:08:00Z</time>
      </trkpt>
      <trkpt lat="41.3199000" lon="0.1377600">
        <time>2021-05-08T05:08:00Z</time>
      </trkpt>
      <trkpt lat="41.3198100" lon="0.1377400">
        <time>2021-05-08T05:08:00Z</time>
      </trkpt>
      <trkpt lat="41.3197300" lon="0.1377200">
        <time>2021-05-08T05:08:00Z</time>
      </trkpt>
      <trkpt lat="41.3196500" lon="0.1377100">
        <time>2021-05-08T05:08:00Z</time>
      </trkpt>
      <trkpt lat="41.3195700" lon="0.1377000">
        <time>2021-05-08T05:08:00Z</time>
      </trkpt>
      <trkpt lat="41.3194900" lon="0.1377000">
        <time>2021-05-08T05:08:00Z</time>
      </trkpt>
      <trkpt lat="41.3194100" lon="0.1377200">
        <time>2021-05-08T05:08:00Z</time>
      </trkpt>
      <trkpt lat="41.3193500" lon="0.1377900">
        <time>2021-05-08T05:08:00Z</time>
      </trkpt>
      <trkpt lat="41.3192700" lon="0.1379000">
        <time>2021-05-08T05:08:00Z</time>
      </trkpt>
      <trkpt lat="41.3191700" lon="0.1380300">
        <time>2021-05-08T05:08:00Z</time>
      </trkpt>
      <trkpt lat="41.3190600" lon="0.1381300">
        <time>2021-05-08T05:08:00Z</time>
      </trkpt>
      <trkpt lat="41.3189700" lon="0.1382400">
        <time>2021-05-08T05:08:00Z</time>
      </trkpt>
      <trkpt lat="41.3189100" lon="0.1383400">
        <time>2021-05-08T05:08:00Z</time>
      </trkpt>
      <trkpt lat="41.3188600" lon="0.1384400">
        <time>2021-05-08T05:08:00Z</time>
      </trkpt>
      <trkpt lat="41.3188100" lon="0.1385400">
        <time>2021-05-08T05:08:00Z</time>
      </trkpt>
      <trkpt lat="41.3187700" lon="0.1386400">
        <time>2021-05-08T05:08:00Z</time>
      </trkpt>
      <trkpt lat="41.3187200" lon="0.1387500">
        <time>2021-05-08T05:08:00Z</time>
      </trkpt>
      <trkpt lat="41.3186700" lon="0.1388600">
        <time>2021-05-08T05:08:00Z</time>
      </trkpt>
      <trkpt lat="41.3186300" lon="0.1389700">
        <time>2021-05-08T05:08:00Z</time>
      </trkpt>
      <trkpt lat="41.3186000" lon="0.1390700">
        <time>2021-05-08T05:08:00Z</time>
      </trkpt>
      <trkpt lat="41.3185600" lon="0.1391800">
        <time>2021-05-08T05:08:00Z</time>
      </trkpt>
      <trkpt lat="41.3185200" lon="0.1392900">
        <time>2021-05-08T05:08:00Z</time>
      </trkpt>
      <trkpt lat="41.3184700" lon="0.1393900">
        <time>2021-05-08T05:08:00Z</time>
      </trkpt>
      <trkpt lat="41.3184200" lon="0.1394900">
        <time>2021-05-08T05:08:00Z</time>
      </trkpt>
      <trkpt lat="41.3183600" lon="0.1395800">
        <time>2021-05-08T05:08:00Z</time>
      </trkpt>
      <trkpt lat="41.3183100" lon="0.1396700">
        <time>2021-05-08T05:08:00Z</time>
      </trkpt>
      <trkpt lat="41.3182200" lon="0.1397900">
        <time>2021-05-08T05:08:00Z</time>
      </trkpt>
      <trkpt lat="41.3181700" lon="0.1398700">
        <time>2021-05-08T05:08:00Z</time>
      </trkpt>
      <trkpt lat="41.3181400" lon="0.1399500">
        <time>2021-05-08T05:08:00Z</time>
      </trkpt>
      <trkpt lat="41.3181400" lon="0.1400000">
        <time>2021-05-08T05:08:00Z</time>
      </trkpt>
      <trkpt lat="41.3181600" lon="0.1400600">
        <time>2021-05-08T05:08:00Z</time>
      </trkpt>
      <trkpt lat="41.3182000" lon="0.1401000">
        <time>2021-05-08T05:08:00Z</time>
      </trkpt>
      <trkpt lat="41.3182700" lon="0.1401300">
        <time>2021-05-08T05:08:00Z</time>
      </trkpt>
      <trkpt lat="41.3183500" lon="0.1401600">
        <time>2021-05-08T05:08:00Z</time>
      </trkpt>
      <trkpt lat="41.3184800" lon="0.1401800">
        <time>2021-05-08T05:08:00Z</time>
      </trkpt>
      <trkpt lat="41.3185500" lon="0.1401600">
        <time>2021-05-08T05:08:00Z</time>
      </trkpt>
      <trkpt lat="41.3186000" lon="0.1400900">
        <time>2021-05-08T05:08:00Z</time>
      </trkpt>
      <trkpt lat="41.3186600" lon="0.1399700">
        <time>2021-05-08T05:08:00Z</time>
      </trkpt>
      <trkpt lat="41.3187500" lon="0.1396900">
        <time>2021-05-08T05:08:00Z</time>
      </trkpt>
      <trkpt lat="41.3188100" lon="0.1395600">
        <time>2021-05-08T05:08:00Z</time>
      </trkpt>
      <trkpt lat="41.3189000" lon="0.1394100">
        <time>2021-05-08T05:08:00Z</time>
      </trkpt>
      <trkpt lat="41.3189800" lon="0.1392600">
        <time>2021-05-08T05:08:00Z</time>
      </trkpt>
      <trkpt lat="41.3190600" lon="0.1390800">
        <time>2021-05-08T05:08:00Z</time>
      </trkpt>
      <trkpt lat="41.3191400" lon="0.1389300">
        <time>2021-05-08T05:08:00Z</time>
      </trkpt>
      <trkpt lat="41.3192300" lon="0.1387800">
        <time>2021-05-08T05:08:00Z</time>
      </trkpt>
      <trkpt lat="41.3193100" lon="0.1386700">
        <time>2021-05-08T05:08:00Z</time>
      </trkpt>
      <trkpt lat="41.3194000" lon="0.1385900">
        <time>2021-05-08T05:08:00Z</time>
      </trkpt>
      <trkpt lat="41.3195300" lon="0.1385400">
        <time>2021-05-08T05:08:00Z</time>
      </trkpt>
      <trkpt lat="41.3196400" lon="0.1385400">
        <time>2021-05-08T05:08:00Z</time>
      </trkpt>
      <trkpt lat="41.3197600" lon="0.1386100">
        <time>2021-05-08T05:08:00Z</time>
      </trkpt>
      <trkpt lat="41.3198300" lon="0.1387200">
        <time>2021-05-08T05:08:00Z</time>
      </trkpt>
      <trkpt lat="41.3198700" lon="0.1388400">
        <time>2021-05-08T05:08:00Z</time>
      </trkpt>
      <trkpt lat="41.3199100" lon="0.1390200">
        <time>2021-05-08T05:08:00Z</time>
      </trkpt>
      <trkpt lat="41.3199500" lon="0.1393500">
        <time>2021-05-08T05:08:00Z</time>
      </trkpt>
      <trkpt lat="41.3200100" lon="0.1395000">
        <time>2021-05-08T05:08:00Z</time>
      </trkpt>
      <trkpt lat="41.3200900" lon="0.1396200">
        <time>2021-05-08T05:08:00Z</time>
      </trkpt>
      <trkpt lat="41.3202600" lon="0.1397900">
        <time>2021-05-08T05:08:00Z</time>
      </trkpt>
      <trkpt lat="41.3205100" lon="0.1398700">
        <time>2021-05-08T05:08:00Z</time>
      </trkpt>
      <trkpt lat="41.3206600" lon="0.1398900">
        <time>2021-05-08T05:08:00Z</time>
      </trkpt>
      <trkpt lat="41.3208900" lon="0.1398200">
        <time>2021-05-08T05:08:00Z</time>
      </trkpt>
      <trkpt lat="41.3210900" lon="0.1396700">
        <time>2021-05-08T05:08:00Z</time>
      </trkpt>
      <trkpt lat="41.3212000" lon="0.1394900">
        <time>2021-05-08T05:08:00Z</time>
      </trkpt>
      <trkpt lat="41.3213900" lon="0.1390100">
        <time>2021-05-08T05:08:00Z</time>
      </trkpt>
      <trkpt lat="41.3214800" lon="0.1388200">
        <time>2021-05-08T05:08:00Z</time>
      </trkpt>
      <trkpt lat="41.3215400" lon="0.1385800">
        <time>2021-05-08T05:08:00Z</time>
      </trkpt>
      <trkpt lat="41.3215700" lon="0.1384300">
        <time>2021-05-08T05:08:00Z</time>
      </trkpt>
      <trkpt lat="41.3216900" lon="0.1382500">
        <time>2021-05-08T05:08:00Z</time>
      </trkpt>
      <trkpt lat="41.3218800" lon="0.1381700">
        <time>2021-05-08T05:08:00Z</time>
      </trkpt>
      <trkpt lat="41.3220700" lon="0.1381900">
        <time>2021-05-08T05:08:00Z</time>
      </trkpt>
      <trkpt lat="41.3221600" lon="0.1382700">
        <time>2021-05-08T05:08:00Z</time>
      </trkpt>
      <trkpt lat="41.3222200" lon="0.1383800">
        <time>2021-05-08T05:08:00Z</time>
      </trkpt>
      <trkpt lat="41.3222700" lon="0.1385300">
        <time>2021-05-08T05:08:00Z</time>
      </trkpt>
      <trkpt lat="41.3223200" lon="0.1386100">
        <time>2021-05-08T05:08:00Z</time>
      </trkpt>
      <trkpt lat="41.3224500" lon="0.1387400">
        <time>2021-05-08T05:08:00Z</time>
      </trkpt>
      <trkpt lat="41.3225200" lon="0.1388100">
        <time>2021-05-08T05:08:00Z</time>
      </trkpt>
      <trkpt lat="41.3226300" lon="0.1388500">
        <time>2021-05-08T05:08:00Z</time>
      </trkpt>
      <trkpt lat="41.3226900" lon="0.1388400">
        <time>2021-05-08T05:08:00Z</time>
      </trkpt>
      <trkpt lat="41.3227200" lon="0.1388300">
        <time>2021-05-08T05:08:00Z</time>
      </trkpt>
      <trkpt lat="41.3227800" lon="0.1387100">
        <time>2021-05-08T05:08:00Z</time>
      </trkpt>
      <trkpt lat="41.3228500" lon="0.1385900">
        <time>2021-05-08T05:08:00Z</time>
      </trkpt>
      <trkpt lat="41.3229400" lon="0.1385500">
        <time>2021-05-08T05:08:00Z</time>
      </trkpt>
      <trkpt lat="41.3232100" lon="0.1385200">
        <time>2021-05-08T05:08:00Z</time>
      </trkpt>
      <trkpt lat="41.3233700" lon="0.1385200">
        <time>2021-05-08T05:08:00Z</time>
      </trkpt>
      <trkpt lat="41.3234500" lon="0.1385300">
        <time>2021-05-08T05:08:00Z</time>
      </trkpt>
      <trkpt lat="41.3235300" lon="0.1386000">
        <time>2021-05-08T05:08:00Z</time>
      </trkpt>
      <trkpt lat="41.3236000" lon="0.1387100">
        <time>2021-05-08T05:08:00Z</time>
      </trkpt>
      <trkpt lat="41.3236600" lon="0.1388600">
        <time>2021-05-08T05:08:00Z</time>
      </trkpt>
      <trkpt lat="41.3237000" lon="0.1389800">
        <time>2021-05-08T05:08:00Z</time>
      </trkpt>
      <trkpt lat="41.3237700" lon="0.1390800">
        <time>2021-05-08T05:08:00Z</time>
      </trkpt>
      <trkpt lat="41.3238300" lon="0.1391300">
        <time>2021-05-08T05:08:00Z</time>
      </trkpt>
      <trkpt lat="41.3239300" lon="0.1391800">
        <time>2021-05-08T05:08:00Z</time>
      </trkpt>
      <trkpt lat="41.3240400" lon="0.1392100">
        <time>2021-05-08T05:08:00Z</time>
      </trkpt>
      <trkpt lat="41.3241200" lon="0.1392500">
        <time>2021-05-08T05:08:00Z</time>
      </trkpt>
      <trkpt lat="41.3242200" lon="0.1393500">
        <time>2021-05-08T05:08:00Z</time>
      </trkpt>
      <trkpt lat="41.3242800" lon="0.1394900">
        <time>2021-05-08T05:08:00Z</time>
      </trkpt>
      <trkpt lat="41.3243800" lon="0.1395700">
        <time>2021-05-08T05:08:00Z</time>
      </trkpt>
      <trkpt lat="41.3245000" lon="0.1395600">
        <time>2021-05-08T05:08:00Z</time>
      </trkpt>
      <trkpt lat="41.3245600" lon="0.1394900">
        <time>2021-05-08T05:08:00Z</time>
      </trkpt>
      <trkpt lat="41.3245900" lon="0.1393600">
        <time>2021-05-08T05:08:00Z</time>
      </trkpt>
      <trkpt lat="41.3246200" lon="0.1392500">
        <time>2021-05-08T05:08:00Z</time>
      </trkpt>
      <trkpt lat="41.3247400" lon="0.1392300">
        <time>2021-05-08T05:08:00Z</time>
      </trkpt>
      <trkpt lat="41.3248400" lon="0.1392600">
        <time>2021-05-08T05:08:00Z</time>
      </trkpt>
      <trkpt lat="41.3249000" lon="0.1392900">
        <time>2021-05-08T05:08:00Z</time>
      </trkpt>
      <trkpt lat="41.3249500" lon="0.1393900">
        <time>2021-05-08T05:08:00Z</time>
      </trkpt>
      <trkpt lat="41.3250100" lon="0.1395000">
        <time>2021-05-08T05:08:00Z</time>
      </trkpt>
      <trkpt lat="41.3251000" lon="0.1396100">
        <time>2021-05-08T05:08:00Z</time>
      </trkpt>
      <trkpt lat="41.3251800" lon="0.1397100">
        <time>2021-05-08T05:08:00Z</time>
      </trkpt>
      <trkpt lat="41.3252700" lon="0.1398200">
        <time>2021-05-08T05:08:00Z</time>
      </trkpt>
      <trkpt lat="41.3252700" lon="0.1399500">
        <time>2021-05-08T05:08:00Z</time>
      </trkpt>
      <trkpt lat="41.3252500" lon="0.1400600">
        <time>2021-05-08T05:08:00Z</time>
      </trkpt>
      <trkpt lat="41.3253100" lon="0.1402300">
        <time>2021-05-08T05:08:00Z</time>
      </trkpt>
      <trkpt lat="41.3253800" lon="0.1403600">
        <time>2021-05-08T05:08:00Z</time>
      </trkpt>
      <trkpt lat="41.3254600" lon="0.1404900">
        <time>2021-05-08T05:08:00Z</time>
      </trkpt>
      <trkpt lat="41.3255300" lon="0.1406200">
        <time>2021-05-08T05:08:00Z</time>
      </trkpt>
      <trkpt lat="41.3255900" lon="0.1407400">
        <time>2021-05-08T05:08:00Z</time>
      </trkpt>
      <trkpt lat="41.3256600" lon="0.1408700">
        <time>2021-05-08T05:08:00Z</time>
      </trkpt>
      <trkpt lat="41.3257200" lon="0.1409800">
        <time>2021-05-08T05:08:00Z</time>
      </trkpt>
      <trkpt lat="41.3258100" lon="0.1410800">
        <time>2021-05-08T05:08:00Z</time>
      </trkpt>
      <trkpt lat="41.3258900" lon="0.1411400">
        <time>2021-05-08T05:08:00Z</time>
      </trkpt>
      <trkpt lat="41.3260000" lon="0.1412200">
        <time>2021-05-08T05:08:00Z</time>
      </trkpt>
      <trkpt lat="41.3261100" lon="0.1412500">
        <time>2021-05-08T05:08:00Z</time>
      </trkpt>
      <trkpt lat="41.3261600" lon="0.1412700">
        <time>2021-05-08T05:08:00Z</time>
      </trkpt>
      <trkpt lat="41.3262300" lon="0.1413100">
        <time>2021-05-08T05:08:00Z</time>
      </trkpt>
      <trkpt lat="41.3263900" lon="0.1417700">
        <time>2021-05-08T05:08:00Z</time>
      </trkpt>
      <trkpt lat="41.3264300" lon="0.1419200">
        <time>2021-05-08T05:08:00Z</time>
      </trkpt>
      <trkpt lat="41.3264900" lon="0.1421100">
        <time>2021-05-08T05:08:00Z</time>
      </trkpt>
      <trkpt lat="41.3265200" lon="0.1422700">
        <time>2021-05-08T05:08:00Z</time>
      </trkpt>
      <trkpt lat="41.3265300" lon="0.1423700">
        <time>2021-05-08T05:08:00Z</time>
      </trkpt>
      <trkpt lat="41.3265700" lon="0.1424600">
        <time>2021-05-08T05:08:00Z</time>
      </trkpt>
      <trkpt lat="41.3266600" lon="0.1425700">
        <time>2021-05-08T05:08:00Z</time>
      </trkpt>
      <trkpt lat="41.3267400" lon="0.1426800">
        <time>2021-05-08T05:08:00Z</time>
      </trkpt>
      <trkpt lat="41.3268000" lon="0.1428300">
        <time>2021-05-08T05:08:00Z</time>
      </trkpt>
      <trkpt lat="41.3268600" lon="0.1430200">
        <time>2021-05-08T05:08:00Z</time>
      </trkpt>
      <trkpt lat="41.3269100" lon="0.1431900">
        <time>2021-05-08T05:08:00Z</time>
      </trkpt>
      <trkpt lat="41.3269200" lon="0.1433200">
        <time>2021-05-08T05:08:00Z</time>
      </trkpt>
      <trkpt lat="41.3269400" lon="0.1434900">
        <time>2021-05-08T05:08:00Z</time>
      </trkpt>
      <trkpt lat="41.3270000" lon="0.1436100">
        <time>2021-05-08T05:08:00Z</time>
      </trkpt>
      <trkpt lat="41.3270800" lon="0.1437400">
        <time>2021-05-08T05:08:00Z</time>
      </trkpt>
      <trkpt lat="41.3271700" lon="0.1438500">
        <time>2021-05-08T05:08:00Z</time>
      </trkpt>
      <trkpt lat="41.3272700" lon="0.1438800">
        <time>2021-05-08T05:08:00Z</time>
      </trkpt>
      <trkpt lat="41.3273400" lon="0.1438400">
        <time>2021-05-08T05:08:00Z</time>
      </trkpt>
      <trkpt lat="41.3274100" lon="0.1437900">
        <time>2021-05-08T05:08:00Z</time>
      </trkpt>
      <trkpt lat="41.3274700" lon="0.1437700">
        <time>2021-05-08T05:08:00Z</time>
      </trkpt>
      <trkpt lat="41.3275800" lon="0.1438200">
        <time>2021-05-08T05:08:00Z</time>
      </trkpt>
      <trkpt lat="41.3276400" lon="0.1439300">
        <time>2021-05-08T05:08:00Z</time>
      </trkpt>
      <trkpt lat="41.3276500" lon="0.1441100">
        <time>2021-05-08T05:08:00Z</time>
      </trkpt>
      <trkpt lat="41.3276500" lon="0.1442600">
        <time>2021-05-08T05:08:00Z</time>
      </trkpt>
      <trkpt lat="41.3276700" lon="0.1444100">
        <time>2021-05-08T05:08:00Z</time>
      </trkpt>
      <trkpt lat="41.3277200" lon="0.1445800">
        <time>2021-05-08T05:08:00Z</time>
      </trkpt>
      <trkpt lat="41.3277600" lon="0.1447600">
        <time>2021-05-08T05:08:00Z</time>
      </trkpt>
      <trkpt lat="41.3278200" lon="0.1449100">
        <time>2021-05-08T05:08:00Z</time>
      </trkpt>
      <trkpt lat="41.3278700" lon="0.1451800">
        <time>2021-05-08T05:08:00Z</time>
      </trkpt>
      <trkpt lat="41.3278700" lon="0.1455300">
        <time>2021-05-08T05:08:00Z</time>
      </trkpt>
      <trkpt lat="41.3279500" lon="0.1456600">
        <time>2021-05-08T05:08:00Z</time>
      </trkpt>
      <trkpt lat="41.3280300" lon="0.1457900">
        <time>2021-05-08T05:08:00Z</time>
      </trkpt>
      <trkpt lat="41.3280700" lon="0.1459300">
        <time>2021-05-08T05:08:00Z</time>
      </trkpt>
      <trkpt lat="41.3280900" lon="0.1460700">
        <time>2021-05-08T05:08:00Z</time>
      </trkpt>
      <trkpt lat="41.3281000" lon="0.1461400">
        <time>2021-05-08T05:08:00Z</time>
      </trkpt>
      <trkpt lat="41.3281700" lon="0.1462500">
        <time>2021-05-08T05:08:00Z</time>
      </trkpt>
      <trkpt lat="41.3282900" lon="0.1463700">
        <time>2021-05-08T05:08:00Z</time>
      </trkpt>
      <trkpt lat="41.3283900" lon="0.1465400">
        <time>2021-05-08T05:08:00Z</time>
      </trkpt>
      <trkpt lat="41.3284100" lon="0.1466600">
        <time>2021-05-08T05:08:00Z</time>
      </trkpt>
      <trkpt lat="41.3284400" lon="0.1467900">
        <time>2021-05-08T05:08:00Z</time>
      </trkpt>
      <trkpt lat="41.3284500" lon="0.1469900">
        <time>2021-05-08T05:08:00Z</time>
      </trkpt>
      <trkpt lat="41.3284900" lon="0.1471000">
        <time>2021-05-08T05:08:00Z</time>
      </trkpt>
      <trkpt lat="41.3285500" lon="0.1471800">
        <time>2021-05-08T05:08:00Z</time>
      </trkpt>
      <trkpt lat="41.3286100" lon="0.1472300">
        <time>2021-05-08T05:08:00Z</time>
      </trkpt>
      <trkpt lat="41.3287100" lon="0.1473100">
        <time>2021-05-08T05:08:00Z</time>
      </trkpt>
      <trkpt lat="41.3288100" lon="0.1473800">
        <time>2021-05-08T05:08:00Z</time>
      </trkpt>
      <trkpt lat="41.3288700" lon="0.1474300">
        <time>2021-05-08T05:08:00Z</time>
      </trkpt>
      <trkpt lat="41.3289900" lon="0.1474900">
        <time>2021-05-08T05:08:00Z</time>
      </trkpt>
      <trkpt lat="41.3290700" lon="0.1475700">
        <time>2021-05-08T05:08:00Z</time>
      </trkpt>
      <trkpt lat="41.3291900" lon="0.1476800">
        <time>2021-05-08T05:08:00Z</time>
      </trkpt>
      <trkpt lat="41.3292800" lon="0.1477200">
        <time>2021-05-08T05:08:00Z</time>
      </trkpt>
      <trkpt lat="41.3294100" lon="0.1478000">
        <time>2021-05-08T05:08:00Z</time>
      </trkpt>
      <trkpt lat="41.3295200" lon="0.1478800">
        <time>2021-05-08T05:08:00Z</time>
      </trkpt>
      <trkpt lat="41.3296700" lon="0.1479200">
        <time>2021-05-08T05:08:00Z</time>
      </trkpt>
      <trkpt lat="41.3297900" lon="0.1479400">
        <time>2021-05-08T05:08:00Z</time>
      </trkpt>
      <trkpt lat="41.3299200" lon="0.1479400">
        <time>2021-05-08T05:08:00Z</time>
      </trkpt>
      <trkpt lat="41.3300500" lon="0.1479400">
        <time>2021-05-08T05:08:00Z</time>
      </trkpt>
      <trkpt lat="41.3301600" lon="0.1479300">
        <time>2021-05-08T05:08:00Z</time>
      </trkpt>
      <trkpt lat="41.3302900" lon="0.1479500">
        <time>2021-05-08T05:08:00Z</time>
      </trkpt>
      <trkpt lat="41.3303800" lon="0.1480000">
        <time>2021-05-08T05:08:00Z</time>
      </trkpt>
      <trkpt lat="41.3305300" lon="0.1480500">
        <time>2021-05-08T05:08:00Z</time>
      </trkpt>
      <trkpt lat="41.3306800" lon="0.1480300">
        <time>2021-05-08T05:08:00Z</time>
      </trkpt>
      <trkpt lat="41.3307700" lon="0.1480300">
        <time>2021-05-08T05:08:00Z</time>
      </trkpt>
      <trkpt lat="41.3308300" lon="0.1480800">
        <time>2021-05-08T05:08:00Z</time>
      </trkpt>
      <trkpt lat="41.3308600" lon="0.1481900">
        <time>2021-05-08T05:08:00Z</time>
      </trkpt>
      <trkpt lat="41.3308700" lon="0.1484100">
        <time>2021-05-08T05:08:00Z</time>
      </trkpt>
      <trkpt lat="41.3308700" lon="0.1485300">
        <time>2021-05-08T05:08:00Z</time>
      </trkpt>
      <trkpt lat="41.3308500" lon="0.1486200">
        <time>2021-05-08T05:08:00Z</time>
      </trkpt>
      <trkpt lat="41.3308500" lon="0.1487000">
        <time>2021-05-08T05:08:00Z</time>
      </trkpt>
      <trkpt lat="41.3308700" lon="0.1488300">
        <time>2021-05-08T05:08:00Z</time>
      </trkpt>
      <trkpt lat="41.3309100" lon="0.1489600">
        <time>2021-05-08T05:08:00Z</time>
      </trkpt>
      <trkpt lat="41.3309800" lon="0.1490900">
        <time>2021-05-08T05:08:00Z</time>
      </trkpt>
      <trkpt lat="41.3310500" lon="0.1492600">
        <time>2021-05-08T05:08:00Z</time>
      </trkpt>
      <trkpt lat="41.3311100" lon="0.1494000">
        <time>2021-05-08T05:08:00Z</time>
      </trkpt>
      <trkpt lat="41.3312100" lon="0.1495300">
        <time>2021-05-08T05:08:00Z</time>
      </trkpt>
      <trkpt lat="41.3313000" lon="0.1496400">
        <time>2021-05-08T05:08:00Z</time>
      </trkpt>
      <trkpt lat="41.3314100" lon="0.1497400">
        <time>2021-05-08T05:08:00Z</time>
      </trkpt>
      <trkpt lat="41.3315100" lon="0.1498300">
        <time>2021-05-08T05:08:00Z</time>
      </trkpt>
      <trkpt lat="41.3316200" lon="0.1499400">
        <time>2021-05-08T05:08:00Z</time>
      </trkpt>
      <trkpt lat="41.3317400" lon="0.1500100">
        <time>2021-05-08T05:08:00Z</time>
      </trkpt>
      <trkpt lat="41.3318300" lon="0.1500200">
        <time>2021-05-08T05:08:00Z</time>
      </trkpt>
      <trkpt lat="41.3319200" lon="0.1499600">
        <time>2021-05-08T05:08:00Z</time>
      </trkpt>
      <trkpt lat="41.3320300" lon="0.1499100">
        <time>2021-05-08T05:08:00Z</time>
      </trkpt>
      <trkpt lat="41.3321500" lon="0.1498300">
        <time>2021-05-08T05:08:00Z</time>
      </trkpt>
      <trkpt lat="41.3322800" lon="0.1498300">
        <time>2021-05-08T05:08:00Z</time>
      </trkpt>
      <trkpt lat="41.3323500" lon="0.1499100">
        <time>2021-05-08T05:08:00Z</time>
      </trkpt>
      <trkpt lat="41.3324600" lon="0.1500700">
        <time>2021-05-08T05:08:00Z</time>
      </trkpt>
      <trkpt lat="41.3325400" lon="0.1501300">
        <time>2021-05-08T05:08:00Z</time>
      </trkpt>
      <trkpt lat="41.3326300" lon="0.1501800">
        <time>2021-05-08T05:08:00Z</time>
      </trkpt>
      <trkpt lat="41.3326700" lon="0.1502400">
        <time>2021-05-08T05:08:00Z</time>
      </trkpt>
      <trkpt lat="41.3327600" lon="0.1503200">
        <time>2021-05-08T05:08:00Z</time>
      </trkpt>
      <trkpt lat="41.3328500" lon="0.1504100">
        <time>2021-05-08T05:08:00Z</time>
      </trkpt>
      <trkpt lat="41.3329500" lon="0.1504700">
        <time>2021-05-08T05:08:00Z</time>
      </trkpt>
      <trkpt lat="41.3330700" lon="0.1505600">
        <time>2021-05-08T05:08:00Z</time>
      </trkpt>
      <trkpt lat="41.3331300" lon="0.1506200">
        <time>2021-05-08T05:08:00Z</time>
      </trkpt>
      <trkpt lat="41.3332200" lon="0.1507300">
        <time>2021-05-08T05:08:00Z</time>
      </trkpt>
      <trkpt lat="41.3333000" lon="0.1507900">
        <time>2021-05-08T05:08:00Z</time>
      </trkpt>
      <trkpt lat="41.3334100" lon="0.1507900">
        <time>2021-05-08T05:08:00Z</time>
      </trkpt>
      <trkpt lat="41.3335000" lon="0.1506900">
        <time>2021-05-08T05:08:00Z</time>
      </trkpt>
      <trkpt lat="41.3335500" lon="0.1506100">
        <time>2021-05-08T05:08:00Z</time>
      </trkpt>
      <trkpt lat="41.3336000" lon="0.1505200">
        <time>2021-05-08T05:08:00Z</time>
      </trkpt>
      <trkpt lat="41.3336500" lon="0.1504300">
        <time>2021-05-08T05:08:00Z</time>
      </trkpt>
      <trkpt lat="41.3337200" lon="0.1503100">
        <time>2021-05-08T05:08:00Z</time>
      </trkpt>
      <trkpt lat="41.3337700" lon="0.1502100">
        <time>2021-05-08T05:08:00Z</time>
      </trkpt>
      <trkpt lat="41.3338500" lon="0.1500800">
        <time>2021-05-08T05:08:00Z</time>
      </trkpt>
      <trkpt lat="41.3339100" lon="0.1500100">
        <time>2021-05-08T05:08:00Z</time>
      </trkpt>
      <trkpt lat="41.3339800" lon="0.1499900">
        <time>2021-05-08T05:08:00Z</time>
      </trkpt>
      <trkpt lat="41.3340900" lon="0.1499500">
        <time>2021-05-08T05:08:00Z</time>
      </trkpt>
      <trkpt lat="41.3341800" lon="0.1499100">
        <time>2021-05-08T05:08:00Z</time>
      </trkpt>
      <trkpt lat="41.3342700" lon="0.1498900">
        <time>2021-05-08T05:08:00Z</time>
      </trkpt>
      <trkpt lat="41.3343400" lon="0.1499600">
        <time>2021-05-08T05:08:00Z</time>
      </trkpt>
      <trkpt lat="41.3344200" lon="0.1501100">
        <time>2021-05-08T05:08:00Z</time>
      </trkpt>
      <trkpt lat="41.3344700" lon="0.1502100">
        <time>2021-05-08T05:08:00Z</time>
      </trkpt>
      <trkpt lat="41.3345300" lon="0.1503400">
        <time>2021-05-08T05:08:00Z</time>
      </trkpt>
      <trkpt lat="41.3345700" lon="0.1504700">
        <time>2021-05-08T05:08:00Z</time>
      </trkpt>
      <trkpt lat="41.3346200" lon="0.1506000">
        <time>2021-05-08T05:08:00Z</time>
      </trkpt>
      <trkpt lat="41.3346800" lon="0.1507200">
        <time>2021-05-08T05:08:00Z</time>
      </trkpt>
      <trkpt lat="41.3347500" lon="0.1508200">
        <time>2021-05-08T05:08:00Z</time>
      </trkpt>
      <trkpt lat="41.3348400" lon="0.1509200">
        <time>2021-05-08T05:08:00Z</time>
      </trkpt>
      <trkpt lat="41.3349300" lon="0.1509900">
        <time>2021-05-08T05:08:00Z</time>
      </trkpt>
      <trkpt lat="41.3350300" lon="0.1510300">
        <time>2021-05-08T05:08:00Z</time>
      </trkpt>
      <trkpt lat="41.3351400" lon="0.1510700">
        <time>2021-05-08T05:08:00Z</time>
      </trkpt>
      <trkpt lat="41.3352300" lon="0.1510900">
        <time>2021-05-08T05:08:00Z</time>
      </trkpt>
      <trkpt lat="41.3353100" lon="0.1511300">
        <time>2021-05-08T05:08:00Z</time>
      </trkpt>
      <trkpt lat="41.3353800" lon="0.1511600">
        <time>2021-05-08T05:08:00Z</time>
      </trkpt>
      <trkpt lat="41.3354500" lon="0.1512100">
        <time>2021-05-08T05:08:00Z</time>
      </trkpt>
      <trkpt lat="41.3355400" lon="0.1512900">
        <time>2021-05-08T05:08:00Z</time>
      </trkpt>
      <trkpt lat="41.3356200" lon="0.1513500">
        <time>2021-05-08T05:08:00Z</time>
      </trkpt>
      <trkpt lat="41.3357800" lon="0.1513700">
        <time>2021-05-08T05:08:00Z</time>
      </trkpt>
      <trkpt lat="41.3359300" lon="0.1514100">
        <time>2021-05-08T05:08:00Z</time>
      </trkpt>
      <trkpt lat="41.3360300" lon="0.1514800">
        <time>2021-05-08T05:08:00Z</time>
      </trkpt>
      <trkpt lat="41.3361000" lon="0.1515900">
        <time>2021-05-08T05:08:00Z</time>
      </trkpt>
      <trkpt lat="41.3361500" lon="0.1517300">
        <time>2021-05-08T05:08:00Z</time>
      </trkpt>
      <trkpt lat="41.3361900" lon="0.1518600">
        <time>2021-05-08T05:08:00Z</time>
      </trkpt>
      <trkpt lat="41.3362500" lon="0.1520200">
        <time>2021-05-08T05:08:00Z</time>
      </trkpt>
      <trkpt lat="41.3363100" lon="0.1521500">
        <time>2021-05-08T05:08:00Z</time>
      </trkpt>
      <trkpt lat="41.3363400" lon="0.1522900">
        <time>2021-05-08T05:08:00Z</time>
      </trkpt>
      <trkpt lat="41.3363800" lon="0.1523800">
        <time>2021-05-08T05:08:00Z</time>
      </trkpt>
      <trkpt lat="41.3364000" lon="0.1525500">
        <time>2021-05-08T05:08:00Z</time>
      </trkpt>
      <trkpt lat="41.3364100" lon="0.1527000">
        <time>2021-05-08T05:08:00Z</time>
      </trkpt>
      <trkpt lat="41.3364500" lon="0.1527800">
        <time>2021-05-08T05:08:00Z</time>
      </trkpt>
      <trkpt lat="41.3365200" lon="0.1528200">
        <time>2021-05-08T05:08:00Z</time>
      </trkpt>
      <trkpt lat="41.3365800" lon="0.1528400">
        <time>2021-05-08T05:08:00Z</time>
      </trkpt>
      <trkpt lat="41.3366200" lon="0.1527700">
        <time>2021-05-08T05:08:00Z</time>
      </trkpt>
      <trkpt lat="41.3368400" lon="0.1522400">
        <time>2021-05-08T05:08:00Z</time>
      </trkpt>
      <trkpt lat="41.3369600" lon="0.1519500">
        <time>2021-05-08T05:08:00Z</time>
      </trkpt>
      <trkpt lat="41.3369900" lon="0.1519000">
        <time>2021-05-08T05:08:00Z</time>
      </trkpt>
      <trkpt lat="41.3370400" lon="0.1518400">
        <time>2021-05-08T05:08:00Z</time>
      </trkpt>
      <trkpt lat="41.3371200" lon="0.1518100">
        <time>2021-05-08T05:08:00Z</time>
      </trkpt>
      <trkpt lat="41.3372200" lon="0.1517400">
        <time>2021-05-08T05:08:00Z</time>
      </trkpt>
      <trkpt lat="41.3373500" lon="0.1516500">
        <time>2021-05-08T05:08:00Z</time>
      </trkpt>
      <trkpt lat="41.3374600" lon="0.1515900">
        <time>2021-05-08T05:08:00Z</time>
      </trkpt>
      <trkpt lat="41.3376100" lon="0.1515000">
        <time>2021-05-08T05:08:00Z</time>
      </trkpt>
      <trkpt lat="41.3377400" lon="0.1514200">
        <time>2021-05-08T05:08:00Z</time>
      </trkpt>
      <trkpt lat="41.3378900" lon="0.1513300">
        <time>2021-05-08T05:08:00Z</time>
      </trkpt>
      <trkpt lat="41.3380100" lon="0.1512500">
        <time>2021-05-08T05:08:00Z</time>
      </trkpt>
      <trkpt lat="41.3381200" lon="0.1511800">
        <time>2021-05-08T05:08:00Z</time>
      </trkpt>
      <trkpt lat="41.3381900" lon="0.1511300">
        <time>2021-05-08T05:08:00Z</time>
      </trkpt>
      <trkpt lat="41.3382800" lon="0.1510300">
        <time>2021-05-08T05:08:00Z</time>
      </trkpt>
      <trkpt lat="41.3384000" lon="0.1509400">
        <time>2021-05-08T05:08:00Z</time>
      </trkpt>
      <trkpt lat="41.3384700" lon="0.1508700">
        <time>2021-05-08T05:08:00Z</time>
      </trkpt>
      <trkpt lat="41.3386200" lon="0.1507400">
        <time>2021-05-08T05:08:00Z</time>
      </trkpt>
      <trkpt lat="41.3387300" lon="0.1506300">
        <time>2021-05-08T05:08:00Z</time>
      </trkpt>
      <trkpt lat="41.3387900" lon="0.1504900">
        <time>2021-05-08T05:08:00Z</time>
      </trkpt>
      <trkpt lat="41.3388500" lon="0.1503100">
        <time>2021-05-08T05:08:00Z</time>
      </trkpt>
      <trkpt lat="41.3389400" lon="0.1501000">
        <time>2021-05-08T05:08:00Z</time>
      </trkpt>
      <trkpt lat="41.3390200" lon="0.1499100">
        <time>2021-05-08T05:08:00Z</time>
      </trkpt>
      <trkpt lat="41.3390700" lon="0.1498000">
        <time>2021-05-08T05:08:00Z</time>
      </trkpt>
      <trkpt lat="41.3391200" lon="0.1497000">
        <time>2021-05-08T05:08:00Z</time>
      </trkpt>
      <trkpt lat="41.3391900" lon="0.1495300">
        <time>2021-05-08T05:08:00Z</time>
      </trkpt>
      <trkpt lat="41.3392600" lon="0.1494100">
        <time>2021-05-08T05:08:00Z</time>
      </trkpt>
      <trkpt lat="41.3393300" lon="0.1493000">
        <time>2021-05-08T05:08:00Z</time>
      </trkpt>
      <trkpt lat="41.3394300" lon="0.1491800">
        <time>2021-05-08T05:08:00Z</time>
      </trkpt>
      <trkpt lat="41.3395900" lon="0.1491000">
        <time>2021-05-08T05:08:00Z</time>
      </trkpt>
      <trkpt lat="41.3397300" lon="0.1490700">
        <time>2021-05-08T05:08:00Z</time>
      </trkpt>
      <trkpt lat="41.3400800" lon="0.1490000">
        <time>2021-05-08T05:08:00Z</time>
      </trkpt>
      <trkpt lat="41.3408300" lon="0.1488400">
        <time>2021-05-08T05:08:00Z</time>
      </trkpt>
      <trkpt lat="41.3410300" lon="0.1487800">
        <time>2021-05-08T05:08:00Z</time>
      </trkpt>
      <trkpt lat="41.3411300" lon="0.1487000">
        <time>2021-05-08T05:08:00Z</time>
      </trkpt>
      <trkpt lat="41.3412700" lon="0.1485700">
        <time>2021-05-08T05:08:00Z</time>
      </trkpt>
      <trkpt lat="41.3414400" lon="0.1482400">
        <time>2021-05-08T05:08:00Z</time>
      </trkpt>
      <trkpt lat="41.3416500" lon="0.1479800">
        <time>2021-05-08T05:08:00Z</time>
      </trkpt>
      <trkpt lat="41.3419100" lon="0.1476300">
        <time>2021-05-08T05:08:00Z</time>
      </trkpt>
      <trkpt lat="41.3422200" lon="0.1471700">
        <time>2021-05-08T05:08:00Z</time>
      </trkpt>
      <trkpt lat="41.3423700" lon="0.1469300">
        <time>2021-05-08T05:08:00Z</time>
      </trkpt>
      <trkpt lat="41.3424800" lon="0.1467900">
        <time>2021-05-08T05:08:00Z</time>
      </trkpt>
      <trkpt lat="41.3426000" lon="0.1466800">
        <time>2021-05-08T05:08:00Z</time>
      </trkpt>
      <trkpt lat="41.3428400" lon="0.1465800">
        <time>2021-05-08T05:08:00Z</time>
      </trkpt>
      <trkpt lat="41.3431400" lon="0.1465000">
        <time>2021-05-08T05:08:00Z</time>
      </trkpt>
      <trkpt lat="41.3434500" lon="0.1463500">
        <time>2021-05-08T05:08:00Z</time>
      </trkpt>
      <trkpt lat="41.3435900" lon="0.1461100">
        <time>2021-05-08T05:08:00Z</time>
      </trkpt>
      <trkpt lat="41.3436600" lon="0.1459400">
        <time>2021-05-08T05:08:00Z</time>
      </trkpt>
      <trkpt lat="41.3437000" lon="0.1458300">
        <time>2021-05-08T05:08:00Z</time>
      </trkpt>
      <trkpt lat="41.3438100" lon="0.1456400">
        <time>2021-05-08T05:08:00Z</time>
      </trkpt>
      <trkpt lat="41.3438700" lon="0.1455600">
        <time>2021-05-08T05:08:00Z</time>
      </trkpt>
      <trkpt lat="41.3439600" lon="0.1455000">
        <time>2021-05-08T05:08:00Z</time>
      </trkpt>
      <trkpt lat="41.3441000" lon="0.1454700">
        <time>2021-05-08T05:08:00Z</time>
      </trkpt>
      <trkpt lat="41.3442100" lon="0.1454900">
        <time>2021-05-08T05:08:00Z</time>
      </trkpt>
      <trkpt lat="41.3443100" lon="0.1455300">
        <time>2021-05-08T05:08:00Z</time>
      </trkpt>
      <trkpt lat="41.3443700" lon="0.1455900">
        <time>2021-05-08T05:08:00Z</time>
      </trkpt>
      <trkpt lat="41.3445200" lon="0.1457200">
        <time>2021-05-08T05:08:00Z</time>
      </trkpt>
      <trkpt lat="41.3446700" lon="0.1458300">
        <time>2021-05-08T05:08:00Z</time>
      </trkpt>
      <trkpt lat="41.3448500" lon="0.1459800">
        <time>2021-05-08T05:08:00Z</time>
      </trkpt>
      <trkpt lat="41.3451300" lon="0.1460800">
        <time>2021-05-08T05:08:00Z</time>
      </trkpt>
      <trkpt lat="41.3453900" lon="0.1460900">
        <time>2021-05-08T05:08:00Z</time>
      </trkpt>
      <trkpt lat="41.3455500" lon="0.1460100">
        <time>2021-05-08T05:08:00Z</time>
      </trkpt>
      <trkpt lat="41.3456400" lon="0.1459200">
        <time>2021-05-08T05:08:00Z</time>
      </trkpt>
      <trkpt lat="41.3457400" lon="0.1457700">
        <time>2021-05-08T05:08:00Z</time>
      </trkpt>
      <trkpt lat="41.3458000" lon="0.1456200">
        <time>2021-05-08T05:08:00Z</time>
      </trkpt>
      <trkpt lat="41.3458500" lon="0.1453800">
        <time>2021-05-08T05:08:00Z</time>
      </trkpt>
      <trkpt lat="41.3458700" lon="0.1452700">
        <time>2021-05-08T05:08:00Z</time>
      </trkpt>
      <trkpt lat="41.3458900" lon="0.1451400">
        <time>2021-05-08T05:08:00Z</time>
      </trkpt>
      <trkpt lat="41.3459300" lon="0.1449100">
        <time>2021-05-08T05:08:00Z</time>
      </trkpt>
      <trkpt lat="41.3459500" lon="0.1448000">
        <time>2021-05-08T05:08:00Z</time>
      </trkpt>
      <trkpt lat="41.3459800" lon="0.1446700">
        <time>2021-05-08T05:08:00Z</time>
      </trkpt>
      <trkpt lat="41.3460100" lon="0.1444800">
        <time>2021-05-08T05:08:00Z</time>
      </trkpt>
      <trkpt lat="41.3460400" lon="0.1442700">
        <time>2021-05-08T05:08:00Z</time>
      </trkpt>
      <trkpt lat="41.3460500" lon="0.1440900">
        <time>2021-05-08T05:08:00Z</time>
      </trkpt>
      <trkpt lat="41.3460200" lon="0.1439100">
        <time>2021-05-08T05:08:00Z</time>
      </trkpt>
      <trkpt lat="41.3460000" lon="0.1435400">
        <time>2021-05-08T05:08:00Z</time>
      </trkpt>
      <trkpt lat="41.3460000" lon="0.1434300">
        <time>2021-05-08T05:08:00Z</time>
      </trkpt>
      <trkpt lat="41.3460000" lon="0.1431900">
        <time>2021-05-08T05:08:00Z</time>
      </trkpt>
      <trkpt lat="41.3460000" lon="0.1429200">
        <time>2021-05-08T05:08:00Z</time>
      </trkpt>
      <trkpt lat="41.3460000" lon="0.1427800">
        <time>2021-05-08T05:08:00Z</time>
      </trkpt>
      <trkpt lat="41.3460000" lon="0.1425400">
        <time>2021-05-08T05:08:00Z</time>
      </trkpt>
      <trkpt lat="41.3460000" lon="0.1424100">
        <time>2021-05-08T05:08:00Z</time>
      </trkpt>
      <trkpt lat="41.3460000" lon="0.1421700">
        <time>2021-05-08T05:08:00Z</time>
      </trkpt>
      <trkpt lat="41.3460000" lon="0.1420700">
        <time>2021-05-08T05:08:00Z</time>
      </trkpt>
      <trkpt lat="41.3460000" lon="0.1418500">
        <time>2021-05-08T05:08:00Z</time>
      </trkpt>
      <trkpt lat="41.3460200" lon="0.1416100">
        <time>2021-05-08T05:08:00Z</time>
      </trkpt>
      <trkpt lat="41.3460400" lon="0.1414800">
        <time>2021-05-08T05:08:00Z</time>
      </trkpt>
      <trkpt lat="41.3460600" lon="0.1413400">
        <time>2021-05-08T05:08:00Z</time>
      </trkpt>
      <trkpt lat="41.3461100" lon="0.1411300">
        <time>2021-05-08T05:08:00Z</time>
      </trkpt>
      <trkpt lat="41.3461400" lon="0.1410200">
        <time>2021-05-08T05:08:00Z</time>
      </trkpt>
      <trkpt lat="41.3461800" lon="0.1408900">
        <time>2021-05-08T05:08:00Z</time>
      </trkpt>
      <trkpt lat="41.3462400" lon="0.1406400">
        <time>2021-05-08T05:08:00Z</time>
      </trkpt>
      <trkpt lat="41.3462800" lon="0.1405300">
        <time>2021-05-08T05:08:00Z</time>
      </trkpt>
      <trkpt lat="41.3463500" lon="0.1402600">
        <time>2021-05-08T05:08:00Z</time>
      </trkpt>
      <trkpt lat="41.3464300" lon="0.1399000">
        <time>2021-05-08T05:08:00Z</time>
      </trkpt>
      <trkpt lat="41.3466300" lon="0.1393000">
        <time>2021-05-08T05:08:00Z</time>
      </trkpt>
      <trkpt lat="41.3467200" lon="0.1391200">
        <time>2021-05-08T05:08:00Z</time>
      </trkpt>
      <trkpt lat="41.3468500" lon="0.1388800">
        <time>2021-05-08T05:08:00Z</time>
      </trkpt>
      <trkpt lat="41.3470300" lon="0.1386300">
        <time>2021-05-08T05:08:00Z</time>
      </trkpt>
      <trkpt lat="41.3471400" lon="0.1385100">
        <time>2021-05-08T05:08:00Z</time>
      </trkpt>
      <trkpt lat="41.3472700" lon="0.1383600">
        <time>2021-05-08T05:08:00Z</time>
      </trkpt>
      <trkpt lat="41.3475900" lon="0.1379400">
        <time>2021-05-08T05:08:00Z</time>
      </trkpt>
      <trkpt lat="41.3476900" lon="0.1377700">
        <time>2021-05-08T05:08:00Z</time>
      </trkpt>
      <trkpt lat="41.3478200" lon="0.1374300">
        <time>2021-05-08T05:08:00Z</time>
      </trkpt>
      <trkpt lat="41.3478800" lon="0.1373100">
        <time>2021-05-08T05:08:00Z</time>
      </trkpt>
      <trkpt lat="41.3479300" lon="0.1371700">
        <time>2021-05-08T05:08:00Z</time>
      </trkpt>
      <trkpt lat="41.3479900" lon="0.1370400">
        <time>2021-05-08T05:08:00Z</time>
      </trkpt>
      <trkpt lat="41.3481000" lon="0.1368200">
        <time>2021-05-08T05:08:00Z</time>
      </trkpt>
      <trkpt lat="41.3481600" lon="0.1367100">
        <time>2021-05-08T05:08:00Z</time>
      </trkpt>
      <trkpt lat="41.3482100" lon="0.1365500">
        <time>2021-05-08T05:08:00Z</time>
      </trkpt>
      <trkpt lat="41.3482900" lon="0.1363100">
        <time>2021-05-08T05:08:00Z</time>
      </trkpt>
      <trkpt lat="41.3483600" lon="0.1361700">
        <time>2021-05-08T05:08:00Z</time>
      </trkpt>
      <trkpt lat="41.3484000" lon="0.1360600">
        <time>2021-05-08T05:08:00Z</time>
      </trkpt>
      <trkpt lat="41.3484600" lon="0.1359300">
        <time>2021-05-08T05:08:00Z</time>
      </trkpt>
      <trkpt lat="41.3485500" lon="0.1357500">
        <time>2021-05-08T05:08:00Z</time>
      </trkpt>
      <trkpt lat="41.3486100" lon="0.1356300">
        <time>2021-05-08T05:08:00Z</time>
      </trkpt>
      <trkpt lat="41.3486800" lon="0.1355000">
        <time>2021-05-08T05:08:00Z</time>
      </trkpt>
      <trkpt lat="41.3487200" lon="0.1353900">
        <time>2021-05-08T05:08:00Z</time>
      </trkpt>
      <trkpt lat="41.3487900" lon="0.1352600">
        <time>2021-05-08T05:08:00Z</time>
      </trkpt>
      <trkpt lat="41.3488900" lon="0.1350700">
        <time>2021-05-08T05:08:00Z</time>
      </trkpt>
      <trkpt lat="41.3489600" lon="0.1349600">
        <time>2021-05-08T05:08:00Z</time>
      </trkpt>
      <trkpt lat="41.3490400" lon="0.1348000">
        <time>2021-05-08T05:08:00Z</time>
      </trkpt>
      <trkpt lat="41.3491500" lon="0.1346600">
        <time>2021-05-08T05:08:00Z</time>
      </trkpt>
      <trkpt lat="41.3492500" lon="0.1346400">
        <time>2021-05-08T05:08:00Z</time>
      </trkpt>
      <trkpt lat="41.3493900" lon="0.1346700">
        <time>2021-05-08T05:08:00Z</time>
      </trkpt>
      <trkpt lat="41.3494900" lon="0.1346600">
        <time>2021-05-08T05:08:00Z</time>
      </trkpt>
      <trkpt lat="41.3496100" lon="0.1346600">
        <time>2021-05-08T05:08:00Z</time>
      </trkpt>
      <trkpt lat="41.3497300" lon="0.1344400">
        <time>2021-05-08T05:08:00Z</time>
      </trkpt>
      <trkpt lat="41.3498700" lon="0.1341500">
        <time>2021-05-08T05:08:00Z</time>
      </trkpt>
      <trkpt lat="41.3499500" lon="0.1339200">
        <time>2021-05-08T05:08:00Z</time>
      </trkpt>
      <trkpt lat="41.3500400" lon="0.1339000">
        <time>2021-05-08T05:08:00Z</time>
      </trkpt>
      <trkpt lat="41.3501400" lon="0.1340500">
        <time>2021-05-08T05:08:00Z</time>
      </trkpt>
      <trkpt lat="41.3501800" lon="0.1341900">
        <time>2021-05-08T05:08:00Z</time>
      </trkpt>
      <trkpt lat="41.3502600" lon="0.1345200">
        <time>2021-05-08T05:08:00Z</time>
      </trkpt>
      <trkpt lat="41.3503100" lon="0.1346700">
        <time>2021-05-08T05:08:00Z</time>
      </trkpt>
      <trkpt lat="41.3504000" lon="0.1347600">
        <time>2021-05-08T05:08:00Z</time>
      </trkpt>
      <trkpt lat="41.3505100" lon="0.1348300">
        <time>2021-05-08T05:08:00Z</time>
      </trkpt>
      <trkpt lat="41.3506800" lon="0.1349200">
        <time>2021-05-08T05:08:00Z</time>
      </trkpt>
      <trkpt lat="41.3508400" lon="0.1350200">
        <time>2021-05-08T05:08:00Z</time>
      </trkpt>
      <trkpt lat="41.3509500" lon="0.1350000">
        <time>2021-05-08T05:08:00Z</time>
      </trkpt>
      <trkpt lat="41.3510300" lon="0.1349000">
        <time>2021-05-08T05:08:00Z</time>
      </trkpt>
      <trkpt lat="41.3510700" lon="0.1347200">
        <time>2021-05-08T05:08:00Z</time>
      </trkpt>
      <trkpt lat="41.3511700" lon="0.1345300">
        <time>2021-05-08T05:08:00Z</time>
      </trkpt>
      <trkpt lat="41.3512800" lon="0.1343800">
        <time>2021-05-08T05:08:00Z</time>
      </trkpt>
      <trkpt lat="41.3513700" lon="0.1342500">
        <time>2021-05-08T05:08:00Z</time>
      </trkpt>
      <trkpt lat="41.3514600" lon="0.1340800">
        <time>2021-05-08T05:08:00Z</time>
      </trkpt>
      <trkpt lat="41.3515500" lon="0.1339000">
        <time>2021-05-08T05:08:00Z</time>
      </trkpt>
      <trkpt lat="41.3516700" lon="0.1338000">
        <time>2021-05-08T05:08:00Z</time>
      </trkpt>
      <trkpt lat="41.3517600" lon="0.1337800">
        <time>2021-05-08T05:08:00Z</time>
      </trkpt>
      <trkpt lat="41.3518700" lon="0.1338200">
        <time>2021-05-08T05:08:00Z</time>
      </trkpt>
      <trkpt lat="41.3520400" lon="0.1339200">
        <time>2021-05-08T05:08:00Z</time>
      </trkpt>
      <trkpt lat="41.3521800" lon="0.1339700">
        <time>2021-05-08T05:08:00Z</time>
      </trkpt>
      <trkpt lat="41.3522900" lon="0.1339200">
        <time>2021-05-08T05:08:00Z</time>
      </trkpt>
      <trkpt lat="41.3523300" lon="0.1338500">
        <time>2021-05-08T05:08:00Z</time>
      </trkpt>
      <trkpt lat="41.3523500" lon="0.1337300">
        <time>2021-05-08T05:08:00Z</time>
      </trkpt>
      <trkpt lat="41.3523300" lon="0.1336300">
        <time>2021-05-08T05:08:00Z</time>
      </trkpt>
      <trkpt lat="41.3523200" lon="0.1334800">
        <time>2021-05-08T05:08:00Z</time>
      </trkpt>
      <trkpt lat="41.3523800" lon="0.1332900">
        <time>2021-05-08T05:08:00Z</time>
      </trkpt>
      <trkpt lat="41.3525600" lon="0.1331800">
        <time>2021-05-08T05:08:00Z</time>
      </trkpt>
      <trkpt lat="41.3529400" lon="0.1330500">
        <time>2021-05-08T05:08:00Z</time>
      </trkpt>
      <trkpt lat="41.3530500" lon="0.1330500">
        <time>2021-05-08T05:08:00Z</time>
      </trkpt>
      <trkpt lat="41.3531300" lon="0.1331000">
        <time>2021-05-08T05:08:00Z</time>
      </trkpt>
      <trkpt lat="41.3532100" lon="0.1332700">
        <time>2021-05-08T05:08:00Z</time>
      </trkpt>
      <trkpt lat="41.3532700" lon="0.1333600">
        <time>2021-05-08T05:08:00Z</time>
      </trkpt>
      <trkpt lat="41.3534000" lon="0.1333400">
        <time>2021-05-08T05:08:00Z</time>
      </trkpt>
      <trkpt lat="41.3535300" lon="0.1332600">
        <time>2021-05-08T05:08:00Z</time>
      </trkpt>
      <trkpt lat="41.3536900" lon="0.1332300">
        <time>2021-05-08T05:08:00Z</time>
      </trkpt>
      <trkpt lat="41.3538400" lon="0.1332300">
        <time>2021-05-08T05:08:00Z</time>
      </trkpt>
      <trkpt lat="41.3539000" lon="0.1332400">
        <time>2021-05-08T05:08:00Z</time>
      </trkpt>
      <trkpt lat="41.3540700" lon="0.1333300">
        <time>2021-05-08T05:08:00Z</time>
      </trkpt>
      <trkpt lat="41.3542100" lon="0.1333700">
        <time>2021-05-08T05:08:00Z</time>
      </trkpt>
      <trkpt lat="41.3543500" lon="0.1333400">
        <time>2021-05-08T05:08:00Z</time>
      </trkpt>
      <trkpt lat="41.3544200" lon="0.1332800">
        <time>2021-05-08T05:08:00Z</time>
      </trkpt>
      <trkpt lat="41.3544600" lon="0.1332000">
        <time>2021-05-08T05:08:00Z</time>
      </trkpt>
      <trkpt lat="41.3544600" lon="0.1330800">
        <time>2021-05-08T05:08:00Z</time>
      </trkpt>
      <trkpt lat="41.3544600" lon="0.1329100">
        <time>2021-05-08T05:08:00Z</time>
      </trkpt>
      <trkpt lat="41.3545700" lon="0.1325800">
        <time>2021-05-08T05:08:00Z</time>
      </trkpt>
      <trkpt lat="41.3545900" lon="0.1324600">
        <time>2021-05-08T05:08:00Z</time>
      </trkpt>
      <trkpt lat="41.3546200" lon="0.1322800">
        <time>2021-05-08T05:08:00Z</time>
      </trkpt>
      <trkpt lat="41.3546200" lon="0.1321700">
        <time>2021-05-08T05:08:00Z</time>
      </trkpt>
      <trkpt lat="41.3545800" lon="0.1319800">
        <time>2021-05-08T05:08:00Z</time>
      </trkpt>
      <trkpt lat="41.3545300" lon="0.1318500">
        <time>2021-05-08T05:08:00Z</time>
      </trkpt>
      <trkpt lat="41.3544400" lon="0.1317000">
        <time>2021-05-08T05:08:00Z</time>
      </trkpt>
      <trkpt lat="41.3544400" lon="0.1315700">
        <time>2021-05-08T05:08:00Z</time>
      </trkpt>
      <trkpt lat="41.3544800" lon="0.1315000">
        <time>2021-05-08T05:08:00Z</time>
      </trkpt>
      <trkpt lat="41.3546000" lon="0.1314300">
        <time>2021-05-08T05:08:00Z</time>
      </trkpt>
      <trkpt lat="41.3546700" lon="0.1314100">
        <time>2021-05-08T05:08:00Z</time>
      </trkpt>
      <trkpt lat="41.3547400" lon="0.1314300">
        <time>2021-05-08T05:08:00Z</time>
      </trkpt>
      <trkpt lat="41.3548400" lon="0.1314800">
        <time>2021-05-08T05:08:00Z</time>
      </trkpt>
      <trkpt lat="41.3549900" lon="0.1315800">
        <time>2021-05-08T05:08:00Z</time>
      </trkpt>
      <trkpt lat="41.3551400" lon="0.1316900">
        <time>2021-05-08T05:08:00Z</time>
      </trkpt>
      <trkpt lat="41.3552300" lon="0.1317700">
        <time>2021-05-08T05:08:00Z</time>
      </trkpt>
      <trkpt lat="41.3553300" lon="0.1318500">
        <time>2021-05-08T05:08:00Z</time>
      </trkpt>
      <trkpt lat="41.3553800" lon="0.1318400">
        <time>2021-05-08T05:08:00Z</time>
      </trkpt>
      <trkpt lat="41.3555100" lon="0.1317100">
        <time>2021-05-08T05:08:00Z</time>
      </trkpt>
      <trkpt lat="41.3555800" lon="0.1316700">
        <time>2021-05-08T05:08:00Z</time>
      </trkpt>
      <trkpt lat="41.3557200" lon="0.1317000">
        <time>2021-05-08T05:08:00Z</time>
      </trkpt>
      <trkpt lat="41.3558600" lon="0.1317700">
        <time>2021-05-08T05:08:00Z</time>
      </trkpt>
      <trkpt lat="41.3559600" lon="0.1317900">
        <time>2021-05-08T05:08:00Z</time>
      </trkpt>
      <trkpt lat="41.3560100" lon="0.1317500">
        <time>2021-05-08T05:08:00Z</time>
      </trkpt>
      <trkpt lat="41.3560800" lon="0.1316800">
        <time>2021-05-08T05:08:00Z</time>
      </trkpt>
      <trkpt lat="41.3561100" lon="0.1314500">
        <time>2021-05-08T05:08:00Z</time>
      </trkpt>
      <trkpt lat="41.3561200" lon="0.1312600">
        <time>2021-05-08T05:08:00Z</time>
      </trkpt>
      <trkpt lat="41.3561100" lon="0.1311100">
        <time>2021-05-08T05:08:00Z</time>
      </trkpt>
      <trkpt lat="41.3560900" lon="0.1310200">
        <time>2021-05-08T05:08:00Z</time>
      </trkpt>
      <trkpt lat="41.3560900" lon="0.1308500">
        <time>2021-05-08T05:08:00Z</time>
      </trkpt>
      <trkpt lat="41.3561800" lon="0.1306600">
        <time>2021-05-08T05:08:00Z</time>
      </trkpt>
      <trkpt lat="41.3563300" lon="0.1304800">
        <time>2021-05-08T05:08:00Z</time>
      </trkpt>
      <trkpt lat="41.3565200" lon="0.1304600">
        <time>2021-05-08T05:08:00Z</time>
      </trkpt>
      <trkpt lat="41.3565900" lon="0.1304200">
        <time>2021-05-08T05:08:00Z</time>
      </trkpt>
      <trkpt lat="41.3566700" lon="0.1302300">
        <time>2021-05-08T05:08:00Z</time>
      </trkpt>
      <trkpt lat="41.3566900" lon="0.1300800">
        <time>2021-05-08T05:08:00Z</time>
      </trkpt>
      <trkpt lat="41.3567100" lon="0.1299100">
        <time>2021-05-08T05:08:00Z</time>
      </trkpt>
      <trkpt lat="41.3567700" lon="0.1296800">
        <time>2021-05-08T05:08:00Z</time>
      </trkpt>
      <trkpt lat="41.3568200" lon="0.1295600">
        <time>2021-05-08T05:08:00Z</time>
      </trkpt>
      <trkpt lat="41.3569100" lon="0.1294800">
        <time>2021-05-08T05:08:00Z</time>
      </trkpt>
      <trkpt lat="41.3569700" lon="0.1294600">
        <time>2021-05-08T05:08:00Z</time>
      </trkpt>
      <trkpt lat="41.3570800" lon="0.1295200">
        <time>2021-05-08T05:08:00Z</time>
      </trkpt>
      <trkpt lat="41.3571500" lon="0.1296600">
        <time>2021-05-08T05:08:00Z</time>
      </trkpt>
      <trkpt lat="41.3572100" lon="0.1297500">
        <time>2021-05-08T05:08:00Z</time>
      </trkpt>
      <trkpt lat="41.3572600" lon="0.1298800">
        <time>2021-05-08T05:08:00Z</time>
      </trkpt>
      <trkpt lat="41.3573200" lon="0.1300200">
        <time>2021-05-08T05:08:00Z</time>
      </trkpt>
      <trkpt lat="41.3574100" lon="0.1302100">
        <time>2021-05-08T05:08:00Z</time>
      </trkpt>
      <trkpt lat="41.3575000" lon="0.1302000">
        <time>2021-05-08T05:08:00Z</time>
      </trkpt>
      <trkpt lat="41.3575800" lon="0.1301800">
        <time>2021-05-08T05:08:00Z</time>
      </trkpt>
      <trkpt lat="41.3576500" lon="0.1301200">
        <time>2021-05-08T05:08:00Z</time>
      </trkpt>
      <trkpt lat="41.3577100" lon="0.1299600">
        <time>2021-05-08T05:08:00Z</time>
      </trkpt>
      <trkpt lat="41.3577300" lon="0.1298300">
        <time>2021-05-08T05:08:00Z</time>
      </trkpt>
      <trkpt lat="41.3577700" lon="0.1297200">
        <time>2021-05-08T05:08:00Z</time>
      </trkpt>
      <trkpt lat="41.3578600" lon="0.1295400">
        <time>2021-05-08T05:08:00Z</time>
      </trkpt>
      <trkpt lat="41.3579900" lon="0.1293600">
        <time>2021-05-08T05:08:00Z</time>
      </trkpt>
      <trkpt lat="41.3581000" lon="0.1292600">
        <time>2021-05-08T05:08:00Z</time>
      </trkpt>
      <trkpt lat="41.3581600" lon="0.1292600">
        <time>2021-05-08T05:08:00Z</time>
      </trkpt>
      <trkpt lat="41.3582800" lon="0.1293300">
        <time>2021-05-08T05:08:00Z</time>
      </trkpt>
      <trkpt lat="41.3583800" lon="0.1294700">
        <time>2021-05-08T05:08:00Z</time>
      </trkpt>
      <trkpt lat="41.3584700" lon="0.1295500">
        <time>2021-05-08T05:08:00Z</time>
      </trkpt>
      <trkpt lat="41.3585300" lon="0.1295800">
        <time>2021-05-08T05:08:00Z</time>
      </trkpt>
      <trkpt lat="41.3586000" lon="0.1296500">
        <time>2021-05-08T05:08:00Z</time>
      </trkpt>
      <trkpt lat="41.3586500" lon="0.1298600">
        <time>2021-05-08T05:08:00Z</time>
      </trkpt>
      <trkpt lat="41.3586200" lon="0.1300400">
        <time>2021-05-08T05:08:00Z</time>
      </trkpt>
      <trkpt lat="41.3585900" lon="0.1302100">
        <time>2021-05-08T05:08:00Z</time>
      </trkpt>
      <trkpt lat="41.3585400" lon="0.1305800">
        <time>2021-05-08T05:08:00Z</time>
      </trkpt>
      <trkpt lat="41.3585200" lon="0.1306700">
        <time>2021-05-08T05:08:00Z</time>
      </trkpt>
      <trkpt lat="41.3584500" lon="0.1308100">
        <time>2021-05-08T05:08:00Z</time>
      </trkpt>
      <trkpt lat="41.3583600" lon="0.1309700">
        <time>2021-05-08T05:08:00Z</time>
      </trkpt>
      <trkpt lat="41.3583000" lon="0.1311000">
        <time>2021-05-08T05:08:00Z</time>
      </trkpt>
      <trkpt lat="41.3582700" lon="0.1313600">
        <time>2021-05-08T05:08:00Z</time>
      </trkpt>
      <trkpt lat="41.3583000" lon="0.1314500">
        <time>2021-05-08T05:08:00Z</time>
      </trkpt>
      <trkpt lat="41.3585000" lon="0.1314800">
        <time>2021-05-08T05:08:00Z</time>
      </trkpt>
      <trkpt lat="41.3585900" lon="0.1315200">
        <time>2021-05-08T05:08:00Z</time>
      </trkpt>
      <trkpt lat="41.3586100" lon="0.1315900">
        <time>2021-05-08T05:08:00Z</time>
      </trkpt>
      <trkpt lat="41.3586200" lon="0.1316900">
        <time>2021-05-08T05:08:00Z</time>
      </trkpt>
      <trkpt lat="41.3585800" lon="0.1317700">
        <time>2021-05-08T05:08:00Z</time>
      </trkpt>
      <trkpt lat="41.3585400" lon="0.1319000">
        <time>2021-05-08T05:08:00Z</time>
      </trkpt>
      <trkpt lat="41.3585400" lon="0.1319900">
        <time>2021-05-08T05:08:00Z</time>
      </trkpt>
      <trkpt lat="41.3585400" lon="0.1320700">
        <time>2021-05-08T05:08:00Z</time>
      </trkpt>
      <trkpt lat="41.3586500" lon="0.1321400">
        <time>2021-05-08T05:08:00Z</time>
      </trkpt>
      <trkpt lat="41.3587200" lon="0.1321200">
        <time>2021-05-08T05:08:00Z</time>
      </trkpt>
      <trkpt lat="41.3588300" lon="0.1320100">
        <time>2021-05-08T05:08:00Z</time>
      </trkpt>
      <trkpt lat="41.3589400" lon="0.1319400">
        <time>2021-05-08T05:08:00Z</time>
      </trkpt>
      <trkpt lat="41.3590600" lon="0.1319200">
        <time>2021-05-08T05:08:00Z</time>
      </trkpt>
      <trkpt lat="41.3591400" lon="0.1319800">
        <time>2021-05-08T05:08:00Z</time>
      </trkpt>
      <trkpt lat="41.3592000" lon="0.1322000">
        <time>2021-05-08T05:08:00Z</time>
      </trkpt>
      <trkpt lat="41.3592000" lon="0.1323800">
        <time>2021-05-08T05:08:00Z</time>
      </trkpt>
      <trkpt lat="41.3592300" lon="0.1324700">
        <time>2021-05-08T05:08:00Z</time>
      </trkpt>
      <trkpt lat="41.3592800" lon="0.1325000">
        <time>2021-05-08T05:08:00Z</time>
      </trkpt>
      <trkpt lat="41.3593200" lon="0.1325200">
        <time>2021-05-08T05:08:00Z</time>
      </trkpt>
      <trkpt lat="41.3594600" lon="0.1324700">
        <time>2021-05-08T05:08:00Z</time>
      </trkpt>
      <trkpt lat="41.3595700" lon="0.1324000">
        <time>2021-05-08T05:08:00Z</time>
      </trkpt>
      <trkpt lat="41.3596200" lon="0.1323500">
        <time>2021-05-08T05:08:00Z</time>
      </trkpt>
      <trkpt lat="41.3596400" lon="0.1322300">
        <time>2021-05-08T05:08:00Z</time>
      </trkpt>
      <trkpt lat="41.3596200" lon="0.1321200">
        <time>2021-05-08T05:08:00Z</time>
      </trkpt>
      <trkpt lat="41.3596300" lon="0.1319500">
        <time>2021-05-08T05:08:00Z</time>
      </trkpt>
      <trkpt lat="41.3596700" lon="0.1318000">
        <time>2021-05-08T05:08:00Z</time>
      </trkpt>
      <trkpt lat="41.3596700" lon="0.1317000">
        <time>2021-05-08T05:08:00Z</time>
      </trkpt>
      <trkpt lat="41.3596500" lon="0.1316400">
        <time>2021-05-08T05:08:00Z</time>
      </trkpt>
      <trkpt lat="41.3596100" lon="0.1314800">
        <time>2021-05-08T05:08:00Z</time>
      </trkpt>
      <trkpt lat="41.3595900" lon="0.1314000">
        <time>2021-05-08T05:08:00Z</time>
      </trkpt>
      <trkpt lat="41.3596300" lon="0.1313300">
        <time>2021-05-08T05:08:00Z</time>
      </trkpt>
      <trkpt lat="41.3596900" lon="0.1313000">
        <time>2021-05-08T05:08:00Z</time>
      </trkpt>
      <trkpt lat="41.3597500" lon="0.1312800">
        <time>2021-05-08T05:08:00Z</time>
      </trkpt>
      <trkpt lat="41.3598200" lon="0.1312700">
        <time>2021-05-08T05:08:00Z</time>
      </trkpt>
      <trkpt lat="41.3599600" lon="0.1312900">
        <time>2021-05-08T05:08:00Z</time>
      </trkpt>
      <trkpt lat="41.3601100" lon="0.1312900">
        <time>2021-05-08T05:08:00Z</time>
      </trkpt>
      <trkpt lat="41.3602600" lon="0.1312900">
        <time>2021-05-08T05:08:00Z</time>
      </trkpt>
      <trkpt lat="41.3603900" lon="0.1313100">
        <time>2021-05-08T05:08:00Z</time>
      </trkpt>
      <trkpt lat="41.3605400" lon="0.1313300">
        <time>2021-05-08T05:08:00Z</time>
      </trkpt>
      <trkpt lat="41.3607000" lon="0.1313700">
        <time>2021-05-08T05:08:00Z</time>
      </trkpt>
      <trkpt lat="41.3607900" lon="0.1314300">
        <time>2021-05-08T05:08:00Z</time>
      </trkpt>
      <trkpt lat="41.3609500" lon="0.1314400">
        <time>2021-05-08T05:08:00Z</time>
      </trkpt>
      <trkpt lat="41.3611000" lon="0.1313100">
        <time>2021-05-08T05:08:00Z</time>
      </trkpt>
      <trkpt lat="41.3612200" lon="0.1312100">
        <time>2021-05-08T05:08:00Z</time>
      </trkpt>
      <trkpt lat="41.3613800" lon="0.1311200">
        <time>2021-05-08T05:08:00Z</time>
      </trkpt>
      <trkpt lat="41.3614900" lon="0.1311000">
        <time>2021-05-08T05:08:00Z</time>
      </trkpt>
      <trkpt lat="41.3615500" lon="0.1311300">
        <time>2021-05-08T05:08:00Z</time>
      </trkpt>
      <trkpt lat="41.3616800" lon="0.1312000">
        <time>2021-05-08T05:08:00Z</time>
      </trkpt>
      <trkpt lat="41.3617900" lon="0.1313500">
        <time>2021-05-08T05:08:00Z</time>
      </trkpt>
      <trkpt lat="41.3618600" lon="0.1314900">
        <time>2021-05-08T05:08:00Z</time>
      </trkpt>
      <trkpt lat="41.3619000" lon="0.1316500">
        <time>2021-05-08T05:08:00Z</time>
      </trkpt>
      <trkpt lat="41.3619800" lon="0.1318800">
        <time>2021-05-08T05:08:00Z</time>
      </trkpt>
      <trkpt lat="41.3620200" lon="0.1320000">
        <time>2021-05-08T05:08:00Z</time>
      </trkpt>
      <trkpt lat="41.3620300" lon="0.1321400">
        <time>2021-05-08T05:08:00Z</time>
      </trkpt>
      <trkpt lat="41.3620200" lon="0.1322300">
        <time>2021-05-08T05:08:00Z</time>
      </trkpt>
      <trkpt lat="41.3619800" lon="0.1323200">
        <time>2021-05-08T05:08:00Z</time>
      </trkpt>
      <trkpt lat="41.3618800" lon="0.1324700">
        <time>2021-05-08T05:08:00Z</time>
      </trkpt>
      <trkpt lat="41.3618200" lon="0.1325600">
        <time>2021-05-08T05:08:00Z</time>
      </trkpt>
      <trkpt lat="41.3618000" lon="0.1326800">
        <time>2021-05-08T05:08:00Z</time>
      </trkpt>
      <trkpt lat="41.3618100" lon="0.1328000">
        <time>2021-05-08T05:08:00Z</time>
      </trkpt>
      <trkpt lat="41.3618800" lon="0.1328600">
        <time>2021-05-08T05:08:00Z</time>
      </trkpt>
      <trkpt lat="41.3620200" lon="0.1329000">
        <time>2021-05-08T05:08:00Z</time>
      </trkpt>
      <trkpt lat="41.3621200" lon="0.1329200">
        <time>2021-05-08T05:08:00Z</time>
      </trkpt>
      <trkpt lat="41.3622200" lon="0.1330000">
        <time>2021-05-08T05:08:00Z</time>
      </trkpt>
      <trkpt lat="41.3623500" lon="0.1331600">
        <time>2021-05-08T05:08:00Z</time>
      </trkpt>
      <trkpt lat="41.3624600" lon="0.1333500">
        <time>2021-05-08T05:08:00Z</time>
      </trkpt>
      <trkpt lat="41.3624800" lon="0.1335000">
        <time>2021-05-08T05:08:00Z</time>
      </trkpt>
      <trkpt lat="41.3624400" lon="0.1336700">
        <time>2021-05-08T05:08:00Z</time>
      </trkpt>
      <trkpt lat="41.3623700" lon="0.1338900">
        <time>2021-05-08T05:08:00Z</time>
      </trkpt>
      <trkpt lat="41.3622800" lon="0.1340900">
        <time>2021-05-08T05:08:00Z</time>
      </trkpt>
      <trkpt lat="41.3622600" lon="0.1341700">
        <time>2021-05-08T05:08:00Z</time>
      </trkpt>
      <trkpt lat="41.3623000" lon="0.1342500">
        <time>2021-05-08T05:08:00Z</time>
      </trkpt>
      <trkpt lat="41.3623900" lon="0.1343000">
        <time>2021-05-08T05:08:00Z</time>
      </trkpt>
      <trkpt lat="41.3625000" lon="0.1342200">
        <time>2021-05-08T05:08:00Z</time>
      </trkpt>
      <trkpt lat="41.3626300" lon="0.1341300">
        <time>2021-05-08T05:08:00Z</time>
      </trkpt>
      <trkpt lat="41.3628100" lon="0.1340700">
        <time>2021-05-08T05:08:00Z</time>
      </trkpt>
      <trkpt lat="41.3629500" lon="0.1340500">
        <time>2021-05-08T05:08:00Z</time>
      </trkpt>
      <trkpt lat="41.3630200" lon="0.1341100">
        <time>2021-05-08T05:08:00Z</time>
      </trkpt>
      <trkpt lat="41.3630700" lon="0.1341900">
        <time>2021-05-08T05:08:00Z</time>
      </trkpt>
      <trkpt lat="41.3631100" lon="0.1343600">
        <time>2021-05-08T05:08:00Z</time>
      </trkpt>
      <trkpt lat="41.3631700" lon="0.1345300">
        <time>2021-05-08T05:08:00Z</time>
      </trkpt>
      <trkpt lat="41.3632500" lon="0.1347100">
        <time>2021-05-08T05:08:00Z</time>
      </trkpt>
      <trkpt lat="41.3633400" lon="0.1347700">
        <time>2021-05-08T05:08:00Z</time>
      </trkpt>
      <trkpt lat="41.3634400" lon="0.1348000">
        <time>2021-05-08T05:08:00Z</time>
      </trkpt>
      <trkpt lat="41.3634900" lon="0.1347000">
        <time>2021-05-08T05:08:00Z</time>
      </trkpt>
      <trkpt lat="41.3635400" lon="0.1345100">
        <time>2021-05-08T05:08:00Z</time>
      </trkpt>
      <trkpt lat="41.3637100" lon="0.1340900">
        <time>2021-05-08T05:08:00Z</time>
      </trkpt>
      <trkpt lat="41.3638500" lon="0.1337800">
        <time>2021-05-08T05:08:00Z</time>
      </trkpt>
      <trkpt lat="41.3639000" lon="0.1337200">
        <time>2021-05-08T05:08:00Z</time>
      </trkpt>
      <trkpt lat="41.3639600" lon="0.1337100">
        <time>2021-05-08T05:08:00Z</time>
      </trkpt>
      <trkpt lat="41.3641100" lon="0.1337700">
        <time>2021-05-08T05:08:00Z</time>
      </trkpt>
      <trkpt lat="41.3641900" lon="0.1338200">
        <time>2021-05-08T05:08:00Z</time>
      </trkpt>
      <trkpt lat="41.3643000" lon="0.1338800">
        <time>2021-05-08T05:08:00Z</time>
      </trkpt>
      <trkpt lat="41.3644300" lon="0.1339400">
        <time>2021-05-08T05:08:00Z</time>
      </trkpt>
      <trkpt lat="41.3645100" lon="0.1339700">
        <time>2021-05-08T05:08:00Z</time>
      </trkpt>
      <trkpt lat="41.3645900" lon="0.1339100">
        <time>2021-05-08T05:08:00Z</time>
      </trkpt>
      <trkpt lat="41.3646700" lon="0.1338100">
        <time>2021-05-08T05:08:00Z</time>
      </trkpt>
      <trkpt lat="41.3647000" lon="0.1336200">
        <time>2021-05-08T05:08:00Z</time>
      </trkpt>
      <trkpt lat="41.3647100" lon="0.1334500">
        <time>2021-05-08T05:08:00Z</time>
      </trkpt>
      <trkpt lat="41.3647400" lon="0.1332700">
        <time>2021-05-08T05:08:00Z</time>
      </trkpt>
      <trkpt lat="41.3648100" lon="0.1331000">
        <time>2021-05-08T05:08:00Z</time>
      </trkpt>
      <trkpt lat="41.3650000" lon="0.1329400">
        <time>2021-05-08T05:08:00Z</time>
      </trkpt>
      <trkpt lat="41.3651600" lon="0.1328600">
        <time>2021-05-08T05:08:00Z</time>
      </trkpt>
      <trkpt lat="41.3656200" lon="0.1327400">
        <time>2021-05-08T05:08:00Z</time>
      </trkpt>
      <trkpt lat="41.3659000" lon="0.1326700">
        <time>2021-05-08T05:08:00Z</time>
      </trkpt>
      <trkpt lat="41.3660200" lon="0.1325600">
        <time>2021-05-08T05:08:00Z</time>
      </trkpt>
      <trkpt lat="41.3660800" lon="0.1324600">
        <time>2021-05-08T05:08:00Z</time>
      </trkpt>
      <trkpt lat="41.3663000" lon="0.1320100">
        <time>2021-05-08T05:08:00Z</time>
      </trkpt>
      <trkpt lat="41.3665000" lon="0.1317900">
        <time>2021-05-08T05:08:00Z</time>
      </trkpt>
      <trkpt lat="41.3666100" lon="0.1316200">
        <time>2021-05-08T05:08:00Z</time>
      </trkpt>
      <trkpt lat="41.3667100" lon="0.1314500">
        <time>2021-05-08T05:08:00Z</time>
      </trkpt>
      <trkpt lat="41.3667600" lon="0.1313600">
        <time>2021-05-08T05:08:00Z</time>
      </trkpt>
      <trkpt lat="41.3668500" lon="0.1312400">
        <time>2021-05-08T05:08:00Z</time>
      </trkpt>
      <trkpt lat="41.3669300" lon="0.1311700">
        <time>2021-05-08T05:08:00Z</time>
      </trkpt>
      <trkpt lat="41.3670200" lon="0.1310600">
        <time>2021-05-08T05:08:00Z</time>
      </trkpt>
      <trkpt lat="41.3670600" lon="0.1309600">
        <time>2021-05-08T05:08:00Z</time>
      </trkpt>
      <trkpt lat="41.3670900" lon="0.1307400">
        <time>2021-05-08T05:08:00Z</time>
      </trkpt>
      <trkpt lat="41.3671300" lon="0.1305500">
        <time>2021-05-08T05:08:00Z</time>
      </trkpt>
      <trkpt lat="41.3672100" lon="0.1303200">
        <time>2021-05-08T05:08:00Z</time>
      </trkpt>
      <trkpt lat="41.3672400" lon="0.1301900">
        <time>2021-05-08T05:08:00Z</time>
      </trkpt>
      <trkpt lat="41.3672400" lon="0.1299700">
        <time>2021-05-08T05:08:00Z</time>
      </trkpt>
      <trkpt lat="41.3672000" lon="0.1297600">
        <time>2021-05-08T05:08:00Z</time>
      </trkpt>
      <trkpt lat="41.3671600" lon="0.1295800">
        <time>2021-05-08T05:08:00Z</time>
      </trkpt>
      <trkpt lat="41.3671100" lon="0.1294200">
        <time>2021-05-08T05:08:00Z</time>
      </trkpt>
      <trkpt lat="41.3671300" lon="0.1293100">
        <time>2021-05-08T05:08:00Z</time>
      </trkpt>
      <trkpt lat="41.3671800" lon="0.1291900">
        <time>2021-05-08T05:08:00Z</time>
      </trkpt>
      <trkpt lat="41.3672400" lon="0.1291500">
        <time>2021-05-08T05:08:00Z</time>
      </trkpt>
      <trkpt lat="41.3673600" lon="0.1291200">
        <time>2021-05-08T05:08:00Z</time>
      </trkpt>
      <trkpt lat="41.3675100" lon="0.1291600">
        <time>2021-05-08T05:08:00Z</time>
      </trkpt>
      <trkpt lat="41.3676000" lon="0.1291800">
        <time>2021-05-08T05:08:00Z</time>
      </trkpt>
      <trkpt lat="41.3677000" lon="0.1292000">
        <time>2021-05-08T05:08:00Z</time>
      </trkpt>
      <trkpt lat="41.3678200" lon="0.1292300">
        <time>2021-05-08T05:08:00Z</time>
      </trkpt>
      <trkpt lat="41.3679500" lon="0.1292600">
        <time>2021-05-08T05:08:00Z</time>
      </trkpt>
      <trkpt lat="41.3680800" lon="0.1292900">
        <time>2021-05-08T05:08:00Z</time>
      </trkpt>
      <trkpt lat="41.3681800" lon="0.1293100">
        <time>2021-05-08T05:08:00Z</time>
      </trkpt>
      <trkpt lat="41.3682900" lon="0.1293300">
        <time>2021-05-08T05:08:00Z</time>
      </trkpt>
      <trkpt lat="41.3684000" lon="0.1293700">
        <time>2021-05-08T05:08:00Z</time>
      </trkpt>
      <trkpt lat="41.3685300" lon="0.1294100">
        <time>2021-05-08T05:08:00Z</time>
      </trkpt>
      <trkpt lat="41.3686100" lon="0.1294600">
        <time>2021-05-08T05:08:00Z</time>
      </trkpt>
      <trkpt lat="41.3686900" lon="0.1295100">
        <time>2021-05-08T05:08:00Z</time>
      </trkpt>
      <trkpt lat="41.3688000" lon="0.1296300">
        <time>2021-05-08T05:08:00Z</time>
      </trkpt>
      <trkpt lat="41.3688900" lon="0.1297800">
        <time>2021-05-08T05:08:00Z</time>
      </trkpt>
      <trkpt lat="41.3689600" lon="0.1299100">
        <time>2021-05-08T05:08:00Z</time>
      </trkpt>
      <trkpt lat="41.3690600" lon="0.1300400">
        <time>2021-05-08T05:08:00Z</time>
      </trkpt>
      <trkpt lat="41.3691000" lon="0.1301900">
        <time>2021-05-08T05:08:00Z</time>
      </trkpt>
      <trkpt lat="41.3691300" lon="0.1303600">
        <time>2021-05-08T05:08:00Z</time>
      </trkpt>
      <trkpt lat="41.3691300" lon="0.1305800">
        <time>2021-05-08T05:08:00Z</time>
      </trkpt>
      <trkpt lat="41.3691000" lon="0.1307700">
        <time>2021-05-08T05:08:00Z</time>
      </trkpt>
      <trkpt lat="41.3690600" lon="0.1309000">
        <time>2021-05-08T05:08:00Z</time>
      </trkpt>
      <trkpt lat="41.3690400" lon="0.1309800">
        <time>2021-05-08T05:08:00Z</time>
      </trkpt>
      <trkpt lat="41.3689800" lon="0.1311800">
        <time>2021-05-08T05:08:00Z</time>
      </trkpt>
      <trkpt lat="41.3689700" lon="0.1313400">
        <time>2021-05-08T05:08:00Z</time>
      </trkpt>
      <trkpt lat="41.3690000" lon="0.1314700">
        <time>2021-05-08T05:08:00Z</time>
      </trkpt>
      <trkpt lat="41.3691100" lon="0.1315200">
        <time>2021-05-08T05:08:00Z</time>
      </trkpt>
      <trkpt lat="41.3692700" lon="0.1314800">
        <time>2021-05-08T05:08:00Z</time>
      </trkpt>
      <trkpt lat="41.3693400" lon="0.1315200">
        <time>2021-05-08T05:08:00Z</time>
      </trkpt>
      <trkpt lat="41.3694300" lon="0.1316200">
        <time>2021-05-08T05:08:00Z</time>
      </trkpt>
      <trkpt lat="41.3694700" lon="0.1317500">
        <time>2021-05-08T05:08:00Z</time>
      </trkpt>
      <trkpt lat="41.3695100" lon="0.1319200">
        <time>2021-05-08T05:08:00Z</time>
      </trkpt>
      <trkpt lat="41.3696000" lon="0.1320300">
        <time>2021-05-08T05:08:00Z</time>
      </trkpt>
      <trkpt lat="41.3696700" lon="0.1320100">
        <time>2021-05-08T05:08:00Z</time>
      </trkpt>
      <trkpt lat="41.3697400" lon="0.1318900">
        <time>2021-05-08T05:08:00Z</time>
      </trkpt>
      <trkpt lat="41.3697900" lon="0.1318500">
        <time>2021-05-08T05:08:00Z</time>
      </trkpt>
      <trkpt lat="41.3698500" lon="0.1318300">
        <time>2021-05-08T05:08:00Z</time>
      </trkpt>
      <trkpt lat="41.3699100" lon="0.1318600">
        <time>2021-05-08T05:08:00Z</time>
      </trkpt>
      <trkpt lat="41.3699400" lon="0.1319400">
        <time>2021-05-08T05:08:00Z</time>
      </trkpt>
      <trkpt lat="41.3699600" lon="0.1320900">
        <time>2021-05-08T05:08:00Z</time>
      </trkpt>
      <trkpt lat="41.3700100" lon="0.1322800">
        <time>2021-05-08T05:08:00Z</time>
      </trkpt>
      <trkpt lat="41.3700400" lon="0.1324500">
        <time>2021-05-08T05:08:00Z</time>
      </trkpt>
      <trkpt lat="41.3701200" lon="0.1325400">
        <time>2021-05-08T05:08:00Z</time>
      </trkpt>
      <trkpt lat="41.3701700" lon="0.1325200">
        <time>2021-05-08T05:08:00Z</time>
      </trkpt>
      <trkpt lat="41.3701800" lon="0.1324500">
        <time>2021-05-08T05:08:00Z</time>
      </trkpt>
      <trkpt lat="41.3701700" lon="0.1322300">
        <time>2021-05-08T05:08:00Z</time>
      </trkpt>
      <trkpt lat="41.3701800" lon="0.1320900">
        <time>2021-05-08T05:08:00Z</time>
      </trkpt>
      <trkpt lat="41.3702200" lon="0.1318400">
        <time>2021-05-08T05:08:00Z</time>
      </trkpt>
      <trkpt lat="41.3702200" lon="0.1316300">
        <time>2021-05-08T05:08:00Z</time>
      </trkpt>
      <trkpt lat="41.3701800" lon="0.1314400">
        <time>2021-05-08T05:08:00Z</time>
      </trkpt>
      <trkpt lat="41.3701200" lon="0.1313000">
        <time>2021-05-08T05:08:00Z</time>
      </trkpt>
      <trkpt lat="41.3700700" lon="0.1311400">
        <time>2021-05-08T05:08:00Z</time>
      </trkpt>
      <trkpt lat="41.3700700" lon="0.1309400">
        <time>2021-05-08T05:08:00Z</time>
      </trkpt>
      <trkpt lat="41.3700700" lon="0.1307400">
        <time>2021-05-08T05:08:00Z</time>
      </trkpt>
      <trkpt lat="41.3700900" lon="0.1305500">
        <time>2021-05-08T05:08:00Z</time>
      </trkpt>
      <trkpt lat="41.3701100" lon="0.1303800">
        <time>2021-05-08T05:08:00Z</time>
      </trkpt>
      <trkpt lat="41.3701200" lon="0.1302400">
        <time>2021-05-08T05:08:00Z</time>
      </trkpt>
      <trkpt lat="41.3701600" lon="0.1301700">
        <time>2021-05-08T05:08:00Z</time>
      </trkpt>
      <trkpt lat="41.3702500" lon="0.1301500">
        <time>2021-05-08T05:08:00Z</time>
      </trkpt>
      <trkpt lat="41.3702800" lon="0.1302200">
        <time>2021-05-08T05:08:00Z</time>
      </trkpt>
      <trkpt lat="41.3703000" lon="0.1303600">
        <time>2021-05-08T05:08:00Z</time>
      </trkpt>
      <trkpt lat="41.3703000" lon="0.1305000">
        <time>2021-05-08T05:08:00Z</time>
      </trkpt>
      <trkpt lat="41.3702600" lon="0.1306600">
        <time>2021-05-08T05:08:00Z</time>
      </trkpt>
      <trkpt lat="41.3702400" lon="0.1308300">
        <time>2021-05-08T05:08:00Z</time>
      </trkpt>
      <trkpt lat="41.3702800" lon="0.1310100">
        <time>2021-05-08T05:08:00Z</time>
      </trkpt>
      <trkpt lat="41.3703600" lon="0.1311200">
        <time>2021-05-08T05:08:00Z</time>
      </trkpt>
      <trkpt lat="41.3704900" lon="0.1312100">
        <time>2021-05-08T05:08:00Z</time>
      </trkpt>
      <trkpt lat="41.3706000" lon="0.1312900">
        <time>2021-05-08T05:08:00Z</time>
      </trkpt>
      <trkpt lat="41.3707300" lon="0.1313300">
        <time>2021-05-08T05:08:00Z</time>
      </trkpt>
      <trkpt lat="41.3708500" lon="0.1314100">
        <time>2021-05-08T05:08:00Z</time>
      </trkpt>
      <trkpt lat="41.3710000" lon="0.1314500">
        <time>2021-05-08T05:08:00Z</time>
      </trkpt>
      <trkpt lat="41.3711700" lon="0.1315200">
        <time>2021-05-08T05:08:00Z</time>
      </trkpt>
      <trkpt lat="41.3713200" lon="0.1315400">
        <time>2021-05-08T05:08:00Z</time>
      </trkpt>
      <trkpt lat="41.3714700" lon="0.1314900">
        <time>2021-05-08T05:08:00Z</time>
      </trkpt>
      <trkpt lat="41.3715700" lon="0.1315300">
        <time>2021-05-08T05:08:00Z</time>
      </trkpt>
      <trkpt lat="41.3716200" lon="0.1316400">
        <time>2021-05-08T05:08:00Z</time>
      </trkpt>
      <trkpt lat="41.3715900" lon="0.1318100">
        <time>2021-05-08T05:08:00Z</time>
      </trkpt>
      <trkpt lat="41.3715500" lon="0.1320200">
        <time>2021-05-08T05:08:00Z</time>
      </trkpt>
      <trkpt lat="41.3715200" lon="0.1322300">
        <time>2021-05-08T05:08:00Z</time>
      </trkpt>
      <trkpt lat="41.3715000" lon="0.1324200">
        <time>2021-05-08T05:08:00Z</time>
      </trkpt>
      <trkpt lat="41.3714600" lon="0.1325700">
        <time>2021-05-08T05:08:00Z</time>
      </trkpt>
      <trkpt lat="41.3714300" lon="0.1327400">
        <time>2021-05-08T05:08:00Z</time>
      </trkpt>
      <trkpt lat="41.3714600" lon="0.1328900">
        <time>2021-05-08T05:08:00Z</time>
      </trkpt>
      <trkpt lat="41.3714900" lon="0.1329600">
        <time>2021-05-08T05:08:00Z</time>
      </trkpt>
      <trkpt lat="41.3715800" lon="0.1329900">
        <time>2021-05-08T05:08:00Z</time>
      </trkpt>
      <trkpt lat="41.3716400" lon="0.1329800">
        <time>2021-05-08T05:08:00Z</time>
      </trkpt>
      <trkpt lat="41.3717500" lon="0.1329100">
        <time>2021-05-08T05:08:00Z</time>
      </trkpt>
      <trkpt lat="41.3718800" lon="0.1328700">
        <time>2021-05-08T05:08:00Z</time>
      </trkpt>
      <trkpt lat="41.3720500" lon="0.1328800">
        <time>2021-05-08T05:08:00Z</time>
      </trkpt>
      <trkpt lat="41.3721600" lon="0.1328100">
        <time>2021-05-08T05:08:00Z</time>
      </trkpt>
      <trkpt lat="41.3722000" lon="0.1327400">
        <time>2021-05-08T05:08:00Z</time>
      </trkpt>
      <trkpt lat="41.3722200" lon="0.1326600">
        <time>2021-05-08T05:08:00Z</time>
      </trkpt>
      <trkpt lat="41.3722200" lon="0.1325300">
        <time>2021-05-08T05:08:00Z</time>
      </trkpt>
      <trkpt lat="41.3722600" lon="0.1324000">
        <time>2021-05-08T05:08:00Z</time>
      </trkpt>
      <trkpt lat="41.3723500" lon="0.1323300">
        <time>2021-05-08T05:08:00Z</time>
      </trkpt>
      <trkpt lat="41.3724900" lon="0.1323100">
        <time>2021-05-08T05:08:00Z</time>
      </trkpt>
      <trkpt lat="41.3725900" lon="0.1324000">
        <time>2021-05-08T05:08:00Z</time>
      </trkpt>
      <trkpt lat="41.3726900" lon="0.1324900">
        <time>2021-05-08T05:08:00Z</time>
      </trkpt>
      <trkpt lat="41.3728000" lon="0.1325400">
        <time>2021-05-08T05:08:00Z</time>
      </trkpt>
      <trkpt lat="41.3729300" lon="0.1325800">
        <time>2021-05-08T05:08:00Z</time>
      </trkpt>
      <trkpt lat="41.3730600" lon="0.1326000">
        <time>2021-05-08T05:08:00Z</time>
      </trkpt>
      <trkpt lat="41.3732100" lon="0.1326200">
        <time>2021-05-08T05:08:00Z</time>
      </trkpt>
      <trkpt lat="41.3734300" lon="0.1325800">
        <time>2021-05-08T05:08:00Z</time>
      </trkpt>
      <trkpt lat="41.3735000" lon="0.1326000">
        <time>2021-05-08T05:08:00Z</time>
      </trkpt>
      <trkpt lat="41.3736100" lon="0.1326700">
        <time>2021-05-08T05:08:00Z</time>
      </trkpt>
      <trkpt lat="41.3736800" lon="0.1328000">
        <time>2021-05-08T05:08:00Z</time>
      </trkpt>
      <trkpt lat="41.3737300" lon="0.1329400">
        <time>2021-05-08T05:08:00Z</time>
      </trkpt>
      <trkpt lat="41.3738200" lon="0.1330300">
        <time>2021-05-08T05:08:00Z</time>
      </trkpt>
      <trkpt lat="41.3739100" lon="0.1331100">
        <time>2021-05-08T05:08:00Z</time>
      </trkpt>
      <trkpt lat="41.3740300" lon="0.1331600">
        <time>2021-05-08T05:08:00Z</time>
      </trkpt>
      <trkpt lat="41.3741400" lon="0.1331600">
        <time>2021-05-08T05:08:00Z</time>
      </trkpt>
      <trkpt lat="41.3742500" lon="0.1331400">
        <time>2021-05-08T05:08:00Z</time>
      </trkpt>
      <trkpt lat="41.3743300" lon="0.1330700">
        <time>2021-05-08T05:08:00Z</time>
      </trkpt>
      <trkpt lat="41.3744300" lon="0.1329500">
        <time>2021-05-08T05:08:00Z</time>
      </trkpt>
      <trkpt lat="41.3745100" lon="0.1328400">
        <time>2021-05-08T05:08:00Z</time>
      </trkpt>
      <trkpt lat="41.3745800" lon="0.1328800">
        <time>2021-05-08T05:08:00Z</time>
      </trkpt>
      <trkpt lat="41.37458" lon="0.13288">
        <time>2021-05-08T05:08:11Z</time>
      </trkpt>
      <trkpt lat="41.37458" lon="0.13302">
        <time>2021-05-08T05:08:11Z</time>
      </trkpt>
      <trkpt lat="41.37455" lon="0.13311">
        <time>2021-05-08T05:08:11Z</time>
      </trkpt>
      <trkpt lat="41.3745" lon="0.1332">
        <time>2021-05-08T05:08:11Z</time>
      </trkpt>
      <trkpt lat="41.37445" lon="0.13329">
        <time>2021-05-08T05:08:11Z</time>
      </trkpt>
      <trkpt lat="41.37439" lon="0.13337">
        <time>2021-05-08T05:08:11Z</time>
      </trkpt>
      <trkpt lat="41.37433" lon="0.13345">
        <time>2021-05-08T05:08:11Z</time>
      </trkpt>
      <trkpt lat="41.37428" lon="0.13356">
        <time>2021-05-08T05:08:11Z</time>
      </trkpt>
      <trkpt lat="41.37423" lon="0.13366">
        <time>2021-05-08T05:08:11Z</time>
      </trkpt>
      <trkpt lat="41.37418" lon="0.13377">
        <time>2021-05-08T05:08:11Z</time>
      </trkpt>
      <trkpt lat="41.37413" lon="0.1339">
        <time>2021-05-08T05:08:11Z</time>
      </trkpt>
      <trkpt lat="41.37407" lon="0.13403">
        <time>2021-05-08T05:08:11Z</time>
      </trkpt>
      <trkpt lat="41.37399" lon="0.13415">
        <time>2021-05-08T05:08:11Z</time>
      </trkpt>
      <trkpt lat="41.37391" lon="0.13424">
        <time>2021-05-08T05:08:11Z</time>
      </trkpt>
      <trkpt lat="41.37384" lon="0.13433">
        <time>2021-05-08T05:08:11Z</time>
      </trkpt>
      <trkpt lat="41.3738" lon="0.1344">
        <time>2021-05-08T05:08:11Z</time>
      </trkpt>
      <trkpt lat="41.37377" lon="0.13448">
        <time>2021-05-08T05:08:11Z</time>
      </trkpt>
      <trkpt lat="41.37373" lon="0.13456">
        <time>2021-05-08T05:08:11Z</time>
      </trkpt>
      <trkpt lat="41.37369" lon="0.13463">
        <time>2021-05-08T05:08:11Z</time>
      </trkpt>
      <trkpt lat="41.37364" lon="0.1347">
        <time>2021-05-08T05:08:11Z</time>
      </trkpt>
      <trkpt lat="41.37359" lon="0.13477">
        <time>2021-05-08T05:08:11Z</time>
      </trkpt>
      <trkpt lat="41.37351" lon="0.13488">
        <time>2021-05-08T05:08:11Z</time>
      </trkpt>
      <trkpt lat="41.37351" lon="0.13497">
        <time>2021-05-08T05:08:11Z</time>
      </trkpt>
      <trkpt lat="41.37353" lon="0.13513">
        <time>2021-05-08T05:08:11Z</time>
      </trkpt>
      <trkpt lat="41.37353" lon="0.13528">
        <time>2021-05-08T05:08:11Z</time>
      </trkpt>
      <trkpt lat="41.37352" lon="0.13537">
        <time>2021-05-08T05:08:11Z</time>
      </trkpt>
      <trkpt lat="41.3735" lon="0.13545">
        <time>2021-05-08T05:08:11Z</time>
      </trkpt>
      <trkpt lat="41.37347" lon="0.13554">
        <time>2021-05-08T05:08:11Z</time>
      </trkpt>
      <trkpt lat="41.37343" lon="0.13562">
        <time>2021-05-08T05:08:11Z</time>
      </trkpt>
      <trkpt lat="41.37339" lon="0.13569">
        <time>2021-05-08T05:08:11Z</time>
      </trkpt>
      <trkpt lat="41.37334" lon="0.13582">
        <time>2021-05-08T05:08:11Z</time>
      </trkpt>
      <trkpt lat="41.37332" lon="0.13597">
        <time>2021-05-08T05:08:11Z</time>
      </trkpt>
      <trkpt lat="41.37329" lon="0.13611">
        <time>2021-05-08T05:08:11Z</time>
      </trkpt>
      <trkpt lat="41.37324" lon="0.13626">
        <time>2021-05-08T05:08:11Z</time>
      </trkpt>
      <trkpt lat="41.37324" lon="0.13636">
        <time>2021-05-08T05:08:11Z</time>
      </trkpt>
      <trkpt lat="41.37324" lon="0.13648">
        <time>2021-05-08T05:08:11Z</time>
      </trkpt>
      <trkpt lat="41.37327" lon="0.13656">
        <time>2021-05-08T05:08:11Z</time>
      </trkpt>
      <trkpt lat="41.37332" lon="0.13661">
        <time>2021-05-08T05:08:11Z</time>
      </trkpt>
      <trkpt lat="41.37337" lon="0.13667">
        <time>2021-05-08T05:08:11Z</time>
      </trkpt>
      <trkpt lat="41.37344" lon="0.13673">
        <time>2021-05-08T05:08:11Z</time>
      </trkpt>
      <trkpt lat="41.3735" lon="0.1368">
        <time>2021-05-08T05:08:11Z</time>
      </trkpt>
      <trkpt lat="41.37355" lon="0.13687">
        <time>2021-05-08T05:08:11Z</time>
      </trkpt>
      <trkpt lat="41.37358" lon="0.13695">
        <time>2021-05-08T05:08:11Z</time>
      </trkpt>
      <trkpt lat="41.3736" lon="0.13703">
        <time>2021-05-08T05:08:11Z</time>
      </trkpt>
      <trkpt lat="41.37362" lon="0.13717">
        <time>2021-05-08T05:08:11Z</time>
      </trkpt>
      <trkpt lat="41.37364" lon="0.13731">
        <time>2021-05-08T05:08:11Z</time>
      </trkpt>
      <trkpt lat="41.37367" lon="0.13739">
        <time>2021-05-08T05:08:11Z</time>
      </trkpt>
      <trkpt lat="41.3737" lon="0.13746">
        <time>2021-05-08T05:08:11Z</time>
      </trkpt>
      <trkpt lat="41.37375" lon="0.13757">
        <time>2021-05-08T05:08:11Z</time>
      </trkpt>
      <trkpt lat="41.37381" lon="0.13768">
        <time>2021-05-08T05:08:11Z</time>
      </trkpt>
      <trkpt lat="41.37384" lon="0.13774">
        <time>2021-05-08T05:08:11Z</time>
      </trkpt>
      <trkpt lat="41.37388" lon="0.13782">
        <time>2021-05-08T05:08:11Z</time>
      </trkpt>
      <trkpt lat="41.37392" lon="0.13789">
        <time>2021-05-08T05:08:11Z</time>
      </trkpt>
      <trkpt lat="41.37395" lon="0.13798">
        <time>2021-05-08T05:08:11Z</time>
      </trkpt>
      <trkpt lat="41.37398" lon="0.13807">
        <time>2021-05-08T05:08:11Z</time>
      </trkpt>
      <trkpt lat="41.37401" lon="0.13815">
        <time>2021-05-08T05:08:11Z</time>
      </trkpt>
      <trkpt lat="41.37404" lon="0.13825">
        <time>2021-05-08T05:08:11Z</time>
      </trkpt>
      <trkpt lat="41.37408" lon="0.13834">
        <time>2021-05-08T05:08:11Z</time>
      </trkpt>
      <trkpt lat="41.37412" lon="0.13842">
        <time>2021-05-08T05:08:11Z</time>
      </trkpt>
      <trkpt lat="41.37416" lon="0.13848">
        <time>2021-05-08T05:08:11Z</time>
      </trkpt>
      <trkpt lat="41.37421" lon="0.13853">
        <time>2021-05-08T05:08:11Z</time>
      </trkpt>
      <trkpt lat="41.37433" lon="0.13856">
        <time>2021-05-08T05:08:11Z</time>
      </trkpt>
      <trkpt lat="41.37439" lon="0.13856">
        <time>2021-05-08T05:08:11Z</time>
      </trkpt>
      <trkpt lat="41.37445" lon="0.13857">
        <time>2021-05-08T05:08:11Z</time>
      </trkpt>
      <trkpt lat="41.37451" lon="0.13859">
        <time>2021-05-08T05:08:11Z</time>
      </trkpt>
      <trkpt lat="41.37458" lon="0.13861">
        <time>2021-05-08T05:08:11Z</time>
      </trkpt>
      <trkpt lat="41.37465" lon="0.13863">
        <time>2021-05-08T05:08:11Z</time>
      </trkpt>
      <trkpt lat="41.37471" lon="0.13866">
        <time>2021-05-08T05:08:11Z</time>
      </trkpt>
      <trkpt lat="41.37479" lon="0.13876">
        <time>2021-05-08T05:08:11Z</time>
      </trkpt>
      <trkpt lat="41.37483" lon="0.13889">
        <time>2021-05-08T05:08:11Z</time>
      </trkpt>
      <trkpt lat="41.37484" lon="0.13904">
        <time>2021-05-08T05:08:11Z</time>
      </trkpt>
      <trkpt lat="41.37483" lon="0.13913">
        <time>2021-05-08T05:08:11Z</time>
      </trkpt>
      <trkpt lat="41.37482" lon="0.13921">
        <time>2021-05-08T05:08:11Z</time>
      </trkpt>
      <trkpt lat="41.37481" lon="0.13929">
        <time>2021-05-08T05:08:11Z</time>
      </trkpt>
      <trkpt lat="41.37479" lon="0.13938">
        <time>2021-05-08T05:08:11Z</time>
      </trkpt>
      <trkpt lat="41.37477" lon="0.13953">
        <time>2021-05-08T05:08:11Z</time>
      </trkpt>
      <trkpt lat="41.37476" lon="0.13961">
        <time>2021-05-08T05:08:11Z</time>
      </trkpt>
      <trkpt lat="41.37475" lon="0.13969">
        <time>2021-05-08T05:08:11Z</time>
      </trkpt>
      <trkpt lat="41.37474" lon="0.13977">
        <time>2021-05-08T05:08:11Z</time>
      </trkpt>
      <trkpt lat="41.37474" lon="0.13985">
        <time>2021-05-08T05:08:11Z</time>
      </trkpt>
      <trkpt lat="41.37473" lon="0.13994">
        <time>2021-05-08T05:08:11Z</time>
      </trkpt>
      <trkpt lat="41.37472" lon="0.14003">
        <time>2021-05-08T05:08:11Z</time>
      </trkpt>
      <trkpt lat="41.37471" lon="0.14012">
        <time>2021-05-08T05:08:11Z</time>
      </trkpt>
      <trkpt lat="41.37469" lon="0.1402">
        <time>2021-05-08T05:08:11Z</time>
      </trkpt>
      <trkpt lat="41.37465" lon="0.14028">
        <time>2021-05-08T05:08:11Z</time>
      </trkpt>
      <trkpt lat="41.37461" lon="0.14034">
        <time>2021-05-08T05:08:11Z</time>
      </trkpt>
      <trkpt lat="41.37457" lon="0.14041">
        <time>2021-05-08T05:08:11Z</time>
      </trkpt>
      <trkpt lat="41.37453" lon="0.14047">
        <time>2021-05-08T05:08:11Z</time>
      </trkpt>
      <trkpt lat="41.37449" lon="0.14055">
        <time>2021-05-08T05:08:11Z</time>
      </trkpt>
      <trkpt lat="41.37446" lon="0.14063">
        <time>2021-05-08T05:08:11Z</time>
      </trkpt>
      <trkpt lat="41.37443" lon="0.14072">
        <time>2021-05-08T05:08:11Z</time>
      </trkpt>
      <trkpt lat="41.37442" lon="0.14081">
        <time>2021-05-08T05:08:11Z</time>
      </trkpt>
      <trkpt lat="41.3744" lon="0.14091">
        <time>2021-05-08T05:08:11Z</time>
      </trkpt>
      <trkpt lat="41.37439" lon="0.14102">
        <time>2021-05-08T05:08:11Z</time>
      </trkpt>
      <trkpt lat="41.37439" lon="0.14112">
        <time>2021-05-08T05:08:11Z</time>
      </trkpt>
      <trkpt lat="41.37438" lon="0.14123">
        <time>2021-05-08T05:08:11Z</time>
      </trkpt>
      <trkpt lat="41.37438" lon="0.14135">
        <time>2021-05-08T05:08:11Z</time>
      </trkpt>
      <trkpt lat="41.37438" lon="0.14147">
        <time>2021-05-08T05:08:11Z</time>
      </trkpt>
      <trkpt lat="41.37437" lon="0.14159">
        <time>2021-05-08T05:08:11Z</time>
      </trkpt>
      <trkpt lat="41.37436" lon="0.14172">
        <time>2021-05-08T05:08:11Z</time>
      </trkpt>
      <trkpt lat="41.37435" lon="0.14185">
        <time>2021-05-08T05:08:11Z</time>
      </trkpt>
      <trkpt lat="41.37434" lon="0.14196">
        <time>2021-05-08T05:08:11Z</time>
      </trkpt>
      <trkpt lat="41.37433" lon="0.14206">
        <time>2021-05-08T05:08:11Z</time>
      </trkpt>
      <trkpt lat="41.37433" lon="0.14214">
        <time>2021-05-08T05:08:11Z</time>
      </trkpt>
      <trkpt lat="41.37432" lon="0.14227">
        <time>2021-05-08T05:08:11Z</time>
      </trkpt>
      <trkpt lat="41.37435" lon="0.14241">
        <time>2021-05-08T05:08:11Z</time>
      </trkpt>
      <trkpt lat="41.3744" lon="0.14254">
        <time>2021-05-08T05:08:11Z</time>
      </trkpt>
      <trkpt lat="41.37447" lon="0.14267">
        <time>2021-05-08T05:08:11Z</time>
      </trkpt>
      <trkpt lat="41.37454" lon="0.14279">
        <time>2021-05-08T05:08:11Z</time>
      </trkpt>
      <trkpt lat="41.3746" lon="0.14289">
        <time>2021-05-08T05:08:11Z</time>
      </trkpt>
      <trkpt lat="41.37465" lon="0.143">
        <time>2021-05-08T05:08:11Z</time>
      </trkpt>
      <trkpt lat="41.37468" lon="0.14312">
        <time>2021-05-08T05:08:11Z</time>
      </trkpt>
      <trkpt lat="41.37472" lon="0.14325">
        <time>2021-05-08T05:08:11Z</time>
      </trkpt>
      <trkpt lat="41.37477" lon="0.14333">
        <time>2021-05-08T05:08:11Z</time>
      </trkpt>
      <trkpt lat="41.37484" lon="0.14339">
        <time>2021-05-08T05:08:11Z</time>
      </trkpt>
      <trkpt lat="41.37494" lon="0.14341">
        <time>2021-05-08T05:08:11Z</time>
      </trkpt>
      <trkpt lat="41.37505" lon="0.1434">
        <time>2021-05-08T05:08:11Z</time>
      </trkpt>
      <trkpt lat="41.37516" lon="0.14337">
        <time>2021-05-08T05:08:11Z</time>
      </trkpt>
      <trkpt lat="41.37526" lon="0.14335">
        <time>2021-05-08T05:08:11Z</time>
      </trkpt>
      <trkpt lat="41.37536" lon="0.14334">
        <time>2021-05-08T05:08:11Z</time>
      </trkpt>
      <trkpt lat="41.37545" lon="0.14336">
        <time>2021-05-08T05:08:11Z</time>
      </trkpt>
      <trkpt lat="41.37553" lon="0.14342">
        <time>2021-05-08T05:08:11Z</time>
      </trkpt>
      <trkpt lat="41.37558" lon="0.14352">
        <time>2021-05-08T05:08:11Z</time>
      </trkpt>
      <trkpt lat="41.37558" lon="0.14363">
        <time>2021-05-08T05:08:11Z</time>
      </trkpt>
      <trkpt lat="41.37555" lon="0.14375">
        <time>2021-05-08T05:08:11Z</time>
      </trkpt>
      <trkpt lat="41.37552" lon="0.14387">
        <time>2021-05-08T05:08:11Z</time>
      </trkpt>
      <trkpt lat="41.37549" lon="0.144">
        <time>2021-05-08T05:08:11Z</time>
      </trkpt>
      <trkpt lat="41.37549" lon="0.14413">
        <time>2021-05-08T05:08:11Z</time>
      </trkpt>
      <trkpt lat="41.37552" lon="0.14425">
        <time>2021-05-08T05:08:11Z</time>
      </trkpt>
      <trkpt lat="41.37553" lon="0.14431">
        <time>2021-05-08T05:08:11Z</time>
      </trkpt>
      <trkpt lat="41.37558" lon="0.14434">
        <time>2021-05-08T05:08:11Z</time>
      </trkpt>
      <trkpt lat="41.37566" lon="0.14437">
        <time>2021-05-08T05:08:11Z</time>
      </trkpt>
      <trkpt lat="41.37576" lon="0.14439">
        <time>2021-05-08T05:08:11Z</time>
      </trkpt>
      <trkpt lat="41.37585" lon="0.14442">
        <time>2021-05-08T05:08:11Z</time>
      </trkpt>
      <trkpt lat="41.37593" lon="0.14446">
        <time>2021-05-08T05:08:11Z</time>
      </trkpt>
      <trkpt lat="41.376" lon="0.14452">
        <time>2021-05-08T05:08:11Z</time>
      </trkpt>
      <trkpt lat="41.37605" lon="0.14462">
        <time>2021-05-08T05:08:11Z</time>
      </trkpt>
      <trkpt lat="41.37608" lon="0.14473">
        <time>2021-05-08T05:08:11Z</time>
      </trkpt>
      <trkpt lat="41.37609" lon="0.14485">
        <time>2021-05-08T05:08:11Z</time>
      </trkpt>
      <trkpt lat="41.3761" lon="0.14498">
        <time>2021-05-08T05:08:11Z</time>
      </trkpt>
      <trkpt lat="41.37614" lon="0.14509">
        <time>2021-05-08T05:08:11Z</time>
      </trkpt>
      <trkpt lat="41.37619" lon="0.14519">
        <time>2021-05-08T05:08:11Z</time>
      </trkpt>
      <trkpt lat="41.37624" lon="0.14528">
        <time>2021-05-08T05:08:11Z</time>
      </trkpt>
      <trkpt lat="41.37628" lon="0.14539">
        <time>2021-05-08T05:08:11Z</time>
      </trkpt>
      <trkpt lat="41.37631" lon="0.14552">
        <time>2021-05-08T05:08:11Z</time>
      </trkpt>
      <trkpt lat="41.37633" lon="0.14564">
        <time>2021-05-08T05:08:11Z</time>
      </trkpt>
      <trkpt lat="41.37638" lon="0.14578">
        <time>2021-05-08T05:08:11Z</time>
      </trkpt>
      <trkpt lat="41.37639" lon="0.14595">
        <time>2021-05-08T05:08:11Z</time>
      </trkpt>
      <trkpt lat="41.37636" lon="0.14605">
        <time>2021-05-08T05:08:11Z</time>
      </trkpt>
      <trkpt lat="41.37631" lon="0.14613">
        <time>2021-05-08T05:08:11Z</time>
      </trkpt>
      <trkpt lat="41.37625" lon="0.14621">
        <time>2021-05-08T05:08:11Z</time>
      </trkpt>
      <trkpt lat="41.37623" lon="0.1463">
        <time>2021-05-08T05:08:11Z</time>
      </trkpt>
      <trkpt lat="41.37626" lon="0.14641">
        <time>2021-05-08T05:08:11Z</time>
      </trkpt>
      <trkpt lat="41.37634" lon="0.14651">
        <time>2021-05-08T05:08:11Z</time>
      </trkpt>
      <trkpt lat="41.37641" lon="0.1466">
        <time>2021-05-08T05:08:11Z</time>
      </trkpt>
      <trkpt lat="41.37647" lon="0.14668">
        <time>2021-05-08T05:08:11Z</time>
      </trkpt>
      <trkpt lat="41.37655" lon="0.14677">
        <time>2021-05-08T05:08:11Z</time>
      </trkpt>
      <trkpt lat="41.37658" lon="0.14682">
        <time>2021-05-08T05:08:11Z</time>
      </trkpt>
      <trkpt lat="41.37659" lon="0.14688">
        <time>2021-05-08T05:08:11Z</time>
      </trkpt>
      <trkpt lat="41.37655" lon="0.14696">
        <time>2021-05-08T05:08:11Z</time>
      </trkpt>
      <trkpt lat="41.37647" lon="0.14701">
        <time>2021-05-08T05:08:11Z</time>
      </trkpt>
      <trkpt lat="41.37639" lon="0.14704">
        <time>2021-05-08T05:08:11Z</time>
      </trkpt>
      <trkpt lat="41.37632" lon="0.14707">
        <time>2021-05-08T05:08:11Z</time>
      </trkpt>
      <trkpt lat="41.37621" lon="0.1471">
        <time>2021-05-08T05:08:11Z</time>
      </trkpt>
      <trkpt lat="41.3761" lon="0.14712">
        <time>2021-05-08T05:08:11Z</time>
      </trkpt>
      <trkpt lat="41.37603" lon="0.14714">
        <time>2021-05-08T05:08:11Z</time>
      </trkpt>
      <trkpt lat="41.37596" lon="0.14717">
        <time>2021-05-08T05:08:11Z</time>
      </trkpt>
      <trkpt lat="41.37588" lon="0.1472">
        <time>2021-05-08T05:08:11Z</time>
      </trkpt>
      <trkpt lat="41.3758" lon="0.14725">
        <time>2021-05-08T05:08:11Z</time>
      </trkpt>
      <trkpt lat="41.3757" lon="0.14732">
        <time>2021-05-08T05:08:11Z</time>
      </trkpt>
      <trkpt lat="41.37565" lon="0.14739">
        <time>2021-05-08T05:08:11Z</time>
      </trkpt>
      <trkpt lat="41.37561" lon="0.14748">
        <time>2021-05-08T05:08:11Z</time>
      </trkpt>
      <trkpt lat="41.3756" lon="0.14762">
        <time>2021-05-08T05:08:11Z</time>
      </trkpt>
      <trkpt lat="41.37562" lon="0.14772">
        <time>2021-05-08T05:08:11Z</time>
      </trkpt>
      <trkpt lat="41.37568" lon="0.14781">
        <time>2021-05-08T05:08:11Z</time>
      </trkpt>
      <trkpt lat="41.37574" lon="0.14788">
        <time>2021-05-08T05:08:11Z</time>
      </trkpt>
      <trkpt lat="41.37581" lon="0.14795">
        <time>2021-05-08T05:08:11Z</time>
      </trkpt>
      <trkpt lat="41.37587" lon="0.14802">
        <time>2021-05-08T05:08:11Z</time>
      </trkpt>
      <trkpt lat="41.3759" lon="0.14811">
        <time>2021-05-08T05:08:11Z</time>
      </trkpt>
      <trkpt lat="41.37588" lon="0.1482">
        <time>2021-05-08T05:08:11Z</time>
      </trkpt>
      <trkpt lat="41.37581" lon="0.14825">
        <time>2021-05-08T05:08:11Z</time>
      </trkpt>
      <trkpt lat="41.37572" lon="0.14828">
        <time>2021-05-08T05:08:11Z</time>
      </trkpt>
      <trkpt lat="41.37562" lon="0.14832">
        <time>2021-05-08T05:08:11Z</time>
      </trkpt>
      <trkpt lat="41.37552" lon="0.14834">
        <time>2021-05-08T05:08:11Z</time>
      </trkpt>
      <trkpt lat="41.37543" lon="0.14836">
        <time>2021-05-08T05:08:11Z</time>
      </trkpt>
      <trkpt lat="41.37536" lon="0.1484">
        <time>2021-05-08T05:08:11Z</time>
      </trkpt>
      <trkpt lat="41.37533" lon="0.14845">
        <time>2021-05-08T05:08:11Z</time>
      </trkpt>
      <trkpt lat="41.37535" lon="0.14852">
        <time>2021-05-08T05:08:11Z</time>
      </trkpt>
      <trkpt lat="41.37539" lon="0.14856">
        <time>2021-05-08T05:08:11Z</time>
      </trkpt>
      <trkpt lat="41.37545" lon="0.14862">
        <time>2021-05-08T05:08:11Z</time>
      </trkpt>
      <trkpt lat="41.37551" lon="0.14868">
        <time>2021-05-08T05:08:11Z</time>
      </trkpt>
      <trkpt lat="41.37558" lon="0.14876">
        <time>2021-05-08T05:08:11Z</time>
      </trkpt>
      <trkpt lat="41.37562" lon="0.14886">
        <time>2021-05-08T05:08:11Z</time>
      </trkpt>
      <trkpt lat="41.37561" lon="0.14896">
        <time>2021-05-08T05:08:11Z</time>
      </trkpt>
      <trkpt lat="41.37556" lon="0.14905">
        <time>2021-05-08T05:08:11Z</time>
      </trkpt>
      <trkpt lat="41.37549" lon="0.14911">
        <time>2021-05-08T05:08:11Z</time>
      </trkpt>
      <trkpt lat="41.3754" lon="0.14914">
        <time>2021-05-08T05:08:11Z</time>
      </trkpt>
      <trkpt lat="41.3753" lon="0.14918">
        <time>2021-05-08T05:08:11Z</time>
      </trkpt>
      <trkpt lat="41.37518" lon="0.14923">
        <time>2021-05-08T05:08:11Z</time>
      </trkpt>
      <trkpt lat="41.37513" lon="0.14926">
        <time>2021-05-08T05:08:11Z</time>
      </trkpt>
      <trkpt lat="41.37501" lon="0.14931">
        <time>2021-05-08T05:08:11Z</time>
      </trkpt>
      <trkpt lat="41.37494" lon="0.14938">
        <time>2021-05-08T05:08:11Z</time>
      </trkpt>
      <trkpt lat="41.37489" lon="0.14947">
        <time>2021-05-08T05:08:11Z</time>
      </trkpt>
      <trkpt lat="41.3749" lon="0.14958">
        <time>2021-05-08T05:08:11Z</time>
      </trkpt>
      <trkpt lat="41.37493" lon="0.14969">
        <time>2021-05-08T05:08:11Z</time>
      </trkpt>
      <trkpt lat="41.37499" lon="0.14979">
        <time>2021-05-08T05:08:11Z</time>
      </trkpt>
      <trkpt lat="41.37509" lon="0.14989">
        <time>2021-05-08T05:08:11Z</time>
      </trkpt>
      <trkpt lat="41.37519" lon="0.14997">
        <time>2021-05-08T05:08:11Z</time>
      </trkpt>
      <trkpt lat="41.37526" lon="0.15006">
        <time>2021-05-08T05:08:11Z</time>
      </trkpt>
      <trkpt lat="41.37532" lon="0.15013">
        <time>2021-05-08T05:08:11Z</time>
      </trkpt>
      <trkpt lat="41.37534" lon="0.15024">
        <time>2021-05-08T05:08:11Z</time>
      </trkpt>
      <trkpt lat="41.3753" lon="0.15035">
        <time>2021-05-08T05:08:11Z</time>
      </trkpt>
      <trkpt lat="41.37524" lon="0.15042">
        <time>2021-05-08T05:08:11Z</time>
      </trkpt>
      <trkpt lat="41.37518" lon="0.15048">
        <time>2021-05-08T05:08:11Z</time>
      </trkpt>
      <trkpt lat="41.37509" lon="0.15051">
        <time>2021-05-08T05:08:11Z</time>
      </trkpt>
      <trkpt lat="41.37498" lon="0.15055">
        <time>2021-05-08T05:08:11Z</time>
      </trkpt>
      <trkpt lat="41.37487" lon="0.15057">
        <time>2021-05-08T05:08:11Z</time>
      </trkpt>
      <trkpt lat="41.37477" lon="0.15061">
        <time>2021-05-08T05:08:11Z</time>
      </trkpt>
      <trkpt lat="41.37467" lon="0.15065">
        <time>2021-05-08T05:08:11Z</time>
      </trkpt>
      <trkpt lat="41.37459" lon="0.15069">
        <time>2021-05-08T05:08:11Z</time>
      </trkpt>
      <trkpt lat="41.37451" lon="0.15073">
        <time>2021-05-08T05:08:11Z</time>
      </trkpt>
      <trkpt lat="41.37443" lon="0.15079">
        <time>2021-05-08T05:08:11Z</time>
      </trkpt>
      <trkpt lat="41.37438" lon="0.1509">
        <time>2021-05-08T05:08:11Z</time>
      </trkpt>
      <trkpt lat="41.37438" lon="0.15104">
        <time>2021-05-08T05:08:11Z</time>
      </trkpt>
      <trkpt lat="41.37442" lon="0.15118">
        <time>2021-05-08T05:08:11Z</time>
      </trkpt>
      <trkpt lat="41.37447" lon="0.15129">
        <time>2021-05-08T05:08:11Z</time>
      </trkpt>
      <trkpt lat="41.37453" lon="0.1514">
        <time>2021-05-08T05:08:11Z</time>
      </trkpt>
      <trkpt lat="41.37461" lon="0.15154">
        <time>2021-05-08T05:08:11Z</time>
      </trkpt>
      <trkpt lat="41.37463" lon="0.15167">
        <time>2021-05-08T05:08:11Z</time>
      </trkpt>
      <trkpt lat="41.3746" lon="0.15181">
        <time>2021-05-08T05:08:11Z</time>
      </trkpt>
      <trkpt lat="41.37454" lon="0.15191">
        <time>2021-05-08T05:08:11Z</time>
      </trkpt>
      <trkpt lat="41.37446" lon="0.15199">
        <time>2021-05-08T05:08:11Z</time>
      </trkpt>
      <trkpt lat="41.37441" lon="0.15205">
        <time>2021-05-08T05:08:11Z</time>
      </trkpt>
      <trkpt lat="41.37434" lon="0.15211">
        <time>2021-05-08T05:08:11Z</time>
      </trkpt>
      <trkpt lat="41.37426" lon="0.15217">
        <time>2021-05-08T05:08:11Z</time>
      </trkpt>
      <trkpt lat="41.37418" lon="0.15226">
        <time>2021-05-08T05:08:11Z</time>
      </trkpt>
      <trkpt lat="41.37411" lon="0.15237">
        <time>2021-05-08T05:08:11Z</time>
      </trkpt>
      <trkpt lat="41.37406" lon="0.15251">
        <time>2021-05-08T05:08:11Z</time>
      </trkpt>
      <trkpt lat="41.37404" lon="0.15259">
        <time>2021-05-08T05:08:11Z</time>
      </trkpt>
      <trkpt lat="41.37402" lon="0.15267">
        <time>2021-05-08T05:08:11Z</time>
      </trkpt>
      <trkpt lat="41.374" lon="0.15275">
        <time>2021-05-08T05:08:11Z</time>
      </trkpt>
      <trkpt lat="41.37399" lon="0.1529">
        <time>2021-05-08T05:08:11Z</time>
      </trkpt>
      <trkpt lat="41.37399" lon="0.15301">
        <time>2021-05-08T05:08:11Z</time>
      </trkpt>
      <trkpt lat="41.37395" lon="0.15311">
        <time>2021-05-08T05:08:11Z</time>
      </trkpt>
      <trkpt lat="41.37389" lon="0.1532">
        <time>2021-05-08T05:08:11Z</time>
      </trkpt>
      <trkpt lat="41.3738" lon="0.15328">
        <time>2021-05-08T05:08:11Z</time>
      </trkpt>
      <trkpt lat="41.37372" lon="0.15337">
        <time>2021-05-08T05:08:11Z</time>
      </trkpt>
      <trkpt lat="41.37365" lon="0.15347">
        <time>2021-05-08T05:08:11Z</time>
      </trkpt>
      <trkpt lat="41.37359" lon="0.15363">
        <time>2021-05-08T05:08:11Z</time>
      </trkpt>
      <trkpt lat="41.37357" lon="0.1537">
        <time>2021-05-08T05:08:11Z</time>
      </trkpt>
      <trkpt lat="41.37354" lon="0.15385">
        <time>2021-05-08T05:08:11Z</time>
      </trkpt>
      <trkpt lat="41.37351" lon="0.15397">
        <time>2021-05-08T05:08:11Z</time>
      </trkpt>
      <trkpt lat="41.37345" lon="0.15404">
        <time>2021-05-08T05:08:11Z</time>
      </trkpt>
      <trkpt lat="41.37336" lon="0.15408">
        <time>2021-05-08T05:08:11Z</time>
      </trkpt>
      <trkpt lat="41.37327" lon="0.15411">
        <time>2021-05-08T05:08:11Z</time>
      </trkpt>
      <trkpt lat="41.37318" lon="0.15415">
        <time>2021-05-08T05:08:11Z</time>
      </trkpt>
      <trkpt lat="41.37303" lon="0.15419">
        <time>2021-05-08T05:08:11Z</time>
      </trkpt>
      <trkpt lat="41.3729" lon="0.15418">
        <time>2021-05-08T05:08:11Z</time>
      </trkpt>
      <trkpt lat="41.37284" lon="0.15421">
        <time>2021-05-08T05:08:11Z</time>
      </trkpt>
      <trkpt lat="41.37275" lon="0.15426">
        <time>2021-05-08T05:08:11Z</time>
      </trkpt>
      <trkpt lat="41.37266" lon="0.15431">
        <time>2021-05-08T05:08:11Z</time>
      </trkpt>
      <trkpt lat="41.37254" lon="0.15429">
        <time>2021-05-08T05:08:11Z</time>
      </trkpt>
      <trkpt lat="41.37245" lon="0.15433">
        <time>2021-05-08T05:08:11Z</time>
      </trkpt>
      <trkpt lat="41.37235" lon="0.15439">
        <time>2021-05-08T05:08:11Z</time>
      </trkpt>
      <trkpt lat="41.37229" lon="0.15442">
        <time>2021-05-08T05:08:11Z</time>
      </trkpt>
      <trkpt lat="41.37223" lon="0.15445">
        <time>2021-05-08T05:08:11Z</time>
      </trkpt>
      <trkpt lat="41.37217" lon="0.15447">
        <time>2021-05-08T05:08:11Z</time>
      </trkpt>
      <trkpt lat="41.37211" lon="0.15448">
        <time>2021-05-08T05:08:11Z</time>
      </trkpt>
      <trkpt lat="41.372" lon="0.15448">
        <time>2021-05-08T05:08:11Z</time>
      </trkpt>
      <trkpt lat="41.37194" lon="0.1545">
        <time>2021-05-08T05:08:11Z</time>
      </trkpt>
      <trkpt lat="41.37186" lon="0.15454">
        <time>2021-05-08T05:08:11Z</time>
      </trkpt>
      <trkpt lat="41.37179" lon="0.15461">
        <time>2021-05-08T05:08:11Z</time>
      </trkpt>
      <trkpt lat="41.37171" lon="0.1547">
        <time>2021-05-08T05:08:11Z</time>
      </trkpt>
      <trkpt lat="41.37166" lon="0.15476">
        <time>2021-05-08T05:08:11Z</time>
      </trkpt>
      <trkpt lat="41.3716" lon="0.15487">
        <time>2021-05-08T05:08:11Z</time>
      </trkpt>
      <trkpt lat="41.37154" lon="0.155">
        <time>2021-05-08T05:08:11Z</time>
      </trkpt>
      <trkpt lat="41.37148" lon="0.15513">
        <time>2021-05-08T05:08:11Z</time>
      </trkpt>
      <trkpt lat="41.37141" lon="0.15524">
        <time>2021-05-08T05:08:11Z</time>
      </trkpt>
      <trkpt lat="41.37133" lon="0.15536">
        <time>2021-05-08T05:08:11Z</time>
      </trkpt>
      <trkpt lat="41.37128" lon="0.15543">
        <time>2021-05-08T05:08:11Z</time>
      </trkpt>
      <trkpt lat="41.37124" lon="0.1555">
        <time>2021-05-08T05:08:11Z</time>
      </trkpt>
      <trkpt lat="41.3712" lon="0.15558">
        <time>2021-05-08T05:08:11Z</time>
      </trkpt>
      <trkpt lat="41.37117" lon="0.15566">
        <time>2021-05-08T05:08:11Z</time>
      </trkpt>
      <trkpt lat="41.37113" lon="0.15574">
        <time>2021-05-08T05:08:11Z</time>
      </trkpt>
      <trkpt lat="41.37108" lon="0.1558">
        <time>2021-05-08T05:08:11Z</time>
      </trkpt>
      <trkpt lat="41.37102" lon="0.15585">
        <time>2021-05-08T05:08:11Z</time>
      </trkpt>
      <trkpt lat="41.37096" lon="0.15588">
        <time>2021-05-08T05:08:11Z</time>
      </trkpt>
      <trkpt lat="41.37085" lon="0.15588">
        <time>2021-05-08T05:08:11Z</time>
      </trkpt>
      <trkpt lat="41.37081" lon="0.15586">
        <time>2021-05-08T05:08:11Z</time>
      </trkpt>
      <trkpt lat="41.37077" lon="0.15585">
        <time>2021-05-08T05:08:11Z</time>
      </trkpt>
      <trkpt lat="41.37074" lon="0.15587">
        <time>2021-05-08T05:08:11Z</time>
      </trkpt>
      <trkpt lat="41.37072" lon="0.15592">
        <time>2021-05-08T05:08:11Z</time>
      </trkpt>
      <trkpt lat="41.37072" lon="0.15603">
        <time>2021-05-08T05:08:11Z</time>
      </trkpt>
      <trkpt lat="41.37072" lon="0.15615">
        <time>2021-05-08T05:08:11Z</time>
      </trkpt>
      <trkpt lat="41.37069" lon="0.15627">
        <time>2021-05-08T05:08:11Z</time>
      </trkpt>
      <trkpt lat="41.37063" lon="0.1564">
        <time>2021-05-08T05:08:11Z</time>
      </trkpt>
      <trkpt lat="41.37059" lon="0.15646">
        <time>2021-05-08T05:08:11Z</time>
      </trkpt>
      <trkpt lat="41.37055" lon="0.15653">
        <time>2021-05-08T05:08:11Z</time>
      </trkpt>
      <trkpt lat="41.37051" lon="0.15659">
        <time>2021-05-08T05:08:11Z</time>
      </trkpt>
      <trkpt lat="41.37045" lon="0.15666">
        <time>2021-05-08T05:08:11Z</time>
      </trkpt>
      <trkpt lat="41.3704" lon="0.15672">
        <time>2021-05-08T05:08:11Z</time>
      </trkpt>
      <trkpt lat="41.37034" lon="0.15679">
        <time>2021-05-08T05:08:11Z</time>
      </trkpt>
      <trkpt lat="41.37028" lon="0.15686">
        <time>2021-05-08T05:08:11Z</time>
      </trkpt>
      <trkpt lat="41.37022" lon="0.15693">
        <time>2021-05-08T05:08:11Z</time>
      </trkpt>
      <trkpt lat="41.37016" lon="0.15701">
        <time>2021-05-08T05:08:11Z</time>
      </trkpt>
      <trkpt lat="41.3701" lon="0.15708">
        <time>2021-05-08T05:08:11Z</time>
      </trkpt>
      <trkpt lat="41.37004" lon="0.15714">
        <time>2021-05-08T05:08:11Z</time>
      </trkpt>
      <trkpt lat="41.37" lon="0.1572">
        <time>2021-05-08T05:08:11Z</time>
      </trkpt>
      <trkpt lat="41.36995" lon="0.15731">
        <time>2021-05-08T05:08:11Z</time>
      </trkpt>
      <trkpt lat="41.3699" lon="0.15743">
        <time>2021-05-08T05:08:11Z</time>
      </trkpt>
      <trkpt lat="41.36984" lon="0.15757">
        <time>2021-05-08T05:08:11Z</time>
      </trkpt>
      <trkpt lat="41.36977" lon="0.15768">
        <time>2021-05-08T05:08:11Z</time>
      </trkpt>
      <trkpt lat="41.36972" lon="0.15776">
        <time>2021-05-08T05:08:11Z</time>
      </trkpt>
      <trkpt lat="41.36966" lon="0.15783">
        <time>2021-05-08T05:08:11Z</time>
      </trkpt>
      <trkpt lat="41.36959" lon="0.15788">
        <time>2021-05-08T05:08:11Z</time>
      </trkpt>
      <trkpt lat="41.36948" lon="0.15797">
        <time>2021-05-08T05:08:11Z</time>
      </trkpt>
      <trkpt lat="41.3694" lon="0.15803">
        <time>2021-05-08T05:08:11Z</time>
      </trkpt>
      <trkpt lat="41.36933" lon="0.15808">
        <time>2021-05-08T05:08:11Z</time>
      </trkpt>
      <trkpt lat="41.36925" lon="0.15816">
        <time>2021-05-08T05:08:11Z</time>
      </trkpt>
      <trkpt lat="41.36921" lon="0.15824">
        <time>2021-05-08T05:08:11Z</time>
      </trkpt>
      <trkpt lat="41.36918" lon="0.15833">
        <time>2021-05-08T05:08:11Z</time>
      </trkpt>
      <trkpt lat="41.36914" lon="0.15844">
        <time>2021-05-08T05:08:11Z</time>
      </trkpt>
      <trkpt lat="41.36911" lon="0.15856">
        <time>2021-05-08T05:08:11Z</time>
      </trkpt>
      <trkpt lat="41.36908" lon="0.15868">
        <time>2021-05-08T05:08:11Z</time>
      </trkpt>
      <trkpt lat="41.36904" lon="0.15875">
        <time>2021-05-08T05:08:11Z</time>
      </trkpt>
      <trkpt lat="41.36899" lon="0.15884">
        <time>2021-05-08T05:08:11Z</time>
      </trkpt>
      <trkpt lat="41.36893" lon="0.15894">
        <time>2021-05-08T05:08:11Z</time>
      </trkpt>
      <trkpt lat="41.36891" lon="0.15903">
        <time>2021-05-08T05:08:11Z</time>
      </trkpt>
      <trkpt lat="41.3689" lon="0.15917">
        <time>2021-05-08T05:08:11Z</time>
      </trkpt>
      <trkpt lat="41.36888" lon="0.15957">
        <time>2021-05-08T05:08:11Z</time>
      </trkpt>
      <trkpt lat="41.36889" lon="0.15973">
        <time>2021-05-08T05:08:11Z</time>
      </trkpt>
      <trkpt lat="41.36897" lon="0.1599">
        <time>2021-05-08T05:08:11Z</time>
      </trkpt>
      <trkpt lat="41.36902" lon="0.16004">
        <time>2021-05-08T05:08:11Z</time>
      </trkpt>
      <trkpt lat="41.36903" lon="0.16013">
        <time>2021-05-08T05:08:11Z</time>
      </trkpt>
      <trkpt lat="41.36903" lon="0.16022">
        <time>2021-05-08T05:08:11Z</time>
      </trkpt>
      <trkpt lat="41.36902" lon="0.1603">
        <time>2021-05-08T05:08:11Z</time>
      </trkpt>
      <trkpt lat="41.36901" lon="0.16039">
        <time>2021-05-08T05:08:11Z</time>
      </trkpt>
      <trkpt lat="41.369" lon="0.16048">
        <time>2021-05-08T05:08:11Z</time>
      </trkpt>
      <trkpt lat="41.369" lon="0.16057">
        <time>2021-05-08T05:08:11Z</time>
      </trkpt>
      <trkpt lat="41.36898" lon="0.16065">
        <time>2021-05-08T05:08:11Z</time>
      </trkpt>
      <trkpt lat="41.36897" lon="0.16073">
        <time>2021-05-08T05:08:11Z</time>
      </trkpt>
      <trkpt lat="41.36892" lon="0.16086">
        <time>2021-05-08T05:08:11Z</time>
      </trkpt>
      <trkpt lat="41.3689" lon="0.16093">
        <time>2021-05-08T05:08:11Z</time>
      </trkpt>
      <trkpt lat="41.36883" lon="0.16104">
        <time>2021-05-08T05:08:11Z</time>
      </trkpt>
      <trkpt lat="41.36871" lon="0.16126">
        <time>2021-05-08T05:08:11Z</time>
      </trkpt>
      <trkpt lat="41.36861" lon="0.16135">
        <time>2021-05-08T05:08:11Z</time>
      </trkpt>
      <trkpt lat="41.36852" lon="0.16142">
        <time>2021-05-08T05:08:11Z</time>
      </trkpt>
      <trkpt lat="41.36835" lon="0.1615">
        <time>2021-05-08T05:08:11Z</time>
      </trkpt>
      <trkpt lat="41.36799" lon="0.16169">
        <time>2021-05-08T05:08:11Z</time>
      </trkpt>
      <trkpt lat="41.3679" lon="0.16178">
        <time>2021-05-08T05:08:11Z</time>
      </trkpt>
      <trkpt lat="41.36783" lon="0.16191">
        <time>2021-05-08T05:08:11Z</time>
      </trkpt>
      <trkpt lat="41.36774" lon="0.16215">
        <time>2021-05-08T05:08:11Z</time>
      </trkpt>
      <trkpt lat="41.36757" lon="0.16246">
        <time>2021-05-08T05:08:11Z</time>
      </trkpt>
      <trkpt lat="41.36746" lon="0.16264">
        <time>2021-05-08T05:08:11Z</time>
      </trkpt>
      <trkpt lat="41.36739" lon="0.16276">
        <time>2021-05-08T05:08:11Z</time>
      </trkpt>
      <trkpt lat="41.36712" lon="0.16317">
        <time>2021-05-08T05:08:11Z</time>
      </trkpt>
      <trkpt lat="41.36697" lon="0.16342">
        <time>2021-05-08T05:08:11Z</time>
      </trkpt>
      <trkpt lat="41.36689" lon="0.16355">
        <time>2021-05-08T05:08:11Z</time>
      </trkpt>
      <trkpt lat="41.36684" lon="0.16375">
        <time>2021-05-08T05:08:11Z</time>
      </trkpt>
      <trkpt lat="41.36685" lon="0.16393">
        <time>2021-05-08T05:08:11Z</time>
      </trkpt>
      <trkpt lat="41.36688" lon="0.16409">
        <time>2021-05-08T05:08:11Z</time>
      </trkpt>
      <trkpt lat="41.3669" lon="0.16441">
        <time>2021-05-08T05:08:11Z</time>
      </trkpt>
      <trkpt lat="41.36693" lon="0.1646">
        <time>2021-05-08T05:08:11Z</time>
      </trkpt>
      <trkpt lat="41.36698" lon="0.16476">
        <time>2021-05-08T05:08:11Z</time>
      </trkpt>
      <trkpt lat="41.36705" lon="0.1649">
        <time>2021-05-08T05:08:11Z</time>
      </trkpt>
      <trkpt lat="41.36708" lon="0.16509">
        <time>2021-05-08T05:08:11Z</time>
      </trkpt>
      <trkpt lat="41.36707" lon="0.16522">
        <time>2021-05-08T05:08:11Z</time>
      </trkpt>
      <trkpt lat="41.36699" lon="0.16537">
        <time>2021-05-08T05:08:11Z</time>
      </trkpt>
      <trkpt lat="41.3669" lon="0.16546">
        <time>2021-05-08T05:08:11Z</time>
      </trkpt>
      <trkpt lat="41.36676" lon="0.16563">
        <time>2021-05-08T05:08:11Z</time>
      </trkpt>
      <trkpt lat="41.36669" lon="0.16572">
        <time>2021-05-08T05:08:11Z</time>
      </trkpt>
      <trkpt lat="41.36657" lon="0.16588">
        <time>2021-05-08T05:08:11Z</time>
      </trkpt>
      <trkpt lat="41.36651" lon="0.16597">
        <time>2021-05-08T05:08:11Z</time>
      </trkpt>
      <trkpt lat="41.36642" lon="0.16609">
        <time>2021-05-08T05:08:11Z</time>
      </trkpt>
      <trkpt lat="41.36632" lon="0.16619">
        <time>2021-05-08T05:08:11Z</time>
      </trkpt>
      <trkpt lat="41.36618" lon="0.16631">
        <time>2021-05-08T05:08:11Z</time>
      </trkpt>
      <trkpt lat="41.3659" lon="0.16646">
        <time>2021-05-08T05:08:11Z</time>
      </trkpt>
      <trkpt lat="41.36572" lon="0.16652">
        <time>2021-05-08T05:08:11Z</time>
      </trkpt>
      <trkpt lat="41.36549" lon="0.1666">
        <time>2021-05-08T05:08:11Z</time>
      </trkpt>
      <trkpt lat="41.36537" lon="0.16668">
        <time>2021-05-08T05:08:11Z</time>
      </trkpt>
      <trkpt lat="41.36522" lon="0.16681">
        <time>2021-05-08T05:08:11Z</time>
      </trkpt>
      <trkpt lat="41.36455" lon="0.16742">
        <time>2021-05-08T05:08:11Z</time>
      </trkpt>
      <trkpt lat="41.36447" lon="0.16747">
        <time>2021-05-08T05:08:11Z</time>
      </trkpt>
      <trkpt lat="41.36436" lon="0.16749">
        <time>2021-05-08T05:08:11Z</time>
      </trkpt>
      <trkpt lat="41.36419" lon="0.16737">
        <time>2021-05-08T05:08:11Z</time>
      </trkpt>
      <trkpt lat="41.364" lon="0.1672">
        <time>2021-05-08T05:08:11Z</time>
      </trkpt>
      <trkpt lat="41.36377" lon="0.16703">
        <time>2021-05-08T05:08:11Z</time>
      </trkpt>
      <trkpt lat="41.36353" lon="0.16689">
        <time>2021-05-08T05:08:11Z</time>
      </trkpt>
      <trkpt lat="41.36322" lon="0.16674">
        <time>2021-05-08T05:08:11Z</time>
      </trkpt>
      <trkpt lat="41.36301" lon="0.16665">
        <time>2021-05-08T05:08:11Z</time>
      </trkpt>
      <trkpt lat="41.36264" lon="0.16654">
        <time>2021-05-08T05:08:11Z</time>
      </trkpt>
      <trkpt lat="41.36253" lon="0.16653">
        <time>2021-05-08T05:08:11Z</time>
      </trkpt>
      <trkpt lat="41.36245" lon="0.16656">
        <time>2021-05-08T05:08:11Z</time>
      </trkpt>
      <trkpt lat="41.36239" lon="0.16662">
        <time>2021-05-08T05:08:11Z</time>
      </trkpt>
      <trkpt lat="41.3623" lon="0.16671">
        <time>2021-05-08T05:08:11Z</time>
      </trkpt>
      <trkpt lat="41.3622" lon="0.16682">
        <time>2021-05-08T05:08:11Z</time>
      </trkpt>
      <trkpt lat="41.36209" lon="0.16695">
        <time>2021-05-08T05:08:11Z</time>
      </trkpt>
      <trkpt lat="41.36185" lon="0.16723">
        <time>2021-05-08T05:08:11Z</time>
      </trkpt>
      <trkpt lat="41.36175" lon="0.16734">
        <time>2021-05-08T05:08:11Z</time>
      </trkpt>
      <trkpt lat="41.36157" lon="0.16758">
        <time>2021-05-08T05:08:11Z</time>
      </trkpt>
      <trkpt lat="41.36147" lon="0.1677">
        <time>2021-05-08T05:08:11Z</time>
      </trkpt>
      <trkpt lat="41.36136" lon="0.16783">
        <time>2021-05-08T05:08:11Z</time>
      </trkpt>
      <trkpt lat="41.36123" lon="0.16799">
        <time>2021-05-08T05:08:11Z</time>
      </trkpt>
      <trkpt lat="41.36115" lon="0.1681">
        <time>2021-05-08T05:08:11Z</time>
      </trkpt>
      <trkpt lat="41.36098" lon="0.16827">
        <time>2021-05-08T05:08:11Z</time>
      </trkpt>
      <trkpt lat="41.36085" lon="0.16836">
        <time>2021-05-08T05:08:11Z</time>
      </trkpt>
      <trkpt lat="41.36051" lon="0.16856">
        <time>2021-05-08T05:08:11Z</time>
      </trkpt>
      <trkpt lat="41.36007" lon="0.16876">
        <time>2021-05-08T05:08:11Z</time>
      </trkpt>
      <trkpt lat="41.35984" lon="0.16885">
        <time>2021-05-08T05:08:11Z</time>
      </trkpt>
      <trkpt lat="41.3596" lon="0.16892">
        <time>2021-05-08T05:08:11Z</time>
      </trkpt>
      <trkpt lat="41.35951" lon="0.16898">
        <time>2021-05-08T05:08:11Z</time>
      </trkpt>
      <trkpt lat="41.3594" lon="0.16906">
        <time>2021-05-08T05:08:11Z</time>
      </trkpt>
      <trkpt lat="41.35929" lon="0.16913">
        <time>2021-05-08T05:08:11Z</time>
      </trkpt>
      <trkpt lat="41.3591" lon="0.16924">
        <time>2021-05-08T05:08:11Z</time>
      </trkpt>
      <trkpt lat="41.35895" lon="0.16932">
        <time>2021-05-08T05:08:11Z</time>
      </trkpt>
      <trkpt lat="41.3588" lon="0.16941">
        <time>2021-05-08T05:08:11Z</time>
      </trkpt>
      <trkpt lat="41.3587" lon="0.16954">
        <time>2021-05-08T05:08:11Z</time>
      </trkpt>
      <trkpt lat="41.35859" lon="0.1696">
        <time>2021-05-08T05:08:11Z</time>
      </trkpt>
      <trkpt lat="41.35847" lon="0.16969">
        <time>2021-05-08T05:08:11Z</time>
      </trkpt>
      <trkpt lat="41.35834" lon="0.16982">
        <time>2021-05-08T05:08:11Z</time>
      </trkpt>
      <trkpt lat="41.35822" lon="0.16996">
        <time>2021-05-08T05:08:11Z</time>
      </trkpt>
      <trkpt lat="41.35808" lon="0.17008">
        <time>2021-05-08T05:08:11Z</time>
      </trkpt>
      <trkpt lat="41.35796" lon="0.17014">
        <time>2021-05-08T05:08:11Z</time>
      </trkpt>
      <trkpt lat="41.35784" lon="0.17019">
        <time>2021-05-08T05:08:11Z</time>
      </trkpt>
      <trkpt lat="41.35776" lon="0.17029">
        <time>2021-05-08T05:08:11Z</time>
      </trkpt>
      <trkpt lat="41.35761" lon="0.17048">
        <time>2021-05-08T05:08:11Z</time>
      </trkpt>
      <trkpt lat="41.35754" lon="0.17059">
        <time>2021-05-08T05:08:11Z</time>
      </trkpt>
      <trkpt lat="41.35739" lon="0.17076">
        <time>2021-05-08T05:08:11Z</time>
      </trkpt>
      <trkpt lat="41.35712" lon="0.1711">
        <time>2021-05-08T05:08:11Z</time>
      </trkpt>
      <trkpt lat="41.35704" lon="0.17121">
        <time>2021-05-08T05:08:11Z</time>
      </trkpt>
      <trkpt lat="41.35697" lon="0.17126">
        <time>2021-05-08T05:08:11Z</time>
      </trkpt>
      <trkpt lat="41.35667" lon="0.17134">
        <time>2021-05-08T05:08:11Z</time>
      </trkpt>
      <trkpt lat="41.35624" lon="0.17141">
        <time>2021-05-08T05:08:11Z</time>
      </trkpt>
      <trkpt lat="41.35592" lon="0.17144">
        <time>2021-05-08T05:08:11Z</time>
      </trkpt>
      <trkpt lat="41.35584" lon="0.17146">
        <time>2021-05-08T05:08:11Z</time>
      </trkpt>
      <trkpt lat="41.35578" lon="0.17153">
        <time>2021-05-08T05:08:11Z</time>
      </trkpt>
      <trkpt lat="41.35568" lon="0.17165">
        <time>2021-05-08T05:08:11Z</time>
      </trkpt>
      <trkpt lat="41.35547" lon="0.17199">
        <time>2021-05-08T05:08:11Z</time>
      </trkpt>
      <trkpt lat="41.35535" lon="0.17217">
        <time>2021-05-08T05:08:11Z</time>
      </trkpt>
      <trkpt lat="41.3552" lon="0.17235">
        <time>2021-05-08T05:08:11Z</time>
      </trkpt>
      <trkpt lat="41.35498" lon="0.1726">
        <time>2021-05-08T05:08:11Z</time>
      </trkpt>
      <trkpt lat="41.35485" lon="0.17273">
        <time>2021-05-08T05:08:11Z</time>
      </trkpt>
      <trkpt lat="41.35462" lon="0.17293">
        <time>2021-05-08T05:08:11Z</time>
      </trkpt>
      <trkpt lat="41.35452" lon="0.17298">
        <time>2021-05-08T05:08:11Z</time>
      </trkpt>
      <trkpt lat="41.35413" lon="0.17314">
        <time>2021-05-08T05:08:11Z</time>
      </trkpt>
      <trkpt lat="41.35406" lon="0.17324">
        <time>2021-05-08T05:08:11Z</time>
      </trkpt>
      <trkpt lat="41.35401" lon="0.1734">
        <time>2021-05-08T05:08:11Z</time>
      </trkpt>
      <trkpt lat="41.35398" lon="0.17354">
        <time>2021-05-08T05:08:11Z</time>
      </trkpt>
      <trkpt lat="41.35394" lon="0.17367">
        <time>2021-05-08T05:08:11Z</time>
      </trkpt>
      <trkpt lat="41.35384" lon="0.17376">
        <time>2021-05-08T05:08:11Z</time>
      </trkpt>
      <trkpt lat="41.3536" lon="0.17392">
        <time>2021-05-08T05:08:11Z</time>
      </trkpt>
      <trkpt lat="41.35351" lon="0.17394">
        <time>2021-05-08T05:08:11Z</time>
      </trkpt>
      <trkpt lat="41.35332" lon="0.1739">
        <time>2021-05-08T05:08:11Z</time>
      </trkpt>
      <trkpt lat="41.35318" lon="0.17385">
        <time>2021-05-08T05:08:11Z</time>
      </trkpt>
      <trkpt lat="41.35308" lon="0.17389">
        <time>2021-05-08T05:08:11Z</time>
      </trkpt>
      <trkpt lat="41.35296" lon="0.17401">
        <time>2021-05-08T05:08:11Z</time>
      </trkpt>
      <trkpt lat="41.35283" lon="0.17414">
        <time>2021-05-08T05:08:11Z</time>
      </trkpt>
      <trkpt lat="41.35275" lon="0.17421">
        <time>2021-05-08T05:08:11Z</time>
      </trkpt>
      <trkpt lat="41.3526" lon="0.1743">
        <time>2021-05-08T05:08:11Z</time>
      </trkpt>
      <trkpt lat="41.35253" lon="0.17436">
        <time>2021-05-08T05:08:11Z</time>
      </trkpt>
      <trkpt lat="41.35249" lon="0.17439">
        <time>2021-05-08T05:08:11Z</time>
      </trkpt>
      <trkpt lat="41.35236" lon="0.17449">
        <time>2021-05-08T05:08:11Z</time>
      </trkpt>
      <trkpt lat="41.35225" lon="0.17454">
        <time>2021-05-08T05:08:11Z</time>
      </trkpt>
      <trkpt lat="41.3519" lon="0.17477">
        <time>2021-05-08T05:08:11Z</time>
      </trkpt>
      <trkpt lat="41.3518" lon="0.17482">
        <time>2021-05-08T05:08:11Z</time>
      </trkpt>
      <trkpt lat="41.35175" lon="0.17484">
        <time>2021-05-08T05:08:11Z</time>
      </trkpt>
      <trkpt lat="41.3517" lon="0.17482">
        <time>2021-05-08T05:08:11Z</time>
      </trkpt>
      <trkpt lat="41.35164" lon="0.17476">
        <time>2021-05-08T05:08:11Z</time>
      </trkpt>
      <trkpt lat="41.35159" lon="0.17464">
        <time>2021-05-08T05:08:11Z</time>
      </trkpt>
      <trkpt lat="41.35147" lon="0.17449">
        <time>2021-05-08T05:08:11Z</time>
      </trkpt>
      <trkpt lat="41.35129" lon="0.1743">
        <time>2021-05-08T05:08:11Z</time>
      </trkpt>
      <trkpt lat="41.35115" lon="0.17413">
        <time>2021-05-08T05:08:11Z</time>
      </trkpt>
      <trkpt lat="41.35107" lon="0.17404">
        <time>2021-05-08T05:08:11Z</time>
      </trkpt>
      <trkpt lat="41.35096" lon="0.17394">
        <time>2021-05-08T05:08:11Z</time>
      </trkpt>
      <trkpt lat="41.35085" lon="0.17392">
        <time>2021-05-08T05:08:11Z</time>
      </trkpt>
      <trkpt lat="41.35073" lon="0.17394">
        <time>2021-05-08T05:08:11Z</time>
      </trkpt>
      <trkpt lat="41.35052" lon="0.17397">
        <time>2021-05-08T05:08:11Z</time>
      </trkpt>
      <trkpt lat="41.35045" lon="0.17399">
        <time>2021-05-08T05:08:11Z</time>
      </trkpt>
      <trkpt lat="41.35038" lon="0.17406">
        <time>2021-05-08T05:08:11Z</time>
      </trkpt>
      <trkpt lat="41.35021" lon="0.17431">
        <time>2021-05-08T05:08:11Z</time>
      </trkpt>
      <trkpt lat="41.34998" lon="0.17477">
        <time>2021-05-08T05:08:11Z</time>
      </trkpt>
      <trkpt lat="41.34997" lon="0.17482">
        <time>2021-05-08T05:08:11Z</time>
      </trkpt>
      <trkpt lat="41.34991" lon="0.17489">
        <time>2021-05-08T05:08:11Z</time>
      </trkpt>
      <trkpt lat="41.34972" lon="0.17503">
        <time>2021-05-08T05:08:11Z</time>
      </trkpt>
      <trkpt lat="41.34965" lon="0.17508">
        <time>2021-05-08T05:08:11Z</time>
      </trkpt>
      <trkpt lat="41.34959" lon="0.17522">
        <time>2021-05-08T05:08:11Z</time>
      </trkpt>
      <trkpt lat="41.34953" lon="0.17547">
        <time>2021-05-08T05:08:11Z</time>
      </trkpt>
      <trkpt lat="41.34937" lon="0.17629">
        <time>2021-05-08T05:08:11Z</time>
      </trkpt>
      <trkpt lat="41.34935" lon="0.17639">
        <time>2021-05-08T05:08:11Z</time>
      </trkpt>
      <trkpt lat="41.34927" lon="0.17663">
        <time>2021-05-08T05:08:11Z</time>
      </trkpt>
      <trkpt lat="41.34923" lon="0.17674">
        <time>2021-05-08T05:08:11Z</time>
      </trkpt>
      <trkpt lat="41.34916" lon="0.17687">
        <time>2021-05-08T05:08:11Z</time>
      </trkpt>
      <trkpt lat="41.34908" lon="0.17697">
        <time>2021-05-08T05:08:11Z</time>
      </trkpt>
      <trkpt lat="41.34899" lon="0.17712">
        <time>2021-05-08T05:08:11Z</time>
      </trkpt>
      <trkpt lat="41.34895" lon="0.17723">
        <time>2021-05-08T05:08:11Z</time>
      </trkpt>
      <trkpt lat="41.34893" lon="0.17732">
        <time>2021-05-08T05:08:11Z</time>
      </trkpt>
      <trkpt lat="41.34888" lon="0.17796">
        <time>2021-05-08T05:08:11Z</time>
      </trkpt>
      <trkpt lat="41.3488" lon="0.17894">
        <time>2021-05-08T05:08:11Z</time>
      </trkpt>
      <trkpt lat="41.34877" lon="0.17906">
        <time>2021-05-08T05:08:11Z</time>
      </trkpt>
      <trkpt lat="41.34876" lon="0.17919">
        <time>2021-05-08T05:08:11Z</time>
      </trkpt>
      <trkpt lat="41.34877" lon="0.17943">
        <time>2021-05-08T05:08:11Z</time>
      </trkpt>
      <trkpt lat="41.34878" lon="0.17961">
        <time>2021-05-08T05:08:11Z</time>
      </trkpt>
      <trkpt lat="41.34876" lon="0.17975">
        <time>2021-05-08T05:08:11Z</time>
      </trkpt>
      <trkpt lat="41.34861" lon="0.18078">
        <time>2021-05-08T05:08:11Z</time>
      </trkpt>
      <trkpt lat="41.34857" lon="0.18093">
        <time>2021-05-08T05:08:11Z</time>
      </trkpt>
      <trkpt lat="41.34848" lon="0.18113">
        <time>2021-05-08T05:08:11Z</time>
      </trkpt>
      <trkpt lat="41.34828" lon="0.18142">
        <time>2021-05-08T05:08:11Z</time>
      </trkpt>
      <trkpt lat="41.34819" lon="0.18155">
        <time>2021-05-08T05:08:11Z</time>
      </trkpt>
      <trkpt lat="41.34812" lon="0.18161">
        <time>2021-05-08T05:08:11Z</time>
      </trkpt>
      <trkpt lat="41.34801" lon="0.1817">
        <time>2021-05-08T05:08:11Z</time>
      </trkpt>
      <trkpt lat="41.34788" lon="0.18176">
        <time>2021-05-08T05:08:11Z</time>
      </trkpt>
      <trkpt lat="41.34782" lon="0.18179">
        <time>2021-05-08T05:08:11Z</time>
      </trkpt>
      <trkpt lat="41.34779" lon="0.18185">
        <time>2021-05-08T05:08:11Z</time>
      </trkpt>
      <trkpt lat="41.34775" lon="0.18194">
        <time>2021-05-08T05:08:11Z</time>
      </trkpt>
      <trkpt lat="41.34774" lon="0.18202">
        <time>2021-05-08T05:08:11Z</time>
      </trkpt>
      <trkpt lat="41.34774" lon="0.18211">
        <time>2021-05-08T05:08:11Z</time>
      </trkpt>
      <trkpt lat="41.34769" lon="0.18233">
        <time>2021-05-08T05:08:11Z</time>
      </trkpt>
      <trkpt lat="41.34764" lon="0.18245">
        <time>2021-05-08T05:08:11Z</time>
      </trkpt>
      <trkpt lat="41.34755" lon="0.18257">
        <time>2021-05-08T05:08:11Z</time>
      </trkpt>
      <trkpt lat="41.3475" lon="0.18264">
        <time>2021-05-08T05:08:11Z</time>
      </trkpt>
      <trkpt lat="41.34752" lon="0.18271">
        <time>2021-05-08T05:08:11Z</time>
      </trkpt>
      <trkpt lat="41.34757" lon="0.18275">
        <time>2021-05-08T05:08:11Z</time>
      </trkpt>
      <trkpt lat="41.34761" lon="0.18285">
        <time>2021-05-08T05:08:11Z</time>
      </trkpt>
      <trkpt lat="41.34766" lon="0.18298">
        <time>2021-05-08T05:08:11Z</time>
      </trkpt>
      <trkpt lat="41.3477" lon="0.18307">
        <time>2021-05-08T05:08:11Z</time>
      </trkpt>
      <trkpt lat="41.3478" lon="0.18322">
        <time>2021-05-08T05:08:11Z</time>
      </trkpt>
      <trkpt lat="41.34788" lon="0.18333">
        <time>2021-05-08T05:08:11Z</time>
      </trkpt>
      <trkpt lat="41.34796" lon="0.18343">
        <time>2021-05-08T05:08:11Z</time>
      </trkpt>
      <trkpt lat="41.34805" lon="0.18356">
        <time>2021-05-08T05:08:11Z</time>
      </trkpt>
      <trkpt lat="41.34815" lon="0.18369">
        <time>2021-05-08T05:08:11Z</time>
      </trkpt>
      <trkpt lat="41.34823" lon="0.1838">
        <time>2021-05-08T05:08:11Z</time>
      </trkpt>
      <trkpt lat="41.34835" lon="0.18395">
        <time>2021-05-08T05:08:11Z</time>
      </trkpt>
      <trkpt lat="41.34845" lon="0.18408">
        <time>2021-05-08T05:08:11Z</time>
      </trkpt>
      <trkpt lat="41.34855" lon="0.18418">
        <time>2021-05-08T05:08:11Z</time>
      </trkpt>
      <trkpt lat="41.34865" lon="0.18428">
        <time>2021-05-08T05:08:11Z</time>
      </trkpt>
      <trkpt lat="41.34878" lon="0.18439">
        <time>2021-05-08T05:08:11Z</time>
      </trkpt>
      <trkpt lat="41.34889" lon="0.18451">
        <time>2021-05-08T05:08:11Z</time>
      </trkpt>
      <trkpt lat="41.349" lon="0.18462">
        <time>2021-05-08T05:08:11Z</time>
      </trkpt>
      <trkpt lat="41.34909" lon="0.18473">
        <time>2021-05-08T05:08:11Z</time>
      </trkpt>
      <trkpt lat="41.34912" lon="0.18478">
        <time>2021-05-08T05:08:11Z</time>
      </trkpt>
      <trkpt lat="41.34915" lon="0.18485">
        <time>2021-05-08T05:08:11Z</time>
      </trkpt>
      <trkpt lat="41.34922" lon="0.185">
        <time>2021-05-08T05:08:11Z</time>
      </trkpt>
      <trkpt lat="41.34928" lon="0.18511">
        <time>2021-05-08T05:08:11Z</time>
      </trkpt>
      <trkpt lat="41.34938" lon="0.18523">
        <time>2021-05-08T05:08:11Z</time>
      </trkpt>
      <trkpt lat="41.34943" lon="0.18528">
        <time>2021-05-08T05:08:11Z</time>
      </trkpt>
      <trkpt lat="41.34949" lon="0.18537">
        <time>2021-05-08T05:08:11Z</time>
      </trkpt>
      <trkpt lat="41.34956" lon="0.18545">
        <time>2021-05-08T05:08:11Z</time>
      </trkpt>
      <trkpt lat="41.3496" lon="0.18555">
        <time>2021-05-08T05:08:11Z</time>
      </trkpt>
      <trkpt lat="41.3496" lon="0.18567">
        <time>2021-05-08T05:08:11Z</time>
      </trkpt>
      <trkpt lat="41.34958" lon="0.18585">
        <time>2021-05-08T05:08:11Z</time>
      </trkpt>
      <trkpt lat="41.34948" lon="0.18643">
        <time>2021-05-08T05:08:11Z</time>
      </trkpt>
      <trkpt lat="41.3494" lon="0.1869">
        <time>2021-05-08T05:08:11Z</time>
      </trkpt>
      <trkpt lat="41.34935" lon="0.18707">
        <time>2021-05-08T05:08:11Z</time>
      </trkpt>
      <trkpt lat="41.34929" lon="0.18736">
        <time>2021-05-08T05:08:11Z</time>
      </trkpt>
      <trkpt lat="41.34928" lon="0.18746">
        <time>2021-05-08T05:08:11Z</time>
      </trkpt>
      <trkpt lat="41.3493" lon="0.18756">
        <time>2021-05-08T05:08:11Z</time>
      </trkpt>
      <trkpt lat="41.34938" lon="0.18762">
        <time>2021-05-08T05:08:11Z</time>
      </trkpt>
      <trkpt lat="41.34953" lon="0.18769">
        <time>2021-05-08T05:08:11Z</time>
      </trkpt>
      <trkpt lat="41.34972" lon="0.18776">
        <time>2021-05-08T05:08:11Z</time>
      </trkpt>
      <trkpt lat="41.34981" lon="0.18778">
        <time>2021-05-08T05:08:11Z</time>
      </trkpt>
      <trkpt lat="41.34993" lon="0.18778">
        <time>2021-05-08T05:08:11Z</time>
      </trkpt>
      <trkpt lat="41.34999" lon="0.18776">
        <time>2021-05-08T05:08:11Z</time>
      </trkpt>
      <trkpt lat="41.35009" lon="0.18765">
        <time>2021-05-08T05:08:11Z</time>
      </trkpt>
      <trkpt lat="41.35013" lon="0.18759">
        <time>2021-05-08T05:08:11Z</time>
      </trkpt>
      <trkpt lat="41.35023" lon="0.18742">
        <time>2021-05-08T05:08:11Z</time>
      </trkpt>
      <trkpt lat="41.35033" lon="0.18726">
        <time>2021-05-08T05:08:11Z</time>
      </trkpt>
      <trkpt lat="41.35041" lon="0.18717">
        <time>2021-05-08T05:08:11Z</time>
      </trkpt>
      <trkpt lat="41.35049" lon="0.18712">
        <time>2021-05-08T05:08:11Z</time>
      </trkpt>
      <trkpt lat="41.3506" lon="0.18711">
        <time>2021-05-08T05:08:11Z</time>
      </trkpt>
      <trkpt lat="41.35072" lon="0.18713">
        <time>2021-05-08T05:08:11Z</time>
      </trkpt>
      <trkpt lat="41.35077" lon="0.18717">
        <time>2021-05-08T05:08:11Z</time>
      </trkpt>
      <trkpt lat="41.35089" lon="0.18735">
        <time>2021-05-08T05:08:11Z</time>
      </trkpt>
      <trkpt lat="41.35097" lon="0.1875">
        <time>2021-05-08T05:08:11Z</time>
      </trkpt>
      <trkpt lat="41.35101" lon="0.18763">
        <time>2021-05-08T05:08:11Z</time>
      </trkpt>
      <trkpt lat="41.35105" lon="0.18776">
        <time>2021-05-08T05:08:11Z</time>
      </trkpt>
      <trkpt lat="41.35114" lon="0.18801">
        <time>2021-05-08T05:08:11Z</time>
      </trkpt>
      <trkpt lat="41.35119" lon="0.18812">
        <time>2021-05-08T05:08:11Z</time>
      </trkpt>
      <trkpt lat="41.35125" lon="0.18825">
        <time>2021-05-08T05:08:11Z</time>
      </trkpt>
      <trkpt lat="41.35132" lon="0.18838">
        <time>2021-05-08T05:08:11Z</time>
      </trkpt>
      <trkpt lat="41.35136" lon="0.18849">
        <time>2021-05-08T05:08:11Z</time>
      </trkpt>
      <trkpt lat="41.3514" lon="0.18859">
        <time>2021-05-08T05:08:11Z</time>
      </trkpt>
      <trkpt lat="41.35173" lon="0.18943">
        <time>2021-05-08T05:08:11Z</time>
      </trkpt>
      <trkpt lat="41.35195" lon="0.1899">
        <time>2021-05-08T05:08:11Z</time>
      </trkpt>
      <trkpt lat="41.35202" lon="0.19005">
        <time>2021-05-08T05:08:11Z</time>
      </trkpt>
      <trkpt lat="41.35205" lon="0.19017">
        <time>2021-05-08T05:08:11Z</time>
      </trkpt>
      <trkpt lat="41.35203" lon="0.19028">
        <time>2021-05-08T05:08:11Z</time>
      </trkpt>
      <trkpt lat="41.35193" lon="0.1904">
        <time>2021-05-08T05:08:11Z</time>
      </trkpt>
      <trkpt lat="41.35189" lon="0.19056">
        <time>2021-05-08T05:08:11Z</time>
      </trkpt>
      <trkpt lat="41.35195" lon="0.19071">
        <time>2021-05-08T05:08:11Z</time>
      </trkpt>
      <trkpt lat="41.35202" lon="0.19082">
        <time>2021-05-08T05:08:11Z</time>
      </trkpt>
      <trkpt lat="41.35205" lon="0.19085">
        <time>2021-05-08T05:08:11Z</time>
      </trkpt>
      <trkpt lat="41.35211" lon="0.19096">
        <time>2021-05-08T05:08:11Z</time>
      </trkpt>
      <trkpt lat="41.35222" lon="0.1912">
        <time>2021-05-08T05:08:11Z</time>
      </trkpt>
      <trkpt lat="41.35226" lon="0.19133">
        <time>2021-05-08T05:08:11Z</time>
      </trkpt>
      <trkpt lat="41.35229" lon="0.19145">
        <time>2021-05-08T05:08:11Z</time>
      </trkpt>
      <trkpt lat="41.35233" lon="0.19165">
        <time>2021-05-08T05:08:11Z</time>
      </trkpt>
      <trkpt lat="41.35235" lon="0.19174">
        <time>2021-05-08T05:08:11Z</time>
      </trkpt>
      <trkpt lat="41.35239" lon="0.19192">
        <time>2021-05-08T05:08:11Z</time>
      </trkpt>
      <trkpt lat="41.35244" lon="0.19209">
        <time>2021-05-08T05:08:11Z</time>
      </trkpt>
      <trkpt lat="41.35248" lon="0.19224">
        <time>2021-05-08T05:08:11Z</time>
      </trkpt>
      <trkpt lat="41.35252" lon="0.19236">
        <time>2021-05-08T05:08:11Z</time>
      </trkpt>
      <trkpt lat="41.35257" lon="0.19247">
        <time>2021-05-08T05:08:11Z</time>
      </trkpt>
      <trkpt lat="41.3526" lon="0.19261">
        <time>2021-05-08T05:08:11Z</time>
      </trkpt>
      <trkpt lat="41.35262" lon="0.19288">
        <time>2021-05-08T05:08:11Z</time>
      </trkpt>
      <trkpt lat="41.3526" lon="0.19297">
        <time>2021-05-08T05:08:11Z</time>
      </trkpt>
      <trkpt lat="41.35248" lon="0.1931">
        <time>2021-05-08T05:08:11Z</time>
      </trkpt>
      <trkpt lat="41.35237" lon="0.19316">
        <time>2021-05-08T05:08:11Z</time>
      </trkpt>
      <trkpt lat="41.35228" lon="0.19323">
        <time>2021-05-08T05:08:11Z</time>
      </trkpt>
      <trkpt lat="41.3522" lon="0.19331">
        <time>2021-05-08T05:08:11Z</time>
      </trkpt>
      <trkpt lat="41.35211" lon="0.1934">
        <time>2021-05-08T05:08:11Z</time>
      </trkpt>
      <trkpt lat="41.35203" lon="0.19349">
        <time>2021-05-08T05:08:11Z</time>
      </trkpt>
      <trkpt lat="41.35185" lon="0.19387">
        <time>2021-05-08T05:08:11Z</time>
      </trkpt>
      <trkpt lat="41.35179" lon="0.19404">
        <time>2021-05-08T05:08:11Z</time>
      </trkpt>
      <trkpt lat="41.35164" lon="0.19432">
        <time>2021-05-08T05:08:11Z</time>
      </trkpt>
      <trkpt lat="41.35157" lon="0.19449">
        <time>2021-05-08T05:08:11Z</time>
      </trkpt>
      <trkpt lat="41.35151" lon="0.19464">
        <time>2021-05-08T05:08:11Z</time>
      </trkpt>
      <trkpt lat="41.35147" lon="0.19477">
        <time>2021-05-08T05:08:11Z</time>
      </trkpt>
      <trkpt lat="41.35142" lon="0.1949">
        <time>2021-05-08T05:08:11Z</time>
      </trkpt>
      <trkpt lat="41.35138" lon="0.19501">
        <time>2021-05-08T05:08:11Z</time>
      </trkpt>
      <trkpt lat="41.35134" lon="0.19516">
        <time>2021-05-08T05:08:11Z</time>
      </trkpt>
      <trkpt lat="41.3513" lon="0.19527">
        <time>2021-05-08T05:08:11Z</time>
      </trkpt>
      <trkpt lat="41.35125" lon="0.19554">
        <time>2021-05-08T05:08:11Z</time>
      </trkpt>
      <trkpt lat="41.35122" lon="0.19574">
        <time>2021-05-08T05:08:11Z</time>
      </trkpt>
      <trkpt lat="41.35121" lon="0.19603">
        <time>2021-05-08T05:08:11Z</time>
      </trkpt>
      <trkpt lat="41.35116" lon="0.1962">
        <time>2021-05-08T05:08:11Z</time>
      </trkpt>
      <trkpt lat="41.35101" lon="0.19644">
        <time>2021-05-08T05:08:11Z</time>
      </trkpt>
      <trkpt lat="41.35094" lon="0.19661">
        <time>2021-05-08T05:08:11Z</time>
      </trkpt>
      <trkpt lat="41.35082" lon="0.19696">
        <time>2021-05-08T05:08:11Z</time>
      </trkpt>
      <trkpt lat="41.35067" lon="0.19728">
        <time>2021-05-08T05:08:11Z</time>
      </trkpt>
      <trkpt lat="41.35061" lon="0.19739">
        <time>2021-05-08T05:08:11Z</time>
      </trkpt>
      <trkpt lat="41.3506" lon="0.19748">
        <time>2021-05-08T05:08:11Z</time>
      </trkpt>
      <trkpt lat="41.35064" lon="0.19755">
        <time>2021-05-08T05:08:11Z</time>
      </trkpt>
      <trkpt lat="41.35085" lon="0.19789">
        <time>2021-05-08T05:08:11Z</time>
      </trkpt>
      <trkpt lat="41.35089" lon="0.19797">
        <time>2021-05-08T05:08:11Z</time>
      </trkpt>
      <trkpt lat="41.35111" lon="0.19853">
        <time>2021-05-08T05:08:11Z</time>
      </trkpt>
      <trkpt lat="41.35115" lon="0.19858">
        <time>2021-05-08T05:08:11Z</time>
      </trkpt>
      <trkpt lat="41.35121" lon="0.19866">
        <time>2021-05-08T05:08:11Z</time>
      </trkpt>
      <trkpt lat="41.35129" lon="0.19885">
        <time>2021-05-08T05:08:11Z</time>
      </trkpt>
      <trkpt lat="41.35136" lon="0.19909">
        <time>2021-05-08T05:08:11Z</time>
      </trkpt>
      <trkpt lat="41.35141" lon="0.19942">
        <time>2021-05-08T05:08:11Z</time>
      </trkpt>
      <trkpt lat="41.35143" lon="0.19958">
        <time>2021-05-08T05:08:11Z</time>
      </trkpt>
      <trkpt lat="41.35148" lon="0.19979">
        <time>2021-05-08T05:08:11Z</time>
      </trkpt>
      <trkpt lat="41.35157" lon="0.2003">
        <time>2021-05-08T05:08:11Z</time>
      </trkpt>
      <trkpt lat="41.35162" lon="0.20056">
        <time>2021-05-08T05:08:11Z</time>
      </trkpt>
      <trkpt lat="41.35169" lon="0.20075">
        <time>2021-05-08T05:08:11Z</time>
      </trkpt>
      <trkpt lat="41.35177" lon="0.20086">
        <time>2021-05-08T05:08:11Z</time>
      </trkpt>
      <trkpt lat="41.35189" lon="0.20097">
        <time>2021-05-08T05:08:11Z</time>
      </trkpt>
      <trkpt lat="41.35202" lon="0.20108">
        <time>2021-05-08T05:08:11Z</time>
      </trkpt>
      <trkpt lat="41.35216" lon="0.20116">
        <time>2021-05-08T05:08:11Z</time>
      </trkpt>
      <trkpt lat="41.35225" lon="0.20124">
        <time>2021-05-08T05:08:11Z</time>
      </trkpt>
      <trkpt lat="41.35231" lon="0.20129">
        <time>2021-05-08T05:08:11Z</time>
      </trkpt>
      <trkpt lat="41.35236" lon="0.20142">
        <time>2021-05-08T05:08:11Z</time>
      </trkpt>
      <trkpt lat="41.35247" lon="0.20164">
        <time>2021-05-08T05:08:11Z</time>
      </trkpt>
      <trkpt lat="41.35257" lon="0.20178">
        <time>2021-05-08T05:08:11Z</time>
      </trkpt>
      <trkpt lat="41.35278" lon="0.20204">
        <time>2021-05-08T05:08:11Z</time>
      </trkpt>
      <trkpt lat="41.35297" lon="0.20224">
        <time>2021-05-08T05:08:11Z</time>
      </trkpt>
      <trkpt lat="41.35312" lon="0.20237">
        <time>2021-05-08T05:08:11Z</time>
      </trkpt>
      <trkpt lat="41.35329" lon="0.20257">
        <time>2021-05-08T05:08:11Z</time>
      </trkpt>
      <trkpt lat="41.35339" lon="0.20269">
        <time>2021-05-08T05:08:11Z</time>
      </trkpt>
      <trkpt lat="41.35348" lon="0.2028">
        <time>2021-05-08T05:08:11Z</time>
      </trkpt>
      <trkpt lat="41.35359" lon="0.20294">
        <time>2021-05-08T05:08:11Z</time>
      </trkpt>
      <trkpt lat="41.35379" lon="0.20318">
        <time>2021-05-08T05:08:11Z</time>
      </trkpt>
      <trkpt lat="41.35389" lon="0.20332">
        <time>2021-05-08T05:08:11Z</time>
      </trkpt>
      <trkpt lat="41.35399" lon="0.20351">
        <time>2021-05-08T05:08:11Z</time>
      </trkpt>
      <trkpt lat="41.35407" lon="0.20368">
        <time>2021-05-08T05:08:11Z</time>
      </trkpt>
      <trkpt lat="41.35418" lon="0.20389">
        <time>2021-05-08T05:08:11Z</time>
      </trkpt>
      <trkpt lat="41.35425" lon="0.20406">
        <time>2021-05-08T05:08:11Z</time>
      </trkpt>
      <trkpt lat="41.35429" lon="0.20426">
        <time>2021-05-08T05:08:11Z</time>
      </trkpt>
      <trkpt lat="41.35433" lon="0.20445">
        <time>2021-05-08T05:08:11Z</time>
      </trkpt>
      <trkpt lat="41.35436" lon="0.2046">
        <time>2021-05-08T05:08:11Z</time>
      </trkpt>
      <trkpt lat="41.35445" lon="0.20489">
        <time>2021-05-08T05:08:11Z</time>
      </trkpt>
      <trkpt lat="41.35451" lon="0.205">
        <time>2021-05-08T05:08:11Z</time>
      </trkpt>
      <trkpt lat="41.35459" lon="0.20511">
        <time>2021-05-08T05:08:11Z</time>
      </trkpt>
      <trkpt lat="41.35466" lon="0.20519">
        <time>2021-05-08T05:08:11Z</time>
      </trkpt>
      <trkpt lat="41.35477" lon="0.20532">
        <time>2021-05-08T05:08:11Z</time>
      </trkpt>
      <trkpt lat="41.35485" lon="0.20544">
        <time>2021-05-08T05:08:11Z</time>
      </trkpt>
      <trkpt lat="41.3549" lon="0.20552">
        <time>2021-05-08T05:08:11Z</time>
      </trkpt>
      <trkpt lat="41.35499" lon="0.20566">
        <time>2021-05-08T05:08:11Z</time>
      </trkpt>
      <trkpt lat="41.35533" lon="0.20621">
        <time>2021-05-08T05:08:11Z</time>
      </trkpt>
      <trkpt lat="41.35541" lon="0.20637">
        <time>2021-05-08T05:08:11Z</time>
      </trkpt>
      <trkpt lat="41.35547" lon="0.20649">
        <time>2021-05-08T05:08:11Z</time>
      </trkpt>
      <trkpt lat="41.35553" lon="0.2066">
        <time>2021-05-08T05:08:11Z</time>
      </trkpt>
      <trkpt lat="41.35577" lon="0.20701">
        <time>2021-05-08T05:08:11Z</time>
      </trkpt>
      <trkpt lat="41.35586" lon="0.20716">
        <time>2021-05-08T05:08:11Z</time>
      </trkpt>
      <trkpt lat="41.3559" lon="0.20724">
        <time>2021-05-08T05:08:11Z</time>
      </trkpt>
      <trkpt lat="41.35599" lon="0.20744">
        <time>2021-05-08T05:08:11Z</time>
      </trkpt>
      <trkpt lat="41.35607" lon="0.20765">
        <time>2021-05-08T05:08:11Z</time>
      </trkpt>
      <trkpt lat="41.35613" lon="0.20775">
        <time>2021-05-08T05:08:11Z</time>
      </trkpt>
      <trkpt lat="41.3563" lon="0.20807">
        <time>2021-05-08T05:08:11Z</time>
      </trkpt>
      <trkpt lat="41.3564" lon="0.20823">
        <time>2021-05-08T05:08:11Z</time>
      </trkpt>
      <trkpt lat="41.35651" lon="0.2084">
        <time>2021-05-08T05:08:11Z</time>
      </trkpt>
      <trkpt lat="41.35663" lon="0.20855">
        <time>2021-05-08T05:08:11Z</time>
      </trkpt>
      <trkpt lat="41.35674" lon="0.20868">
        <time>2021-05-08T05:08:11Z</time>
      </trkpt>
      <trkpt lat="41.3568" lon="0.20875">
        <time>2021-05-08T05:08:11Z</time>
      </trkpt>
      <trkpt lat="41.35691" lon="0.20885">
        <time>2021-05-08T05:08:11Z</time>
      </trkpt>
      <trkpt lat="41.35702" lon="0.20896">
        <time>2021-05-08T05:08:11Z</time>
      </trkpt>
      <trkpt lat="41.35716" lon="0.20908">
        <time>2021-05-08T05:08:11Z</time>
      </trkpt>
      <trkpt lat="41.35728" lon="0.20916">
        <time>2021-05-08T05:08:11Z</time>
      </trkpt>
      <trkpt lat="41.35738" lon="0.20923">
        <time>2021-05-08T05:08:11Z</time>
      </trkpt>
      <trkpt lat="41.35751" lon="0.20932">
        <time>2021-05-08T05:08:11Z</time>
      </trkpt>
      <trkpt lat="41.3576" lon="0.20937">
        <time>2021-05-08T05:08:11Z</time>
      </trkpt>
      <trkpt lat="41.3578" lon="0.20946">
        <time>2021-05-08T05:08:11Z</time>
      </trkpt>
      <trkpt lat="41.35796" lon="0.20956">
        <time>2021-05-08T05:08:11Z</time>
      </trkpt>
      <trkpt lat="41.35808" lon="0.20964">
        <time>2021-05-08T05:08:11Z</time>
      </trkpt>
      <trkpt lat="41.35819" lon="0.20974">
        <time>2021-05-08T05:08:11Z</time>
      </trkpt>
      <trkpt lat="41.35835" lon="0.20986">
        <time>2021-05-08T05:08:11Z</time>
      </trkpt>
      <trkpt lat="41.3585" lon="0.20998">
        <time>2021-05-08T05:08:11Z</time>
      </trkpt>
      <trkpt lat="41.35863" lon="0.21009">
        <time>2021-05-08T05:08:11Z</time>
      </trkpt>
      <trkpt lat="41.35871" lon="0.21017">
        <time>2021-05-08T05:08:11Z</time>
      </trkpt>
      <trkpt lat="41.3588" lon="0.2103">
        <time>2021-05-08T05:08:11Z</time>
      </trkpt>
      <trkpt lat="41.35887" lon="0.21044">
        <time>2021-05-08T05:08:11Z</time>
      </trkpt>
      <trkpt lat="41.35893" lon="0.2106">
        <time>2021-05-08T05:08:11Z</time>
      </trkpt>
      <trkpt lat="41.35897" lon="0.21074">
        <time>2021-05-08T05:08:11Z</time>
      </trkpt>
      <trkpt lat="41.35902" lon="0.21088">
        <time>2021-05-08T05:08:11Z</time>
      </trkpt>
      <trkpt lat="41.35907" lon="0.21106">
        <time>2021-05-08T05:08:11Z</time>
      </trkpt>
      <trkpt lat="41.35911" lon="0.21123">
        <time>2021-05-08T05:08:11Z</time>
      </trkpt>
      <trkpt lat="41.35919" lon="0.21146">
        <time>2021-05-08T05:08:11Z</time>
      </trkpt>
      <trkpt lat="41.3593" lon="0.21175">
        <time>2021-05-08T05:08:11Z</time>
      </trkpt>
      <trkpt lat="41.35934" lon="0.21188">
        <time>2021-05-08T05:08:11Z</time>
      </trkpt>
      <trkpt lat="41.35944" lon="0.21219">
        <time>2021-05-08T05:08:11Z</time>
      </trkpt>
      <trkpt lat="41.35945" lon="0.21227">
        <time>2021-05-08T05:08:11Z</time>
      </trkpt>
      <trkpt lat="41.35951" lon="0.21251">
        <time>2021-05-08T05:08:11Z</time>
      </trkpt>
      <trkpt lat="41.35959" lon="0.21277">
        <time>2021-05-08T05:08:11Z</time>
      </trkpt>
      <trkpt lat="41.35969" lon="0.21317">
        <time>2021-05-08T05:08:11Z</time>
      </trkpt>
      <trkpt lat="41.3597" lon="0.21332">
        <time>2021-05-08T05:08:11Z</time>
      </trkpt>
      <trkpt lat="41.35969" lon="0.21356">
        <time>2021-05-08T05:08:11Z</time>
      </trkpt>
      <trkpt lat="41.35969" lon="0.21369">
        <time>2021-05-08T05:08:11Z</time>
      </trkpt>
      <trkpt lat="41.35969" lon="0.21377">
        <time>2021-05-08T05:08:11Z</time>
      </trkpt>
      <trkpt lat="41.35976" lon="0.21391">
        <time>2021-05-08T05:08:11Z</time>
      </trkpt>
      <trkpt lat="41.35981" lon="0.21402">
        <time>2021-05-08T05:08:11Z</time>
      </trkpt>
      <trkpt lat="41.35984" lon="0.21408">
        <time>2021-05-08T05:08:11Z</time>
      </trkpt>
      <trkpt lat="41.35988" lon="0.21415">
        <time>2021-05-08T05:08:11Z</time>
      </trkpt>
      <trkpt lat="41.35989" lon="0.21424">
        <time>2021-05-08T05:08:11Z</time>
      </trkpt>
      <trkpt lat="41.35991" lon="0.21458">
        <time>2021-05-08T05:08:11Z</time>
      </trkpt>
      <trkpt lat="41.35999" lon="0.21517">
        <time>2021-05-08T05:08:11Z</time>
      </trkpt>
      <trkpt lat="41.35999" lon="0.2153">
        <time>2021-05-08T05:08:11Z</time>
      </trkpt>
      <trkpt lat="41.35997" lon="0.21546">
        <time>2021-05-08T05:08:11Z</time>
      </trkpt>
      <trkpt lat="41.35992" lon="0.21569">
        <time>2021-05-08T05:08:11Z</time>
      </trkpt>
      <trkpt lat="41.35989" lon="0.21593">
        <time>2021-05-08T05:08:11Z</time>
      </trkpt>
      <trkpt lat="41.35988" lon="0.2162">
        <time>2021-05-08T05:08:11Z</time>
      </trkpt>
      <trkpt lat="41.35987" lon="0.21699">
        <time>2021-05-08T05:08:11Z</time>
      </trkpt>
      <trkpt lat="41.35985" lon="0.21762">
        <time>2021-05-08T05:08:11Z</time>
      </trkpt>
      <trkpt lat="41.35981" lon="0.21785">
        <time>2021-05-08T05:08:11Z</time>
      </trkpt>
      <trkpt lat="41.35975" lon="0.21803">
        <time>2021-05-08T05:08:11Z</time>
      </trkpt>
      <trkpt lat="41.35966" lon="0.21821">
        <time>2021-05-08T05:08:11Z</time>
      </trkpt>
      <trkpt lat="41.35958" lon="0.21837">
        <time>2021-05-08T05:08:11Z</time>
      </trkpt>
      <trkpt lat="41.3595" lon="0.21842">
        <time>2021-05-08T05:08:11Z</time>
      </trkpt>
      <trkpt lat="41.35937" lon="0.21849">
        <time>2021-05-08T05:08:11Z</time>
      </trkpt>
      <trkpt lat="41.35927" lon="0.21858">
        <time>2021-05-08T05:08:11Z</time>
      </trkpt>
      <trkpt lat="41.35922" lon="0.21864">
        <time>2021-05-08T05:08:11Z</time>
      </trkpt>
      <trkpt lat="41.35914" lon="0.21878">
        <time>2021-05-08T05:08:11Z</time>
      </trkpt>
      <trkpt lat="41.35909" lon="0.21894">
        <time>2021-05-08T05:08:11Z</time>
      </trkpt>
      <trkpt lat="41.35904" lon="0.21924">
        <time>2021-05-08T05:08:11Z</time>
      </trkpt>
      <trkpt lat="41.35903" lon="0.21936">
        <time>2021-05-08T05:08:11Z</time>
      </trkpt>
      <trkpt lat="41.35904" lon="0.21946">
        <time>2021-05-08T05:08:11Z</time>
      </trkpt>
      <trkpt lat="41.35908" lon="0.2195">
        <time>2021-05-08T05:08:11Z</time>
      </trkpt>
      <trkpt lat="41.35913" lon="0.2195">
        <time>2021-05-08T05:08:11Z</time>
      </trkpt>
      <trkpt lat="41.35926" lon="0.21933">
        <time>2021-05-08T05:08:11Z</time>
      </trkpt>
      <trkpt lat="41.35932" lon="0.21925">
        <time>2021-05-08T05:08:11Z</time>
      </trkpt>
      <trkpt lat="41.35939" lon="0.21912">
        <time>2021-05-08T05:08:11Z</time>
      </trkpt>
      <trkpt lat="41.35943" lon="0.21899">
        <time>2021-05-08T05:08:11Z</time>
      </trkpt>
      <trkpt lat="41.35947" lon="0.21891">
        <time>2021-05-08T05:08:11Z</time>
      </trkpt>
      <trkpt lat="41.35951" lon="0.21892">
        <time>2021-05-08T05:08:11Z</time>
      </trkpt>
      <trkpt lat="41.35952" lon="0.21896">
        <time>2021-05-08T05:08:11Z</time>
      </trkpt>
      <trkpt lat="41.35952" lon="0.21905">
        <time>2021-05-08T05:08:11Z</time>
      </trkpt>
      <trkpt lat="41.35951" lon="0.21916">
        <time>2021-05-08T05:08:11Z</time>
      </trkpt>
      <trkpt lat="41.35951" lon="0.21929">
        <time>2021-05-08T05:08:11Z</time>
      </trkpt>
      <trkpt lat="41.35949" lon="0.21943">
        <time>2021-05-08T05:08:11Z</time>
      </trkpt>
      <trkpt lat="41.35949" lon="0.21961">
        <time>2021-05-08T05:08:11Z</time>
      </trkpt>
      <trkpt lat="41.35952" lon="0.2198">
        <time>2021-05-08T05:08:11Z</time>
      </trkpt>
      <trkpt lat="41.35953" lon="0.22003">
        <time>2021-05-08T05:08:11Z</time>
      </trkpt>
      <trkpt lat="41.35947" lon="0.22029">
        <time>2021-05-08T05:08:11Z</time>
      </trkpt>
      <trkpt lat="41.35945" lon="0.22046">
        <time>2021-05-08T05:08:11Z</time>
      </trkpt>
      <trkpt lat="41.35946" lon="0.22068">
        <time>2021-05-08T05:08:11Z</time>
      </trkpt>
      <trkpt lat="41.35945" lon="0.2209">
        <time>2021-05-08T05:08:11Z</time>
      </trkpt>
      <trkpt lat="41.35943" lon="0.22145">
        <time>2021-05-08T05:08:11Z</time>
      </trkpt>
      <trkpt lat="41.35944" lon="0.22194">
        <time>2021-05-08T05:08:11Z</time>
      </trkpt>
      <trkpt lat="41.35948" lon="0.22212">
        <time>2021-05-08T05:08:11Z</time>
      </trkpt>
      <trkpt lat="41.35948" lon="0.22221">
        <time>2021-05-08T05:08:11Z</time>
      </trkpt>
      <trkpt lat="41.35948" lon="0.22234">
        <time>2021-05-08T05:08:11Z</time>
      </trkpt>
      <trkpt lat="41.35953" lon="0.22236">
        <time>2021-05-08T05:08:11Z</time>
      </trkpt>
      <trkpt lat="41.35956" lon="0.22233">
        <time>2021-05-08T05:08:11Z</time>
      </trkpt>
      <trkpt lat="41.35957" lon="0.22226">
        <time>2021-05-08T05:08:11Z</time>
      </trkpt>
      <trkpt lat="41.35958" lon="0.22196">
        <time>2021-05-08T05:08:11Z</time>
      </trkpt>
      <trkpt lat="41.35961" lon="0.2218">
        <time>2021-05-08T05:08:11Z</time>
      </trkpt>
      <trkpt lat="41.35965" lon="0.22167">
        <time>2021-05-08T05:08:11Z</time>
      </trkpt>
      <trkpt lat="41.35972" lon="0.22161">
        <time>2021-05-08T05:08:11Z</time>
      </trkpt>
      <trkpt lat="41.35978" lon="0.22161">
        <time>2021-05-08T05:08:11Z</time>
      </trkpt>
      <trkpt lat="41.3598" lon="0.22162">
        <time>2021-05-08T05:08:11Z</time>
      </trkpt>
      <trkpt lat="41.35984" lon="0.22167">
        <time>2021-05-08T05:08:11Z</time>
      </trkpt>
      <trkpt lat="41.35986" lon="0.22176">
        <time>2021-05-08T05:08:11Z</time>
      </trkpt>
      <trkpt lat="41.35991" lon="0.22195">
        <time>2021-05-08T05:08:11Z</time>
      </trkpt>
      <trkpt lat="41.35996" lon="0.22216">
        <time>2021-05-08T05:08:11Z</time>
      </trkpt>
      <trkpt lat="41.36001" lon="0.22253">
        <time>2021-05-08T05:08:11Z</time>
      </trkpt>
      <trkpt lat="41.36005" lon="0.22261">
        <time>2021-05-08T05:08:11Z</time>
      </trkpt>
      <trkpt lat="41.36013" lon="0.2227">
        <time>2021-05-08T05:08:11Z</time>
      </trkpt>
      <trkpt lat="41.3602" lon="0.2228">
        <time>2021-05-08T05:08:11Z</time>
      </trkpt>
      <trkpt lat="41.3603" lon="0.22296">
        <time>2021-05-08T05:08:11Z</time>
      </trkpt>
      <trkpt lat="41.36036" lon="0.22307">
        <time>2021-05-08T05:08:11Z</time>
      </trkpt>
      <trkpt lat="41.36047" lon="0.22322">
        <time>2021-05-08T05:08:11Z</time>
      </trkpt>
      <trkpt lat="41.36053" lon="0.2233">
        <time>2021-05-08T05:08:11Z</time>
      </trkpt>
      <trkpt lat="41.36063" lon="0.22351">
        <time>2021-05-08T05:08:11Z</time>
      </trkpt>
      <trkpt lat="41.3609" lon="0.2241">
        <time>2021-05-08T05:08:11Z</time>
      </trkpt>
      <trkpt lat="41.361" lon="0.22426">
        <time>2021-05-08T05:08:11Z</time>
      </trkpt>
      <trkpt lat="41.36111" lon="0.22438">
        <time>2021-05-08T05:08:11Z</time>
      </trkpt>
      <trkpt lat="41.36115" lon="0.22445">
        <time>2021-05-08T05:08:11Z</time>
      </trkpt>
      <trkpt lat="41.36122" lon="0.22458">
        <time>2021-05-08T05:08:11Z</time>
      </trkpt>
      <trkpt lat="41.36124" lon="0.22472">
        <time>2021-05-08T05:08:11Z</time>
      </trkpt>
      <trkpt lat="41.36129" lon="0.2251">
        <time>2021-05-08T05:08:11Z</time>
      </trkpt>
      <trkpt lat="41.36133" lon="0.22535">
        <time>2021-05-08T05:08:11Z</time>
      </trkpt>
      <trkpt lat="41.36146" lon="0.22573">
        <time>2021-05-08T05:08:11Z</time>
      </trkpt>
      <trkpt lat="41.36146" lon="0.2259">
        <time>2021-05-08T05:08:11Z</time>
      </trkpt>
      <trkpt lat="41.36142" lon="0.22611">
        <time>2021-05-08T05:08:11Z</time>
      </trkpt>
      <trkpt lat="41.36137" lon="0.22624">
        <time>2021-05-08T05:08:11Z</time>
      </trkpt>
      <trkpt lat="41.36125" lon="0.22639">
        <time>2021-05-08T05:08:11Z</time>
      </trkpt>
      <trkpt lat="41.36111" lon="0.22654">
        <time>2021-05-08T05:08:11Z</time>
      </trkpt>
      <trkpt lat="41.36101" lon="0.2267">
        <time>2021-05-08T05:08:11Z</time>
      </trkpt>
      <trkpt lat="41.36095" lon="0.22698">
        <time>2021-05-08T05:08:11Z</time>
      </trkpt>
      <trkpt lat="41.36093" lon="0.22723">
        <time>2021-05-08T05:08:11Z</time>
      </trkpt>
      <trkpt lat="41.36095" lon="0.2274">
        <time>2021-05-08T05:08:11Z</time>
      </trkpt>
      <trkpt lat="41.36098" lon="0.22763">
        <time>2021-05-08T05:08:11Z</time>
      </trkpt>
      <trkpt lat="41.36098" lon="0.22772">
        <time>2021-05-08T05:08:11Z</time>
      </trkpt>
      <trkpt lat="41.36097" lon="0.22782">
        <time>2021-05-08T05:08:11Z</time>
      </trkpt>
      <trkpt lat="41.36098" lon="0.22796">
        <time>2021-05-08T05:08:11Z</time>
      </trkpt>
      <trkpt lat="41.36097" lon="0.22804">
        <time>2021-05-08T05:08:11Z</time>
      </trkpt>
      <trkpt lat="41.3609" lon="0.22825">
        <time>2021-05-08T05:08:11Z</time>
      </trkpt>
      <trkpt lat="41.36087" lon="0.22842">
        <time>2021-05-08T05:08:11Z</time>
      </trkpt>
      <trkpt lat="41.36084" lon="0.22863">
        <time>2021-05-08T05:08:11Z</time>
      </trkpt>
      <trkpt lat="41.36086" lon="0.22887">
        <time>2021-05-08T05:08:11Z</time>
      </trkpt>
      <trkpt lat="41.36086" lon="0.22895">
        <time>2021-05-08T05:08:11Z</time>
      </trkpt>
      <trkpt lat="41.36083" lon="0.22906">
        <time>2021-05-08T05:08:11Z</time>
      </trkpt>
      <trkpt lat="41.36082" lon="0.22922">
        <time>2021-05-08T05:08:11Z</time>
      </trkpt>
      <trkpt lat="41.36084" lon="0.22939">
        <time>2021-05-08T05:08:11Z</time>
      </trkpt>
      <trkpt lat="41.3609" lon="0.22967">
        <time>2021-05-08T05:08:11Z</time>
      </trkpt>
      <trkpt lat="41.36093" lon="0.22991">
        <time>2021-05-08T05:08:11Z</time>
      </trkpt>
      <trkpt lat="41.36098" lon="0.23006">
        <time>2021-05-08T05:08:11Z</time>
      </trkpt>
      <trkpt lat="41.36109" lon="0.23034">
        <time>2021-05-08T05:08:11Z</time>
      </trkpt>
      <trkpt lat="41.36119" lon="0.2306">
        <time>2021-05-08T05:08:11Z</time>
      </trkpt>
      <trkpt lat="41.3613" lon="0.23088">
        <time>2021-05-08T05:08:11Z</time>
      </trkpt>
      <trkpt lat="41.36136" lon="0.23103">
        <time>2021-05-08T05:08:11Z</time>
      </trkpt>
      <trkpt lat="41.36142" lon="0.23115">
        <time>2021-05-08T05:08:11Z</time>
      </trkpt>
      <trkpt lat="41.36151" lon="0.23128">
        <time>2021-05-08T05:08:11Z</time>
      </trkpt>
      <trkpt lat="41.3616" lon="0.23135">
        <time>2021-05-08T05:08:11Z</time>
      </trkpt>
      <trkpt lat="41.36172" lon="0.23141">
        <time>2021-05-08T05:08:11Z</time>
      </trkpt>
      <trkpt lat="41.36194" lon="0.23147">
        <time>2021-05-08T05:08:11Z</time>
      </trkpt>
      <trkpt lat="41.36207" lon="0.23151">
        <time>2021-05-08T05:08:11Z</time>
      </trkpt>
      <trkpt lat="41.36218" lon="0.23157">
        <time>2021-05-08T05:08:11Z</time>
      </trkpt>
      <trkpt lat="41.36226" lon="0.23164">
        <time>2021-05-08T05:08:11Z</time>
      </trkpt>
      <trkpt lat="41.36232" lon="0.23172">
        <time>2021-05-08T05:08:11Z</time>
      </trkpt>
      <trkpt lat="41.36235" lon="0.23185">
        <time>2021-05-08T05:08:11Z</time>
      </trkpt>
      <trkpt lat="41.36244" lon="0.23204">
        <time>2021-05-08T05:08:11Z</time>
      </trkpt>
      <trkpt lat="41.36247" lon="0.23212">
        <time>2021-05-08T05:08:11Z</time>
      </trkpt>
      <trkpt lat="41.36253" lon="0.23233">
        <time>2021-05-08T05:08:11Z</time>
      </trkpt>
      <trkpt lat="41.36256" lon="0.23248">
        <time>2021-05-08T05:08:11Z</time>
      </trkpt>
      <trkpt lat="41.36257" lon="0.23266">
        <time>2021-05-08T05:08:11Z</time>
      </trkpt>
      <trkpt lat="41.36262" lon="0.23283">
        <time>2021-05-08T05:08:11Z</time>
      </trkpt>
      <trkpt lat="41.36264" lon="0.23298">
        <time>2021-05-08T05:08:11Z</time>
      </trkpt>
      <trkpt lat="41.36268" lon="0.23315">
        <time>2021-05-08T05:08:11Z</time>
      </trkpt>
      <trkpt lat="41.36272" lon="0.23328">
        <time>2021-05-08T05:08:11Z</time>
      </trkpt>
      <trkpt lat="41.36279" lon="0.23358">
        <time>2021-05-08T05:08:11Z</time>
      </trkpt>
      <trkpt lat="41.36283" lon="0.23376">
        <time>2021-05-08T05:08:11Z</time>
      </trkpt>
      <trkpt lat="41.36287" lon="0.23393">
        <time>2021-05-08T05:08:11Z</time>
      </trkpt>
      <trkpt lat="41.36287" lon="0.23406">
        <time>2021-05-08T05:08:11Z</time>
      </trkpt>
      <trkpt lat="41.36284" lon="0.23415">
        <time>2021-05-08T05:08:11Z</time>
      </trkpt>
      <trkpt lat="41.36277" lon="0.23437">
        <time>2021-05-08T05:08:11Z</time>
      </trkpt>
      <trkpt lat="41.36275" lon="0.23449">
        <time>2021-05-08T05:08:11Z</time>
      </trkpt>
      <trkpt lat="41.36274" lon="0.23471">
        <time>2021-05-08T05:08:11Z</time>
      </trkpt>
      <trkpt lat="41.36279" lon="0.23522">
        <time>2021-05-08T05:08:11Z</time>
      </trkpt>
      <trkpt lat="41.36282" lon="0.23537">
        <time>2021-05-08T05:08:11Z</time>
      </trkpt>
      <trkpt lat="41.36283" lon="0.2355">
        <time>2021-05-08T05:08:11Z</time>
      </trkpt>
      <trkpt lat="41.36285" lon="0.23571">
        <time>2021-05-08T05:08:11Z</time>
      </trkpt>
      <trkpt lat="41.36287" lon="0.23579">
        <time>2021-05-08T05:08:11Z</time>
      </trkpt>
      <trkpt lat="41.3629" lon="0.23597">
        <time>2021-05-08T05:08:11Z</time>
      </trkpt>
      <trkpt lat="41.36296" lon="0.2362">
        <time>2021-05-08T05:08:11Z</time>
      </trkpt>
      <trkpt lat="41.36301" lon="0.23636">
        <time>2021-05-08T05:08:11Z</time>
      </trkpt>
      <trkpt lat="41.36308" lon="0.23653">
        <time>2021-05-08T05:08:11Z</time>
      </trkpt>
      <trkpt lat="41.36312" lon="0.23662">
        <time>2021-05-08T05:08:11Z</time>
      </trkpt>
      <trkpt lat="41.36318" lon="0.23679">
        <time>2021-05-08T05:08:11Z</time>
      </trkpt>
      <trkpt lat="41.36323" lon="0.23694">
        <time>2021-05-08T05:08:11Z</time>
      </trkpt>
      <trkpt lat="41.36328" lon="0.2371">
        <time>2021-05-08T05:08:11Z</time>
      </trkpt>
      <trkpt lat="41.3633" lon="0.23724">
        <time>2021-05-08T05:08:11Z</time>
      </trkpt>
      <trkpt lat="41.3633" lon="0.23734">
        <time>2021-05-08T05:08:11Z</time>
      </trkpt>
      <trkpt lat="41.36326" lon="0.23756">
        <time>2021-05-08T05:08:11Z</time>
      </trkpt>
      <trkpt lat="41.36322" lon="0.23779">
        <time>2021-05-08T05:08:11Z</time>
      </trkpt>
      <trkpt lat="41.36322" lon="0.23796">
        <time>2021-05-08T05:08:11Z</time>
      </trkpt>
      <trkpt lat="41.36321" lon="0.23816">
        <time>2021-05-08T05:08:11Z</time>
      </trkpt>
      <trkpt lat="41.3632" lon="0.23838">
        <time>2021-05-08T05:08:11Z</time>
      </trkpt>
      <trkpt lat="41.36316" lon="0.23847">
        <time>2021-05-08T05:08:11Z</time>
      </trkpt>
      <trkpt lat="41.3631" lon="0.23849">
        <time>2021-05-08T05:08:11Z</time>
      </trkpt>
      <trkpt lat="41.36305" lon="0.23846">
        <time>2021-05-08T05:08:11Z</time>
      </trkpt>
      <trkpt lat="41.36291" lon="0.2384">
        <time>2021-05-08T05:08:11Z</time>
      </trkpt>
      <trkpt lat="41.36285" lon="0.23837">
        <time>2021-05-08T05:08:11Z</time>
      </trkpt>
      <trkpt lat="41.3628" lon="0.23837">
        <time>2021-05-08T05:08:11Z</time>
      </trkpt>
      <trkpt lat="41.3627" lon="0.23839">
        <time>2021-05-08T05:08:11Z</time>
      </trkpt>
      <trkpt lat="41.36259" lon="0.23841">
        <time>2021-05-08T05:08:11Z</time>
      </trkpt>
      <trkpt lat="41.36248" lon="0.23845">
        <time>2021-05-08T05:08:11Z</time>
      </trkpt>
      <trkpt lat="41.36238" lon="0.23855">
        <time>2021-05-08T05:08:11Z</time>
      </trkpt>
      <trkpt lat="41.36234" lon="0.23858">
        <time>2021-05-08T05:08:11Z</time>
      </trkpt>
      <trkpt lat="41.36221" lon="0.23858">
        <time>2021-05-08T05:08:11Z</time>
      </trkpt>
      <trkpt lat="41.36203" lon="0.23855">
        <time>2021-05-08T05:08:11Z</time>
      </trkpt>
      <trkpt lat="41.3619" lon="0.23858">
        <time>2021-05-08T05:08:11Z</time>
      </trkpt>
      <trkpt lat="41.36181" lon="0.23864">
        <time>2021-05-08T05:08:11Z</time>
      </trkpt>
      <trkpt lat="41.36178" lon="0.23869">
        <time>2021-05-08T05:08:11Z</time>
      </trkpt>
      <trkpt lat="41.36178" lon="0.23876">
        <time>2021-05-08T05:08:11Z</time>
      </trkpt>
      <trkpt lat="41.36179" lon="0.23886">
        <time>2021-05-08T05:08:11Z</time>
      </trkpt>
      <trkpt lat="41.36182" lon="0.23894">
        <time>2021-05-08T05:08:11Z</time>
      </trkpt>
      <trkpt lat="41.3619" lon="0.239">
        <time>2021-05-08T05:08:11Z</time>
      </trkpt>
      <trkpt lat="41.36197" lon="0.23903">
        <time>2021-05-08T05:08:11Z</time>
      </trkpt>
      <trkpt lat="41.36204" lon="0.23905">
        <time>2021-05-08T05:08:11Z</time>
      </trkpt>
      <trkpt lat="41.36209" lon="0.23911">
        <time>2021-05-08T05:08:11Z</time>
      </trkpt>
      <trkpt lat="41.36213" lon="0.23921">
        <time>2021-05-08T05:08:11Z</time>
      </trkpt>
      <trkpt lat="41.36213" lon="0.23934">
        <time>2021-05-08T05:08:11Z</time>
      </trkpt>
      <trkpt lat="41.36211" lon="0.23941">
        <time>2021-05-08T05:08:11Z</time>
      </trkpt>
      <trkpt lat="41.36205" lon="0.23952">
        <time>2021-05-08T05:08:11Z</time>
      </trkpt>
      <trkpt lat="41.36202" lon="0.23961">
        <time>2021-05-08T05:08:11Z</time>
      </trkpt>
      <trkpt lat="41.36201" lon="0.23974">
        <time>2021-05-08T05:08:11Z</time>
      </trkpt>
      <trkpt lat="41.36202" lon="0.23987">
        <time>2021-05-08T05:08:11Z</time>
      </trkpt>
      <trkpt lat="41.36205" lon="0.23991">
        <time>2021-05-08T05:08:11Z</time>
      </trkpt>
      <trkpt lat="41.3621" lon="0.23996">
        <time>2021-05-08T05:08:11Z</time>
      </trkpt>
      <trkpt lat="41.36218" lon="0.24">
        <time>2021-05-08T05:08:11Z</time>
      </trkpt>
      <trkpt lat="41.3622" lon="0.24002">
        <time>2021-05-08T05:08:11Z</time>
      </trkpt>
      <trkpt lat="41.36223" lon="0.24006">
        <time>2021-05-08T05:08:11Z</time>
      </trkpt>
      <trkpt lat="41.36226" lon="0.24016">
        <time>2021-05-08T05:08:11Z</time>
      </trkpt>
      <trkpt lat="41.36229" lon="0.24032">
        <time>2021-05-08T05:08:11Z</time>
      </trkpt>
      <trkpt lat="41.36229" lon="0.24049">
        <time>2021-05-08T05:08:11Z</time>
      </trkpt>
      <trkpt lat="41.36231" lon="0.24065">
        <time>2021-05-08T05:08:11Z</time>
      </trkpt>
      <trkpt lat="41.36233" lon="0.24083">
        <time>2021-05-08T05:08:11Z</time>
      </trkpt>
      <trkpt lat="41.36235" lon="0.24094">
        <time>2021-05-08T05:08:11Z</time>
      </trkpt>
      <trkpt lat="41.36236" lon="0.24106">
        <time>2021-05-08T05:08:11Z</time>
      </trkpt>
      <trkpt lat="41.36236" lon="0.24115">
        <time>2021-05-08T05:08:11Z</time>
      </trkpt>
      <trkpt lat="41.36231" lon="0.24134">
        <time>2021-05-08T05:08:11Z</time>
      </trkpt>
      <trkpt lat="41.36226" lon="0.24143">
        <time>2021-05-08T05:08:11Z</time>
      </trkpt>
      <trkpt lat="41.36216" lon="0.24156">
        <time>2021-05-08T05:08:11Z</time>
      </trkpt>
      <trkpt lat="41.36212" lon="0.24163">
        <time>2021-05-08T05:08:11Z</time>
      </trkpt>
      <trkpt lat="41.36212" lon="0.2417">
        <time>2021-05-08T05:08:11Z</time>
      </trkpt>
      <trkpt lat="41.36216" lon="0.24179">
        <time>2021-05-08T05:08:11Z</time>
      </trkpt>
      <trkpt lat="41.36228" lon="0.24185">
        <time>2021-05-08T05:08:11Z</time>
      </trkpt>
      <trkpt lat="41.36237" lon="0.24191">
        <time>2021-05-08T05:08:11Z</time>
      </trkpt>
      <trkpt lat="41.36242" lon="0.24199">
        <time>2021-05-08T05:08:11Z</time>
      </trkpt>
      <trkpt lat="41.36247" lon="0.24211">
        <time>2021-05-08T05:08:11Z</time>
      </trkpt>
      <trkpt lat="41.36254" lon="0.24234">
        <time>2021-05-08T05:08:11Z</time>
      </trkpt>
      <trkpt lat="41.3626" lon="0.24268">
        <time>2021-05-08T05:08:11Z</time>
      </trkpt>
      <trkpt lat="41.36259" lon="0.24282">
        <time>2021-05-08T05:08:11Z</time>
      </trkpt>
      <trkpt lat="41.36257" lon="0.24298">
        <time>2021-05-08T05:08:11Z</time>
      </trkpt>
      <trkpt lat="41.36245" lon="0.24323">
        <time>2021-05-08T05:08:11Z</time>
      </trkpt>
      <trkpt lat="41.36237" lon="0.24333">
        <time>2021-05-08T05:08:11Z</time>
      </trkpt>
      <trkpt lat="41.36226" lon="0.2434">
        <time>2021-05-08T05:08:11Z</time>
      </trkpt>
      <trkpt lat="41.36213" lon="0.24342">
        <time>2021-05-08T05:08:11Z</time>
      </trkpt>
      <trkpt lat="41.36199" lon="0.24342">
        <time>2021-05-08T05:08:11Z</time>
      </trkpt>
      <trkpt lat="41.36187" lon="0.24346">
        <time>2021-05-08T05:08:11Z</time>
      </trkpt>
      <trkpt lat="41.36168" lon="0.24356">
        <time>2021-05-08T05:08:11Z</time>
      </trkpt>
      <trkpt lat="41.36162" lon="0.24363">
        <time>2021-05-08T05:08:11Z</time>
      </trkpt>
      <trkpt lat="41.36161" lon="0.24371">
        <time>2021-05-08T05:08:11Z</time>
      </trkpt>
      <trkpt lat="41.36164" lon="0.24387">
        <time>2021-05-08T05:08:11Z</time>
      </trkpt>
      <trkpt lat="41.36165" lon="0.244">
        <time>2021-05-08T05:08:11Z</time>
      </trkpt>
      <trkpt lat="41.36163" lon="0.24413">
        <time>2021-05-08T05:08:11Z</time>
      </trkpt>
      <trkpt lat="41.36154" lon="0.24472">
        <time>2021-05-08T05:08:11Z</time>
      </trkpt>
      <trkpt lat="41.3615" lon="0.24482">
        <time>2021-05-08T05:08:11Z</time>
      </trkpt>
      <trkpt lat="41.36144" lon="0.24491">
        <time>2021-05-08T05:08:11Z</time>
      </trkpt>
      <trkpt lat="41.36142" lon="0.24499">
        <time>2021-05-08T05:08:11Z</time>
      </trkpt>
      <trkpt lat="41.36144" lon="0.24506">
        <time>2021-05-08T05:08:11Z</time>
      </trkpt>
      <trkpt lat="41.36148" lon="0.24516">
        <time>2021-05-08T05:08:11Z</time>
      </trkpt>
      <trkpt lat="41.36156" lon="0.24516">
        <time>2021-05-08T05:08:11Z</time>
      </trkpt>
      <trkpt lat="41.36162" lon="0.24512">
        <time>2021-05-08T05:08:11Z</time>
      </trkpt>
      <trkpt lat="41.36168" lon="0.24506">
        <time>2021-05-08T05:08:11Z</time>
      </trkpt>
      <trkpt lat="41.36176" lon="0.24504">
        <time>2021-05-08T05:08:11Z</time>
      </trkpt>
      <trkpt lat="41.36185" lon="0.24506">
        <time>2021-05-08T05:08:11Z</time>
      </trkpt>
      <trkpt lat="41.36191" lon="0.24512">
        <time>2021-05-08T05:08:11Z</time>
      </trkpt>
      <trkpt lat="41.36196" lon="0.24521">
        <time>2021-05-08T05:08:11Z</time>
      </trkpt>
      <trkpt lat="41.36202" lon="0.24534">
        <time>2021-05-08T05:08:11Z</time>
      </trkpt>
      <trkpt lat="41.36211" lon="0.24548">
        <time>2021-05-08T05:08:11Z</time>
      </trkpt>
      <trkpt lat="41.36219" lon="0.24557">
        <time>2021-05-08T05:08:11Z</time>
      </trkpt>
      <trkpt lat="41.36226" lon="0.2457">
        <time>2021-05-08T05:08:11Z</time>
      </trkpt>
      <trkpt lat="41.36231" lon="0.2458">
        <time>2021-05-08T05:08:11Z</time>
      </trkpt>
      <trkpt lat="41.36237" lon="0.24613">
        <time>2021-05-08T05:08:11Z</time>
      </trkpt>
      <trkpt lat="41.36236" lon="0.24634">
        <time>2021-05-08T05:08:11Z</time>
      </trkpt>
      <trkpt lat="41.36234" lon="0.24644">
        <time>2021-05-08T05:08:11Z</time>
      </trkpt>
      <trkpt lat="41.36223" lon="0.24661">
        <time>2021-05-08T05:08:11Z</time>
      </trkpt>
      <trkpt lat="41.36212" lon="0.24674">
        <time>2021-05-08T05:08:11Z</time>
      </trkpt>
      <trkpt lat="41.36202" lon="0.24694">
        <time>2021-05-08T05:08:11Z</time>
      </trkpt>
      <trkpt lat="41.36196" lon="0.24719">
        <time>2021-05-08T05:08:11Z</time>
      </trkpt>
      <trkpt lat="41.36196" lon="0.24731">
        <time>2021-05-08T05:08:11Z</time>
      </trkpt>
      <trkpt lat="41.36198" lon="0.24743">
        <time>2021-05-08T05:08:11Z</time>
      </trkpt>
      <trkpt lat="41.36201" lon="0.24756">
        <time>2021-05-08T05:08:11Z</time>
      </trkpt>
      <trkpt lat="41.362" lon="0.24767">
        <time>2021-05-08T05:08:11Z</time>
      </trkpt>
      <trkpt lat="41.36191" lon="0.24791">
        <time>2021-05-08T05:08:11Z</time>
      </trkpt>
      <trkpt lat="41.36191" lon="0.24802">
        <time>2021-05-08T05:08:11Z</time>
      </trkpt>
      <trkpt lat="41.36199" lon="0.2487">
        <time>2021-05-08T05:08:11Z</time>
      </trkpt>
      <trkpt lat="41.362" lon="0.24879">
        <time>2021-05-08T05:08:11Z</time>
      </trkpt>
      <trkpt lat="41.362" lon="0.24886">
        <time>2021-05-08T05:08:11Z</time>
      </trkpt>
      <trkpt lat="41.36194" lon="0.24895">
        <time>2021-05-08T05:08:11Z</time>
      </trkpt>
      <trkpt lat="41.3617" lon="0.24925">
        <time>2021-05-08T05:08:11Z</time>
      </trkpt>
      <trkpt lat="41.3615" lon="0.24945">
        <time>2021-05-08T05:08:11Z</time>
      </trkpt>
      <trkpt lat="41.36139" lon="0.24951">
        <time>2021-05-08T05:08:11Z</time>
      </trkpt>
      <trkpt lat="41.36122" lon="0.24957">
        <time>2021-05-08T05:08:11Z</time>
      </trkpt>
      <trkpt lat="41.36105" lon="0.24961">
        <time>2021-05-08T05:08:11Z</time>
      </trkpt>
      <trkpt lat="41.36091" lon="0.24958">
        <time>2021-05-08T05:08:11Z</time>
      </trkpt>
      <trkpt lat="41.36083" lon="0.24954">
        <time>2021-05-08T05:08:11Z</time>
      </trkpt>
      <trkpt lat="41.36076" lon="0.24949">
        <time>2021-05-08T05:08:11Z</time>
      </trkpt>
      <trkpt lat="41.3607" lon="0.24948">
        <time>2021-05-08T05:08:11Z</time>
      </trkpt>
      <trkpt lat="41.36063" lon="0.24952">
        <time>2021-05-08T05:08:11Z</time>
      </trkpt>
      <trkpt lat="41.36055" lon="0.2496">
        <time>2021-05-08T05:08:11Z</time>
      </trkpt>
      <trkpt lat="41.36045" lon="0.24973">
        <time>2021-05-08T05:08:11Z</time>
      </trkpt>
      <trkpt lat="41.36039" lon="0.24983">
        <time>2021-05-08T05:08:11Z</time>
      </trkpt>
      <trkpt lat="41.36037" lon="0.24991">
        <time>2021-05-08T05:08:11Z</time>
      </trkpt>
      <trkpt lat="41.36038" lon="0.25002">
        <time>2021-05-08T05:08:11Z</time>
      </trkpt>
      <trkpt lat="41.36039" lon="0.25014">
        <time>2021-05-08T05:08:11Z</time>
      </trkpt>
      <trkpt lat="41.36043" lon="0.25029">
        <time>2021-05-08T05:08:11Z</time>
      </trkpt>
      <trkpt lat="41.36043" lon="0.25036">
        <time>2021-05-08T05:08:11Z</time>
      </trkpt>
      <trkpt lat="41.3604" lon="0.25047">
        <time>2021-05-08T05:08:11Z</time>
      </trkpt>
      <trkpt lat="41.36026" lon="0.25064">
        <time>2021-05-08T05:08:11Z</time>
      </trkpt>
      <trkpt lat="41.36024" lon="0.25076">
        <time>2021-05-08T05:08:11Z</time>
      </trkpt>
      <trkpt lat="41.36024" lon="0.25082">
        <time>2021-05-08T05:08:11Z</time>
      </trkpt>
      <trkpt lat="41.3603" lon="0.2509">
        <time>2021-05-08T05:08:11Z</time>
      </trkpt>
      <trkpt lat="41.36038" lon="0.25099">
        <time>2021-05-08T05:08:11Z</time>
      </trkpt>
      <trkpt lat="41.36048" lon="0.25115">
        <time>2021-05-08T05:08:11Z</time>
      </trkpt>
      <trkpt lat="41.36051" lon="0.25128">
        <time>2021-05-08T05:08:11Z</time>
      </trkpt>
      <trkpt lat="41.36049" lon="0.25157">
        <time>2021-05-08T05:08:11Z</time>
      </trkpt>
      <trkpt lat="41.36046" lon="0.2519">
        <time>2021-05-08T05:08:11Z</time>
      </trkpt>
      <trkpt lat="41.36044" lon="0.25205">
        <time>2021-05-08T05:08:11Z</time>
      </trkpt>
      <trkpt lat="41.36038" lon="0.25218">
        <time>2021-05-08T05:08:11Z</time>
      </trkpt>
      <trkpt lat="41.36031" lon="0.25232">
        <time>2021-05-08T05:08:11Z</time>
      </trkpt>
      <trkpt lat="41.36023" lon="0.25247">
        <time>2021-05-08T05:08:11Z</time>
      </trkpt>
      <trkpt lat="41.36013" lon="0.2526">
        <time>2021-05-08T05:08:11Z</time>
      </trkpt>
      <trkpt lat="41.35988" lon="0.25276">
        <time>2021-05-08T05:08:11Z</time>
      </trkpt>
      <trkpt lat="41.35973" lon="0.25289">
        <time>2021-05-08T05:08:11Z</time>
      </trkpt>
      <trkpt lat="41.35959" lon="0.25302">
        <time>2021-05-08T05:08:11Z</time>
      </trkpt>
      <trkpt lat="41.35953" lon="0.2531">
        <time>2021-05-08T05:08:11Z</time>
      </trkpt>
      <trkpt lat="41.35951" lon="0.25325">
        <time>2021-05-08T05:08:11Z</time>
      </trkpt>
      <trkpt lat="41.35948" lon="0.25335">
        <time>2021-05-08T05:08:11Z</time>
      </trkpt>
      <trkpt lat="41.35944" lon="0.2535">
        <time>2021-05-08T05:08:11Z</time>
      </trkpt>
      <trkpt lat="41.35937" lon="0.25378">
        <time>2021-05-08T05:08:11Z</time>
      </trkpt>
      <trkpt lat="41.35929" lon="0.25411">
        <time>2021-05-08T05:08:11Z</time>
      </trkpt>
      <trkpt lat="41.35924" lon="0.25427">
        <time>2021-05-08T05:08:11Z</time>
      </trkpt>
      <trkpt lat="41.35913" lon="0.25451">
        <time>2021-05-08T05:08:11Z</time>
      </trkpt>
      <trkpt lat="41.35905" lon="0.25462">
        <time>2021-05-08T05:08:11Z</time>
      </trkpt>
      <trkpt lat="41.35898" lon="0.25472">
        <time>2021-05-08T05:08:11Z</time>
      </trkpt>
      <trkpt lat="41.3589" lon="0.25483">
        <time>2021-05-08T05:08:11Z</time>
      </trkpt>
      <trkpt lat="41.35862" lon="0.25525">
        <time>2021-05-08T05:08:11Z</time>
      </trkpt>
      <trkpt lat="41.35858" lon="0.25533">
        <time>2021-05-08T05:08:11Z</time>
      </trkpt>
      <trkpt lat="41.35849" lon="0.25544">
        <time>2021-05-08T05:08:11Z</time>
      </trkpt>
      <trkpt lat="41.35838" lon="0.25553">
        <time>2021-05-08T05:08:11Z</time>
      </trkpt>
      <trkpt lat="41.35823" lon="0.25555">
        <time>2021-05-08T05:08:11Z</time>
      </trkpt>
      <trkpt lat="41.35812" lon="0.25559">
        <time>2021-05-08T05:08:11Z</time>
      </trkpt>
      <trkpt lat="41.35801" lon="0.25566">
        <time>2021-05-08T05:08:11Z</time>
      </trkpt>
      <trkpt lat="41.35792" lon="0.25577">
        <time>2021-05-08T05:08:11Z</time>
      </trkpt>
      <trkpt lat="41.35778" lon="0.25591">
        <time>2021-05-08T05:08:11Z</time>
      </trkpt>
      <trkpt lat="41.3577" lon="0.25598">
        <time>2021-05-08T05:08:11Z</time>
      </trkpt>
      <trkpt lat="41.35757" lon="0.25601">
        <time>2021-05-08T05:08:11Z</time>
      </trkpt>
      <trkpt lat="41.35745" lon="0.25602">
        <time>2021-05-08T05:08:11Z</time>
      </trkpt>
      <trkpt lat="41.35734" lon="0.25601">
        <time>2021-05-08T05:08:11Z</time>
      </trkpt>
      <trkpt lat="41.35713" lon="0.25597">
        <time>2021-05-08T05:08:11Z</time>
      </trkpt>
      <trkpt lat="41.35686" lon="0.25588">
        <time>2021-05-08T05:08:11Z</time>
      </trkpt>
      <trkpt lat="41.35675" lon="0.25588">
        <time>2021-05-08T05:08:11Z</time>
      </trkpt>
      <trkpt lat="41.35662" lon="0.25592">
        <time>2021-05-08T05:08:11Z</time>
      </trkpt>
      <trkpt lat="41.35653" lon="0.25598">
        <time>2021-05-08T05:08:11Z</time>
      </trkpt>
      <trkpt lat="41.35646" lon="0.256">
        <time>2021-05-08T05:08:11Z</time>
      </trkpt>
      <trkpt lat="41.35639" lon="0.25598">
        <time>2021-05-08T05:08:11Z</time>
      </trkpt>
      <trkpt lat="41.35634" lon="0.25591">
        <time>2021-05-08T05:08:11Z</time>
      </trkpt>
      <trkpt lat="41.35631" lon="0.25586">
        <time>2021-05-08T05:08:11Z</time>
      </trkpt>
      <trkpt lat="41.35629" lon="0.25573">
        <time>2021-05-08T05:08:11Z</time>
      </trkpt>
      <trkpt lat="41.35623" lon="0.25569">
        <time>2021-05-08T05:08:11Z</time>
      </trkpt>
      <trkpt lat="41.35616" lon="0.2557">
        <time>2021-05-08T05:08:11Z</time>
      </trkpt>
      <trkpt lat="41.35613" lon="0.25576">
        <time>2021-05-08T05:08:11Z</time>
      </trkpt>
      <trkpt lat="41.35607" lon="0.25605">
        <time>2021-05-08T05:08:11Z</time>
      </trkpt>
      <trkpt lat="41.35604" lon="0.25633">
        <time>2021-05-08T05:08:11Z</time>
      </trkpt>
      <trkpt lat="41.35602" lon="0.25643">
        <time>2021-05-08T05:08:11Z</time>
      </trkpt>
      <trkpt lat="41.3559" lon="0.25653">
        <time>2021-05-08T05:08:11Z</time>
      </trkpt>
      <trkpt lat="41.3558" lon="0.2566">
        <time>2021-05-08T05:08:11Z</time>
      </trkpt>
      <trkpt lat="41.35568" lon="0.25668">
        <time>2021-05-08T05:08:11Z</time>
      </trkpt>
      <trkpt lat="41.35552" lon="0.25688">
        <time>2021-05-08T05:08:11Z</time>
      </trkpt>
      <trkpt lat="41.35544" lon="0.25694">
        <time>2021-05-08T05:08:11Z</time>
      </trkpt>
      <trkpt lat="41.35531" lon="0.25699">
        <time>2021-05-08T05:08:11Z</time>
      </trkpt>
      <trkpt lat="41.35496" lon="0.25712">
        <time>2021-05-08T05:08:11Z</time>
      </trkpt>
      <trkpt lat="41.35474" lon="0.25719">
        <time>2021-05-08T05:08:11Z</time>
      </trkpt>
      <trkpt lat="41.35462" lon="0.25719">
        <time>2021-05-08T05:08:11Z</time>
      </trkpt>
      <trkpt lat="41.35457" lon="0.25721">
        <time>2021-05-08T05:08:11Z</time>
      </trkpt>
      <trkpt lat="41.35457" lon="0.25727">
        <time>2021-05-08T05:08:11Z</time>
      </trkpt>
      <trkpt lat="41.3546" lon="0.25729">
        <time>2021-05-08T05:08:11Z</time>
      </trkpt>
      <trkpt lat="41.35481" lon="0.2573">
        <time>2021-05-08T05:08:11Z</time>
      </trkpt>
      <trkpt lat="41.35496" lon="0.25734">
        <time>2021-05-08T05:08:11Z</time>
      </trkpt>
      <trkpt lat="41.35502" lon="0.25734">
        <time>2021-05-08T05:08:11Z</time>
      </trkpt>
      <trkpt lat="41.35512" lon="0.25737">
        <time>2021-05-08T05:08:11Z</time>
      </trkpt>
      <trkpt lat="41.35525" lon="0.25739">
        <time>2021-05-08T05:08:11Z</time>
      </trkpt>
      <trkpt lat="41.35541" lon="0.2574">
        <time>2021-05-08T05:08:11Z</time>
      </trkpt>
      <trkpt lat="41.35548" lon="0.25738">
        <time>2021-05-08T05:08:11Z</time>
      </trkpt>
      <trkpt lat="41.35553" lon="0.25738">
        <time>2021-05-08T05:08:11Z</time>
      </trkpt>
      <trkpt lat="41.35557" lon="0.2574">
        <time>2021-05-08T05:08:11Z</time>
      </trkpt>
      <trkpt lat="41.3556" lon="0.25744">
        <time>2021-05-08T05:08:11Z</time>
      </trkpt>
      <trkpt lat="41.35564" lon="0.25748">
        <time>2021-05-08T05:08:11Z</time>
      </trkpt>
      <trkpt lat="41.35572" lon="0.25762">
        <time>2021-05-08T05:08:11Z</time>
      </trkpt>
      <trkpt lat="41.35578" lon="0.25771">
        <time>2021-05-08T05:08:11Z</time>
      </trkpt>
      <trkpt lat="41.35581" lon="0.25777">
        <time>2021-05-08T05:08:11Z</time>
      </trkpt>
      <trkpt lat="41.35581" lon="0.25789">
        <time>2021-05-08T05:08:11Z</time>
      </trkpt>
      <trkpt lat="41.35576" lon="0.25805">
        <time>2021-05-08T05:08:11Z</time>
      </trkpt>
      <trkpt lat="41.35567" lon="0.25824">
        <time>2021-05-08T05:08:11Z</time>
      </trkpt>
      <trkpt lat="41.35556" lon="0.25838">
        <time>2021-05-08T05:08:11Z</time>
      </trkpt>
      <trkpt lat="41.35543" lon="0.25848">
        <time>2021-05-08T05:08:11Z</time>
      </trkpt>
      <trkpt lat="41.35527" lon="0.25858">
        <time>2021-05-08T05:08:11Z</time>
      </trkpt>
      <trkpt lat="41.35519" lon="0.25863">
        <time>2021-05-08T05:08:11Z</time>
      </trkpt>
      <trkpt lat="41.35515" lon="0.25869">
        <time>2021-05-08T05:08:11Z</time>
      </trkpt>
      <trkpt lat="41.3551" lon="0.25879">
        <time>2021-05-08T05:08:11Z</time>
      </trkpt>
      <trkpt lat="41.35504" lon="0.25895">
        <time>2021-05-08T05:08:11Z</time>
      </trkpt>
      <trkpt lat="41.35498" lon="0.25913">
        <time>2021-05-08T05:08:11Z</time>
      </trkpt>
      <trkpt lat="41.35491" lon="0.25925">
        <time>2021-05-08T05:08:11Z</time>
      </trkpt>
      <trkpt lat="41.35481" lon="0.25938">
        <time>2021-05-08T05:08:11Z</time>
      </trkpt>
      <trkpt lat="41.35476" lon="0.25949">
        <time>2021-05-08T05:08:11Z</time>
      </trkpt>
      <trkpt lat="41.35478" lon="0.25961">
        <time>2021-05-08T05:08:11Z</time>
      </trkpt>
      <trkpt lat="41.35484" lon="0.25968">
        <time>2021-05-08T05:08:11Z</time>
      </trkpt>
      <trkpt lat="41.35487" lon="0.25971">
        <time>2021-05-08T05:08:11Z</time>
      </trkpt>
      <trkpt lat="41.35491" lon="0.2598">
        <time>2021-05-08T05:08:11Z</time>
      </trkpt>
      <trkpt lat="41.35494" lon="0.25988">
        <time>2021-05-08T05:08:11Z</time>
      </trkpt>
      <trkpt lat="41.35497" lon="0.25999">
        <time>2021-05-08T05:08:11Z</time>
      </trkpt>
      <trkpt lat="41.355" lon="0.26006">
        <time>2021-05-08T05:08:11Z</time>
      </trkpt>
      <trkpt lat="41.355" lon="0.26013">
        <time>2021-05-08T05:08:11Z</time>
      </trkpt>
      <trkpt lat="41.35498" lon="0.2602">
        <time>2021-05-08T05:08:11Z</time>
      </trkpt>
      <trkpt lat="41.35493" lon="0.26031">
        <time>2021-05-08T05:08:11Z</time>
      </trkpt>
      <trkpt lat="41.35491" lon="0.26048">
        <time>2021-05-08T05:08:11Z</time>
      </trkpt>
      <trkpt lat="41.3549" lon="0.26065">
        <time>2021-05-08T05:08:11Z</time>
      </trkpt>
      <trkpt lat="41.35494" lon="0.26075">
        <time>2021-05-08T05:08:11Z</time>
      </trkpt>
      <trkpt lat="41.35498" lon="0.26084">
        <time>2021-05-08T05:08:11Z</time>
      </trkpt>
      <trkpt lat="41.35503" lon="0.26092">
        <time>2021-05-08T05:08:11Z</time>
      </trkpt>
      <trkpt lat="41.35525" lon="0.26111">
        <time>2021-05-08T05:08:11Z</time>
      </trkpt>
      <trkpt lat="41.35542" lon="0.26125">
        <time>2021-05-08T05:08:11Z</time>
      </trkpt>
      <trkpt lat="41.3556" lon="0.26141">
        <time>2021-05-08T05:08:11Z</time>
      </trkpt>
      <trkpt lat="41.35596" lon="0.26179">
        <time>2021-05-08T05:08:11Z</time>
      </trkpt>
      <trkpt lat="41.35607" lon="0.26196">
        <time>2021-05-08T05:08:11Z</time>
      </trkpt>
      <trkpt lat="41.35611" lon="0.26207">
        <time>2021-05-08T05:08:11Z</time>
      </trkpt>
      <trkpt lat="41.35615" lon="0.26215">
        <time>2021-05-08T05:08:11Z</time>
      </trkpt>
      <trkpt lat="41.35632" lon="0.26247">
        <time>2021-05-08T05:08:11Z</time>
      </trkpt>
      <trkpt lat="41.35636" lon="0.26256">
        <time>2021-05-08T05:08:11Z</time>
      </trkpt>
      <trkpt lat="41.35643" lon="0.26263">
        <time>2021-05-08T05:08:11Z</time>
      </trkpt>
      <trkpt lat="41.35646" lon="0.26266">
        <time>2021-05-08T05:08:11Z</time>
      </trkpt>
      <trkpt lat="41.35666" lon="0.26287">
        <time>2021-05-08T05:08:11Z</time>
      </trkpt>
      <trkpt lat="41.35679" lon="0.26303">
        <time>2021-05-08T05:08:11Z</time>
      </trkpt>
      <trkpt lat="41.3569" lon="0.26317">
        <time>2021-05-08T05:08:11Z</time>
      </trkpt>
      <trkpt lat="41.35696" lon="0.26321">
        <time>2021-05-08T05:08:11Z</time>
      </trkpt>
      <trkpt lat="41.35702" lon="0.2632">
        <time>2021-05-08T05:08:11Z</time>
      </trkpt>
      <trkpt lat="41.35716" lon="0.26316">
        <time>2021-05-08T05:08:11Z</time>
      </trkpt>
      <trkpt lat="41.35728" lon="0.2631">
        <time>2021-05-08T05:08:11Z</time>
      </trkpt>
      <trkpt lat="41.35737" lon="0.26307">
        <time>2021-05-08T05:08:11Z</time>
      </trkpt>
      <trkpt lat="41.35752" lon="0.26302">
        <time>2021-05-08T05:08:11Z</time>
      </trkpt>
      <trkpt lat="41.35762" lon="0.26298">
        <time>2021-05-08T05:08:11Z</time>
      </trkpt>
      <trkpt lat="41.35778" lon="0.26297">
        <time>2021-05-08T05:08:11Z</time>
      </trkpt>
      <trkpt lat="41.35793" lon="0.26295">
        <time>2021-05-08T05:08:11Z</time>
      </trkpt>
      <trkpt lat="41.35825" lon="0.26285">
        <time>2021-05-08T05:08:11Z</time>
      </trkpt>
      <trkpt lat="41.35829" lon="0.26286">
        <time>2021-05-08T05:08:11Z</time>
      </trkpt>
      <trkpt lat="41.35835" lon="0.26291">
        <time>2021-05-08T05:08:11Z</time>
      </trkpt>
      <trkpt lat="41.35838" lon="0.26301">
        <time>2021-05-08T05:08:11Z</time>
      </trkpt>
      <trkpt lat="41.35841" lon="0.26315">
        <time>2021-05-08T05:08:11Z</time>
      </trkpt>
      <trkpt lat="41.35848" lon="0.26345">
        <time>2021-05-08T05:08:11Z</time>
      </trkpt>
      <trkpt lat="41.35854" lon="0.2638">
        <time>2021-05-08T05:08:11Z</time>
      </trkpt>
      <trkpt lat="41.35859" lon="0.26408">
        <time>2021-05-08T05:08:11Z</time>
      </trkpt>
      <trkpt lat="41.35861" lon="0.26418">
        <time>2021-05-08T05:08:11Z</time>
      </trkpt>
      <trkpt lat="41.35868" lon="0.26438">
        <time>2021-05-08T05:08:11Z</time>
      </trkpt>
      <trkpt lat="41.35872" lon="0.26451">
        <time>2021-05-08T05:08:11Z</time>
      </trkpt>
      <trkpt lat="41.35879" lon="0.26471">
        <time>2021-05-08T05:08:11Z</time>
      </trkpt>
      <trkpt lat="41.35886" lon="0.2649">
        <time>2021-05-08T05:08:11Z</time>
      </trkpt>
      <trkpt lat="41.35892" lon="0.26505">
        <time>2021-05-08T05:08:11Z</time>
      </trkpt>
      <trkpt lat="41.35897" lon="0.26518">
        <time>2021-05-08T05:08:11Z</time>
      </trkpt>
      <trkpt lat="41.35901" lon="0.26531">
        <time>2021-05-08T05:08:11Z</time>
      </trkpt>
      <trkpt lat="41.35903" lon="0.26539">
        <time>2021-05-08T05:08:11Z</time>
      </trkpt>
      <trkpt lat="41.3591" lon="0.26554">
        <time>2021-05-08T05:08:11Z</time>
      </trkpt>
      <trkpt lat="41.35928" lon="0.26577">
        <time>2021-05-08T05:08:11Z</time>
      </trkpt>
      <trkpt lat="41.35942" lon="0.266">
        <time>2021-05-08T05:08:11Z</time>
      </trkpt>
      <trkpt lat="41.35959" lon="0.2663">
        <time>2021-05-08T05:08:11Z</time>
      </trkpt>
      <trkpt lat="41.35974" lon="0.26648">
        <time>2021-05-08T05:08:11Z</time>
      </trkpt>
      <trkpt lat="41.36004" lon="0.26674">
        <time>2021-05-08T05:08:11Z</time>
      </trkpt>
      <trkpt lat="41.36027" lon="0.26686">
        <time>2021-05-08T05:08:11Z</time>
      </trkpt>
      <trkpt lat="41.36043" lon="0.26693">
        <time>2021-05-08T05:08:11Z</time>
      </trkpt>
      <trkpt lat="41.36063" lon="0.26696">
        <time>2021-05-08T05:08:11Z</time>
      </trkpt>
      <trkpt lat="41.36077" lon="0.26694">
        <time>2021-05-08T05:08:11Z</time>
      </trkpt>
      <trkpt lat="41.36098" lon="0.26692">
        <time>2021-05-08T05:08:11Z</time>
      </trkpt>
      <trkpt lat="41.36116" lon="0.26693">
        <time>2021-05-08T05:08:11Z</time>
      </trkpt>
      <trkpt lat="41.36125" lon="0.26696">
        <time>2021-05-08T05:08:11Z</time>
      </trkpt>
      <trkpt lat="41.36139" lon="0.26703">
        <time>2021-05-08T05:08:11Z</time>
      </trkpt>
      <trkpt lat="41.36146" lon="0.26708">
        <time>2021-05-08T05:08:11Z</time>
      </trkpt>
      <trkpt lat="41.36153" lon="0.26715">
        <time>2021-05-08T05:08:11Z</time>
      </trkpt>
      <trkpt lat="41.36161" lon="0.26724">
        <time>2021-05-08T05:08:11Z</time>
      </trkpt>
      <trkpt lat="41.36166" lon="0.26737">
        <time>2021-05-08T05:08:11Z</time>
      </trkpt>
      <trkpt lat="41.36177" lon="0.26763">
        <time>2021-05-08T05:08:11Z</time>
      </trkpt>
      <trkpt lat="41.36194" lon="0.26808">
        <time>2021-05-08T05:08:11Z</time>
      </trkpt>
      <trkpt lat="41.362" lon="0.2682">
        <time>2021-05-08T05:08:11Z</time>
      </trkpt>
      <trkpt lat="41.36207" lon="0.26828">
        <time>2021-05-08T05:08:11Z</time>
      </trkpt>
      <trkpt lat="41.36215" lon="0.26832">
        <time>2021-05-08T05:08:11Z</time>
      </trkpt>
      <trkpt lat="41.36228" lon="0.26837">
        <time>2021-05-08T05:08:11Z</time>
      </trkpt>
      <trkpt lat="41.36244" lon="0.2684">
        <time>2021-05-08T05:08:11Z</time>
      </trkpt>
      <trkpt lat="41.36253" lon="0.26837">
        <time>2021-05-08T05:08:11Z</time>
      </trkpt>
      <trkpt lat="41.36262" lon="0.26833">
        <time>2021-05-08T05:08:11Z</time>
      </trkpt>
      <trkpt lat="41.36282" lon="0.2682">
        <time>2021-05-08T05:08:11Z</time>
      </trkpt>
      <trkpt lat="41.36345" lon="0.26783">
        <time>2021-05-08T05:08:11Z</time>
      </trkpt>
      <trkpt lat="41.36354" lon="0.26776">
        <time>2021-05-08T05:08:11Z</time>
      </trkpt>
      <trkpt lat="41.3638" lon="0.26755">
        <time>2021-05-08T05:08:11Z</time>
      </trkpt>
      <trkpt lat="41.36391" lon="0.26744">
        <time>2021-05-08T05:08:11Z</time>
      </trkpt>
      <trkpt lat="41.36398" lon="0.26736">
        <time>2021-05-08T05:08:11Z</time>
      </trkpt>
      <trkpt lat="41.36406" lon="0.26733">
        <time>2021-05-08T05:08:11Z</time>
      </trkpt>
      <trkpt lat="41.36417" lon="0.26731">
        <time>2021-05-08T05:08:11Z</time>
      </trkpt>
      <trkpt lat="41.36431" lon="0.26731">
        <time>2021-05-08T05:08:11Z</time>
      </trkpt>
      <trkpt lat="41.36446" lon="0.26738">
        <time>2021-05-08T05:08:11Z</time>
      </trkpt>
      <trkpt lat="41.36452" lon="0.26742">
        <time>2021-05-08T05:08:11Z</time>
      </trkpt>
      <trkpt lat="41.36463" lon="0.26754">
        <time>2021-05-08T05:08:11Z</time>
      </trkpt>
      <trkpt lat="41.36468" lon="0.26763">
        <time>2021-05-08T05:08:11Z</time>
      </trkpt>
      <trkpt lat="41.36472" lon="0.26773">
        <time>2021-05-08T05:08:11Z</time>
      </trkpt>
      <trkpt lat="41.36481" lon="0.2681">
        <time>2021-05-08T05:08:11Z</time>
      </trkpt>
      <trkpt lat="41.3649" lon="0.26841">
        <time>2021-05-08T05:08:11Z</time>
      </trkpt>
      <trkpt lat="41.36495" lon="0.26861">
        <time>2021-05-08T05:08:11Z</time>
      </trkpt>
      <trkpt lat="41.36503" lon="0.26899">
        <time>2021-05-08T05:08:11Z</time>
      </trkpt>
      <trkpt lat="41.36507" lon="0.26919">
        <time>2021-05-08T05:08:11Z</time>
      </trkpt>
      <trkpt lat="41.36513" lon="0.26938">
        <time>2021-05-08T05:08:11Z</time>
      </trkpt>
      <trkpt lat="41.36516" lon="0.26948">
        <time>2021-05-08T05:08:11Z</time>
      </trkpt>
      <trkpt lat="41.3652" lon="0.26952">
        <time>2021-05-08T05:08:11Z</time>
      </trkpt>
      <trkpt lat="41.36535" lon="0.26963">
        <time>2021-05-08T05:08:11Z</time>
      </trkpt>
      <trkpt lat="41.36549" lon="0.26972">
        <time>2021-05-08T05:08:11Z</time>
      </trkpt>
      <trkpt lat="41.36562" lon="0.26978">
        <time>2021-05-08T05:08:11Z</time>
      </trkpt>
      <trkpt lat="41.36569" lon="0.26983">
        <time>2021-05-08T05:08:11Z</time>
      </trkpt>
      <trkpt lat="41.36588" lon="0.26991">
        <time>2021-05-08T05:08:11Z</time>
      </trkpt>
      <trkpt lat="41.36607" lon="0.26999">
        <time>2021-05-08T05:08:11Z</time>
      </trkpt>
      <trkpt lat="41.36619" lon="0.27004">
        <time>2021-05-08T05:08:11Z</time>
      </trkpt>
      <trkpt lat="41.36635" lon="0.2701">
        <time>2021-05-08T05:08:11Z</time>
      </trkpt>
      <trkpt lat="41.36652" lon="0.27014">
        <time>2021-05-08T05:08:11Z</time>
      </trkpt>
      <trkpt lat="41.36667" lon="0.27019">
        <time>2021-05-08T05:08:11Z</time>
      </trkpt>
      <trkpt lat="41.3668" lon="0.27021">
        <time>2021-05-08T05:08:11Z</time>
      </trkpt>
      <trkpt lat="41.36691" lon="0.27023">
        <time>2021-05-08T05:08:11Z</time>
      </trkpt>
      <trkpt lat="41.36697" lon="0.27025">
        <time>2021-05-08T05:08:11Z</time>
      </trkpt>
      <trkpt lat="41.36702" lon="0.27029">
        <time>2021-05-08T05:08:11Z</time>
      </trkpt>
      <trkpt lat="41.36706" lon="0.27036">
        <time>2021-05-08T05:08:11Z</time>
      </trkpt>
      <trkpt lat="41.36708" lon="0.27042">
        <time>2021-05-08T05:08:11Z</time>
      </trkpt>
      <trkpt lat="41.36708" lon="0.27051">
        <time>2021-05-08T05:08:11Z</time>
      </trkpt>
      <trkpt lat="41.36708" lon="0.27089">
        <time>2021-05-08T05:08:11Z</time>
      </trkpt>
      <trkpt lat="41.36708" lon="0.27114">
        <time>2021-05-08T05:08:11Z</time>
      </trkpt>
      <trkpt lat="41.3671" lon="0.27128">
        <time>2021-05-08T05:08:11Z</time>
      </trkpt>
      <trkpt lat="41.36712" lon="0.27139">
        <time>2021-05-08T05:08:11Z</time>
      </trkpt>
      <trkpt lat="41.36709" lon="0.27159">
        <time>2021-05-08T05:08:11Z</time>
      </trkpt>
      <trkpt lat="41.36672" lon="0.27237">
        <time>2021-05-08T05:08:11Z</time>
      </trkpt>
      <trkpt lat="41.36662" lon="0.27255">
        <time>2021-05-08T05:08:11Z</time>
      </trkpt>
      <trkpt lat="41.36653" lon="0.27263">
        <time>2021-05-08T05:08:11Z</time>
      </trkpt>
      <trkpt lat="41.36649" lon="0.27274">
        <time>2021-05-08T05:08:11Z</time>
      </trkpt>
      <trkpt lat="41.36647" lon="0.27288">
        <time>2021-05-08T05:08:11Z</time>
      </trkpt>
      <trkpt lat="41.36647" lon="0.27302">
        <time>2021-05-08T05:08:11Z</time>
      </trkpt>
      <trkpt lat="41.36647" lon="0.27311">
        <time>2021-05-08T05:08:11Z</time>
      </trkpt>
      <trkpt lat="41.36644" lon="0.2732">
        <time>2021-05-08T05:08:11Z</time>
      </trkpt>
      <trkpt lat="41.36638" lon="0.27335">
        <time>2021-05-08T05:08:11Z</time>
      </trkpt>
      <trkpt lat="41.36631" lon="0.27347">
        <time>2021-05-08T05:08:11Z</time>
      </trkpt>
      <trkpt lat="41.36624" lon="0.27355">
        <time>2021-05-08T05:08:11Z</time>
      </trkpt>
      <trkpt lat="41.36619" lon="0.27364">
        <time>2021-05-08T05:08:11Z</time>
      </trkpt>
      <trkpt lat="41.36613" lon="0.27384">
        <time>2021-05-08T05:08:11Z</time>
      </trkpt>
      <trkpt lat="41.36603" lon="0.27402">
        <time>2021-05-08T05:08:11Z</time>
      </trkpt>
      <trkpt lat="41.36596" lon="0.27409">
        <time>2021-05-08T05:08:11Z</time>
      </trkpt>
      <trkpt lat="41.36589" lon="0.27412">
        <time>2021-05-08T05:08:11Z</time>
      </trkpt>
      <trkpt lat="41.36581" lon="0.2741">
        <time>2021-05-08T05:08:11Z</time>
      </trkpt>
      <trkpt lat="41.36553" lon="0.27406">
        <time>2021-05-08T05:08:11Z</time>
      </trkpt>
      <trkpt lat="41.36548" lon="0.27409">
        <time>2021-05-08T05:08:11Z</time>
      </trkpt>
      <trkpt lat="41.36543" lon="0.27418">
        <time>2021-05-08T05:08:11Z</time>
      </trkpt>
      <trkpt lat="41.36544" lon="0.27425">
        <time>2021-05-08T05:08:11Z</time>
      </trkpt>
      <trkpt lat="41.36545" lon="0.27436">
        <time>2021-05-08T05:08:11Z</time>
      </trkpt>
      <trkpt lat="41.36546" lon="0.27456">
        <time>2021-05-08T05:08:11Z</time>
      </trkpt>
      <trkpt lat="41.36547" lon="0.2749">
        <time>2021-05-08T05:08:11Z</time>
      </trkpt>
      <trkpt lat="41.36543" lon="0.27501">
        <time>2021-05-08T05:08:11Z</time>
      </trkpt>
      <trkpt lat="41.36537" lon="0.27513">
        <time>2021-05-08T05:08:11Z</time>
      </trkpt>
      <trkpt lat="41.36512" lon="0.27541">
        <time>2021-05-08T05:08:11Z</time>
      </trkpt>
      <trkpt lat="41.36499" lon="0.27563">
        <time>2021-05-08T05:08:11Z</time>
      </trkpt>
      <trkpt lat="41.36493" lon="0.27568">
        <time>2021-05-08T05:08:11Z</time>
      </trkpt>
      <trkpt lat="41.36485" lon="0.27576">
        <time>2021-05-08T05:08:11Z</time>
      </trkpt>
      <trkpt lat="41.36481" lon="0.27582">
        <time>2021-05-08T05:08:11Z</time>
      </trkpt>
      <trkpt lat="41.36478" lon="0.27589">
        <time>2021-05-08T05:08:11Z</time>
      </trkpt>
      <trkpt lat="41.36441" lon="0.27633">
        <time>2021-05-08T05:08:11Z</time>
      </trkpt>
      <trkpt lat="41.36418" lon="0.27655">
        <time>2021-05-08T05:08:11Z</time>
      </trkpt>
      <trkpt lat="41.36401" lon="0.27668">
        <time>2021-05-08T05:08:11Z</time>
      </trkpt>
      <trkpt lat="41.36394" lon="0.2767">
        <time>2021-05-08T05:08:11Z</time>
      </trkpt>
      <trkpt lat="41.36389" lon="0.27669">
        <time>2021-05-08T05:08:11Z</time>
      </trkpt>
      <trkpt lat="41.36383" lon="0.27662">
        <time>2021-05-08T05:08:11Z</time>
      </trkpt>
      <trkpt lat="41.36371" lon="0.27651">
        <time>2021-05-08T05:08:11Z</time>
      </trkpt>
      <trkpt lat="41.36365" lon="0.27648">
        <time>2021-05-08T05:08:11Z</time>
      </trkpt>
      <trkpt lat="41.3636" lon="0.2765">
        <time>2021-05-08T05:08:11Z</time>
      </trkpt>
      <trkpt lat="41.36357" lon="0.27656">
        <time>2021-05-08T05:08:11Z</time>
      </trkpt>
      <trkpt lat="41.36357" lon="0.27666">
        <time>2021-05-08T05:08:11Z</time>
      </trkpt>
      <trkpt lat="41.36361" lon="0.27686">
        <time>2021-05-08T05:08:11Z</time>
      </trkpt>
      <trkpt lat="41.36364" lon="0.2772">
        <time>2021-05-08T05:08:11Z</time>
      </trkpt>
      <trkpt lat="41.36365" lon="0.27732">
        <time>2021-05-08T05:08:11Z</time>
      </trkpt>
      <trkpt lat="41.36364" lon="0.2774">
        <time>2021-05-08T05:08:11Z</time>
      </trkpt>
      <trkpt lat="41.3636" lon="0.2775">
        <time>2021-05-08T05:08:11Z</time>
      </trkpt>
      <trkpt lat="41.36353" lon="0.27762">
        <time>2021-05-08T05:08:11Z</time>
      </trkpt>
      <trkpt lat="41.36346" lon="0.2777">
        <time>2021-05-08T05:08:11Z</time>
      </trkpt>
      <trkpt lat="41.36331" lon="0.27776">
        <time>2021-05-08T05:08:11Z</time>
      </trkpt>
      <trkpt lat="41.36323" lon="0.27783">
        <time>2021-05-08T05:08:11Z</time>
      </trkpt>
      <trkpt lat="41.36311" lon="0.27797">
        <time>2021-05-08T05:08:11Z</time>
      </trkpt>
      <trkpt lat="41.36288" lon="0.27831">
        <time>2021-05-08T05:08:11Z</time>
      </trkpt>
      <trkpt lat="41.36268" lon="0.27855">
        <time>2021-05-08T05:08:11Z</time>
      </trkpt>
      <trkpt lat="41.36234" lon="0.27904">
        <time>2021-05-08T05:08:11Z</time>
      </trkpt>
      <trkpt lat="41.36225" lon="0.27911">
        <time>2021-05-08T05:08:11Z</time>
      </trkpt>
      <trkpt lat="41.36215" lon="0.27925">
        <time>2021-05-08T05:08:11Z</time>
      </trkpt>
      <trkpt lat="41.36207" lon="0.27941">
        <time>2021-05-08T05:08:11Z</time>
      </trkpt>
      <trkpt lat="41.36199" lon="0.27963">
        <time>2021-05-08T05:08:11Z</time>
      </trkpt>
      <trkpt lat="41.36197" lon="0.2797">
        <time>2021-05-08T05:08:11Z</time>
      </trkpt>
      <trkpt lat="41.36193" lon="0.27979">
        <time>2021-05-08T05:08:11Z</time>
      </trkpt>
      <trkpt lat="41.36176" lon="0.27997">
        <time>2021-05-08T05:08:11Z</time>
      </trkpt>
      <trkpt lat="41.36161" lon="0.28014">
        <time>2021-05-08T05:08:11Z</time>
      </trkpt>
      <trkpt lat="41.36151" lon="0.28034">
        <time>2021-05-08T05:08:11Z</time>
      </trkpt>
      <trkpt lat="41.36146" lon="0.28042">
        <time>2021-05-08T05:08:11Z</time>
      </trkpt>
      <trkpt lat="41.36134" lon="0.28053">
        <time>2021-05-08T05:08:11Z</time>
      </trkpt>
      <trkpt lat="41.36122" lon="0.28063">
        <time>2021-05-08T05:08:11Z</time>
      </trkpt>
      <trkpt lat="41.36121" lon="0.28069">
        <time>2021-05-08T05:08:11Z</time>
      </trkpt>
      <trkpt lat="41.36118" lon="0.2808">
        <time>2021-05-08T05:08:11Z</time>
      </trkpt>
      <trkpt lat="41.36106" lon="0.2809">
        <time>2021-05-08T05:08:11Z</time>
      </trkpt>
      <trkpt lat="41.36098" lon="0.28099">
        <time>2021-05-08T05:08:11Z</time>
      </trkpt>
      <trkpt lat="41.36068" lon="0.28146">
        <time>2021-05-08T05:08:11Z</time>
      </trkpt>
      <trkpt lat="41.36024" lon="0.28212">
        <time>2021-05-08T05:08:11Z</time>
      </trkpt>
      <trkpt lat="41.36001" lon="0.28253">
        <time>2021-05-08T05:08:11Z</time>
      </trkpt>
      <trkpt lat="41.35962" lon="0.28338">
        <time>2021-05-08T05:08:11Z</time>
      </trkpt>
      <trkpt lat="41.35922" lon="0.2841">
        <time>2021-05-08T05:08:11Z</time>
      </trkpt>
      <trkpt lat="41.35883" lon="0.28495">
        <time>2021-05-08T05:08:11Z</time>
      </trkpt>
      <trkpt lat="41.35862" lon="0.2854">
        <time>2021-05-08T05:08:11Z</time>
      </trkpt>
      <trkpt lat="41.35853" lon="0.28573">
        <time>2021-05-08T05:08:11Z</time>
      </trkpt>
      <trkpt lat="41.35836" lon="0.28662">
        <time>2021-05-08T05:08:11Z</time>
      </trkpt>
      <trkpt lat="41.3583" lon="0.28694">
        <time>2021-05-08T05:08:11Z</time>
      </trkpt>
      <trkpt lat="41.35822" lon="0.28709">
        <time>2021-05-08T05:08:11Z</time>
      </trkpt>
      <trkpt lat="41.35805" lon="0.28721">
        <time>2021-05-08T05:08:11Z</time>
      </trkpt>
      <trkpt lat="41.35797" lon="0.28739">
        <time>2021-05-08T05:08:11Z</time>
      </trkpt>
      <trkpt lat="41.35794" lon="0.28764">
        <time>2021-05-08T05:08:11Z</time>
      </trkpt>
      <trkpt lat="41.35793" lon="0.2878">
        <time>2021-05-08T05:08:11Z</time>
      </trkpt>
      <trkpt lat="41.35794" lon="0.28796">
        <time>2021-05-08T05:08:11Z</time>
      </trkpt>
      <trkpt lat="41.35797" lon="0.28812">
        <time>2021-05-08T05:08:11Z</time>
      </trkpt>
      <trkpt lat="41.35801" lon="0.28825">
        <time>2021-05-08T05:08:11Z</time>
      </trkpt>
      <trkpt lat="41.35806" lon="0.28839">
        <time>2021-05-08T05:08:11Z</time>
      </trkpt>
      <trkpt lat="41.35809" lon="0.28856">
        <time>2021-05-08T05:08:11Z</time>
      </trkpt>
      <trkpt lat="41.35813" lon="0.28895">
        <time>2021-05-08T05:08:11Z</time>
      </trkpt>
      <trkpt lat="41.35811" lon="0.28958">
        <time>2021-05-08T05:08:11Z</time>
      </trkpt>
      <trkpt lat="41.35807" lon="0.29058">
        <time>2021-05-08T05:08:11Z</time>
      </trkpt>
      <trkpt lat="41.35804" lon="0.29082">
        <time>2021-05-08T05:08:11Z</time>
      </trkpt>
      <trkpt lat="41.3579" lon="0.2914">
        <time>2021-05-08T05:08:11Z</time>
      </trkpt>
      <trkpt lat="41.35789" lon="0.2915">
        <time>2021-05-08T05:08:11Z</time>
      </trkpt>
      <trkpt lat="41.35791" lon="0.29165">
        <time>2021-05-08T05:08:11Z</time>
      </trkpt>
      <trkpt lat="41.35789" lon="0.29178">
        <time>2021-05-08T05:08:11Z</time>
      </trkpt>
      <trkpt lat="41.35791" lon="0.29194">
        <time>2021-05-08T05:08:11Z</time>
      </trkpt>
      <trkpt lat="41.35795" lon="0.29209">
        <time>2021-05-08T05:08:11Z</time>
      </trkpt>
      <trkpt lat="41.35799" lon="0.29223">
        <time>2021-05-08T05:08:11Z</time>
      </trkpt>
      <trkpt lat="41.35802" lon="0.29235">
        <time>2021-05-08T05:08:11Z</time>
      </trkpt>
      <trkpt lat="41.35804" lon="0.29254">
        <time>2021-05-08T05:08:11Z</time>
      </trkpt>
      <trkpt lat="41.35817" lon="0.29336">
        <time>2021-05-08T05:08:11Z</time>
      </trkpt>
      <trkpt lat="41.3582" lon="0.29343">
        <time>2021-05-08T05:08:11Z</time>
      </trkpt>
      <trkpt lat="41.35827" lon="0.29349">
        <time>2021-05-08T05:08:11Z</time>
      </trkpt>
      <trkpt lat="41.35831" lon="0.29348">
        <time>2021-05-08T05:08:11Z</time>
      </trkpt>
      <trkpt lat="41.35851" lon="0.29348">
        <time>2021-05-08T05:08:11Z</time>
      </trkpt>
      <trkpt lat="41.35885" lon="0.29338">
        <time>2021-05-08T05:08:11Z</time>
      </trkpt>
      <trkpt lat="41.35937" lon="0.29326">
        <time>2021-05-08T05:08:11Z</time>
      </trkpt>
      <trkpt lat="41.3605" lon="0.29296">
        <time>2021-05-08T05:08:11Z</time>
      </trkpt>
      <trkpt lat="41.36082" lon="0.29287">
        <time>2021-05-08T05:08:11Z</time>
      </trkpt>
      <trkpt lat="41.36088" lon="0.29285">
        <time>2021-05-08T05:08:11Z</time>
      </trkpt>
      <trkpt lat="41.36097" lon="0.29282">
        <time>2021-05-08T05:08:11Z</time>
      </trkpt>
      <trkpt lat="41.36107" lon="0.29281">
        <time>2021-05-08T05:08:11Z</time>
      </trkpt>
      <trkpt lat="41.36112" lon="0.29288">
        <time>2021-05-08T05:08:11Z</time>
      </trkpt>
      <trkpt lat="41.36118" lon="0.29302">
        <time>2021-05-08T05:08:11Z</time>
      </trkpt>
      <trkpt lat="41.3612" lon="0.29316">
        <time>2021-05-08T05:08:11Z</time>
      </trkpt>
      <trkpt lat="41.36119" lon="0.29432">
        <time>2021-05-08T05:08:11Z</time>
      </trkpt>
      <trkpt lat="41.36123" lon="0.29576">
        <time>2021-05-08T05:08:11Z</time>
      </trkpt>
      <trkpt lat="41.36125" lon="0.29629">
        <time>2021-05-08T05:08:11Z</time>
      </trkpt>
      <trkpt lat="41.36128" lon="0.2971">
        <time>2021-05-08T05:08:11Z</time>
      </trkpt>
      <trkpt lat="41.36134" lon="0.29761">
        <time>2021-05-08T05:08:11Z</time>
      </trkpt>
      <trkpt lat="41.36145" lon="0.29808">
        <time>2021-05-08T05:08:11Z</time>
      </trkpt>
      <trkpt lat="41.36161" lon="0.29852">
        <time>2021-05-08T05:08:11Z</time>
      </trkpt>
      <trkpt lat="41.36197" lon="0.29914">
        <time>2021-05-08T05:08:11Z</time>
      </trkpt>
      <trkpt lat="41.3623" lon="0.29949">
        <time>2021-05-08T05:08:11Z</time>
      </trkpt>
      <trkpt lat="41.36257" lon="0.2997">
        <time>2021-05-08T05:08:11Z</time>
      </trkpt>
      <trkpt lat="41.36294" lon="0.29991">
        <time>2021-05-08T05:08:11Z</time>
      </trkpt>
      <trkpt lat="41.36361" lon="0.30014">
        <time>2021-05-08T05:08:11Z</time>
      </trkpt>
      <trkpt lat="41.364" lon="0.30024">
        <time>2021-05-08T05:08:11Z</time>
      </trkpt>
      <trkpt lat="41.36462" lon="0.30026">
        <time>2021-05-08T05:08:11Z</time>
      </trkpt>
      <trkpt lat="41.36505" lon="0.30019">
        <time>2021-05-08T05:08:11Z</time>
      </trkpt>
      <trkpt lat="41.36571" lon="0.29998">
        <time>2021-05-08T05:08:11Z</time>
      </trkpt>
      <trkpt lat="41.3663" lon="0.29986">
        <time>2021-05-08T05:08:11Z</time>
      </trkpt>
      <trkpt lat="41.36679" lon="0.29986">
        <time>2021-05-08T05:08:11Z</time>
      </trkpt>
      <trkpt lat="41.36746" lon="0.30004">
        <time>2021-05-08T05:08:11Z</time>
      </trkpt>
      <trkpt lat="41.36759" lon="0.30007">
        <time>2021-05-08T05:08:11Z</time>
      </trkpt>
      <trkpt lat="41.3678" lon="0.30011">
        <time>2021-05-08T05:08:11Z</time>
      </trkpt>
      <trkpt lat="41.36781" lon="0.30012">
        <time>2021-05-08T05:08:11Z</time>
      </trkpt>
      <trkpt lat="41.36778" lon="0.3002">
        <time>2021-05-08T05:08:11Z</time>
      </trkpt>
      <trkpt lat="41.3677800" lon="0.3002000">
        <time>2021-05-08T05:08:19Z</time>
      </trkpt>
      <trkpt lat="41.3676500" lon="0.3002900">
        <time>2021-05-08T05:08:19Z</time>
      </trkpt>
      <trkpt lat="41.3676300" lon="0.3003100">
        <time>2021-05-08T05:08:19Z</time>
      </trkpt>
      <trkpt lat="41.3676300" lon="0.3003700">
        <time>2021-05-08T05:08:19Z</time>
      </trkpt>
      <trkpt lat="41.3676200" lon="0.3004300">
        <time>2021-05-08T05:08:19Z</time>
      </trkpt>
      <trkpt lat="41.3673800" lon="0.3022000">
        <time>2021-05-08T05:08:19Z</time>
      </trkpt>
      <trkpt lat="41.3671400" lon="0.3039600">
        <time>2021-05-08T05:08:19Z</time>
      </trkpt>
      <trkpt lat="41.3670400" lon="0.3046800">
        <time>2021-05-08T05:08:19Z</time>
      </trkpt>
      <trkpt lat="41.3667500" lon="0.3068900">
        <time>2021-05-08T05:08:19Z</time>
      </trkpt>
      <trkpt lat="41.3667400" lon="0.3069800">
        <time>2021-05-08T05:08:19Z</time>
      </trkpt>
      <trkpt lat="41.3667500" lon="0.3070500">
        <time>2021-05-08T05:08:19Z</time>
      </trkpt>
      <trkpt lat="41.3667800" lon="0.3071400">
        <time>2021-05-08T05:08:19Z</time>
      </trkpt>
      <trkpt lat="41.3668100" lon="0.3071800">
        <time>2021-05-08T05:08:19Z</time>
      </trkpt>
      <trkpt lat="41.3668700" lon="0.3072100">
        <time>2021-05-08T05:08:19Z</time>
      </trkpt>
      <trkpt lat="41.3669100" lon="0.3072400">
        <time>2021-05-08T05:08:19Z</time>
      </trkpt>
      <trkpt lat="41.3669100" lon="0.3073100">
        <time>2021-05-08T05:08:19Z</time>
      </trkpt>
      <trkpt lat="41.3668700" lon="0.3073100">
        <time>2021-05-08T05:08:19Z</time>
      </trkpt>
      <trkpt lat="41.3668200" lon="0.3073400">
        <time>2021-05-08T05:08:19Z</time>
      </trkpt>
      <trkpt lat="41.3667500" lon="0.3074300">
        <time>2021-05-08T05:08:19Z</time>
      </trkpt>
      <trkpt lat="41.3666900" lon="0.3075000">
        <time>2021-05-08T05:08:19Z</time>
      </trkpt>
      <trkpt lat="41.3666500" lon="0.3076000">
        <time>2021-05-08T05:08:19Z</time>
      </trkpt>
      <trkpt lat="41.3665200" lon="0.3075700">
        <time>2021-05-08T05:08:19Z</time>
      </trkpt>
      <trkpt lat="41.3665300" lon="0.3075000">
        <time>2021-05-08T05:08:19Z</time>
      </trkpt>
      <trkpt lat="41.3665100" lon="0.3074100">
        <time>2021-05-08T05:08:19Z</time>
      </trkpt>
      <trkpt lat="41.3664700" lon="0.3073400">
        <time>2021-05-08T05:08:19Z</time>
      </trkpt>
      <trkpt lat="41.3664200" lon="0.3073000">
        <time>2021-05-08T05:08:19Z</time>
      </trkpt>
      <trkpt lat="41.3662800" lon="0.3072800">
        <time>2021-05-08T05:08:19Z</time>
      </trkpt>
      <trkpt lat="41.3660100" lon="0.3072900">
        <time>2021-05-08T05:08:19Z</time>
      </trkpt>
      <trkpt lat="41.3654500" lon="0.3074200">
        <time>2021-05-08T05:08:19Z</time>
      </trkpt>
      <trkpt lat="41.3650900" lon="0.3075600">
        <time>2021-05-08T05:08:19Z</time>
      </trkpt>
      <trkpt lat="41.3649900" lon="0.3076400">
        <time>2021-05-08T05:08:19Z</time>
      </trkpt>
      <trkpt lat="41.3649200" lon="0.3077800">
        <time>2021-05-08T05:08:19Z</time>
      </trkpt>
      <trkpt lat="41.3648800" lon="0.3080100">
        <time>2021-05-08T05:08:19Z</time>
      </trkpt>
      <trkpt lat="41.3648900" lon="0.3081700">
        <time>2021-05-08T05:08:19Z</time>
      </trkpt>
      <trkpt lat="41.3649700" lon="0.3084600">
        <time>2021-05-08T05:08:19Z</time>
      </trkpt>
      <trkpt lat="41.3652000" lon="0.3092700">
        <time>2021-05-08T05:08:19Z</time>
      </trkpt>
      <trkpt lat="41.3653700" lon="0.3098100">
        <time>2021-05-08T05:08:19Z</time>
      </trkpt>
      <trkpt lat="41.3658000" lon="0.3113500">
        <time>2021-05-08T05:08:19Z</time>
      </trkpt>
      <trkpt lat="41.3660100" lon="0.3120500">
        <time>2021-05-08T05:08:19Z</time>
      </trkpt>
      <trkpt lat="41.3660200" lon="0.3121500">
        <time>2021-05-08T05:08:19Z</time>
      </trkpt>
      <trkpt lat="41.3659700" lon="0.3123300">
        <time>2021-05-08T05:08:19Z</time>
      </trkpt>
      <trkpt lat="41.3658800" lon="0.3124400">
        <time>2021-05-08T05:08:19Z</time>
      </trkpt>
      <trkpt lat="41.3652500" lon="0.3129400">
        <time>2021-05-08T05:08:19Z</time>
      </trkpt>
      <trkpt lat="41.3649800" lon="0.3130500">
        <time>2021-05-08T05:08:19Z</time>
      </trkpt>
      <trkpt lat="41.3646800" lon="0.3131700">
        <time>2021-05-08T05:08:19Z</time>
      </trkpt>
      <trkpt lat="41.3644100" lon="0.3133200">
        <time>2021-05-08T05:08:19Z</time>
      </trkpt>
      <trkpt lat="41.3642500" lon="0.3134400">
        <time>2021-05-08T05:08:19Z</time>
      </trkpt>
      <trkpt lat="41.3639600" lon="0.3137700">
        <time>2021-05-08T05:08:19Z</time>
      </trkpt>
      <trkpt lat="41.3638500" lon="0.3138700">
        <time>2021-05-08T05:08:19Z</time>
      </trkpt>
      <trkpt lat="41.3637400" lon="0.3139900">
        <time>2021-05-08T05:08:19Z</time>
      </trkpt>
      <trkpt lat="41.3635400" lon="0.3140800">
        <time>2021-05-08T05:08:19Z</time>
      </trkpt>
      <trkpt lat="41.3632600" lon="0.3142000">
        <time>2021-05-08T05:08:19Z</time>
      </trkpt>
      <trkpt lat="41.3628100" lon="0.3144100">
        <time>2021-05-08T05:08:19Z</time>
      </trkpt>
      <trkpt lat="41.3622200" lon="0.3147700">
        <time>2021-05-08T05:08:19Z</time>
      </trkpt>
      <trkpt lat="41.3621000" lon="0.3148700">
        <time>2021-05-08T05:08:19Z</time>
      </trkpt>
      <trkpt lat="41.3620000" lon="0.3149600">
        <time>2021-05-08T05:08:19Z</time>
      </trkpt>
      <trkpt lat="41.3619000" lon="0.3151000">
        <time>2021-05-08T05:08:19Z</time>
      </trkpt>
      <trkpt lat="41.3618500" lon="0.3152000">
        <time>2021-05-08T05:08:19Z</time>
      </trkpt>
      <trkpt lat="41.3617500" lon="0.3154400">
        <time>2021-05-08T05:08:19Z</time>
      </trkpt>
      <trkpt lat="41.3616100" lon="0.3157800">
        <time>2021-05-08T05:08:19Z</time>
      </trkpt>
      <trkpt lat="41.3612500" lon="0.3168000">
        <time>2021-05-08T05:08:19Z</time>
      </trkpt>
      <trkpt lat="41.3611700" lon="0.3170600">
        <time>2021-05-08T05:08:19Z</time>
      </trkpt>
      <trkpt lat="41.3609200" lon="0.3176000">
        <time>2021-05-08T05:08:19Z</time>
      </trkpt>
      <trkpt lat="41.3607000" lon="0.3182500">
        <time>2021-05-08T05:08:19Z</time>
      </trkpt>
      <trkpt lat="41.3605700" lon="0.3189400">
        <time>2021-05-08T05:08:19Z</time>
      </trkpt>
      <trkpt lat="41.3603800" lon="0.3205900">
        <time>2021-05-08T05:08:19Z</time>
      </trkpt>
      <trkpt lat="41.3602900" lon="0.3210600">
        <time>2021-05-08T05:08:19Z</time>
      </trkpt>
      <trkpt lat="41.3602800" lon="0.3211800">
        <time>2021-05-08T05:08:19Z</time>
      </trkpt>
      <trkpt lat="41.3602800" lon="0.3216000">
        <time>2021-05-08T05:08:19Z</time>
      </trkpt>
      <trkpt lat="41.3602600" lon="0.3218000">
        <time>2021-05-08T05:08:19Z</time>
      </trkpt>
      <trkpt lat="41.3601500" lon="0.3224200">
        <time>2021-05-08T05:08:19Z</time>
      </trkpt>
      <trkpt lat="41.3601300" lon="0.3226100">
        <time>2021-05-08T05:08:19Z</time>
      </trkpt>
      <trkpt lat="41.3601300" lon="0.3229300">
        <time>2021-05-08T05:08:19Z</time>
      </trkpt>
      <trkpt lat="41.3601700" lon="0.3232000">
        <time>2021-05-08T05:08:19Z</time>
      </trkpt>
      <trkpt lat="41.3601900" lon="0.3234000">
        <time>2021-05-08T05:08:19Z</time>
      </trkpt>
      <trkpt lat="41.3601900" lon="0.3236700">
        <time>2021-05-08T05:08:19Z</time>
      </trkpt>
      <trkpt lat="41.3601200" lon="0.3240300">
        <time>2021-05-08T05:08:19Z</time>
      </trkpt>
      <trkpt lat="41.3601200" lon="0.3242000">
        <time>2021-05-08T05:08:19Z</time>
      </trkpt>
      <trkpt lat="41.3602600" lon="0.3257800">
        <time>2021-05-08T05:08:19Z</time>
      </trkpt>
      <trkpt lat="41.3602900" lon="0.3262700">
        <time>2021-05-08T05:08:19Z</time>
      </trkpt>
      <trkpt lat="41.3603100" lon="0.3263900">
        <time>2021-05-08T05:08:19Z</time>
      </trkpt>
      <trkpt lat="41.3604600" lon="0.3268900">
        <time>2021-05-08T05:08:19Z</time>
      </trkpt>
      <trkpt lat="41.3607400" lon="0.3276800">
        <time>2021-05-08T05:08:19Z</time>
      </trkpt>
      <trkpt lat="41.3609500" lon="0.3282000">
        <time>2021-05-08T05:08:19Z</time>
      </trkpt>
      <trkpt lat="41.3611600" lon="0.3289000">
        <time>2021-05-08T05:08:19Z</time>
      </trkpt>
      <trkpt lat="41.3612400" lon="0.3290800">
        <time>2021-05-08T05:08:19Z</time>
      </trkpt>
      <trkpt lat="41.3613900" lon="0.3293100">
        <time>2021-05-08T05:08:19Z</time>
      </trkpt>
      <trkpt lat="41.3614900" lon="0.3294600">
        <time>2021-05-08T05:08:19Z</time>
      </trkpt>
      <trkpt lat="41.3616300" lon="0.3297200">
        <time>2021-05-08T05:08:19Z</time>
      </trkpt>
      <trkpt lat="41.3616600" lon="0.3297800">
        <time>2021-05-08T05:08:19Z</time>
      </trkpt>
      <trkpt lat="41.3616900" lon="0.3299100">
        <time>2021-05-08T05:08:19Z</time>
      </trkpt>
      <trkpt lat="41.3617200" lon="0.3300900">
        <time>2021-05-08T05:08:19Z</time>
      </trkpt>
      <trkpt lat="41.3617600" lon="0.3302900">
        <time>2021-05-08T05:08:19Z</time>
      </trkpt>
      <trkpt lat="41.3618600" lon="0.3306400">
        <time>2021-05-08T05:08:19Z</time>
      </trkpt>
      <trkpt lat="41.3620900" lon="0.3311400">
        <time>2021-05-08T05:08:19Z</time>
      </trkpt>
      <trkpt lat="41.3622400" lon="0.3314700">
        <time>2021-05-08T05:08:19Z</time>
      </trkpt>
      <trkpt lat="41.3624200" lon="0.3319800">
        <time>2021-05-08T05:08:19Z</time>
      </trkpt>
      <trkpt lat="41.3625900" lon="0.3323700">
        <time>2021-05-08T05:08:19Z</time>
      </trkpt>
      <trkpt lat="41.3627400" lon="0.3327200">
        <time>2021-05-08T05:08:19Z</time>
      </trkpt>
      <trkpt lat="41.3628300" lon="0.3331500">
        <time>2021-05-08T05:08:19Z</time>
      </trkpt>
      <trkpt lat="41.3628600" lon="0.3334400">
        <time>2021-05-08T05:08:19Z</time>
      </trkpt>
      <trkpt lat="41.3628900" lon="0.3336500">
        <time>2021-05-08T05:08:19Z</time>
      </trkpt>
      <trkpt lat="41.3629400" lon="0.3338300">
        <time>2021-05-08T05:08:19Z</time>
      </trkpt>
      <trkpt lat="41.3630400" lon="0.3342900">
        <time>2021-05-08T05:08:19Z</time>
      </trkpt>
      <trkpt lat="41.3630500" lon="0.3344800">
        <time>2021-05-08T05:08:19Z</time>
      </trkpt>
      <trkpt lat="41.3630400" lon="0.3348000">
        <time>2021-05-08T05:08:19Z</time>
      </trkpt>
      <trkpt lat="41.3630700" lon="0.3352500">
        <time>2021-05-08T05:08:19Z</time>
      </trkpt>
      <trkpt lat="41.3632000" lon="0.3363200">
        <time>2021-05-08T05:08:19Z</time>
      </trkpt>
      <trkpt lat="41.3632400" lon="0.3374500">
        <time>2021-05-08T05:08:19Z</time>
      </trkpt>
      <trkpt lat="41.3632600" lon="0.3383800">
        <time>2021-05-08T05:08:19Z</time>
      </trkpt>
      <trkpt lat="41.3632900" lon="0.3386600">
        <time>2021-05-08T05:08:19Z</time>
      </trkpt>
      <trkpt lat="41.3633200" lon="0.3388000">
        <time>2021-05-08T05:08:19Z</time>
      </trkpt>
      <trkpt lat="41.3633200" lon="0.3388700">
        <time>2021-05-08T05:08:19Z</time>
      </trkpt>
      <trkpt lat="41.3632900" lon="0.3390100">
        <time>2021-05-08T05:08:19Z</time>
      </trkpt>
      <trkpt lat="41.3632000" lon="0.3394300">
        <time>2021-05-08T05:08:19Z</time>
      </trkpt>
      <trkpt lat="41.3631000" lon="0.3400100">
        <time>2021-05-08T05:08:19Z</time>
      </trkpt>
      <trkpt lat="41.3630800" lon="0.3404000">
        <time>2021-05-08T05:08:19Z</time>
      </trkpt>
      <trkpt lat="41.3631000" lon="0.3406500">
        <time>2021-05-08T05:08:19Z</time>
      </trkpt>
      <trkpt lat="41.3630700" lon="0.3407800">
        <time>2021-05-08T05:08:19Z</time>
      </trkpt>
      <trkpt lat="41.3630100" lon="0.3409900">
        <time>2021-05-08T05:08:19Z</time>
      </trkpt>
      <trkpt lat="41.3626900" lon="0.3415600">
        <time>2021-05-08T05:08:19Z</time>
      </trkpt>
      <trkpt lat="41.3625500" lon="0.3418200">
        <time>2021-05-08T05:08:19Z</time>
      </trkpt>
      <trkpt lat="41.3623600" lon="0.3421800">
        <time>2021-05-08T05:08:19Z</time>
      </trkpt>
      <trkpt lat="41.3622100" lon="0.3425200">
        <time>2021-05-08T05:08:19Z</time>
      </trkpt>
      <trkpt lat="41.3621100" lon="0.3427700">
        <time>2021-05-08T05:08:19Z</time>
      </trkpt>
      <trkpt lat="41.3620300" lon="0.3430300">
        <time>2021-05-08T05:08:19Z</time>
      </trkpt>
      <trkpt lat="41.3619600" lon="0.3432500">
        <time>2021-05-08T05:08:19Z</time>
      </trkpt>
      <trkpt lat="41.3619500" lon="0.3434200">
        <time>2021-05-08T05:08:19Z</time>
      </trkpt>
      <trkpt lat="41.3619200" lon="0.3436300">
        <time>2021-05-08T05:08:19Z</time>
      </trkpt>
      <trkpt lat="41.3618900" lon="0.3438000">
        <time>2021-05-08T05:08:19Z</time>
      </trkpt>
      <trkpt lat="41.3618200" lon="0.3440000">
        <time>2021-05-08T05:08:19Z</time>
      </trkpt>
      <trkpt lat="41.3617200" lon="0.3441500">
        <time>2021-05-08T05:08:19Z</time>
      </trkpt>
      <trkpt lat="41.3615800" lon="0.3442700">
        <time>2021-05-08T05:08:19Z</time>
      </trkpt>
      <trkpt lat="41.3613700" lon="0.3443400">
        <time>2021-05-08T05:08:19Z</time>
      </trkpt>
      <trkpt lat="41.3611200" lon="0.3444700">
        <time>2021-05-08T05:08:19Z</time>
      </trkpt>
      <trkpt lat="41.3610100" lon="0.3445700">
        <time>2021-05-08T05:08:19Z</time>
      </trkpt>
      <trkpt lat="41.3607500" lon="0.3448800">
        <time>2021-05-08T05:08:19Z</time>
      </trkpt>
      <trkpt lat="41.3606600" lon="0.3450100">
        <time>2021-05-08T05:08:19Z</time>
      </trkpt>
      <trkpt lat="41.3605000" lon="0.3452300">
        <time>2021-05-08T05:08:19Z</time>
      </trkpt>
      <trkpt lat="41.3603800" lon="0.3453900">
        <time>2021-05-08T05:08:19Z</time>
      </trkpt>
      <trkpt lat="41.3602300" lon="0.3456300">
        <time>2021-05-08T05:08:19Z</time>
      </trkpt>
      <trkpt lat="41.3600200" lon="0.3459800">
        <time>2021-05-08T05:08:19Z</time>
      </trkpt>
      <trkpt lat="41.3599000" lon="0.3462200">
        <time>2021-05-08T05:08:19Z</time>
      </trkpt>
      <trkpt lat="41.3598500" lon="0.3463800">
        <time>2021-05-08T05:08:19Z</time>
      </trkpt>
      <trkpt lat="41.3597100" lon="0.3468000">
        <time>2021-05-08T05:08:19Z</time>
      </trkpt>
      <trkpt lat="41.3595400" lon="0.3471900">
        <time>2021-05-08T05:08:19Z</time>
      </trkpt>
      <trkpt lat="41.3594700" lon="0.3474000">
        <time>2021-05-08T05:08:19Z</time>
      </trkpt>
      <trkpt lat="41.3594200" lon="0.3475700">
        <time>2021-05-08T05:08:19Z</time>
      </trkpt>
      <trkpt lat="41.3593800" lon="0.3478300">
        <time>2021-05-08T05:08:19Z</time>
      </trkpt>
      <trkpt lat="41.3593600" lon="0.3479700">
        <time>2021-05-08T05:08:19Z</time>
      </trkpt>
      <trkpt lat="41.3593100" lon="0.3480800">
        <time>2021-05-08T05:08:19Z</time>
      </trkpt>
      <trkpt lat="41.3592500" lon="0.3482100">
        <time>2021-05-08T05:08:19Z</time>
      </trkpt>
      <trkpt lat="41.3591600" lon="0.3483500">
        <time>2021-05-08T05:08:19Z</time>
      </trkpt>
      <trkpt lat="41.3590200" lon="0.3484900">
        <time>2021-05-08T05:08:19Z</time>
      </trkpt>
      <trkpt lat="41.3589000" lon="0.3486400">
        <time>2021-05-08T05:08:19Z</time>
      </trkpt>
      <trkpt lat="41.3587100" lon="0.3489400">
        <time>2021-05-08T05:08:19Z</time>
      </trkpt>
      <trkpt lat="41.3586100" lon="0.3491200">
        <time>2021-05-08T05:08:19Z</time>
      </trkpt>
      <trkpt lat="41.3585400" lon="0.3493200">
        <time>2021-05-08T05:08:19Z</time>
      </trkpt>
      <trkpt lat="41.3584700" lon="0.3492900">
        <time>2021-05-08T05:08:19Z</time>
      </trkpt>
      <trkpt lat="41.3584500" lon="0.3493800">
        <time>2021-05-08T05:08:19Z</time>
      </trkpt>
      <trkpt lat="41.3584300" lon="0.3495000">
        <time>2021-05-08T05:08:19Z</time>
      </trkpt>
      <trkpt lat="41.3584400" lon="0.3497100">
        <time>2021-05-08T05:08:19Z</time>
      </trkpt>
      <trkpt lat="41.3584600" lon="0.3498200">
        <time>2021-05-08T05:08:19Z</time>
      </trkpt>
      <trkpt lat="41.3585100" lon="0.3501400">
        <time>2021-05-08T05:08:19Z</time>
      </trkpt>
      <trkpt lat="41.3584800" lon="0.3502600">
        <time>2021-05-08T05:08:19Z</time>
      </trkpt>
      <trkpt lat="41.3583800" lon="0.3503200">
        <time>2021-05-08T05:08:19Z</time>
      </trkpt>
      <trkpt lat="41.3582500" lon="0.3503300">
        <time>2021-05-08T05:08:19Z</time>
      </trkpt>
      <trkpt lat="41.3581000" lon="0.3503300">
        <time>2021-05-08T05:08:19Z</time>
      </trkpt>
      <trkpt lat="41.3579800" lon="0.3503800">
        <time>2021-05-08T05:08:19Z</time>
      </trkpt>
      <trkpt lat="41.3578900" lon="0.3504700">
        <time>2021-05-08T05:08:19Z</time>
      </trkpt>
      <trkpt lat="41.3574100" lon="0.3511800">
        <time>2021-05-08T05:08:19Z</time>
      </trkpt>
      <trkpt lat="41.3568300" lon="0.3521500">
        <time>2021-05-08T05:08:19Z</time>
      </trkpt>
      <trkpt lat="41.3559200" lon="0.3536800">
        <time>2021-05-08T05:08:19Z</time>
      </trkpt>
      <trkpt lat="41.3554600" lon="0.3545400">
        <time>2021-05-08T05:08:19Z</time>
      </trkpt>
      <trkpt lat="41.3553800" lon="0.3546900">
        <time>2021-05-08T05:08:19Z</time>
      </trkpt>
      <trkpt lat="41.3553200" lon="0.3548600">
        <time>2021-05-08T05:08:19Z</time>
      </trkpt>
      <trkpt lat="41.3553100" lon="0.3551300">
        <time>2021-05-08T05:08:19Z</time>
      </trkpt>
      <trkpt lat="41.3553000" lon="0.3552200">
        <time>2021-05-08T05:08:19Z</time>
      </trkpt>
      <trkpt lat="41.3552700" lon="0.3553100">
        <time>2021-05-08T05:08:19Z</time>
      </trkpt>
      <trkpt lat="41.3552100" lon="0.3553700">
        <time>2021-05-08T05:08:19Z</time>
      </trkpt>
      <trkpt lat="41.3550600" lon="0.3554400">
        <time>2021-05-08T05:08:19Z</time>
      </trkpt>
      <trkpt lat="41.3549900" lon="0.3554500">
        <time>2021-05-08T05:08:19Z</time>
      </trkpt>
      <trkpt lat="41.3549300" lon="0.3554800">
        <time>2021-05-08T05:08:19Z</time>
      </trkpt>
      <trkpt lat="41.3545700" lon="0.3558500">
        <time>2021-05-08T05:08:19Z</time>
      </trkpt>
      <trkpt lat="41.3542200" lon="0.3562900">
        <time>2021-05-08T05:08:19Z</time>
      </trkpt>
      <trkpt lat="41.3541200" lon="0.3564300">
        <time>2021-05-08T05:08:19Z</time>
      </trkpt>
      <trkpt lat="41.3539500" lon="0.3565400">
        <time>2021-05-08T05:08:19Z</time>
      </trkpt>
      <trkpt lat="41.3533100" lon="0.3570700">
        <time>2021-05-08T05:08:19Z</time>
      </trkpt>
      <trkpt lat="41.3531300" lon="0.3572800">
        <time>2021-05-08T05:08:19Z</time>
      </trkpt>
      <trkpt lat="41.3530400" lon="0.3574400">
        <time>2021-05-08T05:08:19Z</time>
      </trkpt>
      <trkpt lat="41.3529500" lon="0.3576700">
        <time>2021-05-08T05:08:19Z</time>
      </trkpt>
      <trkpt lat="41.3529500" lon="0.3578700">
        <time>2021-05-08T05:08:19Z</time>
      </trkpt>
      <trkpt lat="41.3529300" lon="0.3580000">
        <time>2021-05-08T05:08:19Z</time>
      </trkpt>
      <trkpt lat="41.3528900" lon="0.3581000">
        <time>2021-05-08T05:08:19Z</time>
      </trkpt>
      <trkpt lat="41.3528000" lon="0.3581400">
        <time>2021-05-08T05:08:19Z</time>
      </trkpt>
      <trkpt lat="41.3527500" lon="0.3581500">
        <time>2021-05-08T05:08:19Z</time>
      </trkpt>
      <trkpt lat="41.3526200" lon="0.3580400">
        <time>2021-05-08T05:08:19Z</time>
      </trkpt>
      <trkpt lat="41.3524600" lon="0.3579600">
        <time>2021-05-08T05:08:19Z</time>
      </trkpt>
      <trkpt lat="41.3523100" lon="0.3579800">
        <time>2021-05-08T05:08:19Z</time>
      </trkpt>
      <trkpt lat="41.3519900" lon="0.3581800">
        <time>2021-05-08T05:08:19Z</time>
      </trkpt>
      <trkpt lat="41.3514300" lon="0.3587100">
        <time>2021-05-08T05:08:19Z</time>
      </trkpt>
      <trkpt lat="41.3513300" lon="0.3588100">
        <time>2021-05-08T05:08:19Z</time>
      </trkpt>
      <trkpt lat="41.3512600" lon="0.3589600">
        <time>2021-05-08T05:08:19Z</time>
      </trkpt>
      <trkpt lat="41.3511300" lon="0.3594400">
        <time>2021-05-08T05:08:19Z</time>
      </trkpt>
      <trkpt lat="41.3510800" lon="0.3595200">
        <time>2021-05-08T05:08:19Z</time>
      </trkpt>
      <trkpt lat="41.3510100" lon="0.3595500">
        <time>2021-05-08T05:08:19Z</time>
      </trkpt>
      <trkpt lat="41.3509300" lon="0.3595200">
        <time>2021-05-08T05:08:19Z</time>
      </trkpt>
      <trkpt lat="41.3508200" lon="0.3594400">
        <time>2021-05-08T05:08:19Z</time>
      </trkpt>
      <trkpt lat="41.3507100" lon="0.3594100">
        <time>2021-05-08T05:08:19Z</time>
      </trkpt>
      <trkpt lat="41.3506200" lon="0.3594100">
        <time>2021-05-08T05:08:19Z</time>
      </trkpt>
      <trkpt lat="41.3503500" lon="0.3595400">
        <time>2021-05-08T05:08:19Z</time>
      </trkpt>
      <trkpt lat="41.3496600" lon="0.3600800">
        <time>2021-05-08T05:08:19Z</time>
      </trkpt>
      <trkpt lat="41.3494100" lon="0.3603200">
        <time>2021-05-08T05:08:19Z</time>
      </trkpt>
      <trkpt lat="41.3492400" lon="0.3604600">
        <time>2021-05-08T05:08:19Z</time>
      </trkpt>
      <trkpt lat="41.3490700" lon="0.3607000">
        <time>2021-05-08T05:08:19Z</time>
      </trkpt>
      <trkpt lat="41.3489100" lon="0.3608100">
        <time>2021-05-08T05:08:19Z</time>
      </trkpt>
      <trkpt lat="41.3486300" lon="0.3609500">
        <time>2021-05-08T05:08:19Z</time>
      </trkpt>
      <trkpt lat="41.3482500" lon="0.3612200">
        <time>2021-05-08T05:08:19Z</time>
      </trkpt>
      <trkpt lat="41.3475800" lon="0.3615000">
        <time>2021-05-08T05:08:19Z</time>
      </trkpt>
      <trkpt lat="41.3472300" lon="0.3616800">
        <time>2021-05-08T05:08:19Z</time>
      </trkpt>
      <trkpt lat="41.3470800" lon="0.3617700">
        <time>2021-05-08T05:08:19Z</time>
      </trkpt>
      <trkpt lat="41.3468300" lon="0.3618700">
        <time>2021-05-08T05:08:19Z</time>
      </trkpt>
      <trkpt lat="41.3466200" lon="0.3620900">
        <time>2021-05-08T05:08:19Z</time>
      </trkpt>
      <trkpt lat="41.3465100" lon="0.3621200">
        <time>2021-05-08T05:08:19Z</time>
      </trkpt>
      <trkpt lat="41.3461900" lon="0.3621300">
        <time>2021-05-08T05:08:19Z</time>
      </trkpt>
      <trkpt lat="41.3459600" lon="0.3622500">
        <time>2021-05-08T05:08:19Z</time>
      </trkpt>
      <trkpt lat="41.3456000" lon="0.3623000">
        <time>2021-05-08T05:08:19Z</time>
      </trkpt>
      <trkpt lat="41.3454200" lon="0.3623200">
        <time>2021-05-08T05:08:19Z</time>
      </trkpt>
      <trkpt lat="41.3452800" lon="0.3623700">
        <time>2021-05-08T05:08:19Z</time>
      </trkpt>
      <trkpt lat="41.3451300" lon="0.3623900">
        <time>2021-05-08T05:08:19Z</time>
      </trkpt>
      <trkpt lat="41.3450400" lon="0.3624100">
        <time>2021-05-08T05:08:19Z</time>
      </trkpt>
      <trkpt lat="41.3448700" lon="0.3624300">
        <time>2021-05-08T05:08:19Z</time>
      </trkpt>
      <trkpt lat="41.3447000" lon="0.3624300">
        <time>2021-05-08T05:08:19Z</time>
      </trkpt>
      <trkpt lat="41.3445300" lon="0.3624800">
        <time>2021-05-08T05:08:19Z</time>
      </trkpt>
      <trkpt lat="41.3438500" lon="0.3625100">
        <time>2021-05-08T05:08:19Z</time>
      </trkpt>
      <trkpt lat="41.3433000" lon="0.3625400">
        <time>2021-05-08T05:08:19Z</time>
      </trkpt>
      <trkpt lat="41.3430400" lon="0.3625200">
        <time>2021-05-08T05:08:19Z</time>
      </trkpt>
      <trkpt lat="41.3425100" lon="0.3624500">
        <time>2021-05-08T05:08:19Z</time>
      </trkpt>
      <trkpt lat="41.3420400" lon="0.3623500">
        <time>2021-05-08T05:08:19Z</time>
      </trkpt>
      <trkpt lat="41.3418400" lon="0.3623200">
        <time>2021-05-08T05:08:19Z</time>
      </trkpt>
      <trkpt lat="41.3417100" lon="0.3623500">
        <time>2021-05-08T05:08:19Z</time>
      </trkpt>
      <trkpt lat="41.3416800" lon="0.3624400">
        <time>2021-05-08T05:08:19Z</time>
      </trkpt>
      <trkpt lat="41.3416700" lon="0.3625500">
        <time>2021-05-08T05:08:19Z</time>
      </trkpt>
      <trkpt lat="41.3416900" lon="0.3626300">
        <time>2021-05-08T05:08:19Z</time>
      </trkpt>
      <trkpt lat="41.3417400" lon="0.3627500">
        <time>2021-05-08T05:08:19Z</time>
      </trkpt>
      <trkpt lat="41.3418000" lon="0.3629100">
        <time>2021-05-08T05:08:19Z</time>
      </trkpt>
      <trkpt lat="41.3418300" lon="0.3631600">
        <time>2021-05-08T05:08:19Z</time>
      </trkpt>
      <trkpt lat="41.3418700" lon="0.3634500">
        <time>2021-05-08T05:08:19Z</time>
      </trkpt>
      <trkpt lat="41.3419300" lon="0.3635900">
        <time>2021-05-08T05:08:19Z</time>
      </trkpt>
      <trkpt lat="41.3421700" lon="0.3637900">
        <time>2021-05-08T05:08:19Z</time>
      </trkpt>
      <trkpt lat="41.3422400" lon="0.3638600">
        <time>2021-05-08T05:08:19Z</time>
      </trkpt>
      <trkpt lat="41.3423200" lon="0.3639900">
        <time>2021-05-08T05:08:19Z</time>
      </trkpt>
      <trkpt lat="41.3424000" lon="0.3641000">
        <time>2021-05-08T05:08:19Z</time>
      </trkpt>
      <trkpt lat="41.3424800" lon="0.3642400">
        <time>2021-05-08T05:08:19Z</time>
      </trkpt>
      <trkpt lat="41.3425200" lon="0.3644400">
        <time>2021-05-08T05:08:19Z</time>
      </trkpt>
      <trkpt lat="41.3425200" lon="0.3647500">
        <time>2021-05-08T05:08:19Z</time>
      </trkpt>
      <trkpt lat="41.3424800" lon="0.3651000">
        <time>2021-05-08T05:08:19Z</time>
      </trkpt>
      <trkpt lat="41.3424400" lon="0.3652400">
        <time>2021-05-08T05:08:19Z</time>
      </trkpt>
      <trkpt lat="41.3423800" lon="0.3653900">
        <time>2021-05-08T05:08:19Z</time>
      </trkpt>
      <trkpt lat="41.3421900" lon="0.3656800">
        <time>2021-05-08T05:08:19Z</time>
      </trkpt>
      <trkpt lat="41.3418200" lon="0.3661300">
        <time>2021-05-08T05:08:19Z</time>
      </trkpt>
      <trkpt lat="41.3416900" lon="0.3662700">
        <time>2021-05-08T05:08:19Z</time>
      </trkpt>
      <trkpt lat="41.3415700" lon="0.3664100">
        <time>2021-05-08T05:08:19Z</time>
      </trkpt>
      <trkpt lat="41.3414900" lon="0.3666500">
        <time>2021-05-08T05:08:19Z</time>
      </trkpt>
      <trkpt lat="41.3414200" lon="0.3669200">
        <time>2021-05-08T05:08:19Z</time>
      </trkpt>
      <trkpt lat="41.3414000" lon="0.3671600">
        <time>2021-05-08T05:08:19Z</time>
      </trkpt>
      <trkpt lat="41.3414200" lon="0.3672600">
        <time>2021-05-08T05:08:19Z</time>
      </trkpt>
      <trkpt lat="41.3415000" lon="0.3674100">
        <time>2021-05-08T05:08:19Z</time>
      </trkpt>
      <trkpt lat="41.3416000" lon="0.3675200">
        <time>2021-05-08T05:08:19Z</time>
      </trkpt>
      <trkpt lat="41.3417500" lon="0.3676100">
        <time>2021-05-08T05:08:19Z</time>
      </trkpt>
      <trkpt lat="41.3419000" lon="0.3676100">
        <time>2021-05-08T05:08:19Z</time>
      </trkpt>
      <trkpt lat="41.3420300" lon="0.3675900">
        <time>2021-05-08T05:08:19Z</time>
      </trkpt>
      <trkpt lat="41.3425400" lon="0.3673700">
        <time>2021-05-08T05:08:19Z</time>
      </trkpt>
      <trkpt lat="41.3427300" lon="0.3672600">
        <time>2021-05-08T05:08:19Z</time>
      </trkpt>
      <trkpt lat="41.3428900" lon="0.3671200">
        <time>2021-05-08T05:08:19Z</time>
      </trkpt>
      <trkpt lat="41.3429500" lon="0.3670500">
        <time>2021-05-08T05:08:19Z</time>
      </trkpt>
      <trkpt lat="41.3430500" lon="0.3669400">
        <time>2021-05-08T05:08:19Z</time>
      </trkpt>
      <trkpt lat="41.3431500" lon="0.3668700">
        <time>2021-05-08T05:08:19Z</time>
      </trkpt>
      <trkpt lat="41.3432500" lon="0.3668500">
        <time>2021-05-08T05:08:19Z</time>
      </trkpt>
      <trkpt lat="41.3433700" lon="0.3668800">
        <time>2021-05-08T05:08:19Z</time>
      </trkpt>
      <trkpt lat="41.3434800" lon="0.3669600">
        <time>2021-05-08T05:08:19Z</time>
      </trkpt>
      <trkpt lat="41.3437500" lon="0.3672400">
        <time>2021-05-08T05:08:19Z</time>
      </trkpt>
      <trkpt lat="41.3437700" lon="0.3673300">
        <time>2021-05-08T05:08:19Z</time>
      </trkpt>
      <trkpt lat="41.3439700" lon="0.3681000">
        <time>2021-05-08T05:08:19Z</time>
      </trkpt>
      <trkpt lat="41.3441500" lon="0.3683800">
        <time>2021-05-08T05:08:19Z</time>
      </trkpt>
      <trkpt lat="41.3442700" lon="0.3684900">
        <time>2021-05-08T05:08:19Z</time>
      </trkpt>
      <trkpt lat="41.3446600" lon="0.3687400">
        <time>2021-05-08T05:08:19Z</time>
      </trkpt>
      <trkpt lat="41.3447600" lon="0.3687800">
        <time>2021-05-08T05:08:19Z</time>
      </trkpt>
      <trkpt lat="41.3451700" lon="0.3689900">
        <time>2021-05-08T05:08:19Z</time>
      </trkpt>
      <trkpt lat="41.3452900" lon="0.3690700">
        <time>2021-05-08T05:08:19Z</time>
      </trkpt>
      <trkpt lat="41.3456100" lon="0.3693900">
        <time>2021-05-08T05:08:19Z</time>
      </trkpt>
      <trkpt lat="41.3457500" lon="0.3695600">
        <time>2021-05-08T05:08:19Z</time>
      </trkpt>
      <trkpt lat="41.3459100" lon="0.3698100">
        <time>2021-05-08T05:08:19Z</time>
      </trkpt>
      <trkpt lat="41.3459900" lon="0.3701300">
        <time>2021-05-08T05:08:19Z</time>
      </trkpt>
      <trkpt lat="41.3461000" lon="0.3702800">
        <time>2021-05-08T05:08:19Z</time>
      </trkpt>
      <trkpt lat="41.3462600" lon="0.3704300">
        <time>2021-05-08T05:08:19Z</time>
      </trkpt>
      <trkpt lat="41.3464100" lon="0.3705100">
        <time>2021-05-08T05:08:19Z</time>
      </trkpt>
      <trkpt lat="41.3465400" lon="0.3706700">
        <time>2021-05-08T05:08:19Z</time>
      </trkpt>
      <trkpt lat="41.3466000" lon="0.3707900">
        <time>2021-05-08T05:08:19Z</time>
      </trkpt>
      <trkpt lat="41.3466500" lon="0.3709800">
        <time>2021-05-08T05:08:19Z</time>
      </trkpt>
      <trkpt lat="41.3466600" lon="0.3711500">
        <time>2021-05-08T05:08:19Z</time>
      </trkpt>
      <trkpt lat="41.3466300" lon="0.3713200">
        <time>2021-05-08T05:08:19Z</time>
      </trkpt>
      <trkpt lat="41.3465700" lon="0.3715100">
        <time>2021-05-08T05:08:19Z</time>
      </trkpt>
      <trkpt lat="41.3465800" lon="0.3716900">
        <time>2021-05-08T05:08:19Z</time>
      </trkpt>
      <trkpt lat="41.3466100" lon="0.3717400">
        <time>2021-05-08T05:08:19Z</time>
      </trkpt>
      <trkpt lat="41.3466800" lon="0.3717800">
        <time>2021-05-08T05:08:19Z</time>
      </trkpt>
      <trkpt lat="41.3469000" lon="0.3718100">
        <time>2021-05-08T05:08:19Z</time>
      </trkpt>
      <trkpt lat="41.3469900" lon="0.3718500">
        <time>2021-05-08T05:08:19Z</time>
      </trkpt>
      <trkpt lat="41.3471400" lon="0.3719900">
        <time>2021-05-08T05:08:19Z</time>
      </trkpt>
      <trkpt lat="41.3472400" lon="0.3721500">
        <time>2021-05-08T05:08:19Z</time>
      </trkpt>
      <trkpt lat="41.3473600" lon="0.3723600">
        <time>2021-05-08T05:08:19Z</time>
      </trkpt>
      <trkpt lat="41.3476400" lon="0.3726800">
        <time>2021-05-08T05:08:19Z</time>
      </trkpt>
      <trkpt lat="41.3477300" lon="0.3727200">
        <time>2021-05-08T05:08:19Z</time>
      </trkpt>
      <trkpt lat="41.3478900" lon="0.3727600">
        <time>2021-05-08T05:08:19Z</time>
      </trkpt>
      <trkpt lat="41.3480100" lon="0.3727700">
        <time>2021-05-08T05:08:19Z</time>
      </trkpt>
      <trkpt lat="41.3480900" lon="0.3727500">
        <time>2021-05-08T05:08:19Z</time>
      </trkpt>
      <trkpt lat="41.3482000" lon="0.3727000">
        <time>2021-05-08T05:08:19Z</time>
      </trkpt>
      <trkpt lat="41.3482900" lon="0.3726200">
        <time>2021-05-08T05:08:19Z</time>
      </trkpt>
      <trkpt lat="41.3483800" lon="0.3724300">
        <time>2021-05-08T05:08:19Z</time>
      </trkpt>
      <trkpt lat="41.3484500" lon="0.3722500">
        <time>2021-05-08T05:08:19Z</time>
      </trkpt>
      <trkpt lat="41.3485400" lon="0.3721600">
        <time>2021-05-08T05:08:19Z</time>
      </trkpt>
      <trkpt lat="41.3487500" lon="0.3720900">
        <time>2021-05-08T05:08:19Z</time>
      </trkpt>
      <trkpt lat="41.3491200" lon="0.3721600">
        <time>2021-05-08T05:08:19Z</time>
      </trkpt>
      <trkpt lat="41.3493700" lon="0.3722600">
        <time>2021-05-08T05:08:19Z</time>
      </trkpt>
      <trkpt lat="41.3495700" lon="0.3724100">
        <time>2021-05-08T05:08:19Z</time>
      </trkpt>
      <trkpt lat="41.3496300" lon="0.3725000">
        <time>2021-05-08T05:08:19Z</time>
      </trkpt>
      <trkpt lat="41.3496700" lon="0.3726300">
        <time>2021-05-08T05:08:19Z</time>
      </trkpt>
      <trkpt lat="41.3498000" lon="0.3728900">
        <time>2021-05-08T05:08:19Z</time>
      </trkpt>
      <trkpt lat="41.3499200" lon="0.3731700">
        <time>2021-05-08T05:08:19Z</time>
      </trkpt>
      <trkpt lat="41.3499200" lon="0.3733400">
        <time>2021-05-08T05:08:19Z</time>
      </trkpt>
      <trkpt lat="41.3498900" lon="0.3735800">
        <time>2021-05-08T05:08:19Z</time>
      </trkpt>
      <trkpt lat="41.3498800" lon="0.3737500">
        <time>2021-05-08T05:08:19Z</time>
      </trkpt>
      <trkpt lat="41.3498400" lon="0.3738400">
        <time>2021-05-08T05:08:19Z</time>
      </trkpt>
      <trkpt lat="41.3497700" lon="0.3739100">
        <time>2021-05-08T05:08:19Z</time>
      </trkpt>
      <trkpt lat="41.3494300" lon="0.3739700">
        <time>2021-05-08T05:08:19Z</time>
      </trkpt>
      <trkpt lat="41.3492500" lon="0.3740200">
        <time>2021-05-08T05:08:19Z</time>
      </trkpt>
      <trkpt lat="41.3491400" lon="0.3740700">
        <time>2021-05-08T05:08:19Z</time>
      </trkpt>
      <trkpt lat="41.3490700" lon="0.3741700">
        <time>2021-05-08T05:08:19Z</time>
      </trkpt>
      <trkpt lat="41.3490400" lon="0.3742400">
        <time>2021-05-08T05:08:19Z</time>
      </trkpt>
      <trkpt lat="41.3490300" lon="0.3744300">
        <time>2021-05-08T05:08:19Z</time>
      </trkpt>
      <trkpt lat="41.3491900" lon="0.3746800">
        <time>2021-05-08T05:08:19Z</time>
      </trkpt>
      <trkpt lat="41.3493300" lon="0.3748100">
        <time>2021-05-08T05:08:19Z</time>
      </trkpt>
      <trkpt lat="41.3494300" lon="0.3748800">
        <time>2021-05-08T05:08:19Z</time>
      </trkpt>
      <trkpt lat="41.3495100" lon="0.3748900">
        <time>2021-05-08T05:08:19Z</time>
      </trkpt>
      <trkpt lat="41.3496900" lon="0.3749000">
        <time>2021-05-08T05:08:19Z</time>
      </trkpt>
      <trkpt lat="41.3498900" lon="0.3749300">
        <time>2021-05-08T05:08:19Z</time>
      </trkpt>
      <trkpt lat="41.3499900" lon="0.3749900">
        <time>2021-05-08T05:08:19Z</time>
      </trkpt>
      <trkpt lat="41.3501400" lon="0.3752000">
        <time>2021-05-08T05:08:19Z</time>
      </trkpt>
      <trkpt lat="41.3501700" lon="0.3753000">
        <time>2021-05-08T05:08:19Z</time>
      </trkpt>
      <trkpt lat="41.3501900" lon="0.3754500">
        <time>2021-05-08T05:08:19Z</time>
      </trkpt>
      <trkpt lat="41.3501900" lon="0.3757300">
        <time>2021-05-08T05:08:19Z</time>
      </trkpt>
      <trkpt lat="41.3502200" lon="0.3759700">
        <time>2021-05-08T05:08:19Z</time>
      </trkpt>
      <trkpt lat="41.3503700" lon="0.3762800">
        <time>2021-05-08T05:08:19Z</time>
      </trkpt>
      <trkpt lat="41.3506000" lon="0.3765600">
        <time>2021-05-08T05:08:19Z</time>
      </trkpt>
      <trkpt lat="41.3508600" lon="0.3768100">
        <time>2021-05-08T05:08:19Z</time>
      </trkpt>
      <trkpt lat="41.3509000" lon="0.3769300">
        <time>2021-05-08T05:08:19Z</time>
      </trkpt>
      <trkpt lat="41.3509300" lon="0.3770200">
        <time>2021-05-08T05:08:19Z</time>
      </trkpt>
      <trkpt lat="41.3509300" lon="0.3771700">
        <time>2021-05-08T05:08:19Z</time>
      </trkpt>
      <trkpt lat="41.3509100" lon="0.3774200">
        <time>2021-05-08T05:08:19Z</time>
      </trkpt>
      <trkpt lat="41.3508100" lon="0.3779100">
        <time>2021-05-08T05:08:19Z</time>
      </trkpt>
      <trkpt lat="41.3508200" lon="0.3780400">
        <time>2021-05-08T05:08:19Z</time>
      </trkpt>
      <trkpt lat="41.3508700" lon="0.3787900">
        <time>2021-05-08T05:08:19Z</time>
      </trkpt>
      <trkpt lat="41.3509200" lon="0.3792600">
        <time>2021-05-08T05:08:19Z</time>
      </trkpt>
      <trkpt lat="41.3509200" lon="0.3794800">
        <time>2021-05-08T05:08:19Z</time>
      </trkpt>
      <trkpt lat="41.3508700" lon="0.3797800">
        <time>2021-05-08T05:08:19Z</time>
      </trkpt>
      <trkpt lat="41.3508300" lon="0.3799000">
        <time>2021-05-08T05:08:19Z</time>
      </trkpt>
      <trkpt lat="41.3507500" lon="0.3800300">
        <time>2021-05-08T05:08:19Z</time>
      </trkpt>
      <trkpt lat="41.3506800" lon="0.3802000">
        <time>2021-05-08T05:08:19Z</time>
      </trkpt>
      <trkpt lat="41.3506600" lon="0.3803300">
        <time>2021-05-08T05:08:19Z</time>
      </trkpt>
      <trkpt lat="41.3506800" lon="0.3804700">
        <time>2021-05-08T05:08:19Z</time>
      </trkpt>
      <trkpt lat="41.3507100" lon="0.3806300">
        <time>2021-05-08T05:08:19Z</time>
      </trkpt>
      <trkpt lat="41.3508300" lon="0.3808500">
        <time>2021-05-08T05:08:19Z</time>
      </trkpt>
      <trkpt lat="41.3509200" lon="0.3809900">
        <time>2021-05-08T05:08:19Z</time>
      </trkpt>
      <trkpt lat="41.3514900" lon="0.3816700">
        <time>2021-05-08T05:08:19Z</time>
      </trkpt>
      <trkpt lat="41.3518300" lon="0.3820400">
        <time>2021-05-08T05:08:19Z</time>
      </trkpt>
      <trkpt lat="41.3521000" lon="0.3821800">
        <time>2021-05-08T05:08:19Z</time>
      </trkpt>
      <trkpt lat="41.3522700" lon="0.3822100">
        <time>2021-05-08T05:08:19Z</time>
      </trkpt>
      <trkpt lat="41.3524600" lon="0.3822500">
        <time>2021-05-08T05:08:19Z</time>
      </trkpt>
      <trkpt lat="41.3525400" lon="0.3822000">
        <time>2021-05-08T05:08:19Z</time>
      </trkpt>
      <trkpt lat="41.3527600" lon="0.3824800">
        <time>2021-05-08T05:08:19Z</time>
      </trkpt>
      <trkpt lat="41.3529100" lon="0.3827600">
        <time>2021-05-08T05:08:19Z</time>
      </trkpt>
      <trkpt lat="41.3529800" lon="0.3829400">
        <time>2021-05-08T05:08:19Z</time>
      </trkpt>
      <trkpt lat="41.3530000" lon="0.3831000">
        <time>2021-05-08T05:08:19Z</time>
      </trkpt>
      <trkpt lat="41.3530300" lon="0.3833200">
        <time>2021-05-08T05:08:19Z</time>
      </trkpt>
      <trkpt lat="41.3530500" lon="0.3834900">
        <time>2021-05-08T05:08:19Z</time>
      </trkpt>
      <trkpt lat="41.3530900" lon="0.3837600">
        <time>2021-05-08T05:08:19Z</time>
      </trkpt>
      <trkpt lat="41.3531700" lon="0.3843100">
        <time>2021-05-08T05:08:19Z</time>
      </trkpt>
      <trkpt lat="41.3531900" lon="0.3848200">
        <time>2021-05-08T05:08:19Z</time>
      </trkpt>
      <trkpt lat="41.3531700" lon="0.3850000">
        <time>2021-05-08T05:08:19Z</time>
      </trkpt>
      <trkpt lat="41.3531400" lon="0.3851500">
        <time>2021-05-08T05:08:19Z</time>
      </trkpt>
      <trkpt lat="41.3530300" lon="0.3855200">
        <time>2021-05-08T05:08:19Z</time>
      </trkpt>
      <trkpt lat="41.3528800" lon="0.3858300">
        <time>2021-05-08T05:08:19Z</time>
      </trkpt>
      <trkpt lat="41.3526100" lon="0.3862000">
        <time>2021-05-08T05:08:19Z</time>
      </trkpt>
      <trkpt lat="41.3523200" lon="0.3866600">
        <time>2021-05-08T05:08:19Z</time>
      </trkpt>
      <trkpt lat="41.3522500" lon="0.3869200">
        <time>2021-05-08T05:08:19Z</time>
      </trkpt>
      <trkpt lat="41.3522400" lon="0.3871700">
        <time>2021-05-08T05:08:19Z</time>
      </trkpt>
      <trkpt lat="41.3522800" lon="0.3873400">
        <time>2021-05-08T05:08:19Z</time>
      </trkpt>
      <trkpt lat="41.3523400" lon="0.3875400">
        <time>2021-05-08T05:08:19Z</time>
      </trkpt>
      <trkpt lat="41.3524500" lon="0.3877500">
        <time>2021-05-08T05:08:19Z</time>
      </trkpt>
      <trkpt lat="41.3529700" lon="0.3883100">
        <time>2021-05-08T05:08:19Z</time>
      </trkpt>
      <trkpt lat="41.3531000" lon="0.3884000">
        <time>2021-05-08T05:08:19Z</time>
      </trkpt>
      <trkpt lat="41.3534300" lon="0.3885400">
        <time>2021-05-08T05:08:19Z</time>
      </trkpt>
      <trkpt lat="41.3537000" lon="0.3886500">
        <time>2021-05-08T05:08:19Z</time>
      </trkpt>
      <trkpt lat="41.3541000" lon="0.3887900">
        <time>2021-05-08T05:08:19Z</time>
      </trkpt>
      <trkpt lat="41.3543400" lon="0.3888500">
        <time>2021-05-08T05:08:19Z</time>
      </trkpt>
      <trkpt lat="41.3546600" lon="0.3889600">
        <time>2021-05-08T05:08:19Z</time>
      </trkpt>
      <trkpt lat="41.3547600" lon="0.3890500">
        <time>2021-05-08T05:08:19Z</time>
      </trkpt>
      <trkpt lat="41.3548400" lon="0.3891700">
        <time>2021-05-08T05:08:19Z</time>
      </trkpt>
      <trkpt lat="41.3548700" lon="0.3892900">
        <time>2021-05-08T05:08:19Z</time>
      </trkpt>
      <trkpt lat="41.3548700" lon="0.3894100">
        <time>2021-05-08T05:08:19Z</time>
      </trkpt>
      <trkpt lat="41.3548300" lon="0.3895200">
        <time>2021-05-08T05:08:19Z</time>
      </trkpt>
      <trkpt lat="41.3547700" lon="0.3897100">
        <time>2021-05-08T05:08:19Z</time>
      </trkpt>
      <trkpt lat="41.3546400" lon="0.3899100">
        <time>2021-05-08T05:08:19Z</time>
      </trkpt>
      <trkpt lat="41.3544800" lon="0.3901200">
        <time>2021-05-08T05:08:19Z</time>
      </trkpt>
      <trkpt lat="41.3543500" lon="0.3902900">
        <time>2021-05-08T05:08:19Z</time>
      </trkpt>
      <trkpt lat="41.3541600" lon="0.3905400">
        <time>2021-05-08T05:08:19Z</time>
      </trkpt>
      <trkpt lat="41.3539500" lon="0.3908500">
        <time>2021-05-08T05:08:19Z</time>
      </trkpt>
      <trkpt lat="41.3538800" lon="0.3909700">
        <time>2021-05-08T05:08:19Z</time>
      </trkpt>
      <trkpt lat="41.3537800" lon="0.3911900">
        <time>2021-05-08T05:08:19Z</time>
      </trkpt>
      <trkpt lat="41.3536600" lon="0.3915900">
        <time>2021-05-08T05:08:19Z</time>
      </trkpt>
      <trkpt lat="41.3535300" lon="0.3919200">
        <time>2021-05-08T05:08:19Z</time>
      </trkpt>
      <trkpt lat="41.3533400" lon="0.3922100">
        <time>2021-05-08T05:08:19Z</time>
      </trkpt>
      <trkpt lat="41.3530800" lon="0.3924700">
        <time>2021-05-08T05:08:19Z</time>
      </trkpt>
      <trkpt lat="41.3525600" lon="0.3928800">
        <time>2021-05-08T05:08:19Z</time>
      </trkpt>
      <trkpt lat="41.3523900" lon="0.3930300">
        <time>2021-05-08T05:08:19Z</time>
      </trkpt>
      <trkpt lat="41.3521700" lon="0.3932800">
        <time>2021-05-08T05:08:19Z</time>
      </trkpt>
      <trkpt lat="41.3520400" lon="0.3935100">
        <time>2021-05-08T05:08:19Z</time>
      </trkpt>
      <trkpt lat="41.3519500" lon="0.3937500">
        <time>2021-05-08T05:08:19Z</time>
      </trkpt>
      <trkpt lat="41.3519300" lon="0.3938900">
        <time>2021-05-08T05:08:19Z</time>
      </trkpt>
      <trkpt lat="41.3519200" lon="0.3941100">
        <time>2021-05-08T05:08:19Z</time>
      </trkpt>
      <trkpt lat="41.3519400" lon="0.3943200">
        <time>2021-05-08T05:08:19Z</time>
      </trkpt>
      <trkpt lat="41.3519500" lon="0.3945100">
        <time>2021-05-08T05:08:19Z</time>
      </trkpt>
      <trkpt lat="41.3520000" lon="0.3947900">
        <time>2021-05-08T05:08:19Z</time>
      </trkpt>
      <trkpt lat="41.3521000" lon="0.3949400">
        <time>2021-05-08T05:08:19Z</time>
      </trkpt>
      <trkpt lat="41.3521500" lon="0.3949800">
        <time>2021-05-08T05:08:19Z</time>
      </trkpt>
      <trkpt lat="41.3523000" lon="0.3949900">
        <time>2021-05-08T05:08:19Z</time>
      </trkpt>
      <trkpt lat="41.3526700" lon="0.3949200">
        <time>2021-05-08T05:08:19Z</time>
      </trkpt>
      <trkpt lat="41.3527900" lon="0.3949000">
        <time>2021-05-08T05:08:19Z</time>
      </trkpt>
      <trkpt lat="41.3529600" lon="0.3948500">
        <time>2021-05-08T05:08:19Z</time>
      </trkpt>
      <trkpt lat="41.3531400" lon="0.3948000">
        <time>2021-05-08T05:08:19Z</time>
      </trkpt>
      <trkpt lat="41.3532300" lon="0.3947800">
        <time>2021-05-08T05:08:19Z</time>
      </trkpt>
      <trkpt lat="41.3533300" lon="0.3947500">
        <time>2021-05-08T05:08:19Z</time>
      </trkpt>
      <trkpt lat="41.3534400" lon="0.3947400">
        <time>2021-05-08T05:08:19Z</time>
      </trkpt>
      <trkpt lat="41.3535500" lon="0.3947400">
        <time>2021-05-08T05:08:19Z</time>
      </trkpt>
      <trkpt lat="41.3536300" lon="0.3948000">
        <time>2021-05-08T05:08:19Z</time>
      </trkpt>
      <trkpt lat="41.3536900" lon="0.3948700">
        <time>2021-05-08T05:08:19Z</time>
      </trkpt>
      <trkpt lat="41.3537100" lon="0.3950000">
        <time>2021-05-08T05:08:19Z</time>
      </trkpt>
      <trkpt lat="41.3536700" lon="0.3952100">
        <time>2021-05-08T05:08:19Z</time>
      </trkpt>
      <trkpt lat="41.3536100" lon="0.3953000">
        <time>2021-05-08T05:08:19Z</time>
      </trkpt>
      <trkpt lat="41.3535200" lon="0.3953400">
        <time>2021-05-08T05:08:19Z</time>
      </trkpt>
      <trkpt lat="41.3533700" lon="0.3953200">
        <time>2021-05-08T05:08:19Z</time>
      </trkpt>
      <trkpt lat="41.3531500" lon="0.3952500">
        <time>2021-05-08T05:08:19Z</time>
      </trkpt>
      <trkpt lat="41.3529600" lon="0.3952200">
        <time>2021-05-08T05:08:19Z</time>
      </trkpt>
      <trkpt lat="41.3528500" lon="0.3952200">
        <time>2021-05-08T05:08:19Z</time>
      </trkpt>
      <trkpt lat="41.3527200" lon="0.3952800">
        <time>2021-05-08T05:08:19Z</time>
      </trkpt>
      <trkpt lat="41.3526200" lon="0.3953800">
        <time>2021-05-08T05:08:19Z</time>
      </trkpt>
      <trkpt lat="41.3525600" lon="0.3954800">
        <time>2021-05-08T05:08:19Z</time>
      </trkpt>
      <trkpt lat="41.3524200" lon="0.3956900">
        <time>2021-05-08T05:08:19Z</time>
      </trkpt>
      <trkpt lat="41.3523400" lon="0.3958000">
        <time>2021-05-08T05:08:19Z</time>
      </trkpt>
      <trkpt lat="41.3523000" lon="0.3958800">
        <time>2021-05-08T05:08:19Z</time>
      </trkpt>
      <trkpt lat="41.3522800" lon="0.3960500">
        <time>2021-05-08T05:08:19Z</time>
      </trkpt>
      <trkpt lat="41.3522600" lon="0.3961800">
        <time>2021-05-08T05:08:19Z</time>
      </trkpt>
      <trkpt lat="41.3522400" lon="0.3963100">
        <time>2021-05-08T05:08:19Z</time>
      </trkpt>
      <trkpt lat="41.3522200" lon="0.3964400">
        <time>2021-05-08T05:08:19Z</time>
      </trkpt>
      <trkpt lat="41.3521900" lon="0.3967000">
        <time>2021-05-08T05:08:19Z</time>
      </trkpt>
      <trkpt lat="41.3521700" lon="0.3968300">
        <time>2021-05-08T05:08:19Z</time>
      </trkpt>
      <trkpt lat="41.3521600" lon="0.3969400">
        <time>2021-05-08T05:08:19Z</time>
      </trkpt>
      <trkpt lat="41.3521300" lon="0.3970500">
        <time>2021-05-08T05:08:19Z</time>
      </trkpt>
      <trkpt lat="41.3520800" lon="0.3971700">
        <time>2021-05-08T05:08:19Z</time>
      </trkpt>
      <trkpt lat="41.3520100" lon="0.3973200">
        <time>2021-05-08T05:08:19Z</time>
      </trkpt>
      <trkpt lat="41.3519500" lon="0.3974800">
        <time>2021-05-08T05:08:19Z</time>
      </trkpt>
      <trkpt lat="41.3519100" lon="0.3975900">
        <time>2021-05-08T05:08:19Z</time>
      </trkpt>
      <trkpt lat="41.3518800" lon="0.3977600">
        <time>2021-05-08T05:08:19Z</time>
      </trkpt>
      <trkpt lat="41.3518700" lon="0.3979700">
        <time>2021-05-08T05:08:19Z</time>
      </trkpt>
      <trkpt lat="41.3518900" lon="0.3980700">
        <time>2021-05-08T05:08:19Z</time>
      </trkpt>
      <trkpt lat="41.3519600" lon="0.3982100">
        <time>2021-05-08T05:08:19Z</time>
      </trkpt>
      <trkpt lat="41.3520300" lon="0.3983000">
        <time>2021-05-08T05:08:19Z</time>
      </trkpt>
      <trkpt lat="41.3521200" lon="0.3983800">
        <time>2021-05-08T05:08:19Z</time>
      </trkpt>
      <trkpt lat="41.3522000" lon="0.3984700">
        <time>2021-05-08T05:08:19Z</time>
      </trkpt>
      <trkpt lat="41.3522800" lon="0.3985200">
        <time>2021-05-08T05:08:19Z</time>
      </trkpt>
      <trkpt lat="41.3524100" lon="0.3985700">
        <time>2021-05-08T05:08:19Z</time>
      </trkpt>
      <trkpt lat="41.3525700" lon="0.3986000">
        <time>2021-05-08T05:08:19Z</time>
      </trkpt>
      <trkpt lat="41.3526800" lon="0.3986200">
        <time>2021-05-08T05:08:19Z</time>
      </trkpt>
      <trkpt lat="41.3528500" lon="0.3986500">
        <time>2021-05-08T05:08:19Z</time>
      </trkpt>
      <trkpt lat="41.3529500" lon="0.3986900">
        <time>2021-05-08T05:08:19Z</time>
      </trkpt>
      <trkpt lat="41.3531000" lon="0.3987700">
        <time>2021-05-08T05:08:19Z</time>
      </trkpt>
      <trkpt lat="41.3532100" lon="0.3988200">
        <time>2021-05-08T05:08:19Z</time>
      </trkpt>
      <trkpt lat="41.3533600" lon="0.3988600">
        <time>2021-05-08T05:08:19Z</time>
      </trkpt>
      <trkpt lat="41.3534800" lon="0.3988400">
        <time>2021-05-08T05:08:19Z</time>
      </trkpt>
      <trkpt lat="41.3535900" lon="0.3988700">
        <time>2021-05-08T05:08:19Z</time>
      </trkpt>
      <trkpt lat="41.3536700" lon="0.3989100">
        <time>2021-05-08T05:08:19Z</time>
      </trkpt>
      <trkpt lat="41.3537600" lon="0.3989900">
        <time>2021-05-08T05:08:19Z</time>
      </trkpt>
      <trkpt lat="41.3538400" lon="0.3991100">
        <time>2021-05-08T05:08:19Z</time>
      </trkpt>
      <trkpt lat="41.3538900" lon="0.3992400">
        <time>2021-05-08T05:08:19Z</time>
      </trkpt>
      <trkpt lat="41.3539500" lon="0.3994000">
        <time>2021-05-08T05:08:19Z</time>
      </trkpt>
      <trkpt lat="41.3539700" lon="0.3995200">
        <time>2021-05-08T05:08:19Z</time>
      </trkpt>
      <trkpt lat="41.3539500" lon="0.3996300">
        <time>2021-05-08T05:08:19Z</time>
      </trkpt>
      <trkpt lat="41.3539200" lon="0.3997200">
        <time>2021-05-08T05:08:19Z</time>
      </trkpt>
      <trkpt lat="41.3539200" lon="0.3998000">
        <time>2021-05-08T05:08:19Z</time>
      </trkpt>
      <trkpt lat="41.3539600" lon="0.3999100">
        <time>2021-05-08T05:08:19Z</time>
      </trkpt>
      <trkpt lat="41.3540300" lon="0.4000000">
        <time>2021-05-08T05:08:19Z</time>
      </trkpt>
      <trkpt lat="41.3541300" lon="0.4002100">
        <time>2021-05-08T05:08:19Z</time>
      </trkpt>
      <trkpt lat="41.3541900" lon="0.4003400">
        <time>2021-05-08T05:08:19Z</time>
      </trkpt>
      <trkpt lat="41.3542700" lon="0.4004600">
        <time>2021-05-08T05:08:19Z</time>
      </trkpt>
      <trkpt lat="41.3543400" lon="0.4005800">
        <time>2021-05-08T05:08:19Z</time>
      </trkpt>
      <trkpt lat="41.3543900" lon="0.4007000">
        <time>2021-05-08T05:08:19Z</time>
      </trkpt>
      <trkpt lat="41.3544500" lon="0.4008800">
        <time>2021-05-08T05:08:19Z</time>
      </trkpt>
      <trkpt lat="41.3545200" lon="0.4010200">
        <time>2021-05-08T05:08:19Z</time>
      </trkpt>
      <trkpt lat="41.3546000" lon="0.4011400">
        <time>2021-05-08T05:08:19Z</time>
      </trkpt>
      <trkpt lat="41.3547000" lon="0.4012500">
        <time>2021-05-08T05:08:19Z</time>
      </trkpt>
      <trkpt lat="41.3548100" lon="0.4013100">
        <time>2021-05-08T05:08:19Z</time>
      </trkpt>
      <trkpt lat="41.3549100" lon="0.4013800">
        <time>2021-05-08T05:08:19Z</time>
      </trkpt>
      <trkpt lat="41.3550200" lon="0.4015100">
        <time>2021-05-08T05:08:19Z</time>
      </trkpt>
      <trkpt lat="41.3550900" lon="0.4016300">
        <time>2021-05-08T05:08:19Z</time>
      </trkpt>
      <trkpt lat="41.3551700" lon="0.4017300">
        <time>2021-05-08T05:08:19Z</time>
      </trkpt>
      <trkpt lat="41.3553300" lon="0.4018600">
        <time>2021-05-08T05:08:19Z</time>
      </trkpt>
      <trkpt lat="41.3554400" lon="0.4019100">
        <time>2021-05-08T05:08:19Z</time>
      </trkpt>
      <trkpt lat="41.3555400" lon="0.4019800">
        <time>2021-05-08T05:08:19Z</time>
      </trkpt>
      <trkpt lat="41.3557100" lon="0.4021100">
        <time>2021-05-08T05:08:19Z</time>
      </trkpt>
      <trkpt lat="41.3557700" lon="0.4022100">
        <time>2021-05-08T05:08:19Z</time>
      </trkpt>
      <trkpt lat="41.3557700" lon="0.4024000">
        <time>2021-05-08T05:08:19Z</time>
      </trkpt>
      <trkpt lat="41.3557500" lon="0.4024900">
        <time>2021-05-08T05:08:19Z</time>
      </trkpt>
      <trkpt lat="41.3556900" lon="0.4026200">
        <time>2021-05-08T05:08:19Z</time>
      </trkpt>
      <trkpt lat="41.3556200" lon="0.4027300">
        <time>2021-05-08T05:08:19Z</time>
      </trkpt>
      <trkpt lat="41.3554500" lon="0.4028900">
        <time>2021-05-08T05:08:19Z</time>
      </trkpt>
      <trkpt lat="41.3553000" lon="0.4030700">
        <time>2021-05-08T05:08:19Z</time>
      </trkpt>
      <trkpt lat="41.3552200" lon="0.4031600">
        <time>2021-05-08T05:08:19Z</time>
      </trkpt>
      <trkpt lat="41.3551900" lon="0.4032200">
        <time>2021-05-08T05:08:19Z</time>
      </trkpt>
      <trkpt lat="41.3551100" lon="0.4033700">
        <time>2021-05-08T05:08:19Z</time>
      </trkpt>
      <trkpt lat="41.3550600" lon="0.4034700">
        <time>2021-05-08T05:08:19Z</time>
      </trkpt>
      <trkpt lat="41.3550100" lon="0.4035500">
        <time>2021-05-08T05:08:19Z</time>
      </trkpt>
      <trkpt lat="41.3548900" lon="0.4036900">
        <time>2021-05-08T05:08:19Z</time>
      </trkpt>
      <trkpt lat="41.3548100" lon="0.4038200">
        <time>2021-05-08T05:08:19Z</time>
      </trkpt>
      <trkpt lat="41.3547500" lon="0.4039900">
        <time>2021-05-08T05:08:19Z</time>
      </trkpt>
      <trkpt lat="41.3547200" lon="0.4041000">
        <time>2021-05-08T05:08:19Z</time>
      </trkpt>
      <trkpt lat="41.3546800" lon="0.4042200">
        <time>2021-05-08T05:08:19Z</time>
      </trkpt>
      <trkpt lat="41.3546600" lon="0.4043500">
        <time>2021-05-08T05:08:19Z</time>
      </trkpt>
      <trkpt lat="41.3546400" lon="0.4045000">
        <time>2021-05-08T05:08:19Z</time>
      </trkpt>
      <trkpt lat="41.3546500" lon="0.4046000">
        <time>2021-05-08T05:08:19Z</time>
      </trkpt>
      <trkpt lat="41.3546800" lon="0.4048100">
        <time>2021-05-08T05:08:19Z</time>
      </trkpt>
      <trkpt lat="41.3547100" lon="0.4049500">
        <time>2021-05-08T05:08:19Z</time>
      </trkpt>
      <trkpt lat="41.3547200" lon="0.4051100">
        <time>2021-05-08T05:08:19Z</time>
      </trkpt>
      <trkpt lat="41.3547400" lon="0.4052300">
        <time>2021-05-08T05:08:19Z</time>
      </trkpt>
      <trkpt lat="41.3547900" lon="0.4053100">
        <time>2021-05-08T05:08:19Z</time>
      </trkpt>
      <trkpt lat="41.3549400" lon="0.4053800">
        <time>2021-05-08T05:08:19Z</time>
      </trkpt>
      <trkpt lat="41.3550900" lon="0.4055000">
        <time>2021-05-08T05:08:19Z</time>
      </trkpt>
      <trkpt lat="41.3552600" lon="0.4057100">
        <time>2021-05-08T05:08:19Z</time>
      </trkpt>
      <trkpt lat="41.3554200" lon="0.4058800">
        <time>2021-05-08T05:08:19Z</time>
      </trkpt>
      <trkpt lat="41.3554600" lon="0.4059100">
        <time>2021-05-08T05:08:19Z</time>
      </trkpt>
      <trkpt lat="41.3556000" lon="0.4060100">
        <time>2021-05-08T05:08:19Z</time>
      </trkpt>
      <trkpt lat="41.3556900" lon="0.4060900">
        <time>2021-05-08T05:08:19Z</time>
      </trkpt>
      <trkpt lat="41.3557200" lon="0.4061200">
        <time>2021-05-08T05:08:19Z</time>
      </trkpt>
      <trkpt lat="41.3557000" lon="0.4061700">
        <time>2021-05-08T05:08:19Z</time>
      </trkpt>
      <trkpt lat="41.3555800" lon="0.4062800">
        <time>2021-05-08T05:08:19Z</time>
      </trkpt>
      <trkpt lat="41.3555200" lon="0.4064100">
        <time>2021-05-08T05:08:19Z</time>
      </trkpt>
      <trkpt lat="41.3554800" lon="0.4065700">
        <time>2021-05-08T05:08:19Z</time>
      </trkpt>
      <trkpt lat="41.3554500" lon="0.4067400">
        <time>2021-05-08T05:08:19Z</time>
      </trkpt>
      <trkpt lat="41.3554200" lon="0.4068300">
        <time>2021-05-08T05:08:19Z</time>
      </trkpt>
      <trkpt lat="41.3553600" lon="0.4068900">
        <time>2021-05-08T05:08:19Z</time>
      </trkpt>
      <trkpt lat="41.3552100" lon="0.4068800">
        <time>2021-05-08T05:08:19Z</time>
      </trkpt>
      <trkpt lat="41.3551300" lon="0.4068200">
        <time>2021-05-08T05:08:19Z</time>
      </trkpt>
      <trkpt lat="41.3551000" lon="0.4067000">
        <time>2021-05-08T05:08:19Z</time>
      </trkpt>
      <trkpt lat="41.3551000" lon="0.4066500">
        <time>2021-05-08T05:08:19Z</time>
      </trkpt>
      <trkpt lat="41.3551000" lon="0.4065600">
        <time>2021-05-08T05:08:19Z</time>
      </trkpt>
      <trkpt lat="41.3551000" lon="0.4063600">
        <time>2021-05-08T05:08:19Z</time>
      </trkpt>
      <trkpt lat="41.3550800" lon="0.4061900">
        <time>2021-05-08T05:08:19Z</time>
      </trkpt>
      <trkpt lat="41.3549800" lon="0.4060800">
        <time>2021-05-08T05:08:19Z</time>
      </trkpt>
      <trkpt lat="41.3548300" lon="0.4060000">
        <time>2021-05-08T05:08:19Z</time>
      </trkpt>
      <trkpt lat="41.3547100" lon="0.4059400">
        <time>2021-05-08T05:08:19Z</time>
      </trkpt>
      <trkpt lat="41.3546300" lon="0.4058700">
        <time>2021-05-08T05:08:19Z</time>
      </trkpt>
      <trkpt lat="41.3545700" lon="0.4058300">
        <time>2021-05-08T05:08:19Z</time>
      </trkpt>
      <trkpt lat="41.3544900" lon="0.4058500">
        <time>2021-05-08T05:08:19Z</time>
      </trkpt>
      <trkpt lat="41.3544200" lon="0.4058900">
        <time>2021-05-08T05:08:19Z</time>
      </trkpt>
      <trkpt lat="41.3543300" lon="0.4060000">
        <time>2021-05-08T05:08:19Z</time>
      </trkpt>
      <trkpt lat="41.3542900" lon="0.4060800">
        <time>2021-05-08T05:08:19Z</time>
      </trkpt>
      <trkpt lat="41.3542000" lon="0.4061800">
        <time>2021-05-08T05:08:19Z</time>
      </trkpt>
      <trkpt lat="41.3541400" lon="0.4062500">
        <time>2021-05-08T05:08:19Z</time>
      </trkpt>
      <trkpt lat="41.3540500" lon="0.4063200">
        <time>2021-05-08T05:08:19Z</time>
      </trkpt>
      <trkpt lat="41.3539600" lon="0.4063700">
        <time>2021-05-08T05:08:19Z</time>
      </trkpt>
      <trkpt lat="41.3538800" lon="0.4064300">
        <time>2021-05-08T05:08:19Z</time>
      </trkpt>
      <trkpt lat="41.3537500" lon="0.4065200">
        <time>2021-05-08T05:08:19Z</time>
      </trkpt>
      <trkpt lat="41.3536800" lon="0.4065700">
        <time>2021-05-08T05:08:19Z</time>
      </trkpt>
      <trkpt lat="41.3535500" lon="0.4066200">
        <time>2021-05-08T05:08:19Z</time>
      </trkpt>
      <trkpt lat="41.3533600" lon="0.4066000">
        <time>2021-05-08T05:08:19Z</time>
      </trkpt>
      <trkpt lat="41.3532300" lon="0.4065900">
        <time>2021-05-08T05:08:19Z</time>
      </trkpt>
      <trkpt lat="41.3530900" lon="0.4066300">
        <time>2021-05-08T05:08:19Z</time>
      </trkpt>
      <trkpt lat="41.3529500" lon="0.4066800">
        <time>2021-05-08T05:08:19Z</time>
      </trkpt>
      <trkpt lat="41.3528600" lon="0.4067400">
        <time>2021-05-08T05:08:19Z</time>
      </trkpt>
      <trkpt lat="41.3527000" lon="0.4068000">
        <time>2021-05-08T05:08:19Z</time>
      </trkpt>
      <trkpt lat="41.3526200" lon="0.4068600">
        <time>2021-05-08T05:08:19Z</time>
      </trkpt>
      <trkpt lat="41.3525200" lon="0.4069600">
        <time>2021-05-08T05:08:19Z</time>
      </trkpt>
      <trkpt lat="41.3523200" lon="0.4070600">
        <time>2021-05-08T05:08:19Z</time>
      </trkpt>
      <trkpt lat="41.3522000" lon="0.4071600">
        <time>2021-05-08T05:08:19Z</time>
      </trkpt>
      <trkpt lat="41.3521000" lon="0.4072700">
        <time>2021-05-08T05:08:19Z</time>
      </trkpt>
      <trkpt lat="41.3520100" lon="0.4073600">
        <time>2021-05-08T05:08:19Z</time>
      </trkpt>
      <trkpt lat="41.3519500" lon="0.4074200">
        <time>2021-05-08T05:08:19Z</time>
      </trkpt>
      <trkpt lat="41.3519200" lon="0.4074800">
        <time>2021-05-08T05:08:19Z</time>
      </trkpt>
      <trkpt lat="41.3518500" lon="0.4075700">
        <time>2021-05-08T05:08:19Z</time>
      </trkpt>
      <trkpt lat="41.3517700" lon="0.4077200">
        <time>2021-05-08T05:08:19Z</time>
      </trkpt>
      <trkpt lat="41.3516900" lon="0.4078500">
        <time>2021-05-08T05:08:19Z</time>
      </trkpt>
      <trkpt lat="41.3516200" lon="0.4079600">
        <time>2021-05-08T05:08:19Z</time>
      </trkpt>
      <trkpt lat="41.3515900" lon="0.4080400">
        <time>2021-05-08T05:08:19Z</time>
      </trkpt>
      <trkpt lat="41.3514900" lon="0.4082000">
        <time>2021-05-08T05:08:19Z</time>
      </trkpt>
      <trkpt lat="41.3514200" lon="0.4083500">
        <time>2021-05-08T05:08:19Z</time>
      </trkpt>
      <trkpt lat="41.3513400" lon="0.4084900">
        <time>2021-05-08T05:08:19Z</time>
      </trkpt>
      <trkpt lat="41.3512700" lon="0.4086100">
        <time>2021-05-08T05:08:19Z</time>
      </trkpt>
      <trkpt lat="41.3511700" lon="0.4086900">
        <time>2021-05-08T05:08:19Z</time>
      </trkpt>
      <trkpt lat="41.3509800" lon="0.4087600">
        <time>2021-05-08T05:08:19Z</time>
      </trkpt>
      <trkpt lat="41.3508700" lon="0.4088300">
        <time>2021-05-08T05:08:19Z</time>
      </trkpt>
      <trkpt lat="41.3507700" lon="0.4089400">
        <time>2021-05-08T05:08:19Z</time>
      </trkpt>
      <trkpt lat="41.3506700" lon="0.4090200">
        <time>2021-05-08T05:08:19Z</time>
      </trkpt>
      <trkpt lat="41.3505500" lon="0.4091100">
        <time>2021-05-08T05:08:19Z</time>
      </trkpt>
      <trkpt lat="41.3503900" lon="0.4092400">
        <time>2021-05-08T05:08:19Z</time>
      </trkpt>
      <trkpt lat="41.3502400" lon="0.4093200">
        <time>2021-05-08T05:08:19Z</time>
      </trkpt>
      <trkpt lat="41.3501100" lon="0.4093500">
        <time>2021-05-08T05:08:19Z</time>
      </trkpt>
      <trkpt lat="41.3500300" lon="0.4093600">
        <time>2021-05-08T05:08:19Z</time>
      </trkpt>
      <trkpt lat="41.3499700" lon="0.4094200">
        <time>2021-05-08T05:08:19Z</time>
      </trkpt>
      <trkpt lat="41.3499000" lon="0.4095800">
        <time>2021-05-08T05:08:19Z</time>
      </trkpt>
      <trkpt lat="41.3498000" lon="0.4097200">
        <time>2021-05-08T05:08:19Z</time>
      </trkpt>
      <trkpt lat="41.3496900" lon="0.4098800">
        <time>2021-05-08T05:08:19Z</time>
      </trkpt>
      <trkpt lat="41.3496100" lon="0.4100300">
        <time>2021-05-08T05:08:19Z</time>
      </trkpt>
      <trkpt lat="41.3495100" lon="0.4102100">
        <time>2021-05-08T05:08:19Z</time>
      </trkpt>
      <trkpt lat="41.3494300" lon="0.4103000">
        <time>2021-05-08T05:08:19Z</time>
      </trkpt>
      <trkpt lat="41.3493500" lon="0.4103500">
        <time>2021-05-08T05:08:19Z</time>
      </trkpt>
      <trkpt lat="41.3492000" lon="0.4103700">
        <time>2021-05-08T05:08:19Z</time>
      </trkpt>
      <trkpt lat="41.3490700" lon="0.4103700">
        <time>2021-05-08T05:08:19Z</time>
      </trkpt>
      <trkpt lat="41.3489500" lon="0.4103700">
        <time>2021-05-08T05:08:19Z</time>
      </trkpt>
      <trkpt lat="41.3488800" lon="0.4103800">
        <time>2021-05-08T05:08:19Z</time>
      </trkpt>
      <trkpt lat="41.3487800" lon="0.4104000">
        <time>2021-05-08T05:08:19Z</time>
      </trkpt>
      <trkpt lat="41.3486700" lon="0.4104800">
        <time>2021-05-08T05:08:19Z</time>
      </trkpt>
      <trkpt lat="41.3485900" lon="0.4105700">
        <time>2021-05-08T05:08:19Z</time>
      </trkpt>
      <trkpt lat="41.3485500" lon="0.4106300">
        <time>2021-05-08T05:08:19Z</time>
      </trkpt>
      <trkpt lat="41.3485200" lon="0.4107000">
        <time>2021-05-08T05:08:19Z</time>
      </trkpt>
      <trkpt lat="41.3484900" lon="0.4108200">
        <time>2021-05-08T05:08:19Z</time>
      </trkpt>
      <trkpt lat="41.3484500" lon="0.4110200">
        <time>2021-05-08T05:08:19Z</time>
      </trkpt>
      <trkpt lat="41.3483700" lon="0.4112000">
        <time>2021-05-08T05:08:19Z</time>
      </trkpt>
      <trkpt lat="41.3482800" lon="0.4113900">
        <time>2021-05-08T05:08:19Z</time>
      </trkpt>
      <trkpt lat="41.3481500" lon="0.4116000">
        <time>2021-05-08T05:08:19Z</time>
      </trkpt>
      <trkpt lat="41.3480700" lon="0.4117500">
        <time>2021-05-08T05:08:19Z</time>
      </trkpt>
      <trkpt lat="41.3480000" lon="0.4118500">
        <time>2021-05-08T05:08:19Z</time>
      </trkpt>
      <trkpt lat="41.3479000" lon="0.4119800">
        <time>2021-05-08T05:08:19Z</time>
      </trkpt>
      <trkpt lat="41.3478000" lon="0.4120700">
        <time>2021-05-08T05:08:19Z</time>
      </trkpt>
      <trkpt lat="41.3476600" lon="0.4121900">
        <time>2021-05-08T05:08:19Z</time>
      </trkpt>
      <trkpt lat="41.3475200" lon="0.4123400">
        <time>2021-05-08T05:08:19Z</time>
      </trkpt>
      <trkpt lat="41.3473900" lon="0.4124800">
        <time>2021-05-08T05:08:19Z</time>
      </trkpt>
      <trkpt lat="41.3472800" lon="0.4125200">
        <time>2021-05-08T05:08:19Z</time>
      </trkpt>
      <trkpt lat="41.3471800" lon="0.4124800">
        <time>2021-05-08T05:08:19Z</time>
      </trkpt>
      <trkpt lat="41.3471000" lon="0.4124200">
        <time>2021-05-08T05:08:19Z</time>
      </trkpt>
      <trkpt lat="41.3469800" lon="0.4122900">
        <time>2021-05-08T05:08:19Z</time>
      </trkpt>
      <trkpt lat="41.3468900" lon="0.4122100">
        <time>2021-05-08T05:08:19Z</time>
      </trkpt>
      <trkpt lat="41.3468200" lon="0.4121500">
        <time>2021-05-08T05:08:19Z</time>
      </trkpt>
      <trkpt lat="41.3467400" lon="0.4120800">
        <time>2021-05-08T05:08:19Z</time>
      </trkpt>
      <trkpt lat="41.3465200" lon="0.4119300">
        <time>2021-05-08T05:08:19Z</time>
      </trkpt>
      <trkpt lat="41.3464000" lon="0.4118300">
        <time>2021-05-08T05:08:19Z</time>
      </trkpt>
      <trkpt lat="41.3463300" lon="0.4117100">
        <time>2021-05-08T05:08:19Z</time>
      </trkpt>
      <trkpt lat="41.3463000" lon="0.4116200">
        <time>2021-05-08T05:08:19Z</time>
      </trkpt>
      <trkpt lat="41.3462600" lon="0.4113800">
        <time>2021-05-08T05:08:19Z</time>
      </trkpt>
      <trkpt lat="41.3462700" lon="0.4112100">
        <time>2021-05-08T05:08:19Z</time>
      </trkpt>
      <trkpt lat="41.3463100" lon="0.4109800">
        <time>2021-05-08T05:08:19Z</time>
      </trkpt>
      <trkpt lat="41.3463000" lon="0.4108400">
        <time>2021-05-08T05:08:19Z</time>
      </trkpt>
      <trkpt lat="41.3462600" lon="0.4106600">
        <time>2021-05-08T05:08:19Z</time>
      </trkpt>
      <trkpt lat="41.3461500" lon="0.4104800">
        <time>2021-05-08T05:08:19Z</time>
      </trkpt>
      <trkpt lat="41.3460100" lon="0.4103700">
        <time>2021-05-08T05:08:19Z</time>
      </trkpt>
      <trkpt lat="41.3458800" lon="0.4103100">
        <time>2021-05-08T05:08:19Z</time>
      </trkpt>
      <trkpt lat="41.3457600" lon="0.4103000">
        <time>2021-05-08T05:08:19Z</time>
      </trkpt>
      <trkpt lat="41.3456400" lon="0.4102600">
        <time>2021-05-08T05:08:19Z</time>
      </trkpt>
      <trkpt lat="41.3455400" lon="0.4102300">
        <time>2021-05-08T05:08:19Z</time>
      </trkpt>
      <trkpt lat="41.3454000" lon="0.4102200">
        <time>2021-05-08T05:08:19Z</time>
      </trkpt>
      <trkpt lat="41.3452900" lon="0.4102300">
        <time>2021-05-08T05:08:19Z</time>
      </trkpt>
      <trkpt lat="41.3451900" lon="0.4102300">
        <time>2021-05-08T05:08:19Z</time>
      </trkpt>
      <trkpt lat="41.3451000" lon="0.4102300">
        <time>2021-05-08T05:08:19Z</time>
      </trkpt>
      <trkpt lat="41.3450400" lon="0.4102200">
        <time>2021-05-08T05:08:19Z</time>
      </trkpt>
      <trkpt lat="41.3449500" lon="0.4101700">
        <time>2021-05-08T05:08:19Z</time>
      </trkpt>
      <trkpt lat="41.3447700" lon="0.4100900">
        <time>2021-05-08T05:08:19Z</time>
      </trkpt>
      <trkpt lat="41.3446800" lon="0.4100400">
        <time>2021-05-08T05:08:19Z</time>
      </trkpt>
      <trkpt lat="41.3445900" lon="0.4099900">
        <time>2021-05-08T05:08:19Z</time>
      </trkpt>
      <trkpt lat="41.3445300" lon="0.4099300">
        <time>2021-05-08T05:08:19Z</time>
      </trkpt>
      <trkpt lat="41.3444300" lon="0.4098400">
        <time>2021-05-08T05:08:19Z</time>
      </trkpt>
      <trkpt lat="41.3443600" lon="0.4097700">
        <time>2021-05-08T05:08:19Z</time>
      </trkpt>
      <trkpt lat="41.3442700" lon="0.4096900">
        <time>2021-05-08T05:08:19Z</time>
      </trkpt>
      <trkpt lat="41.3441900" lon="0.4096000">
        <time>2021-05-08T05:08:19Z</time>
      </trkpt>
      <trkpt lat="41.3441000" lon="0.4095200">
        <time>2021-05-08T05:08:19Z</time>
      </trkpt>
      <trkpt lat="41.3439900" lon="0.4094200">
        <time>2021-05-08T05:08:19Z</time>
      </trkpt>
      <trkpt lat="41.3438900" lon="0.4093100">
        <time>2021-05-08T05:08:19Z</time>
      </trkpt>
      <trkpt lat="41.3437800" lon="0.4092300">
        <time>2021-05-08T05:08:19Z</time>
      </trkpt>
      <trkpt lat="41.3436300" lon="0.4091300">
        <time>2021-05-08T05:08:19Z</time>
      </trkpt>
      <trkpt lat="41.3434400" lon="0.4090300">
        <time>2021-05-08T05:08:19Z</time>
      </trkpt>
      <trkpt lat="41.3432400" lon="0.4089000">
        <time>2021-05-08T05:08:19Z</time>
      </trkpt>
      <trkpt lat="41.3431300" lon="0.4087900">
        <time>2021-05-08T05:08:19Z</time>
      </trkpt>
      <trkpt lat="41.3430200" lon="0.4086400">
        <time>2021-05-08T05:08:19Z</time>
      </trkpt>
      <trkpt lat="41.3429400" lon="0.4084700">
        <time>2021-05-08T05:08:19Z</time>
      </trkpt>
      <trkpt lat="41.3428700" lon="0.4083000">
        <time>2021-05-08T05:08:19Z</time>
      </trkpt>
      <trkpt lat="41.3427900" lon="0.4081300">
        <time>2021-05-08T05:08:19Z</time>
      </trkpt>
      <trkpt lat="41.3427200" lon="0.4079500">
        <time>2021-05-08T05:08:19Z</time>
      </trkpt>
      <trkpt lat="41.3426700" lon="0.4078400">
        <time>2021-05-08T05:08:19Z</time>
      </trkpt>
      <trkpt lat="41.3426400" lon="0.4077900">
        <time>2021-05-08T05:08:19Z</time>
      </trkpt>
      <trkpt lat="41.3425300" lon="0.4077000">
        <time>2021-05-08T05:08:19Z</time>
      </trkpt>
      <trkpt lat="41.3424000" lon="0.4076100">
        <time>2021-05-08T05:08:19Z</time>
      </trkpt>
      <trkpt lat="41.3422900" lon="0.4075200">
        <time>2021-05-08T05:08:19Z</time>
      </trkpt>
      <trkpt lat="41.3422500" lon="0.4074400">
        <time>2021-05-08T05:08:19Z</time>
      </trkpt>
      <trkpt lat="41.3422100" lon="0.4072500">
        <time>2021-05-08T05:08:19Z</time>
      </trkpt>
      <trkpt lat="41.3421900" lon="0.4070600">
        <time>2021-05-08T05:08:19Z</time>
      </trkpt>
      <trkpt lat="41.3421400" lon="0.4068600">
        <time>2021-05-08T05:08:19Z</time>
      </trkpt>
      <trkpt lat="41.3420800" lon="0.4066700">
        <time>2021-05-08T05:08:19Z</time>
      </trkpt>
      <trkpt lat="41.3420100" lon="0.4064800">
        <time>2021-05-08T05:08:19Z</time>
      </trkpt>
      <trkpt lat="41.3419600" lon="0.4063300">
        <time>2021-05-08T05:08:19Z</time>
      </trkpt>
      <trkpt lat="41.3418700" lon="0.4061200">
        <time>2021-05-08T05:08:19Z</time>
      </trkpt>
      <trkpt lat="41.3417900" lon="0.4059300">
        <time>2021-05-08T05:08:19Z</time>
      </trkpt>
      <trkpt lat="41.3417300" lon="0.4058500">
        <time>2021-05-08T05:08:19Z</time>
      </trkpt>
      <trkpt lat="41.3416400" lon="0.4058100">
        <time>2021-05-08T05:08:19Z</time>
      </trkpt>
      <trkpt lat="41.3415300" lon="0.4058500">
        <time>2021-05-08T05:08:19Z</time>
      </trkpt>
      <trkpt lat="41.3414300" lon="0.4059000">
        <time>2021-05-08T05:08:19Z</time>
      </trkpt>
      <trkpt lat="41.3413200" lon="0.4059600">
        <time>2021-05-08T05:08:19Z</time>
      </trkpt>
      <trkpt lat="41.3412700" lon="0.4060400">
        <time>2021-05-08T05:08:19Z</time>
      </trkpt>
      <trkpt lat="41.3412400" lon="0.4062500">
        <time>2021-05-08T05:08:19Z</time>
      </trkpt>
      <trkpt lat="41.3412000" lon="0.4063600">
        <time>2021-05-08T05:08:19Z</time>
      </trkpt>
      <trkpt lat="41.3411300" lon="0.4064600">
        <time>2021-05-08T05:08:19Z</time>
      </trkpt>
      <trkpt lat="41.3409900" lon="0.4065300">
        <time>2021-05-08T05:08:19Z</time>
      </trkpt>
      <trkpt lat="41.3408600" lon="0.4066000">
        <time>2021-05-08T05:08:19Z</time>
      </trkpt>
      <trkpt lat="41.3407400" lon="0.4067400">
        <time>2021-05-08T05:08:19Z</time>
      </trkpt>
      <trkpt lat="41.3406700" lon="0.4068100">
        <time>2021-05-08T05:08:19Z</time>
      </trkpt>
      <trkpt lat="41.3405900" lon="0.4068900">
        <time>2021-05-08T05:08:19Z</time>
      </trkpt>
      <trkpt lat="41.3404400" lon="0.4069900">
        <time>2021-05-08T05:08:19Z</time>
      </trkpt>
      <trkpt lat="41.3402700" lon="0.4070800">
        <time>2021-05-08T05:08:19Z</time>
      </trkpt>
      <trkpt lat="41.3401600" lon="0.4071300">
        <time>2021-05-08T05:08:19Z</time>
      </trkpt>
      <trkpt lat="41.3400100" lon="0.4072700">
        <time>2021-05-08T05:08:19Z</time>
      </trkpt>
      <trkpt lat="41.3399500" lon="0.4073900">
        <time>2021-05-08T05:08:19Z</time>
      </trkpt>
      <trkpt lat="41.3398900" lon="0.4075500">
        <time>2021-05-08T05:08:19Z</time>
      </trkpt>
      <trkpt lat="41.3398500" lon="0.4077200">
        <time>2021-05-08T05:08:19Z</time>
      </trkpt>
      <trkpt lat="41.3398000" lon="0.4078900">
        <time>2021-05-08T05:08:19Z</time>
      </trkpt>
      <trkpt lat="41.3397200" lon="0.4080400">
        <time>2021-05-08T05:08:19Z</time>
      </trkpt>
      <trkpt lat="41.3396300" lon="0.4082100">
        <time>2021-05-08T05:08:19Z</time>
      </trkpt>
      <trkpt lat="41.3395900" lon="0.4083000">
        <time>2021-05-08T05:08:19Z</time>
      </trkpt>
      <trkpt lat="41.3395100" lon="0.4084700">
        <time>2021-05-08T05:08:19Z</time>
      </trkpt>
      <trkpt lat="41.3394500" lon="0.4086500">
        <time>2021-05-08T05:08:19Z</time>
      </trkpt>
      <trkpt lat="41.3393800" lon="0.4088000">
        <time>2021-05-08T05:08:19Z</time>
      </trkpt>
      <trkpt lat="41.3393200" lon="0.4089000">
        <time>2021-05-08T05:08:19Z</time>
      </trkpt>
      <trkpt lat="41.3392100" lon="0.4089600">
        <time>2021-05-08T05:08:19Z</time>
      </trkpt>
      <trkpt lat="41.3391000" lon="0.4090100">
        <time>2021-05-08T05:08:19Z</time>
      </trkpt>
      <trkpt lat="41.3389900" lon="0.4090700">
        <time>2021-05-08T05:08:19Z</time>
      </trkpt>
      <trkpt lat="41.3389000" lon="0.4091800">
        <time>2021-05-08T05:08:19Z</time>
      </trkpt>
      <trkpt lat="41.3388200" lon="0.4093200">
        <time>2021-05-08T05:08:19Z</time>
      </trkpt>
      <trkpt lat="41.3385700" lon="0.4095800">
        <time>2021-05-08T05:08:19Z</time>
      </trkpt>
      <trkpt lat="41.3384400" lon="0.4097600">
        <time>2021-05-08T05:08:19Z</time>
      </trkpt>
      <trkpt lat="41.3383200" lon="0.4099600">
        <time>2021-05-08T05:08:19Z</time>
      </trkpt>
      <trkpt lat="41.3382600" lon="0.4100300">
        <time>2021-05-08T05:08:19Z</time>
      </trkpt>
      <trkpt lat="41.3381800" lon="0.4100900">
        <time>2021-05-08T05:08:19Z</time>
      </trkpt>
      <trkpt lat="41.3380400" lon="0.4101200">
        <time>2021-05-08T05:08:19Z</time>
      </trkpt>
      <trkpt lat="41.3378700" lon="0.4101000">
        <time>2021-05-08T05:08:19Z</time>
      </trkpt>
      <trkpt lat="41.3377800" lon="0.4101100">
        <time>2021-05-08T05:08:19Z</time>
      </trkpt>
      <trkpt lat="41.3377000" lon="0.4101700">
        <time>2021-05-08T05:08:19Z</time>
      </trkpt>
      <trkpt lat="41.3376500" lon="0.4102900">
        <time>2021-05-08T05:08:19Z</time>
      </trkpt>
      <trkpt lat="41.3376000" lon="0.4104500">
        <time>2021-05-08T05:08:19Z</time>
      </trkpt>
      <trkpt lat="41.3375400" lon="0.4105400">
        <time>2021-05-08T05:08:19Z</time>
      </trkpt>
      <trkpt lat="41.3374400" lon="0.4106600">
        <time>2021-05-08T05:08:19Z</time>
      </trkpt>
      <trkpt lat="41.3373500" lon="0.4108000">
        <time>2021-05-08T05:08:19Z</time>
      </trkpt>
      <trkpt lat="41.3372200" lon="0.4109200">
        <time>2021-05-08T05:08:19Z</time>
      </trkpt>
      <trkpt lat="41.3371000" lon="0.4110800">
        <time>2021-05-08T05:08:19Z</time>
      </trkpt>
      <trkpt lat="41.3370200" lon="0.4111500">
        <time>2021-05-08T05:08:19Z</time>
      </trkpt>
      <trkpt lat="41.3369600" lon="0.4112300">
        <time>2021-05-08T05:08:19Z</time>
      </trkpt>
      <trkpt lat="41.3368900" lon="0.4113000">
        <time>2021-05-08T05:08:19Z</time>
      </trkpt>
      <trkpt lat="41.3368000" lon="0.4113700">
        <time>2021-05-08T05:08:19Z</time>
      </trkpt>
      <trkpt lat="41.3367300" lon="0.4114500">
        <time>2021-05-08T05:08:19Z</time>
      </trkpt>
      <trkpt lat="41.3366100" lon="0.4115800">
        <time>2021-05-08T05:08:19Z</time>
      </trkpt>
      <trkpt lat="41.3365400" lon="0.4117100">
        <time>2021-05-08T05:08:19Z</time>
      </trkpt>
      <trkpt lat="41.3364500" lon="0.4118400">
        <time>2021-05-08T05:08:19Z</time>
      </trkpt>
      <trkpt lat="41.3363200" lon="0.4119800">
        <time>2021-05-08T05:08:19Z</time>
      </trkpt>
      <trkpt lat="41.3361900" lon="0.4120400">
        <time>2021-05-08T05:08:19Z</time>
      </trkpt>
      <trkpt lat="41.3361400" lon="0.4121000">
        <time>2021-05-08T05:08:19Z</time>
      </trkpt>
      <trkpt lat="41.3360800" lon="0.4121800">
        <time>2021-05-08T05:08:19Z</time>
      </trkpt>
      <trkpt lat="41.3360100" lon="0.4123400">
        <time>2021-05-08T05:08:19Z</time>
      </trkpt>
      <trkpt lat="41.3359600" lon="0.4124200">
        <time>2021-05-08T05:08:19Z</time>
      </trkpt>
      <trkpt lat="41.3359000" lon="0.4124600">
        <time>2021-05-08T05:08:19Z</time>
      </trkpt>
      <trkpt lat="41.3358100" lon="0.4124700">
        <time>2021-05-08T05:08:19Z</time>
      </trkpt>
      <trkpt lat="41.3357200" lon="0.4124300">
        <time>2021-05-08T05:08:19Z</time>
      </trkpt>
      <trkpt lat="41.3356300" lon="0.4123300">
        <time>2021-05-08T05:08:19Z</time>
      </trkpt>
      <trkpt lat="41.3355700" lon="0.4122300">
        <time>2021-05-08T05:08:19Z</time>
      </trkpt>
      <trkpt lat="41.3355000" lon="0.4120500">
        <time>2021-05-08T05:08:19Z</time>
      </trkpt>
      <trkpt lat="41.3354700" lon="0.4119300">
        <time>2021-05-08T05:08:19Z</time>
      </trkpt>
      <trkpt lat="41.3353900" lon="0.4117600">
        <time>2021-05-08T05:08:19Z</time>
      </trkpt>
      <trkpt lat="41.3353500" lon="0.4116100">
        <time>2021-05-08T05:08:19Z</time>
      </trkpt>
      <trkpt lat="41.3352900" lon="0.4114400">
        <time>2021-05-08T05:08:19Z</time>
      </trkpt>
      <trkpt lat="41.3352500" lon="0.4113900">
        <time>2021-05-08T05:08:19Z</time>
      </trkpt>
      <trkpt lat="41.3352000" lon="0.4114000">
        <time>2021-05-08T05:08:19Z</time>
      </trkpt>
      <trkpt lat="41.3351500" lon="0.4114500">
        <time>2021-05-08T05:08:19Z</time>
      </trkpt>
      <trkpt lat="41.3351500" lon="0.4115200">
        <time>2021-05-08T05:08:19Z</time>
      </trkpt>
      <trkpt lat="41.3352100" lon="0.4116600">
        <time>2021-05-08T05:08:19Z</time>
      </trkpt>
      <trkpt lat="41.3352300" lon="0.4118100">
        <time>2021-05-08T05:08:19Z</time>
      </trkpt>
      <trkpt lat="41.3352600" lon="0.4119800">
        <time>2021-05-08T05:08:19Z</time>
      </trkpt>
      <trkpt lat="41.3352500" lon="0.4120900">
        <time>2021-05-08T05:08:19Z</time>
      </trkpt>
      <trkpt lat="41.3352200" lon="0.4122000">
        <time>2021-05-08T05:08:19Z</time>
      </trkpt>
      <trkpt lat="41.3351300" lon="0.4123100">
        <time>2021-05-08T05:08:19Z</time>
      </trkpt>
      <trkpt lat="41.3349900" lon="0.4123900">
        <time>2021-05-08T05:08:19Z</time>
      </trkpt>
      <trkpt lat="41.3348200" lon="0.4124300">
        <time>2021-05-08T05:08:19Z</time>
      </trkpt>
      <trkpt lat="41.3346500" lon="0.4124500">
        <time>2021-05-08T05:08:19Z</time>
      </trkpt>
      <trkpt lat="41.3345600" lon="0.4124500">
        <time>2021-05-08T05:08:19Z</time>
      </trkpt>
      <trkpt lat="41.3344000" lon="0.4124700">
        <time>2021-05-08T05:08:19Z</time>
      </trkpt>
      <trkpt lat="41.3342700" lon="0.4125100">
        <time>2021-05-08T05:08:19Z</time>
      </trkpt>
      <trkpt lat="41.3341200" lon="0.4125900">
        <time>2021-05-08T05:08:19Z</time>
      </trkpt>
      <trkpt lat="41.3339900" lon="0.4126500">
        <time>2021-05-08T05:08:19Z</time>
      </trkpt>
      <trkpt lat="41.3339100" lon="0.4126800">
        <time>2021-05-08T05:08:19Z</time>
      </trkpt>
      <trkpt lat="41.3338300" lon="0.4127100">
        <time>2021-05-08T05:08:19Z</time>
      </trkpt>
      <trkpt lat="41.3336900" lon="0.4127900">
        <time>2021-05-08T05:08:19Z</time>
      </trkpt>
      <trkpt lat="41.3336100" lon="0.4128200">
        <time>2021-05-08T05:08:19Z</time>
      </trkpt>
      <trkpt lat="41.3334600" lon="0.4128900">
        <time>2021-05-08T05:08:19Z</time>
      </trkpt>
      <trkpt lat="41.3332500" lon="0.4129400">
        <time>2021-05-08T05:08:19Z</time>
      </trkpt>
      <trkpt lat="41.3331500" lon="0.4129600">
        <time>2021-05-08T05:08:19Z</time>
      </trkpt>
      <trkpt lat="41.3330300" lon="0.4129800">
        <time>2021-05-08T05:08:19Z</time>
      </trkpt>
      <trkpt lat="41.3327900" lon="0.4130400">
        <time>2021-05-08T05:08:19Z</time>
      </trkpt>
      <trkpt lat="41.3326000" lon="0.4130700">
        <time>2021-05-08T05:08:19Z</time>
      </trkpt>
      <trkpt lat="41.3325100" lon="0.4130300">
        <time>2021-05-08T05:08:19Z</time>
      </trkpt>
      <trkpt lat="41.3324000" lon="0.4129000">
        <time>2021-05-08T05:08:19Z</time>
      </trkpt>
      <trkpt lat="41.3323600" lon="0.4128700">
        <time>2021-05-08T05:08:19Z</time>
      </trkpt>
      <trkpt lat="41.3322700" lon="0.4128300">
        <time>2021-05-08T05:08:19Z</time>
      </trkpt>
      <trkpt lat="41.3321600" lon="0.4128200">
        <time>2021-05-08T05:08:19Z</time>
      </trkpt>
      <trkpt lat="41.3320900" lon="0.4128300">
        <time>2021-05-08T05:08:19Z</time>
      </trkpt>
      <trkpt lat="41.3320100" lon="0.4128500">
        <time>2021-05-08T05:08:19Z</time>
      </trkpt>
      <trkpt lat="41.3318200" lon="0.4129500">
        <time>2021-05-08T05:08:19Z</time>
      </trkpt>
      <trkpt lat="41.3316600" lon="0.4130300">
        <time>2021-05-08T05:08:19Z</time>
      </trkpt>
      <trkpt lat="41.3314500" lon="0.4131000">
        <time>2021-05-08T05:08:19Z</time>
      </trkpt>
      <trkpt lat="41.3312800" lon="0.4131900">
        <time>2021-05-08T05:08:19Z</time>
      </trkpt>
      <trkpt lat="41.3311800" lon="0.4132800">
        <time>2021-05-08T05:08:19Z</time>
      </trkpt>
      <trkpt lat="41.3311000" lon="0.4134200">
        <time>2021-05-08T05:08:19Z</time>
      </trkpt>
      <trkpt lat="41.3310400" lon="0.4136000">
        <time>2021-05-08T05:08:19Z</time>
      </trkpt>
      <trkpt lat="41.3309900" lon="0.4137400">
        <time>2021-05-08T05:08:19Z</time>
      </trkpt>
      <trkpt lat="41.3309600" lon="0.4138400">
        <time>2021-05-08T05:08:19Z</time>
      </trkpt>
      <trkpt lat="41.3308900" lon="0.4139400">
        <time>2021-05-08T05:08:19Z</time>
      </trkpt>
      <trkpt lat="41.3308200" lon="0.4140400">
        <time>2021-05-08T05:08:19Z</time>
      </trkpt>
      <trkpt lat="41.3307300" lon="0.4141400">
        <time>2021-05-08T05:08:19Z</time>
      </trkpt>
      <trkpt lat="41.3306200" lon="0.4142700">
        <time>2021-05-08T05:08:19Z</time>
      </trkpt>
      <trkpt lat="41.3305000" lon="0.4144300">
        <time>2021-05-08T05:08:19Z</time>
      </trkpt>
      <trkpt lat="41.3303700" lon="0.4145700">
        <time>2021-05-08T05:08:19Z</time>
      </trkpt>
      <trkpt lat="41.3302600" lon="0.4147100">
        <time>2021-05-08T05:08:19Z</time>
      </trkpt>
      <trkpt lat="41.3301800" lon="0.4148300">
        <time>2021-05-08T05:08:19Z</time>
      </trkpt>
      <trkpt lat="41.3300600" lon="0.4150200">
        <time>2021-05-08T05:08:19Z</time>
      </trkpt>
      <trkpt lat="41.3299800" lon="0.4152500">
        <time>2021-05-08T05:08:19Z</time>
      </trkpt>
      <trkpt lat="41.3299500" lon="0.4153900">
        <time>2021-05-08T05:08:19Z</time>
      </trkpt>
      <trkpt lat="41.3299100" lon="0.4155100">
        <time>2021-05-08T05:08:19Z</time>
      </trkpt>
      <trkpt lat="41.3298700" lon="0.4157200">
        <time>2021-05-08T05:08:19Z</time>
      </trkpt>
      <trkpt lat="41.3298400" lon="0.4158600">
        <time>2021-05-08T05:08:19Z</time>
      </trkpt>
      <trkpt lat="41.3297900" lon="0.4160100">
        <time>2021-05-08T05:08:19Z</time>
      </trkpt>
      <trkpt lat="41.3297700" lon="0.4161000">
        <time>2021-05-08T05:08:19Z</time>
      </trkpt>
      <trkpt lat="41.3297500" lon="0.4162500">
        <time>2021-05-08T05:08:19Z</time>
      </trkpt>
      <trkpt lat="41.3297600" lon="0.4164200">
        <time>2021-05-08T05:08:19Z</time>
      </trkpt>
      <trkpt lat="41.3297700" lon="0.4165300">
        <time>2021-05-08T05:08:19Z</time>
      </trkpt>
      <trkpt lat="41.3298200" lon="0.4166800">
        <time>2021-05-08T05:08:19Z</time>
      </trkpt>
      <trkpt lat="41.3298700" lon="0.4168000">
        <time>2021-05-08T05:08:19Z</time>
      </trkpt>
      <trkpt lat="41.3299500" lon="0.4169700">
        <time>2021-05-08T05:08:19Z</time>
      </trkpt>
      <trkpt lat="41.3300500" lon="0.4171300">
        <time>2021-05-08T05:08:19Z</time>
      </trkpt>
      <trkpt lat="41.3301300" lon="0.4172600">
        <time>2021-05-08T05:08:19Z</time>
      </trkpt>
      <trkpt lat="41.3302100" lon="0.4173600">
        <time>2021-05-08T05:08:19Z</time>
      </trkpt>
      <trkpt lat="41.3302600" lon="0.4175700">
        <time>2021-05-08T05:08:19Z</time>
      </trkpt>
      <trkpt lat="41.3303200" lon="0.4177900">
        <time>2021-05-08T05:08:19Z</time>
      </trkpt>
      <trkpt lat="41.3303300" lon="0.4180200">
        <time>2021-05-08T05:08:19Z</time>
      </trkpt>
      <trkpt lat="41.3303000" lon="0.4181600">
        <time>2021-05-08T05:08:19Z</time>
      </trkpt>
      <trkpt lat="41.3302600" lon="0.4182700">
        <time>2021-05-08T05:08:19Z</time>
      </trkpt>
      <trkpt lat="41.3302000" lon="0.4183700">
        <time>2021-05-08T05:08:19Z</time>
      </trkpt>
      <trkpt lat="41.3300500" lon="0.4184700">
        <time>2021-05-08T05:08:19Z</time>
      </trkpt>
      <trkpt lat="41.3298800" lon="0.4185000">
        <time>2021-05-08T05:08:19Z</time>
      </trkpt>
      <trkpt lat="41.3297500" lon="0.4186300">
        <time>2021-05-08T05:08:19Z</time>
      </trkpt>
      <trkpt lat="41.3296600" lon="0.4187600">
        <time>2021-05-08T05:08:19Z</time>
      </trkpt>
      <trkpt lat="41.3294900" lon="0.4189500">
        <time>2021-05-08T05:08:19Z</time>
      </trkpt>
      <trkpt lat="41.3293900" lon="0.4191200">
        <time>2021-05-08T05:08:19Z</time>
      </trkpt>
      <trkpt lat="41.3293900" lon="0.4192800">
        <time>2021-05-08T05:08:19Z</time>
      </trkpt>
      <trkpt lat="41.3293600" lon="0.4194400">
        <time>2021-05-08T05:08:19Z</time>
      </trkpt>
      <trkpt lat="41.3293200" lon="0.4195500">
        <time>2021-05-08T05:08:19Z</time>
      </trkpt>
      <trkpt lat="41.3292000" lon="0.4196900">
        <time>2021-05-08T05:08:19Z</time>
      </trkpt>
      <trkpt lat="41.3290100" lon="0.4198100">
        <time>2021-05-08T05:08:19Z</time>
      </trkpt>
      <trkpt lat="41.3287200" lon="0.4200300">
        <time>2021-05-08T05:08:19Z</time>
      </trkpt>
      <trkpt lat="41.3286600" lon="0.4201400">
        <time>2021-05-08T05:08:19Z</time>
      </trkpt>
      <trkpt lat="41.3286400" lon="0.4202400">
        <time>2021-05-08T05:08:19Z</time>
      </trkpt>
      <trkpt lat="41.3286100" lon="0.4204500">
        <time>2021-05-08T05:08:19Z</time>
      </trkpt>
      <trkpt lat="41.3285700" lon="0.4207300">
        <time>2021-05-08T05:08:19Z</time>
      </trkpt>
      <trkpt lat="41.3285300" lon="0.4208600">
        <time>2021-05-08T05:08:19Z</time>
      </trkpt>
      <trkpt lat="41.3284500" lon="0.4209900">
        <time>2021-05-08T05:08:19Z</time>
      </trkpt>
      <trkpt lat="41.3283200" lon="0.4211300">
        <time>2021-05-08T05:08:19Z</time>
      </trkpt>
      <trkpt lat="41.3282500" lon="0.4213100">
        <time>2021-05-08T05:08:19Z</time>
      </trkpt>
      <trkpt lat="41.3282200" lon="0.4214800">
        <time>2021-05-08T05:08:19Z</time>
      </trkpt>
      <trkpt lat="41.3282100" lon="0.4216300">
        <time>2021-05-08T05:08:19Z</time>
      </trkpt>
      <trkpt lat="41.3282200" lon="0.4217600">
        <time>2021-05-08T05:08:19Z</time>
      </trkpt>
      <trkpt lat="41.3282200" lon="0.4219000">
        <time>2021-05-08T05:08:19Z</time>
      </trkpt>
      <trkpt lat="41.3282300" lon="0.4220300">
        <time>2021-05-08T05:08:19Z</time>
      </trkpt>
      <trkpt lat="41.3282300" lon="0.4221200">
        <time>2021-05-08T05:08:19Z</time>
      </trkpt>
      <trkpt lat="41.3282400" lon="0.4222300">
        <time>2021-05-08T05:08:19Z</time>
      </trkpt>
      <trkpt lat="41.3282600" lon="0.4223700">
        <time>2021-05-08T05:08:19Z</time>
      </trkpt>
      <trkpt lat="41.3282800" lon="0.4225500">
        <time>2021-05-08T05:08:19Z</time>
      </trkpt>
      <trkpt lat="41.3283200" lon="0.4227900">
        <time>2021-05-08T05:08:19Z</time>
      </trkpt>
      <trkpt lat="41.3283400" lon="0.4229200">
        <time>2021-05-08T05:08:19Z</time>
      </trkpt>
      <trkpt lat="41.3283600" lon="0.4230800">
        <time>2021-05-08T05:08:19Z</time>
      </trkpt>
      <trkpt lat="41.3283800" lon="0.4231800">
        <time>2021-05-08T05:08:19Z</time>
      </trkpt>
      <trkpt lat="41.3284000" lon="0.4233100">
        <time>2021-05-08T05:08:19Z</time>
      </trkpt>
      <trkpt lat="41.3284000" lon="0.4234200">
        <time>2021-05-08T05:08:19Z</time>
      </trkpt>
      <trkpt lat="41.3284000" lon="0.4236300">
        <time>2021-05-08T05:08:19Z</time>
      </trkpt>
      <trkpt lat="41.3283800" lon="0.4238000">
        <time>2021-05-08T05:08:19Z</time>
      </trkpt>
      <trkpt lat="41.3283600" lon="0.4239800">
        <time>2021-05-08T05:08:19Z</time>
      </trkpt>
      <trkpt lat="41.3283100" lon="0.4240800">
        <time>2021-05-08T05:08:19Z</time>
      </trkpt>
      <trkpt lat="41.3282400" lon="0.4240900">
        <time>2021-05-08T05:08:19Z</time>
      </trkpt>
      <trkpt lat="41.3281600" lon="0.4240900">
        <time>2021-05-08T05:08:19Z</time>
      </trkpt>
      <trkpt lat="41.3280900" lon="0.4238700">
        <time>2021-05-08T05:08:19Z</time>
      </trkpt>
      <trkpt lat="41.3280600" lon="0.4237400">
        <time>2021-05-08T05:08:19Z</time>
      </trkpt>
      <trkpt lat="41.3280400" lon="0.4236800">
        <time>2021-05-08T05:08:19Z</time>
      </trkpt>
      <trkpt lat="41.3279400" lon="0.4235400">
        <time>2021-05-08T05:08:19Z</time>
      </trkpt>
      <trkpt lat="41.3278500" lon="0.4233900">
        <time>2021-05-08T05:08:19Z</time>
      </trkpt>
      <trkpt lat="41.3277900" lon="0.4232400">
        <time>2021-05-08T05:08:19Z</time>
      </trkpt>
      <trkpt lat="41.3277400" lon="0.4231100">
        <time>2021-05-08T05:08:19Z</time>
      </trkpt>
      <trkpt lat="41.3276800" lon="0.4229700">
        <time>2021-05-08T05:08:19Z</time>
      </trkpt>
      <trkpt lat="41.3276100" lon="0.4228100">
        <time>2021-05-08T05:08:19Z</time>
      </trkpt>
      <trkpt lat="41.3275400" lon="0.4226300">
        <time>2021-05-08T05:08:19Z</time>
      </trkpt>
      <trkpt lat="41.3274600" lon="0.4224700">
        <time>2021-05-08T05:08:19Z</time>
      </trkpt>
      <trkpt lat="41.3274000" lon="0.4223200">
        <time>2021-05-08T05:08:19Z</time>
      </trkpt>
      <trkpt lat="41.3273200" lon="0.4221900">
        <time>2021-05-08T05:08:19Z</time>
      </trkpt>
      <trkpt lat="41.3272500" lon="0.4220700">
        <time>2021-05-08T05:08:19Z</time>
      </trkpt>
      <trkpt lat="41.3271800" lon="0.4219500">
        <time>2021-05-08T05:08:19Z</time>
      </trkpt>
      <trkpt lat="41.3270400" lon="0.4218000">
        <time>2021-05-08T05:08:19Z</time>
      </trkpt>
      <trkpt lat="41.3269400" lon="0.4217700">
        <time>2021-05-08T05:08:19Z</time>
      </trkpt>
      <trkpt lat="41.3268300" lon="0.4218200">
        <time>2021-05-08T05:08:19Z</time>
      </trkpt>
      <trkpt lat="41.3267600" lon="0.4219100">
        <time>2021-05-08T05:08:19Z</time>
      </trkpt>
      <trkpt lat="41.3267300" lon="0.4220000">
        <time>2021-05-08T05:08:19Z</time>
      </trkpt>
      <trkpt lat="41.3267100" lon="0.4221700">
        <time>2021-05-08T05:08:19Z</time>
      </trkpt>
      <trkpt lat="41.3267300" lon="0.4223700">
        <time>2021-05-08T05:08:19Z</time>
      </trkpt>
      <trkpt lat="41.3267500" lon="0.4225100">
        <time>2021-05-08T05:08:19Z</time>
      </trkpt>
      <trkpt lat="41.3267600" lon="0.4227300">
        <time>2021-05-08T05:08:19Z</time>
      </trkpt>
      <trkpt lat="41.3267800" lon="0.4229500">
        <time>2021-05-08T05:08:19Z</time>
      </trkpt>
      <trkpt lat="41.3267700" lon="0.4231500">
        <time>2021-05-08T05:08:19Z</time>
      </trkpt>
      <trkpt lat="41.3267500" lon="0.4232800">
        <time>2021-05-08T05:08:19Z</time>
      </trkpt>
      <trkpt lat="41.3266600" lon="0.4235500">
        <time>2021-05-08T05:08:19Z</time>
      </trkpt>
      <trkpt lat="41.3266200" lon="0.4236800">
        <time>2021-05-08T05:08:19Z</time>
      </trkpt>
      <trkpt lat="41.3265600" lon="0.4239500">
        <time>2021-05-08T05:08:19Z</time>
      </trkpt>
      <trkpt lat="41.3265300" lon="0.4241700">
        <time>2021-05-08T05:08:19Z</time>
      </trkpt>
      <trkpt lat="41.3264900" lon="0.4243600">
        <time>2021-05-08T05:08:19Z</time>
      </trkpt>
      <trkpt lat="41.3264600" lon="0.4245000">
        <time>2021-05-08T05:08:19Z</time>
      </trkpt>
      <trkpt lat="41.3264000" lon="0.4246200">
        <time>2021-05-08T05:08:19Z</time>
      </trkpt>
      <trkpt lat="41.3263000" lon="0.4246900">
        <time>2021-05-08T05:08:19Z</time>
      </trkpt>
      <trkpt lat="41.3261800" lon="0.4247300">
        <time>2021-05-08T05:08:19Z</time>
      </trkpt>
      <trkpt lat="41.3260800" lon="0.4247000">
        <time>2021-05-08T05:08:19Z</time>
      </trkpt>
      <trkpt lat="41.3259000" lon="0.4246200">
        <time>2021-05-08T05:08:19Z</time>
      </trkpt>
      <trkpt lat="41.3257200" lon="0.4245400">
        <time>2021-05-08T05:08:19Z</time>
      </trkpt>
      <trkpt lat="41.3255700" lon="0.4244700">
        <time>2021-05-08T05:08:19Z</time>
      </trkpt>
      <trkpt lat="41.3254200" lon="0.4244900">
        <time>2021-05-08T05:08:19Z</time>
      </trkpt>
      <trkpt lat="41.3252700" lon="0.4245800">
        <time>2021-05-08T05:08:19Z</time>
      </trkpt>
      <trkpt lat="41.3251600" lon="0.4247500">
        <time>2021-05-08T05:08:19Z</time>
      </trkpt>
      <trkpt lat="41.3250700" lon="0.4249600">
        <time>2021-05-08T05:08:19Z</time>
      </trkpt>
      <trkpt lat="41.3250300" lon="0.4250400">
        <time>2021-05-08T05:08:19Z</time>
      </trkpt>
      <trkpt lat="41.3249600" lon="0.4252300">
        <time>2021-05-08T05:08:19Z</time>
      </trkpt>
      <trkpt lat="41.3249200" lon="0.4253300">
        <time>2021-05-08T05:08:19Z</time>
      </trkpt>
      <trkpt lat="41.3248800" lon="0.4254400">
        <time>2021-05-08T05:08:19Z</time>
      </trkpt>
      <trkpt lat="41.3248400" lon="0.4255600">
        <time>2021-05-08T05:08:19Z</time>
      </trkpt>
      <trkpt lat="41.3248000" lon="0.4256700">
        <time>2021-05-08T05:08:19Z</time>
      </trkpt>
      <trkpt lat="41.3247500" lon="0.4257600">
        <time>2021-05-08T05:08:19Z</time>
      </trkpt>
      <trkpt lat="41.3247000" lon="0.4258300">
        <time>2021-05-08T05:08:19Z</time>
      </trkpt>
      <trkpt lat="41.3245700" lon="0.4259800">
        <time>2021-05-08T05:08:19Z</time>
      </trkpt>
      <trkpt lat="41.3245100" lon="0.4260500">
        <time>2021-05-08T05:08:19Z</time>
      </trkpt>
      <trkpt lat="41.3243600" lon="0.4261300">
        <time>2021-05-08T05:08:19Z</time>
      </trkpt>
      <trkpt lat="41.3242700" lon="0.4261800">
        <time>2021-05-08T05:08:19Z</time>
      </trkpt>
      <trkpt lat="41.3241800" lon="0.4262200">
        <time>2021-05-08T05:08:19Z</time>
      </trkpt>
      <trkpt lat="41.3240400" lon="0.4262700">
        <time>2021-05-08T05:08:19Z</time>
      </trkpt>
      <trkpt lat="41.3239500" lon="0.4263100">
        <time>2021-05-08T05:08:19Z</time>
      </trkpt>
      <trkpt lat="41.3238700" lon="0.4263500">
        <time>2021-05-08T05:08:19Z</time>
      </trkpt>
      <trkpt lat="41.3237500" lon="0.4263800">
        <time>2021-05-08T05:08:19Z</time>
      </trkpt>
      <trkpt lat="41.3235500" lon="0.4264400">
        <time>2021-05-08T05:08:19Z</time>
      </trkpt>
      <trkpt lat="41.3233100" lon="0.4265000">
        <time>2021-05-08T05:08:19Z</time>
      </trkpt>
      <trkpt lat="41.3230800" lon="0.4265300">
        <time>2021-05-08T05:08:19Z</time>
      </trkpt>
      <trkpt lat="41.3228500" lon="0.4264700">
        <time>2021-05-08T05:08:19Z</time>
      </trkpt>
      <trkpt lat="41.3225900" lon="0.4263400">
        <time>2021-05-08T05:08:19Z</time>
      </trkpt>
      <trkpt lat="41.3223100" lon="0.4262500">
        <time>2021-05-08T05:08:19Z</time>
      </trkpt>
      <trkpt lat="41.3220400" lon="0.4261700">
        <time>2021-05-08T05:08:19Z</time>
      </trkpt>
      <trkpt lat="41.3216800" lon="0.4260600">
        <time>2021-05-08T05:08:19Z</time>
      </trkpt>
      <trkpt lat="41.3212600" lon="0.4259300">
        <time>2021-05-08T05:08:19Z</time>
      </trkpt>
      <trkpt lat="41.3210900" lon="0.4259200">
        <time>2021-05-08T05:08:19Z</time>
      </trkpt>
      <trkpt lat="41.3206700" lon="0.4259200">
        <time>2021-05-08T05:08:19Z</time>
      </trkpt>
      <trkpt lat="41.3202800" lon="0.4259100">
        <time>2021-05-08T05:08:19Z</time>
      </trkpt>
      <trkpt lat="41.3196800" lon="0.4258600">
        <time>2021-05-08T05:08:19Z</time>
      </trkpt>
      <trkpt lat="41.3193400" lon="0.4258400">
        <time>2021-05-08T05:08:19Z</time>
      </trkpt>
      <trkpt lat="41.3189500" lon="0.4259600">
        <time>2021-05-08T05:08:19Z</time>
      </trkpt>
      <trkpt lat="41.3185000" lon="0.4261000">
        <time>2021-05-08T05:08:19Z</time>
      </trkpt>
      <trkpt lat="41.3179900" lon="0.4261900">
        <time>2021-05-08T05:08:19Z</time>
      </trkpt>
      <trkpt lat="41.3176000" lon="0.4262500">
        <time>2021-05-08T05:08:19Z</time>
      </trkpt>
      <trkpt lat="41.3171800" lon="0.4263400">
        <time>2021-05-08T05:08:19Z</time>
      </trkpt>
      <trkpt lat="41.3169200" lon="0.4264200">
        <time>2021-05-08T05:08:19Z</time>
      </trkpt>
      <trkpt lat="41.3164100" lon="0.4266200">
        <time>2021-05-08T05:08:19Z</time>
      </trkpt>
      <trkpt lat="41.3157200" lon="0.4269700">
        <time>2021-05-08T05:08:19Z</time>
      </trkpt>
      <trkpt lat="41.3152100" lon="0.4272000">
        <time>2021-05-08T05:08:19Z</time>
      </trkpt>
      <trkpt lat="41.3146600" lon="0.4274500">
        <time>2021-05-08T05:08:19Z</time>
      </trkpt>
      <trkpt lat="41.3142900" lon="0.4275900">
        <time>2021-05-08T05:08:19Z</time>
      </trkpt>
      <trkpt lat="41.3140900" lon="0.4276400">
        <time>2021-05-08T05:08:19Z</time>
      </trkpt>
      <trkpt lat="41.3139800" lon="0.4276500">
        <time>2021-05-08T05:08:19Z</time>
      </trkpt>
      <trkpt lat="41.3135000" lon="0.4276900">
        <time>2021-05-08T05:08:19Z</time>
      </trkpt>
      <trkpt lat="41.3127500" lon="0.4277200">
        <time>2021-05-08T05:08:19Z</time>
      </trkpt>
      <trkpt lat="41.3126200" lon="0.4277100">
        <time>2021-05-08T05:08:19Z</time>
      </trkpt>
      <trkpt lat="41.3124000" lon="0.4276600">
        <time>2021-05-08T05:08:19Z</time>
      </trkpt>
      <trkpt lat="41.3122000" lon="0.4275900">
        <time>2021-05-08T05:08:19Z</time>
      </trkpt>
      <trkpt lat="41.3120700" lon="0.4275300">
        <time>2021-05-08T05:08:19Z</time>
      </trkpt>
      <trkpt lat="41.3119700" lon="0.4274700">
        <time>2021-05-08T05:08:19Z</time>
      </trkpt>
      <trkpt lat="41.3118500" lon="0.4274200">
        <time>2021-05-08T05:08:19Z</time>
      </trkpt>
      <trkpt lat="41.3117800" lon="0.4273800">
        <time>2021-05-08T05:08:19Z</time>
      </trkpt>
      <trkpt lat="41.3107700" lon="0.4267900">
        <time>2021-05-08T05:08:19Z</time>
      </trkpt>
      <trkpt lat="41.3105900" lon="0.4267000">
        <time>2021-05-08T05:08:19Z</time>
      </trkpt>
      <trkpt lat="41.3104100" lon="0.4266100">
        <time>2021-05-08T05:08:19Z</time>
      </trkpt>
      <trkpt lat="41.3102900" lon="0.4265500">
        <time>2021-05-08T05:08:19Z</time>
      </trkpt>
      <trkpt lat="41.3101800" lon="0.4264900">
        <time>2021-05-08T05:08:19Z</time>
      </trkpt>
      <trkpt lat="41.3098100" lon="0.4263000">
        <time>2021-05-08T05:08:19Z</time>
      </trkpt>
      <trkpt lat="41.3096700" lon="0.4262200">
        <time>2021-05-08T05:08:19Z</time>
      </trkpt>
      <trkpt lat="41.3093400" lon="0.4260700">
        <time>2021-05-08T05:08:19Z</time>
      </trkpt>
      <trkpt lat="41.3092500" lon="0.4260600">
        <time>2021-05-08T05:08:19Z</time>
      </trkpt>
      <trkpt lat="41.3091500" lon="0.4260800">
        <time>2021-05-08T05:08:19Z</time>
      </trkpt>
      <trkpt lat="41.3090700" lon="0.4261100">
        <time>2021-05-08T05:08:19Z</time>
      </trkpt>
      <trkpt lat="41.3090700" lon="0.4260400">
        <time>2021-05-08T05:08:19Z</time>
      </trkpt>
      <trkpt lat="41.3090700" lon="0.4259300">
        <time>2021-05-08T05:08:19Z</time>
      </trkpt>
      <trkpt lat="41.3089900" lon="0.4258900">
        <time>2021-05-08T05:08:19Z</time>
      </trkpt>
      <trkpt lat="41.3089000" lon="0.4258200">
        <time>2021-05-08T05:08:19Z</time>
      </trkpt>
      <trkpt lat="41.3088300" lon="0.4258000">
        <time>2021-05-08T05:08:19Z</time>
      </trkpt>
      <trkpt lat="41.3087600" lon="0.4258000">
        <time>2021-05-08T05:08:19Z</time>
      </trkpt>
      <trkpt lat="41.3086900" lon="0.4258100">
        <time>2021-05-08T05:08:19Z</time>
      </trkpt>
      <trkpt lat="41.30869" lon="0.42581">
        <time>2021-05-08T05:08:27Z</time>
      </trkpt>
      <trkpt lat="41.30861" lon="0.42579">
        <time>2021-05-08T05:08:27Z</time>
      </trkpt>
      <trkpt lat="41.30851" lon="0.42575">
        <time>2021-05-08T05:08:27Z</time>
      </trkpt>
      <trkpt lat="41.30833" lon="0.42566">
        <time>2021-05-08T05:08:27Z</time>
      </trkpt>
      <trkpt lat="41.30803" lon="0.42546">
        <time>2021-05-08T05:08:27Z</time>
      </trkpt>
      <trkpt lat="41.30795" lon="0.4253899999999999">
        <time>2021-05-08T05:08:27Z</time>
      </trkpt>
      <trkpt lat="41.30767" lon="0.42513">
        <time>2021-05-08T05:08:27Z</time>
      </trkpt>
      <trkpt lat="41.30735" lon="0.42487">
        <time>2021-05-08T05:08:27Z</time>
      </trkpt>
      <trkpt lat="41.30718" lon="0.42476">
        <time>2021-05-08T05:08:27Z</time>
      </trkpt>
      <trkpt lat="41.30708" lon="0.4247">
        <time>2021-05-08T05:08:27Z</time>
      </trkpt>
      <trkpt lat="41.30706" lon="0.4246900000000001">
        <time>2021-05-08T05:08:27Z</time>
      </trkpt>
      <trkpt lat="41.30704" lon="0.4246900000000001">
        <time>2021-05-08T05:08:27Z</time>
      </trkpt>
      <trkpt lat="41.30699" lon="0.42467">
        <time>2021-05-08T05:08:27Z</time>
      </trkpt>
      <trkpt lat="41.30688" lon="0.42463">
        <time>2021-05-08T05:08:27Z</time>
      </trkpt>
      <trkpt lat="41.30672" lon="0.42459">
        <time>2021-05-08T05:08:27Z</time>
      </trkpt>
      <trkpt lat="41.30647" lon="0.42454">
        <time>2021-05-08T05:08:27Z</time>
      </trkpt>
      <trkpt lat="41.30606" lon="0.42447">
        <time>2021-05-08T05:08:27Z</time>
      </trkpt>
      <trkpt lat="41.30566" lon="0.42446">
        <time>2021-05-08T05:08:27Z</time>
      </trkpt>
      <trkpt lat="41.30528" lon="0.4243899999999999">
        <time>2021-05-08T05:08:27Z</time>
      </trkpt>
      <trkpt lat="41.30524" lon="0.42457">
        <time>2021-05-08T05:08:27Z</time>
      </trkpt>
      <trkpt lat="41.30513" lon="0.42511">
        <time>2021-05-08T05:08:27Z</time>
      </trkpt>
      <trkpt lat="41.3051" lon="0.42538">
        <time>2021-05-08T05:08:27Z</time>
      </trkpt>
      <trkpt lat="41.30505" lon="0.42591">
        <time>2021-05-08T05:08:27Z</time>
      </trkpt>
      <trkpt lat="41.30499" lon="0.42671">
        <time>2021-05-08T05:08:27Z</time>
      </trkpt>
      <trkpt lat="41.30498" lon="0.42701">
        <time>2021-05-08T05:08:27Z</time>
      </trkpt>
      <trkpt lat="41.30496" lon="0.4275999999999999">
        <time>2021-05-08T05:08:27Z</time>
      </trkpt>
      <trkpt lat="41.30494" lon="0.4282">
        <time>2021-05-08T05:08:27Z</time>
      </trkpt>
      <trkpt lat="41.30492" lon="0.4290800000000001">
        <time>2021-05-08T05:08:27Z</time>
      </trkpt>
      <trkpt lat="41.30492" lon="0.42936">
        <time>2021-05-08T05:08:27Z</time>
      </trkpt>
      <trkpt lat="41.30493" lon="0.4294799999999999">
        <time>2021-05-08T05:08:27Z</time>
      </trkpt>
      <trkpt lat="41.30495" lon="0.42955">
        <time>2021-05-08T05:08:27Z</time>
      </trkpt>
      <trkpt lat="41.3049" lon="0.4295800000000001">
        <time>2021-05-08T05:08:27Z</time>
      </trkpt>
      <trkpt lat="41.30489" lon="0.42964">
        <time>2021-05-08T05:08:27Z</time>
      </trkpt>
      <trkpt lat="41.30484" lon="0.42977">
        <time>2021-05-08T05:08:27Z</time>
      </trkpt>
      <trkpt lat="41.3048" lon="0.42991">
        <time>2021-05-08T05:08:27Z</time>
      </trkpt>
      <trkpt lat="41.3047" lon="0.43013">
        <time>2021-05-08T05:08:27Z</time>
      </trkpt>
      <trkpt lat="41.30461" lon="0.43034">
        <time>2021-05-08T05:08:27Z</time>
      </trkpt>
      <trkpt lat="41.30455" lon="0.43044">
        <time>2021-05-08T05:08:27Z</time>
      </trkpt>
      <trkpt lat="41.30449" lon="0.43047">
        <time>2021-05-08T05:08:27Z</time>
      </trkpt>
      <trkpt lat="41.30437" lon="0.4304899999999999">
        <time>2021-05-08T05:08:27Z</time>
      </trkpt>
      <trkpt lat="41.30422" lon="0.43051">
        <time>2021-05-08T05:08:27Z</time>
      </trkpt>
      <trkpt lat="41.30408" lon="0.43053">
        <time>2021-05-08T05:08:27Z</time>
      </trkpt>
      <trkpt lat="41.30394" lon="0.43057">
        <time>2021-05-08T05:08:27Z</time>
      </trkpt>
      <trkpt lat="41.30378" lon="0.4306200000000001">
        <time>2021-05-08T05:08:27Z</time>
      </trkpt>
      <trkpt lat="41.30357" lon="0.4307">
        <time>2021-05-08T05:08:27Z</time>
      </trkpt>
      <trkpt lat="41.30311" lon="0.4308199999999999">
        <time>2021-05-08T05:08:27Z</time>
      </trkpt>
      <trkpt lat="41.30295" lon="0.4309200000000001">
        <time>2021-05-08T05:08:27Z</time>
      </trkpt>
      <trkpt lat="41.30278" lon="0.43107">
        <time>2021-05-08T05:08:27Z</time>
      </trkpt>
      <trkpt lat="41.3026" lon="0.43134">
        <time>2021-05-08T05:08:27Z</time>
      </trkpt>
      <trkpt lat="41.30241" lon="0.4316">
        <time>2021-05-08T05:08:27Z</time>
      </trkpt>
      <trkpt lat="41.30223" lon="0.4318">
        <time>2021-05-08T05:08:27Z</time>
      </trkpt>
      <trkpt lat="41.30196" lon="0.4321">
        <time>2021-05-08T05:08:27Z</time>
      </trkpt>
      <trkpt lat="41.30183" lon="0.4321999999999999">
        <time>2021-05-08T05:08:27Z</time>
      </trkpt>
      <trkpt lat="41.30167" lon="0.43225">
        <time>2021-05-08T05:08:27Z</time>
      </trkpt>
      <trkpt lat="41.30142" lon="0.43232">
        <time>2021-05-08T05:08:27Z</time>
      </trkpt>
      <trkpt lat="41.30133" lon="0.43236">
        <time>2021-05-08T05:08:27Z</time>
      </trkpt>
      <trkpt lat="41.3012" lon="0.43243">
        <time>2021-05-08T05:08:27Z</time>
      </trkpt>
      <trkpt lat="41.30107" lon="0.4324999999999999">
        <time>2021-05-08T05:08:27Z</time>
      </trkpt>
      <trkpt lat="41.30093" lon="0.43256">
        <time>2021-05-08T05:08:27Z</time>
      </trkpt>
      <trkpt lat="41.30074" lon="0.43261">
        <time>2021-05-08T05:08:27Z</time>
      </trkpt>
      <trkpt lat="41.30061" lon="0.43264">
        <time>2021-05-08T05:08:27Z</time>
      </trkpt>
      <trkpt lat="41.30043" lon="0.4326999999999999">
        <time>2021-05-08T05:08:27Z</time>
      </trkpt>
      <trkpt lat="41.30033" lon="0.43278">
        <time>2021-05-08T05:08:27Z</time>
      </trkpt>
      <trkpt lat="41.30027" lon="0.4328300000000001">
        <time>2021-05-08T05:08:27Z</time>
      </trkpt>
      <trkpt lat="41.30016" lon="0.43298">
        <time>2021-05-08T05:08:27Z</time>
      </trkpt>
      <trkpt lat="41.30006" lon="0.4331">
        <time>2021-05-08T05:08:27Z</time>
      </trkpt>
      <trkpt lat="41.29994" lon="0.4331999999999999">
        <time>2021-05-08T05:08:27Z</time>
      </trkpt>
      <trkpt lat="41.29985" lon="0.43326">
        <time>2021-05-08T05:08:27Z</time>
      </trkpt>
      <trkpt lat="41.2997" lon="0.43331">
        <time>2021-05-08T05:08:27Z</time>
      </trkpt>
      <trkpt lat="41.29947" lon="0.43338">
        <time>2021-05-08T05:08:27Z</time>
      </trkpt>
      <trkpt lat="41.29922" lon="0.43345">
        <time>2021-05-08T05:08:27Z</time>
      </trkpt>
      <trkpt lat="41.29885" lon="0.43355">
        <time>2021-05-08T05:08:27Z</time>
      </trkpt>
      <trkpt lat="41.2986" lon="0.4336400000000001">
        <time>2021-05-08T05:08:27Z</time>
      </trkpt>
      <trkpt lat="41.29828" lon="0.43374">
        <time>2021-05-08T05:08:27Z</time>
      </trkpt>
      <trkpt lat="41.2981" lon="0.43386">
        <time>2021-05-08T05:08:27Z</time>
      </trkpt>
      <trkpt lat="41.29777" lon="0.4340399999999999">
        <time>2021-05-08T05:08:27Z</time>
      </trkpt>
      <trkpt lat="41.29763" lon="0.4340399999999999">
        <time>2021-05-08T05:08:27Z</time>
      </trkpt>
      <trkpt lat="41.2975" lon="0.43402">
        <time>2021-05-08T05:08:27Z</time>
      </trkpt>
      <trkpt lat="41.29739" lon="0.43399">
        <time>2021-05-08T05:08:27Z</time>
      </trkpt>
      <trkpt lat="41.29714" lon="0.43386">
        <time>2021-05-08T05:08:27Z</time>
      </trkpt>
      <trkpt lat="41.29655" lon="0.43372">
        <time>2021-05-08T05:08:27Z</time>
      </trkpt>
      <trkpt lat="41.29625" lon="0.43365">
        <time>2021-05-08T05:08:27Z</time>
      </trkpt>
      <trkpt lat="41.29596" lon="0.43363">
        <time>2021-05-08T05:08:27Z</time>
      </trkpt>
      <trkpt lat="41.29563" lon="0.43365">
        <time>2021-05-08T05:08:27Z</time>
      </trkpt>
      <trkpt lat="41.29539" lon="0.43361">
        <time>2021-05-08T05:08:27Z</time>
      </trkpt>
      <trkpt lat="41.29517" lon="0.43352">
        <time>2021-05-08T05:08:27Z</time>
      </trkpt>
      <trkpt lat="41.29493" lon="0.43336">
        <time>2021-05-08T05:08:27Z</time>
      </trkpt>
      <trkpt lat="41.29452" lon="0.43304">
        <time>2021-05-08T05:08:27Z</time>
      </trkpt>
      <trkpt lat="41.2944" lon="0.4330000000000001">
        <time>2021-05-08T05:08:27Z</time>
      </trkpt>
      <trkpt lat="41.29418" lon="0.43308">
        <time>2021-05-08T05:08:27Z</time>
      </trkpt>
      <trkpt lat="41.29404" lon="0.43313">
        <time>2021-05-08T05:08:27Z</time>
      </trkpt>
      <trkpt lat="41.2939" lon="0.43309">
        <time>2021-05-08T05:08:27Z</time>
      </trkpt>
      <trkpt lat="41.29375" lon="0.43301">
        <time>2021-05-08T05:08:27Z</time>
      </trkpt>
      <trkpt lat="41.29366" lon="0.43295">
        <time>2021-05-08T05:08:27Z</time>
      </trkpt>
      <trkpt lat="41.29357" lon="0.4328300000000001">
        <time>2021-05-08T05:08:27Z</time>
      </trkpt>
      <trkpt lat="41.29346" lon="0.4326999999999999">
        <time>2021-05-08T05:08:27Z</time>
      </trkpt>
      <trkpt lat="41.29333" lon="0.43257">
        <time>2021-05-08T05:08:27Z</time>
      </trkpt>
      <trkpt lat="41.29322" lon="0.43243">
        <time>2021-05-08T05:08:27Z</time>
      </trkpt>
      <trkpt lat="41.2931" lon="0.4323000000000001">
        <time>2021-05-08T05:08:27Z</time>
      </trkpt>
      <trkpt lat="41.29303" lon="0.43222">
        <time>2021-05-08T05:08:27Z</time>
      </trkpt>
      <trkpt lat="41.29297" lon="0.43215">
        <time>2021-05-08T05:08:27Z</time>
      </trkpt>
      <trkpt lat="41.29284" lon="0.43203">
        <time>2021-05-08T05:08:27Z</time>
      </trkpt>
      <trkpt lat="41.29271" lon="0.43188">
        <time>2021-05-08T05:08:27Z</time>
      </trkpt>
      <trkpt lat="41.29257" lon="0.43176">
        <time>2021-05-08T05:08:27Z</time>
      </trkpt>
      <trkpt lat="41.29248" lon="0.43171">
        <time>2021-05-08T05:08:27Z</time>
      </trkpt>
      <trkpt lat="41.29231" lon="0.43169">
        <time>2021-05-08T05:08:27Z</time>
      </trkpt>
      <trkpt lat="41.29205" lon="0.43175">
        <time>2021-05-08T05:08:27Z</time>
      </trkpt>
      <trkpt lat="41.29171" lon="0.43185">
        <time>2021-05-08T05:08:27Z</time>
      </trkpt>
      <trkpt lat="41.29126" lon="0.43197">
        <time>2021-05-08T05:08:27Z</time>
      </trkpt>
      <trkpt lat="41.29089" lon="0.43205">
        <time>2021-05-08T05:08:27Z</time>
      </trkpt>
      <trkpt lat="41.29045" lon="0.43218">
        <time>2021-05-08T05:08:27Z</time>
      </trkpt>
      <trkpt lat="41.29022" lon="0.4322900000000001">
        <time>2021-05-08T05:08:27Z</time>
      </trkpt>
      <trkpt lat="41.2894" lon="0.43269">
        <time>2021-05-08T05:08:27Z</time>
      </trkpt>
      <trkpt lat="41.28907" lon="0.4328300000000001">
        <time>2021-05-08T05:08:27Z</time>
      </trkpt>
      <trkpt lat="41.2888" lon="0.43285">
        <time>2021-05-08T05:08:27Z</time>
      </trkpt>
      <trkpt lat="41.2886" lon="0.43282">
        <time>2021-05-08T05:08:27Z</time>
      </trkpt>
      <trkpt lat="41.28832" lon="0.43277">
        <time>2021-05-08T05:08:27Z</time>
      </trkpt>
      <trkpt lat="41.28811" lon="0.43276">
        <time>2021-05-08T05:08:27Z</time>
      </trkpt>
      <trkpt lat="41.28791" lon="0.43277">
        <time>2021-05-08T05:08:27Z</time>
      </trkpt>
      <trkpt lat="41.28762" lon="0.43278">
        <time>2021-05-08T05:08:27Z</time>
      </trkpt>
      <trkpt lat="41.28747" lon="0.43271">
        <time>2021-05-08T05:08:27Z</time>
      </trkpt>
      <trkpt lat="41.28738" lon="0.43259">
        <time>2021-05-08T05:08:27Z</time>
      </trkpt>
      <trkpt lat="41.2873" lon="0.43242">
        <time>2021-05-08T05:08:27Z</time>
      </trkpt>
      <trkpt lat="41.28721" lon="0.43216">
        <time>2021-05-08T05:08:27Z</time>
      </trkpt>
      <trkpt lat="41.28713" lon="0.43202">
        <time>2021-05-08T05:08:27Z</time>
      </trkpt>
      <trkpt lat="41.28702" lon="0.43198">
        <time>2021-05-08T05:08:27Z</time>
      </trkpt>
      <trkpt lat="41.28673" lon="0.43198">
        <time>2021-05-08T05:08:27Z</time>
      </trkpt>
      <trkpt lat="41.28659" lon="0.4319600000000001">
        <time>2021-05-08T05:08:27Z</time>
      </trkpt>
      <trkpt lat="41.28645" lon="0.43185">
        <time>2021-05-08T05:08:27Z</time>
      </trkpt>
      <trkpt lat="41.28634" lon="0.43168">
        <time>2021-05-08T05:08:27Z</time>
      </trkpt>
      <trkpt lat="41.28625" lon="0.43145">
        <time>2021-05-08T05:08:27Z</time>
      </trkpt>
      <trkpt lat="41.28622" lon="0.43121">
        <time>2021-05-08T05:08:27Z</time>
      </trkpt>
      <trkpt lat="41.28625" lon="0.43104">
        <time>2021-05-08T05:08:27Z</time>
      </trkpt>
      <trkpt lat="41.28632" lon="0.4307900000000001">
        <time>2021-05-08T05:08:27Z</time>
      </trkpt>
      <trkpt lat="41.2865" lon="0.4303199999999999">
        <time>2021-05-08T05:08:27Z</time>
      </trkpt>
      <trkpt lat="41.28658" lon="0.43013">
        <time>2021-05-08T05:08:27Z</time>
      </trkpt>
      <trkpt lat="41.28661" lon="0.43001">
        <time>2021-05-08T05:08:27Z</time>
      </trkpt>
      <trkpt lat="41.28652" lon="0.42997">
        <time>2021-05-08T05:08:27Z</time>
      </trkpt>
      <trkpt lat="41.28647" lon="0.43003">
        <time>2021-05-08T05:08:27Z</time>
      </trkpt>
      <trkpt lat="41.2863" lon="0.43029">
        <time>2021-05-08T05:08:27Z</time>
      </trkpt>
      <trkpt lat="41.28618" lon="0.43041">
        <time>2021-05-08T05:08:27Z</time>
      </trkpt>
      <trkpt lat="41.28603" lon="0.43057">
        <time>2021-05-08T05:08:27Z</time>
      </trkpt>
      <trkpt lat="41.28594" lon="0.43072">
        <time>2021-05-08T05:08:27Z</time>
      </trkpt>
      <trkpt lat="41.28588" lon="0.4307900000000001">
        <time>2021-05-08T05:08:27Z</time>
      </trkpt>
      <trkpt lat="41.28579" lon="0.4307800000000001">
        <time>2021-05-08T05:08:27Z</time>
      </trkpt>
      <trkpt lat="41.28572" lon="0.43073">
        <time>2021-05-08T05:08:27Z</time>
      </trkpt>
      <trkpt lat="41.28553" lon="0.43056">
        <time>2021-05-08T05:08:27Z</time>
      </trkpt>
      <trkpt lat="41.2853" lon="0.43035">
        <time>2021-05-08T05:08:27Z</time>
      </trkpt>
      <trkpt lat="41.28513" lon="0.43023">
        <time>2021-05-08T05:08:27Z</time>
      </trkpt>
      <trkpt lat="41.28486" lon="0.43005">
        <time>2021-05-08T05:08:27Z</time>
      </trkpt>
      <trkpt lat="41.28471" lon="0.42988">
        <time>2021-05-08T05:08:27Z</time>
      </trkpt>
      <trkpt lat="41.28459" lon="0.4297800000000001">
        <time>2021-05-08T05:08:27Z</time>
      </trkpt>
      <trkpt lat="41.28438" lon="0.42962">
        <time>2021-05-08T05:08:27Z</time>
      </trkpt>
      <trkpt lat="41.28417" lon="0.42946">
        <time>2021-05-08T05:08:27Z</time>
      </trkpt>
      <trkpt lat="41.28406" lon="0.42944">
        <time>2021-05-08T05:08:27Z</time>
      </trkpt>
      <trkpt lat="41.28379" lon="0.4294499999999999">
        <time>2021-05-08T05:08:27Z</time>
      </trkpt>
      <trkpt lat="41.28368" lon="0.42944">
        <time>2021-05-08T05:08:27Z</time>
      </trkpt>
      <trkpt lat="41.28341" lon="0.4293">
        <time>2021-05-08T05:08:27Z</time>
      </trkpt>
      <trkpt lat="41.28323" lon="0.42921">
        <time>2021-05-08T05:08:27Z</time>
      </trkpt>
      <trkpt lat="41.28311" lon="0.42916">
        <time>2021-05-08T05:08:27Z</time>
      </trkpt>
      <trkpt lat="41.283" lon="0.42905">
        <time>2021-05-08T05:08:27Z</time>
      </trkpt>
      <trkpt lat="41.28293" lon="0.42897">
        <time>2021-05-08T05:08:27Z</time>
      </trkpt>
      <trkpt lat="41.28284" lon="0.42883">
        <time>2021-05-08T05:08:27Z</time>
      </trkpt>
      <trkpt lat="41.28275" lon="0.42873">
        <time>2021-05-08T05:08:27Z</time>
      </trkpt>
      <trkpt lat="41.28266" lon="0.42865">
        <time>2021-05-08T05:08:27Z</time>
      </trkpt>
      <trkpt lat="41.28251" lon="0.4285700000000001">
        <time>2021-05-08T05:08:27Z</time>
      </trkpt>
      <trkpt lat="41.28229" lon="0.4285">
        <time>2021-05-08T05:08:27Z</time>
      </trkpt>
      <trkpt lat="41.28201" lon="0.42849">
        <time>2021-05-08T05:08:27Z</time>
      </trkpt>
      <trkpt lat="41.2818" lon="0.42852">
        <time>2021-05-08T05:08:27Z</time>
      </trkpt>
      <trkpt lat="41.28143" lon="0.42868">
        <time>2021-05-08T05:08:27Z</time>
      </trkpt>
      <trkpt lat="41.28115" lon="0.42881">
        <time>2021-05-08T05:08:27Z</time>
      </trkpt>
      <trkpt lat="41.28093" lon="0.42889">
        <time>2021-05-08T05:08:27Z</time>
      </trkpt>
      <trkpt lat="41.28074" lon="0.4289799999999999">
        <time>2021-05-08T05:08:27Z</time>
      </trkpt>
      <trkpt lat="41.28065" lon="0.42904">
        <time>2021-05-08T05:08:27Z</time>
      </trkpt>
      <trkpt lat="41.28028" lon="0.42934">
        <time>2021-05-08T05:08:27Z</time>
      </trkpt>
      <trkpt lat="41.28012" lon="0.42955">
        <time>2021-05-08T05:08:27Z</time>
      </trkpt>
      <trkpt lat="41.28" lon="0.4297500000000001">
        <time>2021-05-08T05:08:27Z</time>
      </trkpt>
      <trkpt lat="41.27987" lon="0.43">
        <time>2021-05-08T05:08:27Z</time>
      </trkpt>
      <trkpt lat="41.2797" lon="0.43046">
        <time>2021-05-08T05:08:27Z</time>
      </trkpt>
      <trkpt lat="41.27951" lon="0.43094">
        <time>2021-05-08T05:08:27Z</time>
      </trkpt>
      <trkpt lat="41.27942" lon="0.43122">
        <time>2021-05-08T05:08:27Z</time>
      </trkpt>
      <trkpt lat="41.2793" lon="0.43137">
        <time>2021-05-08T05:08:27Z</time>
      </trkpt>
      <trkpt lat="41.2791" lon="0.43156">
        <time>2021-05-08T05:08:27Z</time>
      </trkpt>
      <trkpt lat="41.27896" lon="0.43161">
        <time>2021-05-08T05:08:27Z</time>
      </trkpt>
      <trkpt lat="41.27875" lon="0.43165">
        <time>2021-05-08T05:08:27Z</time>
      </trkpt>
      <trkpt lat="41.27863" lon="0.4316599999999999">
        <time>2021-05-08T05:08:27Z</time>
      </trkpt>
      <trkpt lat="41.27856" lon="0.43167">
        <time>2021-05-08T05:08:27Z</time>
      </trkpt>
      <trkpt lat="41.27847" lon="0.43169">
        <time>2021-05-08T05:08:27Z</time>
      </trkpt>
      <trkpt lat="41.27825" lon="0.43173">
        <time>2021-05-08T05:08:27Z</time>
      </trkpt>
      <trkpt lat="41.2782" lon="0.43175">
        <time>2021-05-08T05:08:27Z</time>
      </trkpt>
      <trkpt lat="41.27809" lon="0.4318299999999999">
        <time>2021-05-08T05:08:27Z</time>
      </trkpt>
      <trkpt lat="41.27786" lon="0.43204">
        <time>2021-05-08T05:08:27Z</time>
      </trkpt>
      <trkpt lat="41.27752" lon="0.43242">
        <time>2021-05-08T05:08:27Z</time>
      </trkpt>
      <trkpt lat="41.27748" lon="0.43254">
        <time>2021-05-08T05:08:27Z</time>
      </trkpt>
      <trkpt lat="41.27742" lon="0.43284">
        <time>2021-05-08T05:08:27Z</time>
      </trkpt>
      <trkpt lat="41.27734" lon="0.43305">
        <time>2021-05-08T05:08:27Z</time>
      </trkpt>
      <trkpt lat="41.27729" lon="0.4331400000000001">
        <time>2021-05-08T05:08:27Z</time>
      </trkpt>
      <trkpt lat="41.27718" lon="0.4331999999999999">
        <time>2021-05-08T05:08:27Z</time>
      </trkpt>
      <trkpt lat="41.27694" lon="0.43324">
        <time>2021-05-08T05:08:27Z</time>
      </trkpt>
      <trkpt lat="41.27684" lon="0.43325">
        <time>2021-05-08T05:08:27Z</time>
      </trkpt>
      <trkpt lat="41.27662" lon="0.43321">
        <time>2021-05-08T05:08:27Z</time>
      </trkpt>
      <trkpt lat="41.2765" lon="0.4331999999999999">
        <time>2021-05-08T05:08:27Z</time>
      </trkpt>
      <trkpt lat="41.2764" lon="0.43324">
        <time>2021-05-08T05:08:27Z</time>
      </trkpt>
      <trkpt lat="41.27627" lon="0.43334">
        <time>2021-05-08T05:08:27Z</time>
      </trkpt>
      <trkpt lat="41.27621" lon="0.43342">
        <time>2021-05-08T05:08:27Z</time>
      </trkpt>
      <trkpt lat="41.27614" lon="0.4335399999999999">
        <time>2021-05-08T05:08:27Z</time>
      </trkpt>
      <trkpt lat="41.2761" lon="0.43368">
        <time>2021-05-08T05:08:27Z</time>
      </trkpt>
      <trkpt lat="41.27607" lon="0.43377">
        <time>2021-05-08T05:08:27Z</time>
      </trkpt>
      <trkpt lat="41.276" lon="0.43386">
        <time>2021-05-08T05:08:27Z</time>
      </trkpt>
      <trkpt lat="41.27582" lon="0.43418">
        <time>2021-05-08T05:08:27Z</time>
      </trkpt>
      <trkpt lat="41.27578" lon="0.43429">
        <time>2021-05-08T05:08:27Z</time>
      </trkpt>
      <trkpt lat="41.27575" lon="0.43446">
        <time>2021-05-08T05:08:27Z</time>
      </trkpt>
      <trkpt lat="41.27575" lon="0.43453">
        <time>2021-05-08T05:08:27Z</time>
      </trkpt>
      <trkpt lat="41.27574" lon="0.43469">
        <time>2021-05-08T05:08:27Z</time>
      </trkpt>
      <trkpt lat="41.27568" lon="0.43482">
        <time>2021-05-08T05:08:27Z</time>
      </trkpt>
      <trkpt lat="41.2756" lon="0.43487">
        <time>2021-05-08T05:08:27Z</time>
      </trkpt>
      <trkpt lat="41.27554" lon="0.4348799999999999">
        <time>2021-05-08T05:08:27Z</time>
      </trkpt>
      <trkpt lat="41.27524" lon="0.4348799999999999">
        <time>2021-05-08T05:08:27Z</time>
      </trkpt>
      <trkpt lat="41.2751" lon="0.43489">
        <time>2021-05-08T05:08:27Z</time>
      </trkpt>
      <trkpt lat="41.27501" lon="0.43496">
        <time>2021-05-08T05:08:27Z</time>
      </trkpt>
      <trkpt lat="41.27492" lon="0.43509">
        <time>2021-05-08T05:08:27Z</time>
      </trkpt>
      <trkpt lat="41.27486" lon="0.4352">
        <time>2021-05-08T05:08:27Z</time>
      </trkpt>
      <trkpt lat="41.27482" lon="0.43531">
        <time>2021-05-08T05:08:27Z</time>
      </trkpt>
      <trkpt lat="41.27474" lon="0.43544">
        <time>2021-05-08T05:08:27Z</time>
      </trkpt>
      <trkpt lat="41.27466" lon="0.43554">
        <time>2021-05-08T05:08:27Z</time>
      </trkpt>
      <trkpt lat="41.27454" lon="0.4356">
        <time>2021-05-08T05:08:27Z</time>
      </trkpt>
      <trkpt lat="41.27444" lon="0.43562">
        <time>2021-05-08T05:08:27Z</time>
      </trkpt>
      <trkpt lat="41.27434" lon="0.43564">
        <time>2021-05-08T05:08:27Z</time>
      </trkpt>
      <trkpt lat="41.27415" lon="0.43569">
        <time>2021-05-08T05:08:27Z</time>
      </trkpt>
      <trkpt lat="41.27401" lon="0.43576">
        <time>2021-05-08T05:08:27Z</time>
      </trkpt>
      <trkpt lat="41.27391" lon="0.43583">
        <time>2021-05-08T05:08:27Z</time>
      </trkpt>
      <trkpt lat="41.27383" lon="0.43593">
        <time>2021-05-08T05:08:27Z</time>
      </trkpt>
      <trkpt lat="41.27375" lon="0.43607">
        <time>2021-05-08T05:08:27Z</time>
      </trkpt>
      <trkpt lat="41.27364" lon="0.43637">
        <time>2021-05-08T05:08:27Z</time>
      </trkpt>
      <trkpt lat="41.27357" lon="0.4365200000000001">
        <time>2021-05-08T05:08:27Z</time>
      </trkpt>
      <trkpt lat="41.27352" lon="0.43665">
        <time>2021-05-08T05:08:27Z</time>
      </trkpt>
      <trkpt lat="41.27339" lon="0.437">
        <time>2021-05-08T05:08:27Z</time>
      </trkpt>
      <trkpt lat="41.27327" lon="0.43733">
        <time>2021-05-08T05:08:27Z</time>
      </trkpt>
      <trkpt lat="41.27316" lon="0.43755">
        <time>2021-05-08T05:08:27Z</time>
      </trkpt>
      <trkpt lat="41.27307" lon="0.43771">
        <time>2021-05-08T05:08:27Z</time>
      </trkpt>
      <trkpt lat="41.27302" lon="0.43785">
        <time>2021-05-08T05:08:27Z</time>
      </trkpt>
      <trkpt lat="41.27296" lon="0.43797">
        <time>2021-05-08T05:08:27Z</time>
      </trkpt>
      <trkpt lat="41.27287" lon="0.43814">
        <time>2021-05-08T05:08:27Z</time>
      </trkpt>
      <trkpt lat="41.27275" lon="0.43848">
        <time>2021-05-08T05:08:27Z</time>
      </trkpt>
      <trkpt lat="41.27269" lon="0.43862">
        <time>2021-05-08T05:08:27Z</time>
      </trkpt>
      <trkpt lat="41.27259" lon="0.43879">
        <time>2021-05-08T05:08:27Z</time>
      </trkpt>
      <trkpt lat="41.27247" lon="0.43898">
        <time>2021-05-08T05:08:27Z</time>
      </trkpt>
      <trkpt lat="41.27237" lon="0.43919">
        <time>2021-05-08T05:08:27Z</time>
      </trkpt>
      <trkpt lat="41.27228" lon="0.43938">
        <time>2021-05-08T05:08:27Z</time>
      </trkpt>
      <trkpt lat="41.27221" lon="0.43947">
        <time>2021-05-08T05:08:27Z</time>
      </trkpt>
      <trkpt lat="41.27214" lon="0.43952">
        <time>2021-05-08T05:08:27Z</time>
      </trkpt>
      <trkpt lat="41.27211" lon="0.43961">
        <time>2021-05-08T05:08:27Z</time>
      </trkpt>
      <trkpt lat="41.27209" lon="0.4398099999999999">
        <time>2021-05-08T05:08:27Z</time>
      </trkpt>
      <trkpt lat="41.2721" lon="0.43999">
        <time>2021-05-08T05:08:27Z</time>
      </trkpt>
      <trkpt lat="41.27206" lon="0.44011">
        <time>2021-05-08T05:08:27Z</time>
      </trkpt>
      <trkpt lat="41.27199" lon="0.4402">
        <time>2021-05-08T05:08:27Z</time>
      </trkpt>
      <trkpt lat="41.27192" lon="0.44022">
        <time>2021-05-08T05:08:27Z</time>
      </trkpt>
      <trkpt lat="41.27186" lon="0.4402">
        <time>2021-05-08T05:08:27Z</time>
      </trkpt>
      <trkpt lat="41.27175" lon="0.44023">
        <time>2021-05-08T05:08:27Z</time>
      </trkpt>
      <trkpt lat="41.27163" lon="0.44028">
        <time>2021-05-08T05:08:27Z</time>
      </trkpt>
      <trkpt lat="41.27144" lon="0.44035">
        <time>2021-05-08T05:08:27Z</time>
      </trkpt>
      <trkpt lat="41.27129" lon="0.44042">
        <time>2021-05-08T05:08:27Z</time>
      </trkpt>
      <trkpt lat="41.27123" lon="0.4404400000000001">
        <time>2021-05-08T05:08:27Z</time>
      </trkpt>
      <trkpt lat="41.27113" lon="0.44051">
        <time>2021-05-08T05:08:27Z</time>
      </trkpt>
      <trkpt lat="41.27102" lon="0.4406">
        <time>2021-05-08T05:08:27Z</time>
      </trkpt>
      <trkpt lat="41.2709" lon="0.44073">
        <time>2021-05-08T05:08:27Z</time>
      </trkpt>
      <trkpt lat="41.27084" lon="0.44083">
        <time>2021-05-08T05:08:27Z</time>
      </trkpt>
      <trkpt lat="41.2708" lon="0.4409">
        <time>2021-05-08T05:08:27Z</time>
      </trkpt>
      <trkpt lat="41.27071" lon="0.44103">
        <time>2021-05-08T05:08:27Z</time>
      </trkpt>
      <trkpt lat="41.27064" lon="0.4411499999999999">
        <time>2021-05-08T05:08:27Z</time>
      </trkpt>
      <trkpt lat="41.27055" lon="0.44127">
        <time>2021-05-08T05:08:27Z</time>
      </trkpt>
      <trkpt lat="41.27048" lon="0.44138">
        <time>2021-05-08T05:08:27Z</time>
      </trkpt>
      <trkpt lat="41.27045" lon="0.4414500000000001">
        <time>2021-05-08T05:08:27Z</time>
      </trkpt>
      <trkpt lat="41.27043" lon="0.44156">
        <time>2021-05-08T05:08:27Z</time>
      </trkpt>
      <trkpt lat="41.27042" lon="0.44168">
        <time>2021-05-08T05:08:27Z</time>
      </trkpt>
      <trkpt lat="41.27041" lon="0.44176">
        <time>2021-05-08T05:08:27Z</time>
      </trkpt>
      <trkpt lat="41.27029" lon="0.44188">
        <time>2021-05-08T05:08:27Z</time>
      </trkpt>
      <trkpt lat="41.27022" lon="0.4419899999999999">
        <time>2021-05-08T05:08:27Z</time>
      </trkpt>
      <trkpt lat="41.27011" lon="0.44219">
        <time>2021-05-08T05:08:27Z</time>
      </trkpt>
      <trkpt lat="41.27007" lon="0.4423">
        <time>2021-05-08T05:08:27Z</time>
      </trkpt>
      <trkpt lat="41.27" lon="0.44243">
        <time>2021-05-08T05:08:27Z</time>
      </trkpt>
      <trkpt lat="41.26989" lon="0.44259">
        <time>2021-05-08T05:08:27Z</time>
      </trkpt>
      <trkpt lat="41.26984" lon="0.4427">
        <time>2021-05-08T05:08:27Z</time>
      </trkpt>
      <trkpt lat="41.26976" lon="0.44274">
        <time>2021-05-08T05:08:27Z</time>
      </trkpt>
      <trkpt lat="41.26973" lon="0.44276">
        <time>2021-05-08T05:08:27Z</time>
      </trkpt>
      <trkpt lat="41.26967" lon="0.44285">
        <time>2021-05-08T05:08:27Z</time>
      </trkpt>
      <trkpt lat="41.26962" lon="0.44291">
        <time>2021-05-08T05:08:27Z</time>
      </trkpt>
      <trkpt lat="41.26949" lon="0.44297">
        <time>2021-05-08T05:08:27Z</time>
      </trkpt>
      <trkpt lat="41.2694" lon="0.44298">
        <time>2021-05-08T05:08:27Z</time>
      </trkpt>
      <trkpt lat="41.26931" lon="0.44305">
        <time>2021-05-08T05:08:27Z</time>
      </trkpt>
      <trkpt lat="41.26923" lon="0.4431300000000001">
        <time>2021-05-08T05:08:27Z</time>
      </trkpt>
      <trkpt lat="41.26918" lon="0.44318">
        <time>2021-05-08T05:08:27Z</time>
      </trkpt>
      <trkpt lat="41.26918" lon="0.44326">
        <time>2021-05-08T05:08:27Z</time>
      </trkpt>
      <trkpt lat="41.26915" lon="0.44335">
        <time>2021-05-08T05:08:27Z</time>
      </trkpt>
      <trkpt lat="41.26916" lon="0.44341">
        <time>2021-05-08T05:08:27Z</time>
      </trkpt>
      <trkpt lat="41.26914" lon="0.44347">
        <time>2021-05-08T05:08:27Z</time>
      </trkpt>
      <trkpt lat="41.26908" lon="0.44355">
        <time>2021-05-08T05:08:27Z</time>
      </trkpt>
      <trkpt lat="41.26908" lon="0.44358">
        <time>2021-05-08T05:08:27Z</time>
      </trkpt>
      <trkpt lat="41.26907" lon="0.4436600000000001">
        <time>2021-05-08T05:08:27Z</time>
      </trkpt>
      <trkpt lat="41.26904" lon="0.44371">
        <time>2021-05-08T05:08:27Z</time>
      </trkpt>
      <trkpt lat="41.269" lon="0.44375">
        <time>2021-05-08T05:08:27Z</time>
      </trkpt>
      <trkpt lat="41.269" lon="0.44378">
        <time>2021-05-08T05:08:27Z</time>
      </trkpt>
      <trkpt lat="41.26902" lon="0.44385">
        <time>2021-05-08T05:08:27Z</time>
      </trkpt>
      <trkpt lat="41.26911" lon="0.4438200000000001">
        <time>2021-05-08T05:08:27Z</time>
      </trkpt>
      <trkpt lat="41.26916" lon="0.44378">
        <time>2021-05-08T05:08:27Z</time>
      </trkpt>
      <trkpt lat="41.26918" lon="0.4438">
        <time>2021-05-08T05:08:27Z</time>
      </trkpt>
      <trkpt lat="41.26915" lon="0.44384">
        <time>2021-05-08T05:08:27Z</time>
      </trkpt>
      <trkpt lat="41.26911" lon="0.44391">
        <time>2021-05-08T05:08:27Z</time>
      </trkpt>
      <trkpt lat="41.26906" lon="0.44401">
        <time>2021-05-08T05:08:27Z</time>
      </trkpt>
      <trkpt lat="41.26904" lon="0.44408">
        <time>2021-05-08T05:08:27Z</time>
      </trkpt>
      <trkpt lat="41.26906" lon="0.4441">
        <time>2021-05-08T05:08:27Z</time>
      </trkpt>
      <trkpt lat="41.26909" lon="0.44411">
        <time>2021-05-08T05:08:27Z</time>
      </trkpt>
      <trkpt lat="41.26915" lon="0.44408">
        <time>2021-05-08T05:08:27Z</time>
      </trkpt>
      <trkpt lat="41.26921" lon="0.44402">
        <time>2021-05-08T05:08:27Z</time>
      </trkpt>
      <trkpt lat="41.26931" lon="0.44396">
        <time>2021-05-08T05:08:27Z</time>
      </trkpt>
      <trkpt lat="41.26945" lon="0.4439">
        <time>2021-05-08T05:08:27Z</time>
      </trkpt>
      <trkpt lat="41.26954" lon="0.4438599999999999">
        <time>2021-05-08T05:08:27Z</time>
      </trkpt>
      <trkpt lat="41.26964" lon="0.44384">
        <time>2021-05-08T05:08:27Z</time>
      </trkpt>
      <trkpt lat="41.26974" lon="0.44384">
        <time>2021-05-08T05:08:27Z</time>
      </trkpt>
      <trkpt lat="41.26978" lon="0.4438599999999999">
        <time>2021-05-08T05:08:27Z</time>
      </trkpt>
      <trkpt lat="41.26977" lon="0.44391">
        <time>2021-05-08T05:08:27Z</time>
      </trkpt>
      <trkpt lat="41.26966" lon="0.44395">
        <time>2021-05-08T05:08:27Z</time>
      </trkpt>
      <trkpt lat="41.26955" lon="0.44402">
        <time>2021-05-08T05:08:27Z</time>
      </trkpt>
      <trkpt lat="41.26943" lon="0.44412">
        <time>2021-05-08T05:08:27Z</time>
      </trkpt>
      <trkpt lat="41.2694" lon="0.44423">
        <time>2021-05-08T05:08:27Z</time>
      </trkpt>
      <trkpt lat="41.26934" lon="0.44438">
        <time>2021-05-08T05:08:27Z</time>
      </trkpt>
      <trkpt lat="41.26933" lon="0.44447">
        <time>2021-05-08T05:08:27Z</time>
      </trkpt>
      <trkpt lat="41.26933" lon="0.44456">
        <time>2021-05-08T05:08:27Z</time>
      </trkpt>
      <trkpt lat="41.26935" lon="0.44462">
        <time>2021-05-08T05:08:27Z</time>
      </trkpt>
      <trkpt lat="41.26922" lon="0.44489">
        <time>2021-05-08T05:08:27Z</time>
      </trkpt>
      <trkpt lat="41.26922" lon="0.44493">
        <time>2021-05-08T05:08:27Z</time>
      </trkpt>
      <trkpt lat="41.26927" lon="0.44491">
        <time>2021-05-08T05:08:27Z</time>
      </trkpt>
      <trkpt lat="41.26932" lon="0.44485">
        <time>2021-05-08T05:08:27Z</time>
      </trkpt>
      <trkpt lat="41.26934" lon="0.44486">
        <time>2021-05-08T05:08:27Z</time>
      </trkpt>
      <trkpt lat="41.26934" lon="0.44489">
        <time>2021-05-08T05:08:27Z</time>
      </trkpt>
      <trkpt lat="41.26932" lon="0.44494">
        <time>2021-05-08T05:08:27Z</time>
      </trkpt>
      <trkpt lat="41.26929" lon="0.4450000000000001">
        <time>2021-05-08T05:08:27Z</time>
      </trkpt>
      <trkpt lat="41.26926" lon="0.4450399999999999">
        <time>2021-05-08T05:08:27Z</time>
      </trkpt>
      <trkpt lat="41.26922" lon="0.44507">
        <time>2021-05-08T05:08:27Z</time>
      </trkpt>
      <trkpt lat="41.26919" lon="0.44514">
        <time>2021-05-08T05:08:27Z</time>
      </trkpt>
      <trkpt lat="41.26911" lon="0.44531">
        <time>2021-05-08T05:08:27Z</time>
      </trkpt>
      <trkpt lat="41.26908" lon="0.44531">
        <time>2021-05-08T05:08:27Z</time>
      </trkpt>
      <trkpt lat="41.26905" lon="0.4453">
        <time>2021-05-08T05:08:27Z</time>
      </trkpt>
      <trkpt lat="41.26904" lon="0.44533">
        <time>2021-05-08T05:08:27Z</time>
      </trkpt>
      <trkpt lat="41.26904" lon="0.4453799999999999">
        <time>2021-05-08T05:08:27Z</time>
      </trkpt>
      <trkpt lat="41.26907" lon="0.44541">
        <time>2021-05-08T05:08:27Z</time>
      </trkpt>
      <trkpt lat="41.26911" lon="0.4454">
        <time>2021-05-08T05:08:27Z</time>
      </trkpt>
      <trkpt lat="41.26915" lon="0.44541">
        <time>2021-05-08T05:08:27Z</time>
      </trkpt>
      <trkpt lat="41.26916" lon="0.44543">
        <time>2021-05-08T05:08:27Z</time>
      </trkpt>
      <trkpt lat="41.26914" lon="0.44546">
        <time>2021-05-08T05:08:27Z</time>
      </trkpt>
      <trkpt lat="41.26913" lon="0.44549">
        <time>2021-05-08T05:08:27Z</time>
      </trkpt>
      <trkpt lat="41.26911" lon="0.44557">
        <time>2021-05-08T05:08:27Z</time>
      </trkpt>
      <trkpt lat="41.26909" lon="0.4457">
        <time>2021-05-08T05:08:27Z</time>
      </trkpt>
      <trkpt lat="41.26906" lon="0.44586">
        <time>2021-05-08T05:08:27Z</time>
      </trkpt>
      <trkpt lat="41.26907" lon="0.4459099999999999">
        <time>2021-05-08T05:08:27Z</time>
      </trkpt>
      <trkpt lat="41.26912" lon="0.44593">
        <time>2021-05-08T05:08:27Z</time>
      </trkpt>
      <trkpt lat="41.26918" lon="0.4458799999999999">
        <time>2021-05-08T05:08:27Z</time>
      </trkpt>
      <trkpt lat="41.26924" lon="0.44581">
        <time>2021-05-08T05:08:27Z</time>
      </trkpt>
      <trkpt lat="41.26929" lon="0.44579">
        <time>2021-05-08T05:08:27Z</time>
      </trkpt>
      <trkpt lat="41.26934" lon="0.44579">
        <time>2021-05-08T05:08:27Z</time>
      </trkpt>
      <trkpt lat="41.26939" lon="0.44582">
        <time>2021-05-08T05:08:27Z</time>
      </trkpt>
      <trkpt lat="41.26949" lon="0.4459">
        <time>2021-05-08T05:08:27Z</time>
      </trkpt>
      <trkpt lat="41.26955" lon="0.44595">
        <time>2021-05-08T05:08:27Z</time>
      </trkpt>
      <trkpt lat="41.26959" lon="0.44599">
        <time>2021-05-08T05:08:27Z</time>
      </trkpt>
      <trkpt lat="41.26973" lon="0.44597">
        <time>2021-05-08T05:08:27Z</time>
      </trkpt>
      <trkpt lat="41.26976" lon="0.44599">
        <time>2021-05-08T05:08:27Z</time>
      </trkpt>
      <trkpt lat="41.26978" lon="0.44603">
        <time>2021-05-08T05:08:27Z</time>
      </trkpt>
      <trkpt lat="41.26978" lon="0.44612">
        <time>2021-05-08T05:08:27Z</time>
      </trkpt>
      <trkpt lat="41.26975" lon="0.4461800000000001">
        <time>2021-05-08T05:08:27Z</time>
      </trkpt>
      <trkpt lat="41.26968" lon="0.44624">
        <time>2021-05-08T05:08:27Z</time>
      </trkpt>
      <trkpt lat="41.26967" lon="0.44628">
        <time>2021-05-08T05:08:27Z</time>
      </trkpt>
      <trkpt lat="41.26972" lon="0.44631">
        <time>2021-05-08T05:08:27Z</time>
      </trkpt>
      <trkpt lat="41.26975" lon="0.44632">
        <time>2021-05-08T05:08:27Z</time>
      </trkpt>
      <trkpt lat="41.26987" lon="0.4463400000000001">
        <time>2021-05-08T05:08:27Z</time>
      </trkpt>
      <trkpt lat="41.26993" lon="0.44631">
        <time>2021-05-08T05:08:27Z</time>
      </trkpt>
      <trkpt lat="41.26996" lon="0.44629">
        <time>2021-05-08T05:08:27Z</time>
      </trkpt>
      <trkpt lat="41.26998" lon="0.44631">
        <time>2021-05-08T05:08:27Z</time>
      </trkpt>
      <trkpt lat="41.26998" lon="0.4463500000000001">
        <time>2021-05-08T05:08:27Z</time>
      </trkpt>
      <trkpt lat="41.26996" lon="0.44642">
        <time>2021-05-08T05:08:27Z</time>
      </trkpt>
      <trkpt lat="41.26993" lon="0.44648">
        <time>2021-05-08T05:08:27Z</time>
      </trkpt>
      <trkpt lat="41.2698" lon="0.44656">
        <time>2021-05-08T05:08:27Z</time>
      </trkpt>
      <trkpt lat="41.26973" lon="0.4466">
        <time>2021-05-08T05:08:27Z</time>
      </trkpt>
      <trkpt lat="41.26969" lon="0.44663">
        <time>2021-05-08T05:08:27Z</time>
      </trkpt>
      <trkpt lat="41.26966" lon="0.44665">
        <time>2021-05-08T05:08:27Z</time>
      </trkpt>
      <trkpt lat="41.26966" lon="0.4467">
        <time>2021-05-08T05:08:27Z</time>
      </trkpt>
      <trkpt lat="41.26968" lon="0.44676">
        <time>2021-05-08T05:08:27Z</time>
      </trkpt>
      <trkpt lat="41.26971" lon="0.4468">
        <time>2021-05-08T05:08:27Z</time>
      </trkpt>
      <trkpt lat="41.26972" lon="0.44686">
        <time>2021-05-08T05:08:27Z</time>
      </trkpt>
      <trkpt lat="41.26972" lon="0.4469099999999999">
        <time>2021-05-08T05:08:27Z</time>
      </trkpt>
      <trkpt lat="41.26978" lon="0.4470799999999999">
        <time>2021-05-08T05:08:27Z</time>
      </trkpt>
      <trkpt lat="41.26982" lon="0.4472">
        <time>2021-05-08T05:08:27Z</time>
      </trkpt>
      <trkpt lat="41.26984" lon="0.44727">
        <time>2021-05-08T05:08:27Z</time>
      </trkpt>
      <trkpt lat="41.26984" lon="0.44732">
        <time>2021-05-08T05:08:27Z</time>
      </trkpt>
      <trkpt lat="41.26984" lon="0.44736">
        <time>2021-05-08T05:08:27Z</time>
      </trkpt>
      <trkpt lat="41.26983" lon="0.44741">
        <time>2021-05-08T05:08:27Z</time>
      </trkpt>
      <trkpt lat="41.26983" lon="0.44743">
        <time>2021-05-08T05:08:27Z</time>
      </trkpt>
      <trkpt lat="41.26985" lon="0.44748">
        <time>2021-05-08T05:08:27Z</time>
      </trkpt>
      <trkpt lat="41.26986" lon="0.44753">
        <time>2021-05-08T05:08:27Z</time>
      </trkpt>
      <trkpt lat="41.26987" lon="0.44761">
        <time>2021-05-08T05:08:27Z</time>
      </trkpt>
      <trkpt lat="41.26988" lon="0.4477">
        <time>2021-05-08T05:08:27Z</time>
      </trkpt>
      <trkpt lat="41.26988" lon="0.4477599999999999">
        <time>2021-05-08T05:08:27Z</time>
      </trkpt>
      <trkpt lat="41.26989" lon="0.44782">
        <time>2021-05-08T05:08:27Z</time>
      </trkpt>
      <trkpt lat="41.26989" lon="0.44784">
        <time>2021-05-08T05:08:27Z</time>
      </trkpt>
      <trkpt lat="41.2699" lon="0.4478800000000001">
        <time>2021-05-08T05:08:27Z</time>
      </trkpt>
      <trkpt lat="41.2699" lon="0.44791">
        <time>2021-05-08T05:08:27Z</time>
      </trkpt>
      <trkpt lat="41.26991" lon="0.44795">
        <time>2021-05-08T05:08:27Z</time>
      </trkpt>
      <trkpt lat="41.26993" lon="0.44797">
        <time>2021-05-08T05:08:27Z</time>
      </trkpt>
      <trkpt lat="41.26995" lon="0.4480500000000001">
        <time>2021-05-08T05:08:27Z</time>
      </trkpt>
      <trkpt lat="41.26996" lon="0.4481">
        <time>2021-05-08T05:08:27Z</time>
      </trkpt>
      <trkpt lat="41.27" lon="0.44821">
        <time>2021-05-08T05:08:27Z</time>
      </trkpt>
      <trkpt lat="41.27005" lon="0.44838">
        <time>2021-05-08T05:08:27Z</time>
      </trkpt>
      <trkpt lat="41.27008" lon="0.44851">
        <time>2021-05-08T05:08:27Z</time>
      </trkpt>
      <trkpt lat="41.2701" lon="0.44858">
        <time>2021-05-08T05:08:27Z</time>
      </trkpt>
      <trkpt lat="41.27011" lon="0.44861">
        <time>2021-05-08T05:08:27Z</time>
      </trkpt>
      <trkpt lat="41.27012" lon="0.44869">
        <time>2021-05-08T05:08:27Z</time>
      </trkpt>
      <trkpt lat="41.27014" lon="0.44877">
        <time>2021-05-08T05:08:27Z</time>
      </trkpt>
      <trkpt lat="41.27015" lon="0.44883">
        <time>2021-05-08T05:08:27Z</time>
      </trkpt>
      <trkpt lat="41.27015" lon="0.44888">
        <time>2021-05-08T05:08:27Z</time>
      </trkpt>
      <trkpt lat="41.27016" lon="0.44896">
        <time>2021-05-08T05:08:27Z</time>
      </trkpt>
      <trkpt lat="41.27014" lon="0.4490600000000001">
        <time>2021-05-08T05:08:27Z</time>
      </trkpt>
      <trkpt lat="41.27009" lon="0.44925">
        <time>2021-05-08T05:08:27Z</time>
      </trkpt>
      <trkpt lat="41.27007" lon="0.44929">
        <time>2021-05-08T05:08:27Z</time>
      </trkpt>
      <trkpt lat="41.27007" lon="0.44932">
        <time>2021-05-08T05:08:27Z</time>
      </trkpt>
      <trkpt lat="41.27011" lon="0.44933">
        <time>2021-05-08T05:08:27Z</time>
      </trkpt>
      <trkpt lat="41.27021" lon="0.44929">
        <time>2021-05-08T05:08:27Z</time>
      </trkpt>
      <trkpt lat="41.27029" lon="0.44925">
        <time>2021-05-08T05:08:27Z</time>
      </trkpt>
      <trkpt lat="41.27033" lon="0.44928">
        <time>2021-05-08T05:08:27Z</time>
      </trkpt>
      <trkpt lat="41.27034" lon="0.44932">
        <time>2021-05-08T05:08:27Z</time>
      </trkpt>
      <trkpt lat="41.27031" lon="0.4493900000000001">
        <time>2021-05-08T05:08:27Z</time>
      </trkpt>
      <trkpt lat="41.27027" lon="0.44947">
        <time>2021-05-08T05:08:27Z</time>
      </trkpt>
      <trkpt lat="41.27024" lon="0.44962">
        <time>2021-05-08T05:08:27Z</time>
      </trkpt>
      <trkpt lat="41.27021" lon="0.4497300000000001">
        <time>2021-05-08T05:08:27Z</time>
      </trkpt>
      <trkpt lat="41.27019" lon="0.44985">
        <time>2021-05-08T05:08:27Z</time>
      </trkpt>
      <trkpt lat="41.27016" lon="0.44997">
        <time>2021-05-08T05:08:27Z</time>
      </trkpt>
      <trkpt lat="41.27014" lon="0.4500700000000001">
        <time>2021-05-08T05:08:27Z</time>
      </trkpt>
      <trkpt lat="41.27012" lon="0.45017">
        <time>2021-05-08T05:08:27Z</time>
      </trkpt>
      <trkpt lat="41.27011" lon="0.45032">
        <time>2021-05-08T05:08:27Z</time>
      </trkpt>
      <trkpt lat="41.27011" lon="0.45041">
        <time>2021-05-08T05:08:27Z</time>
      </trkpt>
      <trkpt lat="41.27013" lon="0.45051">
        <time>2021-05-08T05:08:27Z</time>
      </trkpt>
      <trkpt lat="41.27011" lon="0.45055">
        <time>2021-05-08T05:08:27Z</time>
      </trkpt>
      <trkpt lat="41.27007" lon="0.45061">
        <time>2021-05-08T05:08:27Z</time>
      </trkpt>
      <trkpt lat="41.27002" lon="0.45068">
        <time>2021-05-08T05:08:27Z</time>
      </trkpt>
      <trkpt lat="41.26996" lon="0.45069">
        <time>2021-05-08T05:08:27Z</time>
      </trkpt>
      <trkpt lat="41.26979" lon="0.4506399999999999">
        <time>2021-05-08T05:08:27Z</time>
      </trkpt>
      <trkpt lat="41.26967" lon="0.4506299999999999">
        <time>2021-05-08T05:08:27Z</time>
      </trkpt>
      <trkpt lat="41.26961" lon="0.45067">
        <time>2021-05-08T05:08:27Z</time>
      </trkpt>
      <trkpt lat="41.26952" lon="0.45071">
        <time>2021-05-08T05:08:27Z</time>
      </trkpt>
      <trkpt lat="41.26943" lon="0.45071">
        <time>2021-05-08T05:08:27Z</time>
      </trkpt>
      <trkpt lat="41.26941" lon="0.45069">
        <time>2021-05-08T05:08:27Z</time>
      </trkpt>
      <trkpt lat="41.26941" lon="0.4506000000000001">
        <time>2021-05-08T05:08:27Z</time>
      </trkpt>
      <trkpt lat="41.26945" lon="0.45055">
        <time>2021-05-08T05:08:27Z</time>
      </trkpt>
      <trkpt lat="41.26954" lon="0.45039">
        <time>2021-05-08T05:08:27Z</time>
      </trkpt>
      <trkpt lat="41.26958" lon="0.4502999999999999">
        <time>2021-05-08T05:08:27Z</time>
      </trkpt>
      <trkpt lat="41.26958" lon="0.4502300000000001">
        <time>2021-05-08T05:08:27Z</time>
      </trkpt>
      <trkpt lat="41.26955" lon="0.45016">
        <time>2021-05-08T05:08:27Z</time>
      </trkpt>
      <trkpt lat="41.2695" lon="0.45001">
        <time>2021-05-08T05:08:27Z</time>
      </trkpt>
      <trkpt lat="41.2695" lon="0.4499000000000001">
        <time>2021-05-08T05:08:27Z</time>
      </trkpt>
      <trkpt lat="41.26951" lon="0.4497999999999999">
        <time>2021-05-08T05:08:27Z</time>
      </trkpt>
      <trkpt lat="41.26949" lon="0.44972">
        <time>2021-05-08T05:08:27Z</time>
      </trkpt>
      <trkpt lat="41.26945" lon="0.44966">
        <time>2021-05-08T05:08:27Z</time>
      </trkpt>
      <trkpt lat="41.26937" lon="0.44961">
        <time>2021-05-08T05:08:27Z</time>
      </trkpt>
      <trkpt lat="41.2692" lon="0.44953">
        <time>2021-05-08T05:08:27Z</time>
      </trkpt>
      <trkpt lat="41.26915" lon="0.44949">
        <time>2021-05-08T05:08:27Z</time>
      </trkpt>
      <trkpt lat="41.26912" lon="0.44942">
        <time>2021-05-08T05:08:27Z</time>
      </trkpt>
      <trkpt lat="41.26907" lon="0.44915">
        <time>2021-05-08T05:08:27Z</time>
      </trkpt>
      <trkpt lat="41.26904" lon="0.44908">
        <time>2021-05-08T05:08:27Z</time>
      </trkpt>
      <trkpt lat="41.26901" lon="0.44907">
        <time>2021-05-08T05:08:27Z</time>
      </trkpt>
      <trkpt lat="41.26897" lon="0.44907">
        <time>2021-05-08T05:08:27Z</time>
      </trkpt>
      <trkpt lat="41.26892" lon="0.44909">
        <time>2021-05-08T05:08:27Z</time>
      </trkpt>
      <trkpt lat="41.26884" lon="0.44911">
        <time>2021-05-08T05:08:27Z</time>
      </trkpt>
      <trkpt lat="41.2688" lon="0.44914">
        <time>2021-05-08T05:08:27Z</time>
      </trkpt>
      <trkpt lat="41.2687" lon="0.4493">
        <time>2021-05-08T05:08:27Z</time>
      </trkpt>
      <trkpt lat="41.26864" lon="0.4494000000000001">
        <time>2021-05-08T05:08:27Z</time>
      </trkpt>
      <trkpt lat="41.2686" lon="0.44944">
        <time>2021-05-08T05:08:27Z</time>
      </trkpt>
      <trkpt lat="41.26856" lon="0.44946">
        <time>2021-05-08T05:08:27Z</time>
      </trkpt>
      <trkpt lat="41.26848" lon="0.44955">
        <time>2021-05-08T05:08:27Z</time>
      </trkpt>
      <trkpt lat="41.26838" lon="0.44968">
        <time>2021-05-08T05:08:27Z</time>
      </trkpt>
      <trkpt lat="41.26831" lon="0.44974">
        <time>2021-05-08T05:08:27Z</time>
      </trkpt>
      <trkpt lat="41.2682" lon="0.44983">
        <time>2021-05-08T05:08:27Z</time>
      </trkpt>
      <trkpt lat="41.26812" lon="0.44989">
        <time>2021-05-08T05:08:27Z</time>
      </trkpt>
      <trkpt lat="41.26808" lon="0.4499000000000001">
        <time>2021-05-08T05:08:27Z</time>
      </trkpt>
      <trkpt lat="41.268" lon="0.44986">
        <time>2021-05-08T05:08:27Z</time>
      </trkpt>
      <trkpt lat="41.26794" lon="0.4497999999999999">
        <time>2021-05-08T05:08:27Z</time>
      </trkpt>
      <trkpt lat="41.2679" lon="0.4497600000000001">
        <time>2021-05-08T05:08:27Z</time>
      </trkpt>
      <trkpt lat="41.26787" lon="0.4497">
        <time>2021-05-08T05:08:27Z</time>
      </trkpt>
      <trkpt lat="41.26789" lon="0.44958">
        <time>2021-05-08T05:08:27Z</time>
      </trkpt>
      <trkpt lat="41.26788" lon="0.44946">
        <time>2021-05-08T05:08:27Z</time>
      </trkpt>
      <trkpt lat="41.26786" lon="0.44937">
        <time>2021-05-08T05:08:27Z</time>
      </trkpt>
      <trkpt lat="41.26785" lon="0.44924">
        <time>2021-05-08T05:08:27Z</time>
      </trkpt>
      <trkpt lat="41.26785" lon="0.44916">
        <time>2021-05-08T05:08:27Z</time>
      </trkpt>
      <trkpt lat="41.26784" lon="0.44908">
        <time>2021-05-08T05:08:27Z</time>
      </trkpt>
      <trkpt lat="41.26779" lon="0.44892">
        <time>2021-05-08T05:08:27Z</time>
      </trkpt>
      <trkpt lat="41.26776" lon="0.44878">
        <time>2021-05-08T05:08:27Z</time>
      </trkpt>
      <trkpt lat="41.26773" lon="0.44864">
        <time>2021-05-08T05:08:27Z</time>
      </trkpt>
      <trkpt lat="41.26774" lon="0.4485500000000001">
        <time>2021-05-08T05:08:27Z</time>
      </trkpt>
      <trkpt lat="41.26779" lon="0.4484">
        <time>2021-05-08T05:08:27Z</time>
      </trkpt>
      <trkpt lat="41.2678" lon="0.44835">
        <time>2021-05-08T05:08:27Z</time>
      </trkpt>
      <trkpt lat="41.26784" lon="0.44831">
        <time>2021-05-08T05:08:27Z</time>
      </trkpt>
      <trkpt lat="41.26786" lon="0.44827">
        <time>2021-05-08T05:08:27Z</time>
      </trkpt>
      <trkpt lat="41.26787" lon="0.44821">
        <time>2021-05-08T05:08:27Z</time>
      </trkpt>
      <trkpt lat="41.26785" lon="0.44817">
        <time>2021-05-08T05:08:27Z</time>
      </trkpt>
      <trkpt lat="41.2678" lon="0.44817">
        <time>2021-05-08T05:08:27Z</time>
      </trkpt>
      <trkpt lat="41.26774" lon="0.44819">
        <time>2021-05-08T05:08:27Z</time>
      </trkpt>
      <trkpt lat="41.26768" lon="0.44825">
        <time>2021-05-08T05:08:27Z</time>
      </trkpt>
      <trkpt lat="41.26763" lon="0.44828">
        <time>2021-05-08T05:08:27Z</time>
      </trkpt>
      <trkpt lat="41.26756" lon="0.44827">
        <time>2021-05-08T05:08:27Z</time>
      </trkpt>
      <trkpt lat="41.26749" lon="0.4482">
        <time>2021-05-08T05:08:27Z</time>
      </trkpt>
      <trkpt lat="41.26745" lon="0.44817">
        <time>2021-05-08T05:08:27Z</time>
      </trkpt>
      <trkpt lat="41.26737" lon="0.44814">
        <time>2021-05-08T05:08:27Z</time>
      </trkpt>
      <trkpt lat="41.2673" lon="0.44811">
        <time>2021-05-08T05:08:27Z</time>
      </trkpt>
      <trkpt lat="41.26723" lon="0.4480899999999999">
        <time>2021-05-08T05:08:27Z</time>
      </trkpt>
      <trkpt lat="41.26702" lon="0.44796">
        <time>2021-05-08T05:08:27Z</time>
      </trkpt>
      <trkpt lat="41.26695" lon="0.4479199999999999">
        <time>2021-05-08T05:08:27Z</time>
      </trkpt>
      <trkpt lat="41.26685" lon="0.44789">
        <time>2021-05-08T05:08:27Z</time>
      </trkpt>
      <trkpt lat="41.26675" lon="0.4478500000000001">
        <time>2021-05-08T05:08:27Z</time>
      </trkpt>
      <trkpt lat="41.26669" lon="0.44774">
        <time>2021-05-08T05:08:27Z</time>
      </trkpt>
      <trkpt lat="41.26666" lon="0.44767">
        <time>2021-05-08T05:08:27Z</time>
      </trkpt>
      <trkpt lat="41.26661" lon="0.4476">
        <time>2021-05-08T05:08:27Z</time>
      </trkpt>
      <trkpt lat="41.26649" lon="0.4475799999999999">
        <time>2021-05-08T05:08:27Z</time>
      </trkpt>
      <trkpt lat="41.26644" lon="0.44761">
        <time>2021-05-08T05:08:27Z</time>
      </trkpt>
      <trkpt lat="41.26641" lon="0.4477100000000001">
        <time>2021-05-08T05:08:27Z</time>
      </trkpt>
      <trkpt lat="41.26638" lon="0.44784">
        <time>2021-05-08T05:08:27Z</time>
      </trkpt>
      <trkpt lat="41.26638" lon="0.44795">
        <time>2021-05-08T05:08:27Z</time>
      </trkpt>
      <trkpt lat="41.2664" lon="0.44814">
        <time>2021-05-08T05:08:27Z</time>
      </trkpt>
      <trkpt lat="41.26641" lon="0.44836">
        <time>2021-05-08T05:08:27Z</time>
      </trkpt>
      <trkpt lat="41.26648" lon="0.44852">
        <time>2021-05-08T05:08:27Z</time>
      </trkpt>
      <trkpt lat="41.26648" lon="0.44858">
        <time>2021-05-08T05:08:27Z</time>
      </trkpt>
      <trkpt lat="41.26646" lon="0.44866">
        <time>2021-05-08T05:08:27Z</time>
      </trkpt>
      <trkpt lat="41.26645" lon="0.44877">
        <time>2021-05-08T05:08:27Z</time>
      </trkpt>
      <trkpt lat="41.26645" lon="0.44892">
        <time>2021-05-08T05:08:27Z</time>
      </trkpt>
      <trkpt lat="41.26644" lon="0.44901">
        <time>2021-05-08T05:08:27Z</time>
      </trkpt>
      <trkpt lat="41.26644" lon="0.44915">
        <time>2021-05-08T05:08:27Z</time>
      </trkpt>
      <trkpt lat="41.26646" lon="0.44929">
        <time>2021-05-08T05:08:27Z</time>
      </trkpt>
      <trkpt lat="41.26647" lon="0.4493900000000001">
        <time>2021-05-08T05:08:27Z</time>
      </trkpt>
      <trkpt lat="41.26646" lon="0.44947">
        <time>2021-05-08T05:08:27Z</time>
      </trkpt>
      <trkpt lat="41.26646" lon="0.44955">
        <time>2021-05-08T05:08:27Z</time>
      </trkpt>
      <trkpt lat="41.26648" lon="0.4495900000000001">
        <time>2021-05-08T05:08:27Z</time>
      </trkpt>
      <trkpt lat="41.26649" lon="0.44962">
        <time>2021-05-08T05:08:27Z</time>
      </trkpt>
      <trkpt lat="41.26642" lon="0.44967">
        <time>2021-05-08T05:08:27Z</time>
      </trkpt>
      <trkpt lat="41.26633" lon="0.44972">
        <time>2021-05-08T05:08:27Z</time>
      </trkpt>
      <trkpt lat="41.26628" lon="0.44972">
        <time>2021-05-08T05:08:27Z</time>
      </trkpt>
      <trkpt lat="41.26624" lon="0.44978">
        <time>2021-05-08T05:08:27Z</time>
      </trkpt>
      <trkpt lat="41.2661" lon="0.44984">
        <time>2021-05-08T05:08:27Z</time>
      </trkpt>
      <trkpt lat="41.26605" lon="0.44992">
        <time>2021-05-08T05:08:27Z</time>
      </trkpt>
      <trkpt lat="41.26595" lon="0.44997">
        <time>2021-05-08T05:08:27Z</time>
      </trkpt>
      <trkpt lat="41.26591" lon="0.44995">
        <time>2021-05-08T05:08:27Z</time>
      </trkpt>
      <trkpt lat="41.26586" lon="0.4499300000000001">
        <time>2021-05-08T05:08:27Z</time>
      </trkpt>
      <trkpt lat="41.26585" lon="0.44987">
        <time>2021-05-08T05:08:27Z</time>
      </trkpt>
      <trkpt lat="41.26583" lon="0.44979">
        <time>2021-05-08T05:08:27Z</time>
      </trkpt>
      <trkpt lat="41.2658" lon="0.44967">
        <time>2021-05-08T05:08:27Z</time>
      </trkpt>
      <trkpt lat="41.26574" lon="0.44951">
        <time>2021-05-08T05:08:27Z</time>
      </trkpt>
      <trkpt lat="41.26574" lon="0.44945">
        <time>2021-05-08T05:08:27Z</time>
      </trkpt>
      <trkpt lat="41.26573" lon="0.44934">
        <time>2021-05-08T05:08:27Z</time>
      </trkpt>
      <trkpt lat="41.26575" lon="0.44924">
        <time>2021-05-08T05:08:27Z</time>
      </trkpt>
      <trkpt lat="41.26572" lon="0.4492">
        <time>2021-05-08T05:08:27Z</time>
      </trkpt>
      <trkpt lat="41.26567" lon="0.4491299999999999">
        <time>2021-05-08T05:08:27Z</time>
      </trkpt>
      <trkpt lat="41.26564" lon="0.4490600000000001">
        <time>2021-05-08T05:08:27Z</time>
      </trkpt>
      <trkpt lat="41.26553" lon="0.44896">
        <time>2021-05-08T05:08:27Z</time>
      </trkpt>
      <trkpt lat="41.2654" lon="0.44885">
        <time>2021-05-08T05:08:27Z</time>
      </trkpt>
      <trkpt lat="41.26532" lon="0.44884">
        <time>2021-05-08T05:08:27Z</time>
      </trkpt>
      <trkpt lat="41.26525" lon="0.44886">
        <time>2021-05-08T05:08:27Z</time>
      </trkpt>
      <trkpt lat="41.26521" lon="0.44892">
        <time>2021-05-08T05:08:27Z</time>
      </trkpt>
      <trkpt lat="41.26516" lon="0.44894">
        <time>2021-05-08T05:08:27Z</time>
      </trkpt>
      <trkpt lat="41.26505" lon="0.44892">
        <time>2021-05-08T05:08:27Z</time>
      </trkpt>
      <trkpt lat="41.26501" lon="0.44885">
        <time>2021-05-08T05:08:27Z</time>
      </trkpt>
      <trkpt lat="41.26496" lon="0.44877">
        <time>2021-05-08T05:08:27Z</time>
      </trkpt>
      <trkpt lat="41.26489" lon="0.4487">
        <time>2021-05-08T05:08:27Z</time>
      </trkpt>
      <trkpt lat="41.26485" lon="0.44869">
        <time>2021-05-08T05:08:27Z</time>
      </trkpt>
      <trkpt lat="41.26478" lon="0.4487">
        <time>2021-05-08T05:08:27Z</time>
      </trkpt>
      <trkpt lat="41.26471" lon="0.44867">
        <time>2021-05-08T05:08:27Z</time>
      </trkpt>
      <trkpt lat="41.26465" lon="0.44861">
        <time>2021-05-08T05:08:27Z</time>
      </trkpt>
      <trkpt lat="41.26455" lon="0.4485500000000001">
        <time>2021-05-08T05:08:27Z</time>
      </trkpt>
      <trkpt lat="41.26445" lon="0.4485600000000001">
        <time>2021-05-08T05:08:27Z</time>
      </trkpt>
      <trkpt lat="41.26434" lon="0.44861">
        <time>2021-05-08T05:08:27Z</time>
      </trkpt>
      <trkpt lat="41.26426" lon="0.44869">
        <time>2021-05-08T05:08:27Z</time>
      </trkpt>
      <trkpt lat="41.26419" lon="0.44881">
        <time>2021-05-08T05:08:27Z</time>
      </trkpt>
      <trkpt lat="41.26414" lon="0.44894">
        <time>2021-05-08T05:08:27Z</time>
      </trkpt>
      <trkpt lat="41.26413" lon="0.44905">
        <time>2021-05-08T05:08:27Z</time>
      </trkpt>
      <trkpt lat="41.2641" lon="0.44915">
        <time>2021-05-08T05:08:27Z</time>
      </trkpt>
      <trkpt lat="41.26404" lon="0.44924">
        <time>2021-05-08T05:08:27Z</time>
      </trkpt>
      <trkpt lat="41.26397" lon="0.44927">
        <time>2021-05-08T05:08:27Z</time>
      </trkpt>
      <trkpt lat="41.26392" lon="0.44935">
        <time>2021-05-08T05:08:27Z</time>
      </trkpt>
      <trkpt lat="41.26381" lon="0.44937">
        <time>2021-05-08T05:08:27Z</time>
      </trkpt>
      <trkpt lat="41.26376" lon="0.44932">
        <time>2021-05-08T05:08:27Z</time>
      </trkpt>
      <trkpt lat="41.26375" lon="0.4492">
        <time>2021-05-08T05:08:27Z</time>
      </trkpt>
      <trkpt lat="41.26372" lon="0.44909">
        <time>2021-05-08T05:08:27Z</time>
      </trkpt>
      <trkpt lat="41.26366" lon="0.44898">
        <time>2021-05-08T05:08:27Z</time>
      </trkpt>
      <trkpt lat="41.26364" lon="0.44892">
        <time>2021-05-08T05:08:27Z</time>
      </trkpt>
      <trkpt lat="41.2636" lon="0.4489">
        <time>2021-05-08T05:08:27Z</time>
      </trkpt>
      <trkpt lat="41.26356" lon="0.44884">
        <time>2021-05-08T05:08:27Z</time>
      </trkpt>
      <trkpt lat="41.26349" lon="0.44877">
        <time>2021-05-08T05:08:27Z</time>
      </trkpt>
      <trkpt lat="41.26349" lon="0.44868">
        <time>2021-05-08T05:08:27Z</time>
      </trkpt>
      <trkpt lat="41.26353" lon="0.4486">
        <time>2021-05-08T05:08:27Z</time>
      </trkpt>
      <trkpt lat="41.26354" lon="0.4485">
        <time>2021-05-08T05:08:27Z</time>
      </trkpt>
      <trkpt lat="41.26356" lon="0.44841">
        <time>2021-05-08T05:08:27Z</time>
      </trkpt>
      <trkpt lat="41.26361" lon="0.44833">
        <time>2021-05-08T05:08:27Z</time>
      </trkpt>
      <trkpt lat="41.26363" lon="0.44828">
        <time>2021-05-08T05:08:27Z</time>
      </trkpt>
      <trkpt lat="41.26364" lon="0.44811">
        <time>2021-05-08T05:08:27Z</time>
      </trkpt>
      <trkpt lat="41.26362" lon="0.44797">
        <time>2021-05-08T05:08:27Z</time>
      </trkpt>
      <trkpt lat="41.26359" lon="0.4479">
        <time>2021-05-08T05:08:27Z</time>
      </trkpt>
      <trkpt lat="41.26355" lon="0.44783">
        <time>2021-05-08T05:08:27Z</time>
      </trkpt>
      <trkpt lat="41.26351" lon="0.4477499999999999">
        <time>2021-05-08T05:08:27Z</time>
      </trkpt>
      <trkpt lat="41.26344" lon="0.44768">
        <time>2021-05-08T05:08:27Z</time>
      </trkpt>
      <trkpt lat="41.26342" lon="0.44764">
        <time>2021-05-08T05:08:27Z</time>
      </trkpt>
      <trkpt lat="41.26333" lon="0.4475899999999999">
        <time>2021-05-08T05:08:27Z</time>
      </trkpt>
      <trkpt lat="41.26332" lon="0.44756">
        <time>2021-05-08T05:08:27Z</time>
      </trkpt>
      <trkpt lat="41.26326" lon="0.44745">
        <time>2021-05-08T05:08:27Z</time>
      </trkpt>
      <trkpt lat="41.2632" lon="0.44737">
        <time>2021-05-08T05:08:27Z</time>
      </trkpt>
      <trkpt lat="41.26311" lon="0.44728">
        <time>2021-05-08T05:08:27Z</time>
      </trkpt>
      <trkpt lat="41.26306" lon="0.4472499999999999">
        <time>2021-05-08T05:08:27Z</time>
      </trkpt>
      <trkpt lat="41.26302" lon="0.44717">
        <time>2021-05-08T05:08:27Z</time>
      </trkpt>
      <trkpt lat="41.26299" lon="0.4471">
        <time>2021-05-08T05:08:27Z</time>
      </trkpt>
      <trkpt lat="41.26292" lon="0.44696">
        <time>2021-05-08T05:08:27Z</time>
      </trkpt>
      <trkpt lat="41.26288" lon="0.4469099999999999">
        <time>2021-05-08T05:08:27Z</time>
      </trkpt>
      <trkpt lat="41.26282" lon="0.44684">
        <time>2021-05-08T05:08:27Z</time>
      </trkpt>
      <trkpt lat="41.26276" lon="0.44681">
        <time>2021-05-08T05:08:27Z</time>
      </trkpt>
      <trkpt lat="41.26267" lon="0.44683">
        <time>2021-05-08T05:08:27Z</time>
      </trkpt>
      <trkpt lat="41.26263" lon="0.4468">
        <time>2021-05-08T05:08:27Z</time>
      </trkpt>
      <trkpt lat="41.26253" lon="0.44677">
        <time>2021-05-08T05:08:27Z</time>
      </trkpt>
      <trkpt lat="41.26249" lon="0.44676">
        <time>2021-05-08T05:08:27Z</time>
      </trkpt>
      <trkpt lat="41.26242" lon="0.4468">
        <time>2021-05-08T05:08:27Z</time>
      </trkpt>
      <trkpt lat="41.26235" lon="0.44686">
        <time>2021-05-08T05:08:27Z</time>
      </trkpt>
      <trkpt lat="41.26227" lon="0.44694">
        <time>2021-05-08T05:08:27Z</time>
      </trkpt>
      <trkpt lat="41.26216" lon="0.44702">
        <time>2021-05-08T05:08:27Z</time>
      </trkpt>
      <trkpt lat="41.26217" lon="0.44703">
        <time>2021-05-08T05:08:27Z</time>
      </trkpt>
      <trkpt lat="41.26224" lon="0.44701">
        <time>2021-05-08T05:08:27Z</time>
      </trkpt>
      <trkpt lat="41.26229" lon="0.44703">
        <time>2021-05-08T05:08:27Z</time>
      </trkpt>
      <trkpt lat="41.26227" lon="0.44707">
        <time>2021-05-08T05:08:27Z</time>
      </trkpt>
      <trkpt lat="41.26218" lon="0.44713">
        <time>2021-05-08T05:08:27Z</time>
      </trkpt>
      <trkpt lat="41.26213" lon="0.44716">
        <time>2021-05-08T05:08:27Z</time>
      </trkpt>
      <trkpt lat="41.26206" lon="0.44723">
        <time>2021-05-08T05:08:27Z</time>
      </trkpt>
      <trkpt lat="41.26203" lon="0.44729">
        <time>2021-05-08T05:08:27Z</time>
      </trkpt>
      <trkpt lat="41.26201" lon="0.4473500000000001">
        <time>2021-05-08T05:08:27Z</time>
      </trkpt>
      <trkpt lat="41.26199" lon="0.4474">
        <time>2021-05-08T05:08:27Z</time>
      </trkpt>
      <trkpt lat="41.26188" lon="0.44745">
        <time>2021-05-08T05:08:27Z</time>
      </trkpt>
      <trkpt lat="41.26184" lon="0.44747">
        <time>2021-05-08T05:08:27Z</time>
      </trkpt>
      <trkpt lat="41.26179" lon="0.44745">
        <time>2021-05-08T05:08:27Z</time>
      </trkpt>
      <trkpt lat="41.26176" lon="0.44746">
        <time>2021-05-08T05:08:27Z</time>
      </trkpt>
      <trkpt lat="41.26173" lon="0.44748">
        <time>2021-05-08T05:08:27Z</time>
      </trkpt>
      <trkpt lat="41.26171" lon="0.4475400000000001">
        <time>2021-05-08T05:08:27Z</time>
      </trkpt>
      <trkpt lat="41.2617" lon="0.4475799999999999">
        <time>2021-05-08T05:08:27Z</time>
      </trkpt>
      <trkpt lat="41.26165" lon="0.44767">
        <time>2021-05-08T05:08:27Z</time>
      </trkpt>
      <trkpt lat="41.26159" lon="0.44774">
        <time>2021-05-08T05:08:27Z</time>
      </trkpt>
      <trkpt lat="41.26151" lon="0.44784">
        <time>2021-05-08T05:08:27Z</time>
      </trkpt>
      <trkpt lat="41.26137" lon="0.44794">
        <time>2021-05-08T05:08:27Z</time>
      </trkpt>
      <trkpt lat="41.26127" lon="0.44802">
        <time>2021-05-08T05:08:27Z</time>
      </trkpt>
      <trkpt lat="41.26115" lon="0.4480899999999999">
        <time>2021-05-08T05:08:27Z</time>
      </trkpt>
      <trkpt lat="41.26101" lon="0.44818">
        <time>2021-05-08T05:08:27Z</time>
      </trkpt>
      <trkpt lat="41.26094" lon="0.44819">
        <time>2021-05-08T05:08:27Z</time>
      </trkpt>
      <trkpt lat="41.26086" lon="0.44817">
        <time>2021-05-08T05:08:27Z</time>
      </trkpt>
      <trkpt lat="41.26083" lon="0.44815">
        <time>2021-05-08T05:08:27Z</time>
      </trkpt>
      <trkpt lat="41.26076" lon="0.44813">
        <time>2021-05-08T05:08:27Z</time>
      </trkpt>
      <trkpt lat="41.26069" lon="0.44819">
        <time>2021-05-08T05:08:27Z</time>
      </trkpt>
      <trkpt lat="41.26063" lon="0.44821">
        <time>2021-05-08T05:08:27Z</time>
      </trkpt>
      <trkpt lat="41.26058" lon="0.4482200000000001">
        <time>2021-05-08T05:08:27Z</time>
      </trkpt>
      <trkpt lat="41.26052" lon="0.44817">
        <time>2021-05-08T05:08:27Z</time>
      </trkpt>
      <trkpt lat="41.26048" lon="0.44819">
        <time>2021-05-08T05:08:27Z</time>
      </trkpt>
      <trkpt lat="41.26046" lon="0.44823">
        <time>2021-05-08T05:08:27Z</time>
      </trkpt>
      <trkpt lat="41.26048" lon="0.4483">
        <time>2021-05-08T05:08:27Z</time>
      </trkpt>
      <trkpt lat="41.26058" lon="0.44831">
        <time>2021-05-08T05:08:27Z</time>
      </trkpt>
      <trkpt lat="41.26068" lon="0.44832">
        <time>2021-05-08T05:08:27Z</time>
      </trkpt>
      <trkpt lat="41.26079" lon="0.44837">
        <time>2021-05-08T05:08:27Z</time>
      </trkpt>
      <trkpt lat="41.26083" lon="0.4484299999999999">
        <time>2021-05-08T05:08:27Z</time>
      </trkpt>
      <trkpt lat="41.26088" lon="0.44852">
        <time>2021-05-08T05:08:27Z</time>
      </trkpt>
      <trkpt lat="41.26096" lon="0.44862">
        <time>2021-05-08T05:08:27Z</time>
      </trkpt>
      <trkpt lat="41.26106" lon="0.44878">
        <time>2021-05-08T05:08:27Z</time>
      </trkpt>
      <trkpt lat="41.26108" lon="0.44882">
        <time>2021-05-08T05:08:27Z</time>
      </trkpt>
      <trkpt lat="41.26105" lon="0.44887">
        <time>2021-05-08T05:08:27Z</time>
      </trkpt>
      <trkpt lat="41.26098" lon="0.44887">
        <time>2021-05-08T05:08:27Z</time>
      </trkpt>
      <trkpt lat="41.26087" lon="0.44885">
        <time>2021-05-08T05:08:27Z</time>
      </trkpt>
      <trkpt lat="41.2607" lon="0.44883">
        <time>2021-05-08T05:08:27Z</time>
      </trkpt>
      <trkpt lat="41.26066" lon="0.44886">
        <time>2021-05-08T05:08:27Z</time>
      </trkpt>
      <trkpt lat="41.2606" lon="0.44894">
        <time>2021-05-08T05:08:27Z</time>
      </trkpt>
      <trkpt lat="41.26051" lon="0.44901">
        <time>2021-05-08T05:08:27Z</time>
      </trkpt>
      <trkpt lat="41.26035" lon="0.44909">
        <time>2021-05-08T05:08:27Z</time>
      </trkpt>
      <trkpt lat="41.26019" lon="0.44921">
        <time>2021-05-08T05:08:27Z</time>
      </trkpt>
      <trkpt lat="41.26011" lon="0.44929">
        <time>2021-05-08T05:08:27Z</time>
      </trkpt>
      <trkpt lat="41.26006" lon="0.44937">
        <time>2021-05-08T05:08:27Z</time>
      </trkpt>
      <trkpt lat="41.25999" lon="0.44955">
        <time>2021-05-08T05:08:27Z</time>
      </trkpt>
      <trkpt lat="41.25993" lon="0.44966">
        <time>2021-05-08T05:08:27Z</time>
      </trkpt>
      <trkpt lat="41.25983" lon="0.44986">
        <time>2021-05-08T05:08:27Z</time>
      </trkpt>
      <trkpt lat="41.25978" lon="0.44992">
        <time>2021-05-08T05:08:27Z</time>
      </trkpt>
      <trkpt lat="41.25967" lon="0.44999">
        <time>2021-05-08T05:08:27Z</time>
      </trkpt>
      <trkpt lat="41.25962" lon="0.45001">
        <time>2021-05-08T05:08:27Z</time>
      </trkpt>
      <trkpt lat="41.2596" lon="0.45008">
        <time>2021-05-08T05:08:27Z</time>
      </trkpt>
      <trkpt lat="41.25961" lon="0.45014">
        <time>2021-05-08T05:08:27Z</time>
      </trkpt>
      <trkpt lat="41.25966" lon="0.4502">
        <time>2021-05-08T05:08:27Z</time>
      </trkpt>
      <trkpt lat="41.2597" lon="0.45025">
        <time>2021-05-08T05:08:27Z</time>
      </trkpt>
      <trkpt lat="41.25971" lon="0.45031">
        <time>2021-05-08T05:08:27Z</time>
      </trkpt>
      <trkpt lat="41.2597" lon="0.45038">
        <time>2021-05-08T05:08:27Z</time>
      </trkpt>
      <trkpt lat="41.25967" lon="0.45046">
        <time>2021-05-08T05:08:27Z</time>
      </trkpt>
      <trkpt lat="41.25956" lon="0.45058">
        <time>2021-05-08T05:08:27Z</time>
      </trkpt>
      <trkpt lat="41.25945" lon="0.45078">
        <time>2021-05-08T05:08:27Z</time>
      </trkpt>
      <trkpt lat="41.25938" lon="0.45088">
        <time>2021-05-08T05:08:27Z</time>
      </trkpt>
      <trkpt lat="41.25932" lon="0.4509300000000001">
        <time>2021-05-08T05:08:27Z</time>
      </trkpt>
      <trkpt lat="41.25928" lon="0.45099">
        <time>2021-05-08T05:08:27Z</time>
      </trkpt>
      <trkpt lat="41.25926" lon="0.45109">
        <time>2021-05-08T05:08:27Z</time>
      </trkpt>
      <trkpt lat="41.25928" lon="0.4511399999999999">
        <time>2021-05-08T05:08:27Z</time>
      </trkpt>
      <trkpt lat="41.25935" lon="0.45118">
        <time>2021-05-08T05:08:27Z</time>
      </trkpt>
      <trkpt lat="41.25942" lon="0.45124">
        <time>2021-05-08T05:08:27Z</time>
      </trkpt>
      <trkpt lat="41.25944" lon="0.4512700000000001">
        <time>2021-05-08T05:08:27Z</time>
      </trkpt>
      <trkpt lat="41.25945" lon="0.45139">
        <time>2021-05-08T05:08:27Z</time>
      </trkpt>
      <trkpt lat="41.25944" lon="0.4514699999999999">
        <time>2021-05-08T05:08:27Z</time>
      </trkpt>
      <trkpt lat="41.25939" lon="0.45159">
        <time>2021-05-08T05:08:27Z</time>
      </trkpt>
      <trkpt lat="41.25933" lon="0.45173">
        <time>2021-05-08T05:08:27Z</time>
      </trkpt>
      <trkpt lat="41.25931" lon="0.45186">
        <time>2021-05-08T05:08:27Z</time>
      </trkpt>
      <trkpt lat="41.25928" lon="0.4519799999999999">
        <time>2021-05-08T05:08:27Z</time>
      </trkpt>
      <trkpt lat="41.2592" lon="0.45223">
        <time>2021-05-08T05:08:27Z</time>
      </trkpt>
      <trkpt lat="41.25918" lon="0.4523">
        <time>2021-05-08T05:08:27Z</time>
      </trkpt>
      <trkpt lat="41.25917" lon="0.45235">
        <time>2021-05-08T05:08:27Z</time>
      </trkpt>
      <trkpt lat="41.25917" lon="0.4524400000000001">
        <time>2021-05-08T05:08:27Z</time>
      </trkpt>
      <trkpt lat="41.25919" lon="0.45258">
        <time>2021-05-08T05:08:27Z</time>
      </trkpt>
      <trkpt lat="41.25923" lon="0.45269">
        <time>2021-05-08T05:08:27Z</time>
      </trkpt>
      <trkpt lat="41.25928" lon="0.4527800000000001">
        <time>2021-05-08T05:08:27Z</time>
      </trkpt>
      <trkpt lat="41.25933" lon="0.45292">
        <time>2021-05-08T05:08:27Z</time>
      </trkpt>
      <trkpt lat="41.25938" lon="0.45309">
        <time>2021-05-08T05:08:27Z</time>
      </trkpt>
      <trkpt lat="41.25941" lon="0.45337">
        <time>2021-05-08T05:08:27Z</time>
      </trkpt>
      <trkpt lat="41.25938" lon="0.4534500000000001">
        <time>2021-05-08T05:08:27Z</time>
      </trkpt>
      <trkpt lat="41.25934" lon="0.45351">
        <time>2021-05-08T05:08:27Z</time>
      </trkpt>
      <trkpt lat="41.25928" lon="0.45358">
        <time>2021-05-08T05:08:27Z</time>
      </trkpt>
      <trkpt lat="41.25925" lon="0.45364">
        <time>2021-05-08T05:08:27Z</time>
      </trkpt>
      <trkpt lat="41.25917" lon="0.4538">
        <time>2021-05-08T05:08:27Z</time>
      </trkpt>
      <trkpt lat="41.25911" lon="0.45393">
        <time>2021-05-08T05:08:27Z</time>
      </trkpt>
      <trkpt lat="41.25903" lon="0.45406">
        <time>2021-05-08T05:08:27Z</time>
      </trkpt>
      <trkpt lat="41.25894" lon="0.45426">
        <time>2021-05-08T05:08:27Z</time>
      </trkpt>
      <trkpt lat="41.25893" lon="0.45433">
        <time>2021-05-08T05:08:27Z</time>
      </trkpt>
      <trkpt lat="41.25892" lon="0.45439">
        <time>2021-05-08T05:08:27Z</time>
      </trkpt>
      <trkpt lat="41.25885" lon="0.45457">
        <time>2021-05-08T05:08:27Z</time>
      </trkpt>
      <trkpt lat="41.25875" lon="0.45472">
        <time>2021-05-08T05:08:27Z</time>
      </trkpt>
      <trkpt lat="41.25875" lon="0.4548200000000001">
        <time>2021-05-08T05:08:27Z</time>
      </trkpt>
      <trkpt lat="41.25875" lon="0.45493">
        <time>2021-05-08T05:08:27Z</time>
      </trkpt>
      <trkpt lat="41.25878" lon="0.4551">
        <time>2021-05-08T05:08:27Z</time>
      </trkpt>
      <trkpt lat="41.25879" lon="0.45527">
        <time>2021-05-08T05:08:27Z</time>
      </trkpt>
      <trkpt lat="41.25878" lon="0.45538">
        <time>2021-05-08T05:08:27Z</time>
      </trkpt>
      <trkpt lat="41.25876" lon="0.45546">
        <time>2021-05-08T05:08:27Z</time>
      </trkpt>
      <trkpt lat="41.25873" lon="0.45551">
        <time>2021-05-08T05:08:27Z</time>
      </trkpt>
      <trkpt lat="41.25865" lon="0.4555000000000001">
        <time>2021-05-08T05:08:27Z</time>
      </trkpt>
      <trkpt lat="41.25847" lon="0.45551">
        <time>2021-05-08T05:08:27Z</time>
      </trkpt>
      <trkpt lat="41.25841" lon="0.4555299999999999">
        <time>2021-05-08T05:08:27Z</time>
      </trkpt>
      <trkpt lat="41.25837" lon="0.45558">
        <time>2021-05-08T05:08:27Z</time>
      </trkpt>
      <trkpt lat="41.25834" lon="0.45568">
        <time>2021-05-08T05:08:27Z</time>
      </trkpt>
      <trkpt lat="41.25824" lon="0.45585">
        <time>2021-05-08T05:08:27Z</time>
      </trkpt>
      <trkpt lat="41.25818" lon="0.45591">
        <time>2021-05-08T05:08:27Z</time>
      </trkpt>
      <trkpt lat="41.25814" lon="0.45594">
        <time>2021-05-08T05:08:27Z</time>
      </trkpt>
      <trkpt lat="41.25799" lon="0.45594">
        <time>2021-05-08T05:08:27Z</time>
      </trkpt>
      <trkpt lat="41.25796" lon="0.45597">
        <time>2021-05-08T05:08:27Z</time>
      </trkpt>
      <trkpt lat="41.25791" lon="0.4560000000000001">
        <time>2021-05-08T05:08:27Z</time>
      </trkpt>
      <trkpt lat="41.25786" lon="0.45601">
        <time>2021-05-08T05:08:27Z</time>
      </trkpt>
      <trkpt lat="41.25771" lon="0.45601">
        <time>2021-05-08T05:08:27Z</time>
      </trkpt>
      <trkpt lat="41.25766" lon="0.45606">
        <time>2021-05-08T05:08:27Z</time>
      </trkpt>
      <trkpt lat="41.25756" lon="0.45614">
        <time>2021-05-08T05:08:27Z</time>
      </trkpt>
      <trkpt lat="41.25754" lon="0.45623">
        <time>2021-05-08T05:08:27Z</time>
      </trkpt>
      <trkpt lat="41.25749" lon="0.45635">
        <time>2021-05-08T05:08:27Z</time>
      </trkpt>
      <trkpt lat="41.25745" lon="0.45646">
        <time>2021-05-08T05:08:27Z</time>
      </trkpt>
      <trkpt lat="41.25736" lon="0.45655">
        <time>2021-05-08T05:08:27Z</time>
      </trkpt>
      <trkpt lat="41.2573" lon="0.45659">
        <time>2021-05-08T05:08:27Z</time>
      </trkpt>
      <trkpt lat="41.25722" lon="0.45661">
        <time>2021-05-08T05:08:27Z</time>
      </trkpt>
      <trkpt lat="41.25718" lon="0.45664">
        <time>2021-05-08T05:08:27Z</time>
      </trkpt>
      <trkpt lat="41.25716" lon="0.4567000000000001">
        <time>2021-05-08T05:08:27Z</time>
      </trkpt>
      <trkpt lat="41.25721" lon="0.45681">
        <time>2021-05-08T05:08:27Z</time>
      </trkpt>
      <trkpt lat="41.25724" lon="0.4569099999999999">
        <time>2021-05-08T05:08:27Z</time>
      </trkpt>
      <trkpt lat="41.25727" lon="0.45698">
        <time>2021-05-08T05:08:27Z</time>
      </trkpt>
      <trkpt lat="41.25731" lon="0.45709">
        <time>2021-05-08T05:08:27Z</time>
      </trkpt>
      <trkpt lat="41.25732" lon="0.4572000000000001">
        <time>2021-05-08T05:08:27Z</time>
      </trkpt>
      <trkpt lat="41.25729" lon="0.45731">
        <time>2021-05-08T05:08:27Z</time>
      </trkpt>
      <trkpt lat="41.25723" lon="0.45746">
        <time>2021-05-08T05:08:27Z</time>
      </trkpt>
      <trkpt lat="41.25713" lon="0.45756">
        <time>2021-05-08T05:08:27Z</time>
      </trkpt>
      <trkpt lat="41.257" lon="0.45765">
        <time>2021-05-08T05:08:27Z</time>
      </trkpt>
      <trkpt lat="41.25689" lon="0.45776">
        <time>2021-05-08T05:08:27Z</time>
      </trkpt>
      <trkpt lat="41.25674" lon="0.4578">
        <time>2021-05-08T05:08:27Z</time>
      </trkpt>
      <trkpt lat="41.25653" lon="0.45784">
        <time>2021-05-08T05:08:27Z</time>
      </trkpt>
      <trkpt lat="41.2564" lon="0.45788">
        <time>2021-05-08T05:08:27Z</time>
      </trkpt>
      <trkpt lat="41.25634" lon="0.45795">
        <time>2021-05-08T05:08:27Z</time>
      </trkpt>
      <trkpt lat="41.25628" lon="0.45805">
        <time>2021-05-08T05:08:27Z</time>
      </trkpt>
      <trkpt lat="41.25624" lon="0.4580799999999999">
        <time>2021-05-08T05:08:27Z</time>
      </trkpt>
      <trkpt lat="41.25613" lon="0.45814">
        <time>2021-05-08T05:08:27Z</time>
      </trkpt>
      <trkpt lat="41.25604" lon="0.45814">
        <time>2021-05-08T05:08:27Z</time>
      </trkpt>
      <trkpt lat="41.25586" lon="0.45812">
        <time>2021-05-08T05:08:27Z</time>
      </trkpt>
      <trkpt lat="41.25579" lon="0.45816">
        <time>2021-05-08T05:08:27Z</time>
      </trkpt>
      <trkpt lat="41.25569" lon="0.45827">
        <time>2021-05-08T05:08:27Z</time>
      </trkpt>
      <trkpt lat="41.2556" lon="0.45839">
        <time>2021-05-08T05:08:27Z</time>
      </trkpt>
      <trkpt lat="41.25549" lon="0.45852">
        <time>2021-05-08T05:08:27Z</time>
      </trkpt>
      <trkpt lat="41.25539" lon="0.4585899999999999">
        <time>2021-05-08T05:08:27Z</time>
      </trkpt>
      <trkpt lat="41.25534" lon="0.45867">
        <time>2021-05-08T05:08:27Z</time>
      </trkpt>
      <trkpt lat="41.25533" lon="0.45874">
        <time>2021-05-08T05:08:27Z</time>
      </trkpt>
      <trkpt lat="41.25532" lon="0.45887">
        <time>2021-05-08T05:08:27Z</time>
      </trkpt>
      <trkpt lat="41.25536" lon="0.45901">
        <time>2021-05-08T05:08:27Z</time>
      </trkpt>
      <trkpt lat="41.25538" lon="0.4590899999999999">
        <time>2021-05-08T05:08:27Z</time>
      </trkpt>
      <trkpt lat="41.25537" lon="0.4592">
        <time>2021-05-08T05:08:27Z</time>
      </trkpt>
      <trkpt lat="41.25536" lon="0.45966">
        <time>2021-05-08T05:08:27Z</time>
      </trkpt>
      <trkpt lat="41.25538" lon="0.4598">
        <time>2021-05-08T05:08:27Z</time>
      </trkpt>
      <trkpt lat="41.25544" lon="0.45994">
        <time>2021-05-08T05:08:27Z</time>
      </trkpt>
      <trkpt lat="41.25544" lon="0.46004">
        <time>2021-05-08T05:08:27Z</time>
      </trkpt>
      <trkpt lat="41.25545" lon="0.46023">
        <time>2021-05-08T05:08:27Z</time>
      </trkpt>
      <trkpt lat="41.25547" lon="0.46034">
        <time>2021-05-08T05:08:27Z</time>
      </trkpt>
      <trkpt lat="41.25552" lon="0.46043">
        <time>2021-05-08T05:08:27Z</time>
      </trkpt>
      <trkpt lat="41.25567" lon="0.46057">
        <time>2021-05-08T05:08:27Z</time>
      </trkpt>
      <trkpt lat="41.25574" lon="0.46064">
        <time>2021-05-08T05:08:27Z</time>
      </trkpt>
      <trkpt lat="41.2558" lon="0.46072">
        <time>2021-05-08T05:08:27Z</time>
      </trkpt>
      <trkpt lat="41.25581" lon="0.4607899999999999">
        <time>2021-05-08T05:08:27Z</time>
      </trkpt>
      <trkpt lat="41.2558" lon="0.46088">
        <time>2021-05-08T05:08:27Z</time>
      </trkpt>
      <trkpt lat="41.25584" lon="0.461">
        <time>2021-05-08T05:08:27Z</time>
      </trkpt>
      <trkpt lat="41.25585" lon="0.4610900000000001">
        <time>2021-05-08T05:08:27Z</time>
      </trkpt>
      <trkpt lat="41.25582" lon="0.46115">
        <time>2021-05-08T05:08:27Z</time>
      </trkpt>
      <trkpt lat="41.25576" lon="0.4612999999999999">
        <time>2021-05-08T05:08:27Z</time>
      </trkpt>
      <trkpt lat="41.25569" lon="0.46148">
        <time>2021-05-08T05:08:27Z</time>
      </trkpt>
      <trkpt lat="41.25567" lon="0.46154">
        <time>2021-05-08T05:08:27Z</time>
      </trkpt>
      <trkpt lat="41.25566" lon="0.4616299999999999">
        <time>2021-05-08T05:08:27Z</time>
      </trkpt>
      <trkpt lat="41.25568" lon="0.46175">
        <time>2021-05-08T05:08:27Z</time>
      </trkpt>
      <trkpt lat="41.25568" lon="0.46184">
        <time>2021-05-08T05:08:27Z</time>
      </trkpt>
      <trkpt lat="41.25567" lon="0.46194">
        <time>2021-05-08T05:08:27Z</time>
      </trkpt>
      <trkpt lat="41.25559" lon="0.46204">
        <time>2021-05-08T05:08:27Z</time>
      </trkpt>
      <trkpt lat="41.25557" lon="0.46213">
        <time>2021-05-08T05:08:27Z</time>
      </trkpt>
      <trkpt lat="41.25556" lon="0.46229">
        <time>2021-05-08T05:08:27Z</time>
      </trkpt>
      <trkpt lat="41.25556" lon="0.4624400000000001">
        <time>2021-05-08T05:08:27Z</time>
      </trkpt>
      <trkpt lat="41.25558" lon="0.46259">
        <time>2021-05-08T05:08:27Z</time>
      </trkpt>
      <trkpt lat="41.2556" lon="0.46272">
        <time>2021-05-08T05:08:27Z</time>
      </trkpt>
      <trkpt lat="41.25557" lon="0.46285">
        <time>2021-05-08T05:08:27Z</time>
      </trkpt>
      <trkpt lat="41.25556" lon="0.46302">
        <time>2021-05-08T05:08:27Z</time>
      </trkpt>
      <trkpt lat="41.25558" lon="0.4632">
        <time>2021-05-08T05:08:27Z</time>
      </trkpt>
      <trkpt lat="41.25562" lon="0.46335">
        <time>2021-05-08T05:08:27Z</time>
      </trkpt>
      <trkpt lat="41.25563" lon="0.46349">
        <time>2021-05-08T05:08:27Z</time>
      </trkpt>
      <trkpt lat="41.25562" lon="0.46369">
        <time>2021-05-08T05:08:27Z</time>
      </trkpt>
      <trkpt lat="41.25558" lon="0.46386">
        <time>2021-05-08T05:08:27Z</time>
      </trkpt>
      <trkpt lat="41.25554" lon="0.46406">
        <time>2021-05-08T05:08:27Z</time>
      </trkpt>
      <trkpt lat="41.25547" lon="0.46421">
        <time>2021-05-08T05:08:27Z</time>
      </trkpt>
      <trkpt lat="41.2554" lon="0.46441">
        <time>2021-05-08T05:08:27Z</time>
      </trkpt>
      <trkpt lat="41.25537" lon="0.4646">
        <time>2021-05-08T05:08:27Z</time>
      </trkpt>
      <trkpt lat="41.25538" lon="0.4647">
        <time>2021-05-08T05:08:27Z</time>
      </trkpt>
      <trkpt lat="41.25544" lon="0.46482">
        <time>2021-05-08T05:08:27Z</time>
      </trkpt>
      <trkpt lat="41.25555" lon="0.465">
        <time>2021-05-08T05:08:27Z</time>
      </trkpt>
      <trkpt lat="41.25558" lon="0.46511">
        <time>2021-05-08T05:08:27Z</time>
      </trkpt>
      <trkpt lat="41.25562" lon="0.46527">
        <time>2021-05-08T05:08:27Z</time>
      </trkpt>
      <trkpt lat="41.25568" lon="0.46538">
        <time>2021-05-08T05:08:27Z</time>
      </trkpt>
      <trkpt lat="41.25578" lon="0.46561">
        <time>2021-05-08T05:08:27Z</time>
      </trkpt>
      <trkpt lat="41.25586" lon="0.46577">
        <time>2021-05-08T05:08:27Z</time>
      </trkpt>
      <trkpt lat="41.25587" lon="0.46584">
        <time>2021-05-08T05:08:27Z</time>
      </trkpt>
      <trkpt lat="41.25584" lon="0.46596">
        <time>2021-05-08T05:08:27Z</time>
      </trkpt>
      <trkpt lat="41.2558" lon="0.46611">
        <time>2021-05-08T05:08:27Z</time>
      </trkpt>
      <trkpt lat="41.25576" lon="0.46637">
        <time>2021-05-08T05:08:27Z</time>
      </trkpt>
      <trkpt lat="41.25576" lon="0.46672">
        <time>2021-05-08T05:08:27Z</time>
      </trkpt>
      <trkpt lat="41.25576" lon="0.46701">
        <time>2021-05-08T05:08:27Z</time>
      </trkpt>
      <trkpt lat="41.25575" lon="0.4672299999999999">
        <time>2021-05-08T05:08:27Z</time>
      </trkpt>
      <trkpt lat="41.25568" lon="0.46743">
        <time>2021-05-08T05:08:27Z</time>
      </trkpt>
      <trkpt lat="41.2556" lon="0.46764">
        <time>2021-05-08T05:08:27Z</time>
      </trkpt>
      <trkpt lat="41.25557" lon="0.4678300000000001">
        <time>2021-05-08T05:08:27Z</time>
      </trkpt>
      <trkpt lat="41.25555" lon="0.46795">
        <time>2021-05-08T05:08:27Z</time>
      </trkpt>
      <trkpt lat="41.25548" lon="0.4681">
        <time>2021-05-08T05:08:27Z</time>
      </trkpt>
      <trkpt lat="41.25544" lon="0.4682000000000001">
        <time>2021-05-08T05:08:27Z</time>
      </trkpt>
      <trkpt lat="41.25539" lon="0.4685400000000001">
        <time>2021-05-08T05:08:27Z</time>
      </trkpt>
      <trkpt lat="41.25531" lon="0.4689">
        <time>2021-05-08T05:08:27Z</time>
      </trkpt>
      <trkpt lat="41.25525" lon="0.46917">
        <time>2021-05-08T05:08:27Z</time>
      </trkpt>
      <trkpt lat="41.2552" lon="0.46931">
        <time>2021-05-08T05:08:27Z</time>
      </trkpt>
      <trkpt lat="41.25509" lon="0.46944">
        <time>2021-05-08T05:08:27Z</time>
      </trkpt>
      <trkpt lat="41.25495" lon="0.4696">
        <time>2021-05-08T05:08:27Z</time>
      </trkpt>
      <trkpt lat="41.25483" lon="0.46969">
        <time>2021-05-08T05:08:27Z</time>
      </trkpt>
      <trkpt lat="41.25478" lon="0.46979">
        <time>2021-05-08T05:08:27Z</time>
      </trkpt>
      <trkpt lat="41.25476" lon="0.46993">
        <time>2021-05-08T05:08:27Z</time>
      </trkpt>
      <trkpt lat="41.25473" lon="0.4701">
        <time>2021-05-08T05:08:27Z</time>
      </trkpt>
      <trkpt lat="41.25466" lon="0.47031">
        <time>2021-05-08T05:08:27Z</time>
      </trkpt>
      <trkpt lat="41.25459" lon="0.4705">
        <time>2021-05-08T05:08:27Z</time>
      </trkpt>
      <trkpt lat="41.25458" lon="0.47063">
        <time>2021-05-08T05:08:27Z</time>
      </trkpt>
      <trkpt lat="41.25456" lon="0.47073">
        <time>2021-05-08T05:08:27Z</time>
      </trkpt>
      <trkpt lat="41.25451" lon="0.47077">
        <time>2021-05-08T05:08:27Z</time>
      </trkpt>
      <trkpt lat="41.25442" lon="0.47081">
        <time>2021-05-08T05:08:27Z</time>
      </trkpt>
      <trkpt lat="41.25435" lon="0.47086">
        <time>2021-05-08T05:08:27Z</time>
      </trkpt>
      <trkpt lat="41.25433" lon="0.47093">
        <time>2021-05-08T05:08:27Z</time>
      </trkpt>
      <trkpt lat="41.25431" lon="0.47104">
        <time>2021-05-08T05:08:27Z</time>
      </trkpt>
      <trkpt lat="41.25429" lon="0.47114">
        <time>2021-05-08T05:08:27Z</time>
      </trkpt>
      <trkpt lat="41.25426" lon="0.47118">
        <time>2021-05-08T05:08:27Z</time>
      </trkpt>
      <trkpt lat="41.25415" lon="0.47143">
        <time>2021-05-08T05:08:27Z</time>
      </trkpt>
      <trkpt lat="41.25405" lon="0.47164">
        <time>2021-05-08T05:08:27Z</time>
      </trkpt>
      <trkpt lat="41.25401" lon="0.4717">
        <time>2021-05-08T05:08:27Z</time>
      </trkpt>
      <trkpt lat="41.25393" lon="0.47172">
        <time>2021-05-08T05:08:27Z</time>
      </trkpt>
      <trkpt lat="41.25379" lon="0.4717">
        <time>2021-05-08T05:08:27Z</time>
      </trkpt>
      <trkpt lat="41.25361" lon="0.47168">
        <time>2021-05-08T05:08:27Z</time>
      </trkpt>
      <trkpt lat="41.25351" lon="0.47168">
        <time>2021-05-08T05:08:27Z</time>
      </trkpt>
      <trkpt lat="41.25343" lon="0.47173">
        <time>2021-05-08T05:08:27Z</time>
      </trkpt>
      <trkpt lat="41.25338" lon="0.47178">
        <time>2021-05-08T05:08:27Z</time>
      </trkpt>
      <trkpt lat="41.25335" lon="0.47186">
        <time>2021-05-08T05:08:27Z</time>
      </trkpt>
      <trkpt lat="41.25335" lon="0.47194">
        <time>2021-05-08T05:08:27Z</time>
      </trkpt>
      <trkpt lat="41.25332" lon="0.47215">
        <time>2021-05-08T05:08:27Z</time>
      </trkpt>
      <trkpt lat="41.25329" lon="0.4722600000000001">
        <time>2021-05-08T05:08:27Z</time>
      </trkpt>
      <trkpt lat="41.25324" lon="0.47245">
        <time>2021-05-08T05:08:27Z</time>
      </trkpt>
      <trkpt lat="41.25321" lon="0.47251">
        <time>2021-05-08T05:08:27Z</time>
      </trkpt>
      <trkpt lat="41.25316" lon="0.4726">
        <time>2021-05-08T05:08:27Z</time>
      </trkpt>
      <trkpt lat="41.25306" lon="0.47274">
        <time>2021-05-08T05:08:27Z</time>
      </trkpt>
      <trkpt lat="41.25298" lon="0.47288">
        <time>2021-05-08T05:08:27Z</time>
      </trkpt>
      <trkpt lat="41.2529" lon="0.47303">
        <time>2021-05-08T05:08:27Z</time>
      </trkpt>
      <trkpt lat="41.25286" lon="0.47311">
        <time>2021-05-08T05:08:27Z</time>
      </trkpt>
      <trkpt lat="41.25278" lon="0.47317">
        <time>2021-05-08T05:08:27Z</time>
      </trkpt>
      <trkpt lat="41.25266" lon="0.47319">
        <time>2021-05-08T05:08:27Z</time>
      </trkpt>
      <trkpt lat="41.25255" lon="0.47312">
        <time>2021-05-08T05:08:27Z</time>
      </trkpt>
      <trkpt lat="41.25238" lon="0.47307">
        <time>2021-05-08T05:08:27Z</time>
      </trkpt>
      <trkpt lat="41.25223" lon="0.47308">
        <time>2021-05-08T05:08:27Z</time>
      </trkpt>
      <trkpt lat="41.25216" lon="0.47314">
        <time>2021-05-08T05:08:27Z</time>
      </trkpt>
      <trkpt lat="41.252" lon="0.4732999999999999">
        <time>2021-05-08T05:08:27Z</time>
      </trkpt>
      <trkpt lat="41.25191" lon="0.47339">
        <time>2021-05-08T05:08:27Z</time>
      </trkpt>
      <trkpt lat="41.25183" lon="0.47349">
        <time>2021-05-08T05:08:27Z</time>
      </trkpt>
      <trkpt lat="41.25166" lon="0.47372">
        <time>2021-05-08T05:08:27Z</time>
      </trkpt>
      <trkpt lat="41.25155" lon="0.47388">
        <time>2021-05-08T05:08:27Z</time>
      </trkpt>
      <trkpt lat="41.25136" lon="0.47411">
        <time>2021-05-08T05:08:27Z</time>
      </trkpt>
      <trkpt lat="41.25124" lon="0.47424">
        <time>2021-05-08T05:08:27Z</time>
      </trkpt>
      <trkpt lat="41.25135" lon="0.4743399999999999">
        <time>2021-05-08T05:08:27Z</time>
      </trkpt>
      <trkpt lat="41.25141" lon="0.47439">
        <time>2021-05-08T05:08:27Z</time>
      </trkpt>
      <trkpt lat="41.25145" lon="0.47448">
        <time>2021-05-08T05:08:27Z</time>
      </trkpt>
      <trkpt lat="41.25161" lon="0.47466">
        <time>2021-05-08T05:08:27Z</time>
      </trkpt>
      <trkpt lat="41.25171" lon="0.47477">
        <time>2021-05-08T05:08:27Z</time>
      </trkpt>
      <trkpt lat="41.25177" lon="0.47488">
        <time>2021-05-08T05:08:27Z</time>
      </trkpt>
      <trkpt lat="41.25181" lon="0.47496">
        <time>2021-05-08T05:08:27Z</time>
      </trkpt>
      <trkpt lat="41.25185" lon="0.47506">
        <time>2021-05-08T05:08:27Z</time>
      </trkpt>
      <trkpt lat="41.25198" lon="0.47516">
        <time>2021-05-08T05:08:27Z</time>
      </trkpt>
      <trkpt lat="41.25211" lon="0.47529">
        <time>2021-05-08T05:08:27Z</time>
      </trkpt>
      <trkpt lat="41.25217" lon="0.47538">
        <time>2021-05-08T05:08:27Z</time>
      </trkpt>
      <trkpt lat="41.25224" lon="0.47546">
        <time>2021-05-08T05:08:27Z</time>
      </trkpt>
      <trkpt lat="41.25232" lon="0.47555">
        <time>2021-05-08T05:08:27Z</time>
      </trkpt>
      <trkpt lat="41.25239" lon="0.4756799999999999">
        <time>2021-05-08T05:08:27Z</time>
      </trkpt>
      <trkpt lat="41.2525" lon="0.47588">
        <time>2021-05-08T05:08:27Z</time>
      </trkpt>
      <trkpt lat="41.25257" lon="0.47599">
        <time>2021-05-08T05:08:27Z</time>
      </trkpt>
      <trkpt lat="41.25265" lon="0.47614">
        <time>2021-05-08T05:08:27Z</time>
      </trkpt>
      <trkpt lat="41.25272" lon="0.47626">
        <time>2021-05-08T05:08:27Z</time>
      </trkpt>
      <trkpt lat="41.2528" lon="0.47639">
        <time>2021-05-08T05:08:27Z</time>
      </trkpt>
      <trkpt lat="41.25288" lon="0.47654">
        <time>2021-05-08T05:08:27Z</time>
      </trkpt>
      <trkpt lat="41.25295" lon="0.47667">
        <time>2021-05-08T05:08:27Z</time>
      </trkpt>
      <trkpt lat="41.25302" lon="0.4768">
        <time>2021-05-08T05:08:27Z</time>
      </trkpt>
      <trkpt lat="41.25311" lon="0.47693">
        <time>2021-05-08T05:08:27Z</time>
      </trkpt>
      <trkpt lat="41.25318" lon="0.47706">
        <time>2021-05-08T05:08:27Z</time>
      </trkpt>
      <trkpt lat="41.25325" lon="0.4772">
        <time>2021-05-08T05:08:27Z</time>
      </trkpt>
      <trkpt lat="41.25332" lon="0.4773">
        <time>2021-05-08T05:08:27Z</time>
      </trkpt>
      <trkpt lat="41.2534" lon="0.47743">
        <time>2021-05-08T05:08:27Z</time>
      </trkpt>
      <trkpt lat="41.25347" lon="0.47754">
        <time>2021-05-08T05:08:27Z</time>
      </trkpt>
      <trkpt lat="41.25355" lon="0.47765">
        <time>2021-05-08T05:08:27Z</time>
      </trkpt>
      <trkpt lat="41.25362" lon="0.47776">
        <time>2021-05-08T05:08:27Z</time>
      </trkpt>
      <trkpt lat="41.2537" lon="0.47784">
        <time>2021-05-08T05:08:27Z</time>
      </trkpt>
      <trkpt lat="41.25379" lon="0.47795">
        <time>2021-05-08T05:08:27Z</time>
      </trkpt>
      <trkpt lat="41.25389" lon="0.47805">
        <time>2021-05-08T05:08:27Z</time>
      </trkpt>
      <trkpt lat="41.25398" lon="0.47812">
        <time>2021-05-08T05:08:27Z</time>
      </trkpt>
      <trkpt lat="41.25409" lon="0.47822">
        <time>2021-05-08T05:08:27Z</time>
      </trkpt>
      <trkpt lat="41.25419" lon="0.47829">
        <time>2021-05-08T05:08:27Z</time>
      </trkpt>
      <trkpt lat="41.25432" lon="0.47841">
        <time>2021-05-08T05:08:27Z</time>
      </trkpt>
      <trkpt lat="41.25444" lon="0.4785">
        <time>2021-05-08T05:08:27Z</time>
      </trkpt>
      <trkpt lat="41.25497" lon="0.47889">
        <time>2021-05-08T05:08:27Z</time>
      </trkpt>
      <trkpt lat="41.25503" lon="0.47893">
        <time>2021-05-08T05:08:27Z</time>
      </trkpt>
      <trkpt lat="41.25521" lon="0.47895">
        <time>2021-05-08T05:08:27Z</time>
      </trkpt>
      <trkpt lat="41.25531" lon="0.47898">
        <time>2021-05-08T05:08:27Z</time>
      </trkpt>
      <trkpt lat="41.2554" lon="0.4790300000000001">
        <time>2021-05-08T05:08:27Z</time>
      </trkpt>
      <trkpt lat="41.25549" lon="0.47915">
        <time>2021-05-08T05:08:27Z</time>
      </trkpt>
      <trkpt lat="41.25563" lon="0.47927">
        <time>2021-05-08T05:08:27Z</time>
      </trkpt>
      <trkpt lat="41.25576" lon="0.47933">
        <time>2021-05-08T05:08:27Z</time>
      </trkpt>
      <trkpt lat="41.25598" lon="0.47938">
        <time>2021-05-08T05:08:27Z</time>
      </trkpt>
      <trkpt lat="41.2561" lon="0.47944">
        <time>2021-05-08T05:08:27Z</time>
      </trkpt>
      <trkpt lat="41.25615" lon="0.4795">
        <time>2021-05-08T05:08:27Z</time>
      </trkpt>
      <trkpt lat="41.2562" lon="0.47961">
        <time>2021-05-08T05:08:27Z</time>
      </trkpt>
      <trkpt lat="41.25622" lon="0.47972">
        <time>2021-05-08T05:08:27Z</time>
      </trkpt>
      <trkpt lat="41.25622" lon="0.47985">
        <time>2021-05-08T05:08:27Z</time>
      </trkpt>
      <trkpt lat="41.25628" lon="0.48018">
        <time>2021-05-08T05:08:27Z</time>
      </trkpt>
      <trkpt lat="41.25646" lon="0.48043">
        <time>2021-05-08T05:08:27Z</time>
      </trkpt>
      <trkpt lat="41.25658" lon="0.4805700000000001">
        <time>2021-05-08T05:08:27Z</time>
      </trkpt>
      <trkpt lat="41.2569" lon="0.4809000000000001">
        <time>2021-05-08T05:08:27Z</time>
      </trkpt>
      <trkpt lat="41.25729" lon="0.48125">
        <time>2021-05-08T05:08:27Z</time>
      </trkpt>
      <trkpt lat="41.25733" lon="0.4813">
        <time>2021-05-08T05:08:27Z</time>
      </trkpt>
      <trkpt lat="41.25733" lon="0.48139">
        <time>2021-05-08T05:08:27Z</time>
      </trkpt>
      <trkpt lat="41.25733" lon="0.48152">
        <time>2021-05-08T05:08:27Z</time>
      </trkpt>
      <trkpt lat="41.25733" lon="0.48168">
        <time>2021-05-08T05:08:27Z</time>
      </trkpt>
      <trkpt lat="41.25733" lon="0.48184">
        <time>2021-05-08T05:08:27Z</time>
      </trkpt>
      <trkpt lat="41.25735" lon="0.48203">
        <time>2021-05-08T05:08:27Z</time>
      </trkpt>
      <trkpt lat="41.2574" lon="0.48217">
        <time>2021-05-08T05:08:27Z</time>
      </trkpt>
      <trkpt lat="41.25746" lon="0.4822500000000001">
        <time>2021-05-08T05:08:27Z</time>
      </trkpt>
      <trkpt lat="41.25749" lon="0.48232">
        <time>2021-05-08T05:08:27Z</time>
      </trkpt>
      <trkpt lat="41.25761" lon="0.48266">
        <time>2021-05-08T05:08:27Z</time>
      </trkpt>
      <trkpt lat="41.25763" lon="0.4827899999999999">
        <time>2021-05-08T05:08:27Z</time>
      </trkpt>
      <trkpt lat="41.25765" lon="0.48298">
        <time>2021-05-08T05:08:27Z</time>
      </trkpt>
      <trkpt lat="41.25767" lon="0.48307">
        <time>2021-05-08T05:08:27Z</time>
      </trkpt>
      <trkpt lat="41.25772" lon="0.48315">
        <time>2021-05-08T05:08:27Z</time>
      </trkpt>
      <trkpt lat="41.25785" lon="0.48333">
        <time>2021-05-08T05:08:27Z</time>
      </trkpt>
      <trkpt lat="41.25826" lon="0.48392">
        <time>2021-05-08T05:08:27Z</time>
      </trkpt>
      <trkpt lat="41.25844" lon="0.48419">
        <time>2021-05-08T05:08:27Z</time>
      </trkpt>
      <trkpt lat="41.25856" lon="0.4843299999999999">
        <time>2021-05-08T05:08:27Z</time>
      </trkpt>
      <trkpt lat="41.25868" lon="0.48447">
        <time>2021-05-08T05:08:27Z</time>
      </trkpt>
      <trkpt lat="41.25878" lon="0.48457">
        <time>2021-05-08T05:08:27Z</time>
      </trkpt>
      <trkpt lat="41.25888" lon="0.48468">
        <time>2021-05-08T05:08:27Z</time>
      </trkpt>
      <trkpt lat="41.25916" lon="0.48511">
        <time>2021-05-08T05:08:27Z</time>
      </trkpt>
      <trkpt lat="41.25943" lon="0.48556">
        <time>2021-05-08T05:08:27Z</time>
      </trkpt>
      <trkpt lat="41.25955" lon="0.48572">
        <time>2021-05-08T05:08:27Z</time>
      </trkpt>
      <trkpt lat="41.25965" lon="0.48583">
        <time>2021-05-08T05:08:27Z</time>
      </trkpt>
      <trkpt lat="41.25984" lon="0.48602">
        <time>2021-05-08T05:08:27Z</time>
      </trkpt>
      <trkpt lat="41.25999" lon="0.48608">
        <time>2021-05-08T05:08:27Z</time>
      </trkpt>
      <trkpt lat="41.26009" lon="0.4861400000000001">
        <time>2021-05-08T05:08:27Z</time>
      </trkpt>
      <trkpt lat="41.26016" lon="0.48621">
        <time>2021-05-08T05:08:27Z</time>
      </trkpt>
      <trkpt lat="41.26028" lon="0.48635">
        <time>2021-05-08T05:08:27Z</time>
      </trkpt>
      <trkpt lat="41.26042" lon="0.48649">
        <time>2021-05-08T05:08:27Z</time>
      </trkpt>
      <trkpt lat="41.26049" lon="0.48658">
        <time>2021-05-08T05:08:27Z</time>
      </trkpt>
      <trkpt lat="41.26052" lon="0.4866400000000001">
        <time>2021-05-08T05:08:27Z</time>
      </trkpt>
      <trkpt lat="41.26058" lon="0.4868">
        <time>2021-05-08T05:08:27Z</time>
      </trkpt>
      <trkpt lat="41.26064" lon="0.48685">
        <time>2021-05-08T05:08:27Z</time>
      </trkpt>
      <trkpt lat="41.26074" lon="0.48683">
        <time>2021-05-08T05:08:27Z</time>
      </trkpt>
      <trkpt lat="41.26088" lon="0.48677">
        <time>2021-05-08T05:08:27Z</time>
      </trkpt>
      <trkpt lat="41.26097" lon="0.48679">
        <time>2021-05-08T05:08:27Z</time>
      </trkpt>
      <trkpt lat="41.26109" lon="0.48688">
        <time>2021-05-08T05:08:27Z</time>
      </trkpt>
      <trkpt lat="41.26117" lon="0.48699">
        <time>2021-05-08T05:08:27Z</time>
      </trkpt>
      <trkpt lat="41.26121" lon="0.48706">
        <time>2021-05-08T05:08:27Z</time>
      </trkpt>
      <trkpt lat="41.26126" lon="0.48722">
        <time>2021-05-08T05:08:27Z</time>
      </trkpt>
      <trkpt lat="41.26132" lon="0.48742">
        <time>2021-05-08T05:08:27Z</time>
      </trkpt>
      <trkpt lat="41.26139" lon="0.4877199999999999">
        <time>2021-05-08T05:08:27Z</time>
      </trkpt>
      <trkpt lat="41.26144" lon="0.48785">
        <time>2021-05-08T05:08:27Z</time>
      </trkpt>
      <trkpt lat="41.2615" lon="0.48796">
        <time>2021-05-08T05:08:27Z</time>
      </trkpt>
      <trkpt lat="41.26157" lon="0.48806">
        <time>2021-05-08T05:08:27Z</time>
      </trkpt>
      <trkpt lat="41.26163" lon="0.48817">
        <time>2021-05-08T05:08:27Z</time>
      </trkpt>
      <trkpt lat="41.2617" lon="0.48827">
        <time>2021-05-08T05:08:27Z</time>
      </trkpt>
      <trkpt lat="41.26176" lon="0.48836">
        <time>2021-05-08T05:08:27Z</time>
      </trkpt>
      <trkpt lat="41.26181" lon="0.4883899999999999">
        <time>2021-05-08T05:08:27Z</time>
      </trkpt>
      <trkpt lat="41.26185" lon="0.48841">
        <time>2021-05-08T05:08:27Z</time>
      </trkpt>
      <trkpt lat="41.2619" lon="0.48846">
        <time>2021-05-08T05:08:27Z</time>
      </trkpt>
      <trkpt lat="41.26196" lon="0.48849">
        <time>2021-05-08T05:08:27Z</time>
      </trkpt>
      <trkpt lat="41.26199" lon="0.4885100000000001">
        <time>2021-05-08T05:08:27Z</time>
      </trkpt>
      <trkpt lat="41.26203" lon="0.48849">
        <time>2021-05-08T05:08:27Z</time>
      </trkpt>
      <trkpt lat="41.26204" lon="0.48847">
        <time>2021-05-08T05:08:27Z</time>
      </trkpt>
      <trkpt lat="41.26205" lon="0.48843">
        <time>2021-05-08T05:08:27Z</time>
      </trkpt>
      <trkpt lat="41.26205" lon="0.4883899999999999">
        <time>2021-05-08T05:08:27Z</time>
      </trkpt>
      <trkpt lat="41.26205" lon="0.48833">
        <time>2021-05-08T05:08:27Z</time>
      </trkpt>
      <trkpt lat="41.26208" lon="0.48829">
        <time>2021-05-08T05:08:27Z</time>
      </trkpt>
      <trkpt lat="41.2621" lon="0.48827">
        <time>2021-05-08T05:08:27Z</time>
      </trkpt>
      <trkpt lat="41.26213" lon="0.48828">
        <time>2021-05-08T05:08:27Z</time>
      </trkpt>
      <trkpt lat="41.26215" lon="0.48828">
        <time>2021-05-08T05:08:27Z</time>
      </trkpt>
      <trkpt lat="41.26217" lon="0.4883">
        <time>2021-05-08T05:08:27Z</time>
      </trkpt>
      <trkpt lat="41.26219" lon="0.48836">
        <time>2021-05-08T05:08:27Z</time>
      </trkpt>
      <trkpt lat="41.26219" lon="0.48843">
        <time>2021-05-08T05:08:27Z</time>
      </trkpt>
      <trkpt lat="41.2622" lon="0.4885">
        <time>2021-05-08T05:08:27Z</time>
      </trkpt>
      <trkpt lat="41.26224" lon="0.48865">
        <time>2021-05-08T05:08:27Z</time>
      </trkpt>
      <trkpt lat="41.26228" lon="0.4887199999999999">
        <time>2021-05-08T05:08:27Z</time>
      </trkpt>
      <trkpt lat="41.2623" lon="0.48874">
        <time>2021-05-08T05:08:27Z</time>
      </trkpt>
      <trkpt lat="41.26234" lon="0.48876">
        <time>2021-05-08T05:08:27Z</time>
      </trkpt>
      <trkpt lat="41.26237" lon="0.4888">
        <time>2021-05-08T05:08:27Z</time>
      </trkpt>
      <trkpt lat="41.26243" lon="0.48892">
        <time>2021-05-08T05:08:27Z</time>
      </trkpt>
      <trkpt lat="41.2625" lon="0.4891">
        <time>2021-05-08T05:08:27Z</time>
      </trkpt>
      <trkpt lat="41.26253" lon="0.4891800000000001">
        <time>2021-05-08T05:08:27Z</time>
      </trkpt>
      <trkpt lat="41.26256" lon="0.4893">
        <time>2021-05-08T05:08:27Z</time>
      </trkpt>
      <trkpt lat="41.26259" lon="0.48945">
        <time>2021-05-08T05:08:27Z</time>
      </trkpt>
      <trkpt lat="41.2626" lon="0.4895200000000001">
        <time>2021-05-08T05:08:27Z</time>
      </trkpt>
      <trkpt lat="41.26263" lon="0.48957">
        <time>2021-05-08T05:08:27Z</time>
      </trkpt>
      <trkpt lat="41.2627" lon="0.4896900000000001">
        <time>2021-05-08T05:08:27Z</time>
      </trkpt>
      <trkpt lat="41.26276" lon="0.48981">
        <time>2021-05-08T05:08:27Z</time>
      </trkpt>
      <trkpt lat="41.26282" lon="0.48994">
        <time>2021-05-08T05:08:27Z</time>
      </trkpt>
      <trkpt lat="41.26289" lon="0.49001">
        <time>2021-05-08T05:08:27Z</time>
      </trkpt>
      <trkpt lat="41.26293" lon="0.4900599999999999">
        <time>2021-05-08T05:08:27Z</time>
      </trkpt>
      <trkpt lat="41.26302" lon="0.4902299999999999">
        <time>2021-05-08T05:08:27Z</time>
      </trkpt>
      <trkpt lat="41.26305" lon="0.49035">
        <time>2021-05-08T05:08:27Z</time>
      </trkpt>
      <trkpt lat="41.26306" lon="0.49044">
        <time>2021-05-08T05:08:27Z</time>
      </trkpt>
      <trkpt lat="41.26305" lon="0.4905600000000001">
        <time>2021-05-08T05:08:27Z</time>
      </trkpt>
      <trkpt lat="41.26305" lon="0.49067">
        <time>2021-05-08T05:08:27Z</time>
      </trkpt>
      <trkpt lat="41.26306" lon="0.49078">
        <time>2021-05-08T05:08:27Z</time>
      </trkpt>
      <trkpt lat="41.26307" lon="0.49084">
        <time>2021-05-08T05:08:27Z</time>
      </trkpt>
      <trkpt lat="41.2631" lon="0.4908900000000001">
        <time>2021-05-08T05:08:27Z</time>
      </trkpt>
      <trkpt lat="41.26313" lon="0.49094">
        <time>2021-05-08T05:08:27Z</time>
      </trkpt>
      <trkpt lat="41.26319" lon="0.49096">
        <time>2021-05-08T05:08:27Z</time>
      </trkpt>
      <trkpt lat="41.26322" lon="0.49101">
        <time>2021-05-08T05:08:27Z</time>
      </trkpt>
      <trkpt lat="41.26324" lon="0.4910999999999999">
        <time>2021-05-08T05:08:27Z</time>
      </trkpt>
      <trkpt lat="41.26325" lon="0.4912000000000001">
        <time>2021-05-08T05:08:27Z</time>
      </trkpt>
      <trkpt lat="41.26323" lon="0.4913">
        <time>2021-05-08T05:08:27Z</time>
      </trkpt>
      <trkpt lat="41.26323" lon="0.49137">
        <time>2021-05-08T05:08:27Z</time>
      </trkpt>
      <trkpt lat="41.26325" lon="0.49142">
        <time>2021-05-08T05:08:27Z</time>
      </trkpt>
      <trkpt lat="41.26329" lon="0.49148">
        <time>2021-05-08T05:08:27Z</time>
      </trkpt>
      <trkpt lat="41.26332" lon="0.49155">
        <time>2021-05-08T05:08:27Z</time>
      </trkpt>
      <trkpt lat="41.26334" lon="0.49162">
        <time>2021-05-08T05:08:27Z</time>
      </trkpt>
      <trkpt lat="41.26333" lon="0.49168">
        <time>2021-05-08T05:08:27Z</time>
      </trkpt>
      <trkpt lat="41.26332" lon="0.4918">
        <time>2021-05-08T05:08:27Z</time>
      </trkpt>
      <trkpt lat="41.26332" lon="0.4919399999999999">
        <time>2021-05-08T05:08:27Z</time>
      </trkpt>
      <trkpt lat="41.26332" lon="0.49202">
        <time>2021-05-08T05:08:27Z</time>
      </trkpt>
      <trkpt lat="41.26336" lon="0.49219">
        <time>2021-05-08T05:08:27Z</time>
      </trkpt>
      <trkpt lat="41.26335" lon="0.4923">
        <time>2021-05-08T05:08:27Z</time>
      </trkpt>
      <trkpt lat="41.26332" lon="0.49236">
        <time>2021-05-08T05:08:27Z</time>
      </trkpt>
      <trkpt lat="41.26328" lon="0.49243">
        <time>2021-05-08T05:08:27Z</time>
      </trkpt>
      <trkpt lat="41.26325" lon="0.49266">
        <time>2021-05-08T05:08:27Z</time>
      </trkpt>
      <trkpt lat="41.26324" lon="0.49284">
        <time>2021-05-08T05:08:27Z</time>
      </trkpt>
      <trkpt lat="41.2632" lon="0.49292">
        <time>2021-05-08T05:08:27Z</time>
      </trkpt>
      <trkpt lat="41.26315" lon="0.4929499999999999">
        <time>2021-05-08T05:08:27Z</time>
      </trkpt>
      <trkpt lat="41.263" lon="0.49299">
        <time>2021-05-08T05:08:27Z</time>
      </trkpt>
      <trkpt lat="41.26296" lon="0.49299">
        <time>2021-05-08T05:08:27Z</time>
      </trkpt>
      <trkpt lat="41.26292" lon="0.49302">
        <time>2021-05-08T05:08:27Z</time>
      </trkpt>
      <trkpt lat="41.26292" lon="0.49307">
        <time>2021-05-08T05:08:27Z</time>
      </trkpt>
      <trkpt lat="41.26292" lon="0.4931099999999999">
        <time>2021-05-08T05:08:27Z</time>
      </trkpt>
      <trkpt lat="41.26296" lon="0.4932">
        <time>2021-05-08T05:08:27Z</time>
      </trkpt>
      <trkpt lat="41.26308" lon="0.49335">
        <time>2021-05-08T05:08:27Z</time>
      </trkpt>
      <trkpt lat="41.26311" lon="0.49342">
        <time>2021-05-08T05:08:27Z</time>
      </trkpt>
      <trkpt lat="41.26312" lon="0.49356">
        <time>2021-05-08T05:08:27Z</time>
      </trkpt>
      <trkpt lat="41.26311" lon="0.4941">
        <time>2021-05-08T05:08:27Z</time>
      </trkpt>
      <trkpt lat="41.26309" lon="0.49426">
        <time>2021-05-08T05:08:27Z</time>
      </trkpt>
      <trkpt lat="41.26305" lon="0.49436">
        <time>2021-05-08T05:08:27Z</time>
      </trkpt>
      <trkpt lat="41.26301" lon="0.49439">
        <time>2021-05-08T05:08:27Z</time>
      </trkpt>
      <trkpt lat="41.26286" lon="0.49443">
        <time>2021-05-08T05:08:27Z</time>
      </trkpt>
      <trkpt lat="41.26283" lon="0.49446">
        <time>2021-05-08T05:08:27Z</time>
      </trkpt>
      <trkpt lat="41.26282" lon="0.49451">
        <time>2021-05-08T05:08:27Z</time>
      </trkpt>
      <trkpt lat="41.26281" lon="0.49458">
        <time>2021-05-08T05:08:27Z</time>
      </trkpt>
      <trkpt lat="41.26282" lon="0.49486">
        <time>2021-05-08T05:08:27Z</time>
      </trkpt>
      <trkpt lat="41.26283" lon="0.49506">
        <time>2021-05-08T05:08:27Z</time>
      </trkpt>
      <trkpt lat="41.26283" lon="0.49526">
        <time>2021-05-08T05:08:27Z</time>
      </trkpt>
      <trkpt lat="41.26285" lon="0.49534">
        <time>2021-05-08T05:08:27Z</time>
      </trkpt>
      <trkpt lat="41.26291" lon="0.49547">
        <time>2021-05-08T05:08:27Z</time>
      </trkpt>
      <trkpt lat="41.26302" lon="0.49561">
        <time>2021-05-08T05:08:27Z</time>
      </trkpt>
      <trkpt lat="41.26325" lon="0.49587">
        <time>2021-05-08T05:08:27Z</time>
      </trkpt>
      <trkpt lat="41.26337" lon="0.49597">
        <time>2021-05-08T05:08:27Z</time>
      </trkpt>
      <trkpt lat="41.26341" lon="0.49597">
        <time>2021-05-08T05:08:27Z</time>
      </trkpt>
      <trkpt lat="41.2635" lon="0.49597">
        <time>2021-05-08T05:08:27Z</time>
      </trkpt>
      <trkpt lat="41.26358" lon="0.49594">
        <time>2021-05-08T05:08:27Z</time>
      </trkpt>
      <trkpt lat="41.26362" lon="0.49595">
        <time>2021-05-08T05:08:27Z</time>
      </trkpt>
      <trkpt lat="41.26366" lon="0.49599">
        <time>2021-05-08T05:08:27Z</time>
      </trkpt>
      <trkpt lat="41.2637" lon="0.49603">
        <time>2021-05-08T05:08:27Z</time>
      </trkpt>
      <trkpt lat="41.26371" lon="0.4961">
        <time>2021-05-08T05:08:27Z</time>
      </trkpt>
      <trkpt lat="41.2637" lon="0.49619">
        <time>2021-05-08T05:08:27Z</time>
      </trkpt>
      <trkpt lat="41.26366" lon="0.49625">
        <time>2021-05-08T05:08:27Z</time>
      </trkpt>
      <trkpt lat="41.26356" lon="0.4963000000000001">
        <time>2021-05-08T05:08:27Z</time>
      </trkpt>
      <trkpt lat="41.26351" lon="0.49634">
        <time>2021-05-08T05:08:27Z</time>
      </trkpt>
      <trkpt lat="41.26345" lon="0.49642">
        <time>2021-05-08T05:08:27Z</time>
      </trkpt>
      <trkpt lat="41.2634" lon="0.49644">
        <time>2021-05-08T05:08:27Z</time>
      </trkpt>
      <trkpt lat="41.26333" lon="0.49645">
        <time>2021-05-08T05:08:27Z</time>
      </trkpt>
      <trkpt lat="41.26318" lon="0.49644">
        <time>2021-05-08T05:08:27Z</time>
      </trkpt>
      <trkpt lat="41.26309" lon="0.49639">
        <time>2021-05-08T05:08:27Z</time>
      </trkpt>
      <trkpt lat="41.2629" lon="0.49618">
        <time>2021-05-08T05:08:27Z</time>
      </trkpt>
      <trkpt lat="41.26285" lon="0.49614">
        <time>2021-05-08T05:08:27Z</time>
      </trkpt>
      <trkpt lat="41.26279" lon="0.49615">
        <time>2021-05-08T05:08:27Z</time>
      </trkpt>
      <trkpt lat="41.26273" lon="0.4962">
        <time>2021-05-08T05:08:27Z</time>
      </trkpt>
      <trkpt lat="41.26259" lon="0.4963299999999999">
        <time>2021-05-08T05:08:27Z</time>
      </trkpt>
      <trkpt lat="41.26251" lon="0.4964">
        <time>2021-05-08T05:08:27Z</time>
      </trkpt>
      <trkpt lat="41.26245" lon="0.49643">
        <time>2021-05-08T05:08:27Z</time>
      </trkpt>
      <trkpt lat="41.26234" lon="0.49644">
        <time>2021-05-08T05:08:27Z</time>
      </trkpt>
      <trkpt lat="41.26226" lon="0.4964">
        <time>2021-05-08T05:08:27Z</time>
      </trkpt>
      <trkpt lat="41.2622" lon="0.4963299999999999">
        <time>2021-05-08T05:08:27Z</time>
      </trkpt>
      <trkpt lat="41.26216" lon="0.49625">
        <time>2021-05-08T05:08:27Z</time>
      </trkpt>
      <trkpt lat="41.26211" lon="0.49621">
        <time>2021-05-08T05:08:27Z</time>
      </trkpt>
      <trkpt lat="41.26204" lon="0.49623">
        <time>2021-05-08T05:08:27Z</time>
      </trkpt>
      <trkpt lat="41.26195" lon="0.49628">
        <time>2021-05-08T05:08:27Z</time>
      </trkpt>
      <trkpt lat="41.26189" lon="0.49635">
        <time>2021-05-08T05:08:27Z</time>
      </trkpt>
      <trkpt lat="41.26183" lon="0.49645">
        <time>2021-05-08T05:08:27Z</time>
      </trkpt>
      <trkpt lat="41.26178" lon="0.49656">
        <time>2021-05-08T05:08:27Z</time>
      </trkpt>
      <trkpt lat="41.26165" lon="0.49672">
        <time>2021-05-08T05:08:27Z</time>
      </trkpt>
      <trkpt lat="41.26156" lon="0.49677">
        <time>2021-05-08T05:08:27Z</time>
      </trkpt>
      <trkpt lat="41.26148" lon="0.4968000000000001">
        <time>2021-05-08T05:08:27Z</time>
      </trkpt>
      <trkpt lat="41.26141" lon="0.49686">
        <time>2021-05-08T05:08:27Z</time>
      </trkpt>
      <trkpt lat="41.26132" lon="0.49699">
        <time>2021-05-08T05:08:27Z</time>
      </trkpt>
      <trkpt lat="41.26126" lon="0.49709">
        <time>2021-05-08T05:08:27Z</time>
      </trkpt>
      <trkpt lat="41.26121" lon="0.4971400000000001">
        <time>2021-05-08T05:08:27Z</time>
      </trkpt>
      <trkpt lat="41.26108" lon="0.49723">
        <time>2021-05-08T05:08:27Z</time>
      </trkpt>
      <trkpt lat="41.26094" lon="0.49738">
        <time>2021-05-08T05:08:27Z</time>
      </trkpt>
      <trkpt lat="41.26061" lon="0.49768">
        <time>2021-05-08T05:08:27Z</time>
      </trkpt>
      <trkpt lat="41.2605" lon="0.49784">
        <time>2021-05-08T05:08:27Z</time>
      </trkpt>
      <trkpt lat="41.26035" lon="0.49802">
        <time>2021-05-08T05:08:27Z</time>
      </trkpt>
      <trkpt lat="41.26024" lon="0.49809">
        <time>2021-05-08T05:08:27Z</time>
      </trkpt>
      <trkpt lat="41.26019" lon="0.49815">
        <time>2021-05-08T05:08:27Z</time>
      </trkpt>
      <trkpt lat="41.26015" lon="0.49824">
        <time>2021-05-08T05:08:27Z</time>
      </trkpt>
      <trkpt lat="41.26014" lon="0.49831">
        <time>2021-05-08T05:08:27Z</time>
      </trkpt>
      <trkpt lat="41.26014" lon="0.4983699999999999">
        <time>2021-05-08T05:08:27Z</time>
      </trkpt>
      <trkpt lat="41.26015" lon="0.49848">
        <time>2021-05-08T05:08:27Z</time>
      </trkpt>
      <trkpt lat="41.26018" lon="0.49861">
        <time>2021-05-08T05:08:27Z</time>
      </trkpt>
      <trkpt lat="41.26021" lon="0.49868">
        <time>2021-05-08T05:08:27Z</time>
      </trkpt>
      <trkpt lat="41.26026" lon="0.49874">
        <time>2021-05-08T05:08:27Z</time>
      </trkpt>
      <trkpt lat="41.26038" lon="0.49883">
        <time>2021-05-08T05:08:27Z</time>
      </trkpt>
      <trkpt lat="41.26043" lon="0.49887">
        <time>2021-05-08T05:08:27Z</time>
      </trkpt>
      <trkpt lat="41.26046" lon="0.49894">
        <time>2021-05-08T05:08:27Z</time>
      </trkpt>
      <trkpt lat="41.26048" lon="0.4990499999999999">
        <time>2021-05-08T05:08:27Z</time>
      </trkpt>
      <trkpt lat="41.26053" lon="0.49929">
        <time>2021-05-08T05:08:27Z</time>
      </trkpt>
      <trkpt lat="41.26053" lon="0.49937">
        <time>2021-05-08T05:08:27Z</time>
      </trkpt>
      <trkpt lat="41.26051" lon="0.49945">
        <time>2021-05-08T05:08:27Z</time>
      </trkpt>
      <trkpt lat="41.26022" lon="0.49996">
        <time>2021-05-08T05:08:27Z</time>
      </trkpt>
      <trkpt lat="41.26015" lon="0.50004">
        <time>2021-05-08T05:08:27Z</time>
      </trkpt>
      <trkpt lat="41.26009" lon="0.5001">
        <time>2021-05-08T05:08:27Z</time>
      </trkpt>
      <trkpt lat="41.25998" lon="0.50014">
        <time>2021-05-08T05:08:27Z</time>
      </trkpt>
      <trkpt lat="41.25987" lon="0.5001600000000001">
        <time>2021-05-08T05:08:27Z</time>
      </trkpt>
      <trkpt lat="41.25983" lon="0.5002">
        <time>2021-05-08T05:08:27Z</time>
      </trkpt>
      <trkpt lat="41.25977" lon="0.50028">
        <time>2021-05-08T05:08:27Z</time>
      </trkpt>
      <trkpt lat="41.25971" lon="0.50037">
        <time>2021-05-08T05:08:27Z</time>
      </trkpt>
      <trkpt lat="41.25957" lon="0.5004999999999999">
        <time>2021-05-08T05:08:27Z</time>
      </trkpt>
      <trkpt lat="41.25948" lon="0.50057">
        <time>2021-05-08T05:08:27Z</time>
      </trkpt>
      <trkpt lat="41.25942" lon="0.50065">
        <time>2021-05-08T05:08:27Z</time>
      </trkpt>
      <trkpt lat="41.25937" lon="0.5007200000000001">
        <time>2021-05-08T05:08:27Z</time>
      </trkpt>
      <trkpt lat="41.25928" lon="0.50084">
        <time>2021-05-08T05:08:27Z</time>
      </trkpt>
      <trkpt lat="41.25917" lon="0.50091">
        <time>2021-05-08T05:08:27Z</time>
      </trkpt>
      <trkpt lat="41.25907" lon="0.50096">
        <time>2021-05-08T05:08:27Z</time>
      </trkpt>
      <trkpt lat="41.25896" lon="0.50104">
        <time>2021-05-08T05:08:27Z</time>
      </trkpt>
      <trkpt lat="41.25888" lon="0.50112">
        <time>2021-05-08T05:08:27Z</time>
      </trkpt>
      <trkpt lat="41.25879" lon="0.50121">
        <time>2021-05-08T05:08:27Z</time>
      </trkpt>
      <trkpt lat="41.25863" lon="0.50136">
        <time>2021-05-08T05:08:27Z</time>
      </trkpt>
      <trkpt lat="41.25854" lon="0.50142">
        <time>2021-05-08T05:08:27Z</time>
      </trkpt>
      <trkpt lat="41.25838" lon="0.50154">
        <time>2021-05-08T05:08:27Z</time>
      </trkpt>
      <trkpt lat="41.25825" lon="0.50167">
        <time>2021-05-08T05:08:27Z</time>
      </trkpt>
      <trkpt lat="41.25812" lon="0.50186">
        <time>2021-05-08T05:08:27Z</time>
      </trkpt>
      <trkpt lat="41.25807" lon="0.50196">
        <time>2021-05-08T05:08:27Z</time>
      </trkpt>
      <trkpt lat="41.25805" lon="0.50204">
        <time>2021-05-08T05:08:27Z</time>
      </trkpt>
      <trkpt lat="41.25804" lon="0.5021">
        <time>2021-05-08T05:08:27Z</time>
      </trkpt>
      <trkpt lat="41.25801" lon="0.50224">
        <time>2021-05-08T05:08:27Z</time>
      </trkpt>
      <trkpt lat="41.25799" lon="0.50232">
        <time>2021-05-08T05:08:27Z</time>
      </trkpt>
      <trkpt lat="41.25793" lon="0.50251">
        <time>2021-05-08T05:08:27Z</time>
      </trkpt>
      <trkpt lat="41.25788" lon="0.50267">
        <time>2021-05-08T05:08:27Z</time>
      </trkpt>
      <trkpt lat="41.25785" lon="0.50281">
        <time>2021-05-08T05:08:27Z</time>
      </trkpt>
      <trkpt lat="41.2578" lon="0.5029">
        <time>2021-05-08T05:08:27Z</time>
      </trkpt>
      <trkpt lat="41.25771" lon="0.50297">
        <time>2021-05-08T05:08:27Z</time>
      </trkpt>
      <trkpt lat="41.25762" lon="0.50303">
        <time>2021-05-08T05:08:27Z</time>
      </trkpt>
      <trkpt lat="41.25752" lon="0.50308">
        <time>2021-05-08T05:08:27Z</time>
      </trkpt>
      <trkpt lat="41.25743" lon="0.5031">
        <time>2021-05-08T05:08:27Z</time>
      </trkpt>
      <trkpt lat="41.25737" lon="0.5031">
        <time>2021-05-08T05:08:27Z</time>
      </trkpt>
      <trkpt lat="41.2573" lon="0.50302">
        <time>2021-05-08T05:08:27Z</time>
      </trkpt>
      <trkpt lat="41.25725" lon="0.50293">
        <time>2021-05-08T05:08:27Z</time>
      </trkpt>
      <trkpt lat="41.2572" lon="0.50281">
        <time>2021-05-08T05:08:27Z</time>
      </trkpt>
      <trkpt lat="41.25717" lon="0.5027700000000001">
        <time>2021-05-08T05:08:27Z</time>
      </trkpt>
      <trkpt lat="41.25712" lon="0.50273">
        <time>2021-05-08T05:08:27Z</time>
      </trkpt>
      <trkpt lat="41.25703" lon="0.5027">
        <time>2021-05-08T05:08:27Z</time>
      </trkpt>
      <trkpt lat="41.25695" lon="0.5027199999999999">
        <time>2021-05-08T05:08:27Z</time>
      </trkpt>
      <trkpt lat="41.25682" lon="0.5028">
        <time>2021-05-08T05:08:27Z</time>
      </trkpt>
      <trkpt lat="41.25673" lon="0.50286">
        <time>2021-05-08T05:08:27Z</time>
      </trkpt>
      <trkpt lat="41.2566" lon="0.50295">
        <time>2021-05-08T05:08:27Z</time>
      </trkpt>
      <trkpt lat="41.25649" lon="0.50303">
        <time>2021-05-08T05:08:27Z</time>
      </trkpt>
      <trkpt lat="41.25639" lon="0.50306">
        <time>2021-05-08T05:08:27Z</time>
      </trkpt>
      <trkpt lat="41.25633" lon="0.50307">
        <time>2021-05-08T05:08:27Z</time>
      </trkpt>
      <trkpt lat="41.25624" lon="0.50306">
        <time>2021-05-08T05:08:27Z</time>
      </trkpt>
      <trkpt lat="41.25619" lon="0.50307">
        <time>2021-05-08T05:08:27Z</time>
      </trkpt>
      <trkpt lat="41.25606" lon="0.50311">
        <time>2021-05-08T05:08:27Z</time>
      </trkpt>
      <trkpt lat="41.25593" lon="0.50314">
        <time>2021-05-08T05:08:27Z</time>
      </trkpt>
      <trkpt lat="41.2558" lon="0.50315">
        <time>2021-05-08T05:08:27Z</time>
      </trkpt>
      <trkpt lat="41.25565" lon="0.50322">
        <time>2021-05-08T05:08:27Z</time>
      </trkpt>
      <trkpt lat="41.25555" lon="0.50325">
        <time>2021-05-08T05:08:27Z</time>
      </trkpt>
      <trkpt lat="41.25549" lon="0.50325">
        <time>2021-05-08T05:08:27Z</time>
      </trkpt>
      <trkpt lat="41.25542" lon="0.50329">
        <time>2021-05-08T05:08:27Z</time>
      </trkpt>
      <trkpt lat="41.25535" lon="0.50335">
        <time>2021-05-08T05:08:27Z</time>
      </trkpt>
      <trkpt lat="41.25529" lon="0.50336">
        <time>2021-05-08T05:08:27Z</time>
      </trkpt>
      <trkpt lat="41.25518" lon="0.50334">
        <time>2021-05-08T05:08:27Z</time>
      </trkpt>
      <trkpt lat="41.25506" lon="0.50336">
        <time>2021-05-08T05:08:27Z</time>
      </trkpt>
      <trkpt lat="41.25496" lon="0.5033800000000001">
        <time>2021-05-08T05:08:27Z</time>
      </trkpt>
      <trkpt lat="41.25486" lon="0.5034">
        <time>2021-05-08T05:08:27Z</time>
      </trkpt>
      <trkpt lat="41.25481" lon="0.50341">
        <time>2021-05-08T05:08:27Z</time>
      </trkpt>
      <trkpt lat="41.25475" lon="0.50343">
        <time>2021-05-08T05:08:27Z</time>
      </trkpt>
      <trkpt lat="41.25471" lon="0.50347">
        <time>2021-05-08T05:08:27Z</time>
      </trkpt>
      <trkpt lat="41.25466" lon="0.50352">
        <time>2021-05-08T05:08:27Z</time>
      </trkpt>
      <trkpt lat="41.2546" lon="0.5036000000000001">
        <time>2021-05-08T05:08:27Z</time>
      </trkpt>
      <trkpt lat="41.25456" lon="0.50371">
        <time>2021-05-08T05:08:27Z</time>
      </trkpt>
      <trkpt lat="41.25454" lon="0.50379">
        <time>2021-05-08T05:08:27Z</time>
      </trkpt>
      <trkpt lat="41.25454" lon="0.50395">
        <time>2021-05-08T05:08:27Z</time>
      </trkpt>
      <trkpt lat="41.25456" lon="0.5041">
        <time>2021-05-08T05:08:27Z</time>
      </trkpt>
      <trkpt lat="41.25457" lon="0.5041600000000001">
        <time>2021-05-08T05:08:27Z</time>
      </trkpt>
      <trkpt lat="41.25456" lon="0.50422">
        <time>2021-05-08T05:08:27Z</time>
      </trkpt>
      <trkpt lat="41.25455" lon="0.50431">
        <time>2021-05-08T05:08:27Z</time>
      </trkpt>
      <trkpt lat="41.25456" lon="0.50441">
        <time>2021-05-08T05:08:27Z</time>
      </trkpt>
      <trkpt lat="41.25461" lon="0.5045">
        <time>2021-05-08T05:08:27Z</time>
      </trkpt>
      <trkpt lat="41.25473" lon="0.50466">
        <time>2021-05-08T05:08:27Z</time>
      </trkpt>
      <trkpt lat="41.25475" lon="0.50471">
        <time>2021-05-08T05:08:27Z</time>
      </trkpt>
      <trkpt lat="41.25476" lon="0.50476">
        <time>2021-05-08T05:08:27Z</time>
      </trkpt>
      <trkpt lat="41.25475" lon="0.50483">
        <time>2021-05-08T05:08:27Z</time>
      </trkpt>
      <trkpt lat="41.25469" lon="0.50493">
        <time>2021-05-08T05:08:27Z</time>
      </trkpt>
      <trkpt lat="41.25463" lon="0.50498">
        <time>2021-05-08T05:08:27Z</time>
      </trkpt>
      <trkpt lat="41.25459" lon="0.50501">
        <time>2021-05-08T05:08:27Z</time>
      </trkpt>
      <trkpt lat="41.25451" lon="0.50502">
        <time>2021-05-08T05:08:27Z</time>
      </trkpt>
      <trkpt lat="41.25446" lon="0.50504">
        <time>2021-05-08T05:08:27Z</time>
      </trkpt>
      <trkpt lat="41.25413" lon="0.50525">
        <time>2021-05-08T05:08:27Z</time>
      </trkpt>
      <trkpt lat="41.25392" lon="0.50535">
        <time>2021-05-08T05:08:27Z</time>
      </trkpt>
      <trkpt lat="41.25385" lon="0.50535">
        <time>2021-05-08T05:08:27Z</time>
      </trkpt>
      <trkpt lat="41.25381" lon="0.50532">
        <time>2021-05-08T05:08:27Z</time>
      </trkpt>
      <trkpt lat="41.25376" lon="0.5053">
        <time>2021-05-08T05:08:27Z</time>
      </trkpt>
      <trkpt lat="41.25371" lon="0.50529">
        <time>2021-05-08T05:08:27Z</time>
      </trkpt>
      <trkpt lat="41.25364" lon="0.5053">
        <time>2021-05-08T05:08:27Z</time>
      </trkpt>
      <trkpt lat="41.25359" lon="0.50533">
        <time>2021-05-08T05:08:27Z</time>
      </trkpt>
      <trkpt lat="41.25357" lon="0.50539">
        <time>2021-05-08T05:08:27Z</time>
      </trkpt>
      <trkpt lat="41.25353" lon="0.5054">
        <time>2021-05-08T05:08:27Z</time>
      </trkpt>
      <trkpt lat="41.25348" lon="0.50532">
        <time>2021-05-08T05:08:27Z</time>
      </trkpt>
      <trkpt lat="41.25347" lon="0.50524">
        <time>2021-05-08T05:08:27Z</time>
      </trkpt>
      <trkpt lat="41.25349" lon="0.5052">
        <time>2021-05-08T05:08:27Z</time>
      </trkpt>
      <trkpt lat="41.2535" lon="0.5051">
        <time>2021-05-08T05:08:27Z</time>
      </trkpt>
      <trkpt lat="41.2535" lon="0.5049900000000001">
        <time>2021-05-08T05:08:27Z</time>
      </trkpt>
      <trkpt lat="41.25347" lon="0.5048">
        <time>2021-05-08T05:08:27Z</time>
      </trkpt>
      <trkpt lat="41.25344" lon="0.50461">
        <time>2021-05-08T05:08:27Z</time>
      </trkpt>
      <trkpt lat="41.25342" lon="0.50456">
        <time>2021-05-08T05:08:27Z</time>
      </trkpt>
      <trkpt lat="41.25339" lon="0.5045">
        <time>2021-05-08T05:08:27Z</time>
      </trkpt>
      <trkpt lat="41.25335" lon="0.50444">
        <time>2021-05-08T05:08:27Z</time>
      </trkpt>
      <trkpt lat="41.25333" lon="0.5043800000000001">
        <time>2021-05-08T05:08:27Z</time>
      </trkpt>
      <trkpt lat="41.25332" lon="0.50433">
        <time>2021-05-08T05:08:27Z</time>
      </trkpt>
      <trkpt lat="41.25332" lon="0.50428">
        <time>2021-05-08T05:08:27Z</time>
      </trkpt>
      <trkpt lat="41.25334" lon="0.5042100000000001">
        <time>2021-05-08T05:08:27Z</time>
      </trkpt>
      <trkpt lat="41.25338" lon="0.5041">
        <time>2021-05-08T05:08:27Z</time>
      </trkpt>
      <trkpt lat="41.25348" lon="0.50386">
        <time>2021-05-08T05:08:27Z</time>
      </trkpt>
      <trkpt lat="41.2535" lon="0.50378">
        <time>2021-05-08T05:08:27Z</time>
      </trkpt>
      <trkpt lat="41.2535" lon="0.5037">
        <time>2021-05-08T05:08:27Z</time>
      </trkpt>
      <trkpt lat="41.25349" lon="0.50365">
        <time>2021-05-08T05:08:27Z</time>
      </trkpt>
      <trkpt lat="41.25346" lon="0.5036000000000001">
        <time>2021-05-08T05:08:27Z</time>
      </trkpt>
      <trkpt lat="41.25333" lon="0.50348">
        <time>2021-05-08T05:08:27Z</time>
      </trkpt>
      <trkpt lat="41.2533" lon="0.50347">
        <time>2021-05-08T05:08:27Z</time>
      </trkpt>
      <trkpt lat="41.25323" lon="0.50347">
        <time>2021-05-08T05:08:27Z</time>
      </trkpt>
      <trkpt lat="41.25317" lon="0.50351">
        <time>2021-05-08T05:08:27Z</time>
      </trkpt>
      <trkpt lat="41.25313" lon="0.5035500000000001">
        <time>2021-05-08T05:08:27Z</time>
      </trkpt>
      <trkpt lat="41.25306" lon="0.50358">
        <time>2021-05-08T05:08:27Z</time>
      </trkpt>
      <trkpt lat="41.25301" lon="0.50361">
        <time>2021-05-08T05:08:27Z</time>
      </trkpt>
      <trkpt lat="41.25288" lon="0.50361">
        <time>2021-05-08T05:08:27Z</time>
      </trkpt>
      <trkpt lat="41.2528" lon="0.50364">
        <time>2021-05-08T05:08:27Z</time>
      </trkpt>
      <trkpt lat="41.25267" lon="0.50366">
        <time>2021-05-08T05:08:27Z</time>
      </trkpt>
      <trkpt lat="41.25242" lon="0.50378">
        <time>2021-05-08T05:08:27Z</time>
      </trkpt>
      <trkpt lat="41.25221" lon="0.50389">
        <time>2021-05-08T05:08:27Z</time>
      </trkpt>
      <trkpt lat="41.25216" lon="0.50395">
        <time>2021-05-08T05:08:27Z</time>
      </trkpt>
      <trkpt lat="41.25207" lon="0.50409">
        <time>2021-05-08T05:08:27Z</time>
      </trkpt>
      <trkpt lat="41.25201" lon="0.50422">
        <time>2021-05-08T05:08:27Z</time>
      </trkpt>
      <trkpt lat="41.25196" lon="0.50428">
        <time>2021-05-08T05:08:27Z</time>
      </trkpt>
      <trkpt lat="41.25187" lon="0.50433">
        <time>2021-05-08T05:08:27Z</time>
      </trkpt>
      <trkpt lat="41.25158" lon="0.50447">
        <time>2021-05-08T05:08:27Z</time>
      </trkpt>
      <trkpt lat="41.25149" lon="0.5045">
        <time>2021-05-08T05:08:27Z</time>
      </trkpt>
      <trkpt lat="41.25137" lon="0.50448">
        <time>2021-05-08T05:08:27Z</time>
      </trkpt>
      <trkpt lat="41.25127" lon="0.50449">
        <time>2021-05-08T05:08:27Z</time>
      </trkpt>
      <trkpt lat="41.25118" lon="0.50451">
        <time>2021-05-08T05:08:27Z</time>
      </trkpt>
      <trkpt lat="41.25111" lon="0.50448">
        <time>2021-05-08T05:08:27Z</time>
      </trkpt>
      <trkpt lat="41.25105" lon="0.5044">
        <time>2021-05-08T05:08:27Z</time>
      </trkpt>
      <trkpt lat="41.25103" lon="0.50433">
        <time>2021-05-08T05:08:27Z</time>
      </trkpt>
      <trkpt lat="41.251" lon="0.50427">
        <time>2021-05-08T05:08:27Z</time>
      </trkpt>
      <trkpt lat="41.25093" lon="0.50425">
        <time>2021-05-08T05:08:27Z</time>
      </trkpt>
      <trkpt lat="41.25072" lon="0.5042">
        <time>2021-05-08T05:08:27Z</time>
      </trkpt>
      <trkpt lat="41.25065" lon="0.50419">
        <time>2021-05-08T05:08:27Z</time>
      </trkpt>
      <trkpt lat="41.2506" lon="0.50422">
        <time>2021-05-08T05:08:27Z</time>
      </trkpt>
      <trkpt lat="41.25052" lon="0.50427">
        <time>2021-05-08T05:08:27Z</time>
      </trkpt>
      <trkpt lat="41.25037" lon="0.50435">
        <time>2021-05-08T05:08:27Z</time>
      </trkpt>
      <trkpt lat="41.25023" lon="0.5044">
        <time>2021-05-08T05:08:27Z</time>
      </trkpt>
      <trkpt lat="41.2501" lon="0.50448">
        <time>2021-05-08T05:08:27Z</time>
      </trkpt>
      <trkpt lat="41.24994" lon="0.50452">
        <time>2021-05-08T05:08:27Z</time>
      </trkpt>
      <trkpt lat="41.24968" lon="0.50463">
        <time>2021-05-08T05:08:27Z</time>
      </trkpt>
      <trkpt lat="41.24958" lon="0.50464">
        <time>2021-05-08T05:08:27Z</time>
      </trkpt>
      <trkpt lat="41.24942" lon="0.50464">
        <time>2021-05-08T05:08:27Z</time>
      </trkpt>
      <trkpt lat="41.24934" lon="0.50462">
        <time>2021-05-08T05:08:27Z</time>
      </trkpt>
      <trkpt lat="41.24928" lon="0.50456">
        <time>2021-05-08T05:08:27Z</time>
      </trkpt>
      <trkpt lat="41.24925" lon="0.5045500000000001">
        <time>2021-05-08T05:08:27Z</time>
      </trkpt>
      <trkpt lat="41.2492" lon="0.5045500000000001">
        <time>2021-05-08T05:08:27Z</time>
      </trkpt>
      <trkpt lat="41.24909" lon="0.50458">
        <time>2021-05-08T05:08:27Z</time>
      </trkpt>
      <trkpt lat="41.24896" lon="0.50456">
        <time>2021-05-08T05:08:27Z</time>
      </trkpt>
      <trkpt lat="41.24883" lon="0.5045500000000001">
        <time>2021-05-08T05:08:27Z</time>
      </trkpt>
      <trkpt lat="41.24878" lon="0.5045">
        <time>2021-05-08T05:08:27Z</time>
      </trkpt>
      <trkpt lat="41.24868" lon="0.50444">
        <time>2021-05-08T05:08:27Z</time>
      </trkpt>
      <trkpt lat="41.24859" lon="0.50439">
        <time>2021-05-08T05:08:27Z</time>
      </trkpt>
      <trkpt lat="41.2485" lon="0.50439">
        <time>2021-05-08T05:08:27Z</time>
      </trkpt>
      <trkpt lat="41.24841" lon="0.50442">
        <time>2021-05-08T05:08:27Z</time>
      </trkpt>
      <trkpt lat="41.24814" lon="0.50441">
        <time>2021-05-08T05:08:27Z</time>
      </trkpt>
      <trkpt lat="41.24769" lon="0.50437">
        <time>2021-05-08T05:08:27Z</time>
      </trkpt>
      <trkpt lat="41.24745" lon="0.50436">
        <time>2021-05-08T05:08:27Z</time>
      </trkpt>
      <trkpt lat="41.24728" lon="0.5043800000000001">
        <time>2021-05-08T05:08:27Z</time>
      </trkpt>
      <trkpt lat="41.2471" lon="0.50444">
        <time>2021-05-08T05:08:27Z</time>
      </trkpt>
      <trkpt lat="41.24694" lon="0.5045500000000001">
        <time>2021-05-08T05:08:27Z</time>
      </trkpt>
      <trkpt lat="41.24674" lon="0.5047">
        <time>2021-05-08T05:08:27Z</time>
      </trkpt>
      <trkpt lat="41.24666" lon="0.50472">
        <time>2021-05-08T05:08:27Z</time>
      </trkpt>
      <trkpt lat="41.24655" lon="0.50468">
        <time>2021-05-08T05:08:27Z</time>
      </trkpt>
      <trkpt lat="41.24639" lon="0.5047">
        <time>2021-05-08T05:08:27Z</time>
      </trkpt>
      <trkpt lat="41.24633" lon="0.50471">
        <time>2021-05-08T05:08:27Z</time>
      </trkpt>
      <trkpt lat="41.24621" lon="0.50467">
        <time>2021-05-08T05:08:27Z</time>
      </trkpt>
      <trkpt lat="41.24615" lon="0.50467">
        <time>2021-05-08T05:08:27Z</time>
      </trkpt>
      <trkpt lat="41.246" lon="0.5047">
        <time>2021-05-08T05:08:27Z</time>
      </trkpt>
      <trkpt lat="41.24594" lon="0.50468">
        <time>2021-05-08T05:08:27Z</time>
      </trkpt>
      <trkpt lat="41.24579" lon="0.50469">
        <time>2021-05-08T05:08:27Z</time>
      </trkpt>
      <trkpt lat="41.24568" lon="0.50471">
        <time>2021-05-08T05:08:27Z</time>
      </trkpt>
      <trkpt lat="41.24555" lon="0.5047700000000001">
        <time>2021-05-08T05:08:27Z</time>
      </trkpt>
      <trkpt lat="41.24541" lon="0.50487">
        <time>2021-05-08T05:08:27Z</time>
      </trkpt>
      <trkpt lat="41.24531" lon="0.50492">
        <time>2021-05-08T05:08:27Z</time>
      </trkpt>
      <trkpt lat="41.24512" lon="0.50503">
        <time>2021-05-08T05:08:27Z</time>
      </trkpt>
      <trkpt lat="41.24505" lon="0.5051">
        <time>2021-05-08T05:08:27Z</time>
      </trkpt>
      <trkpt lat="41.24499" lon="0.5052">
        <time>2021-05-08T05:08:27Z</time>
      </trkpt>
      <trkpt lat="41.24494" lon="0.50527">
        <time>2021-05-08T05:08:27Z</time>
      </trkpt>
      <trkpt lat="41.24481" lon="0.50529">
        <time>2021-05-08T05:08:27Z</time>
      </trkpt>
      <trkpt lat="41.24451" lon="0.50533">
        <time>2021-05-08T05:08:27Z</time>
      </trkpt>
      <trkpt lat="41.24441" lon="0.50535">
        <time>2021-05-08T05:08:27Z</time>
      </trkpt>
      <trkpt lat="41.24428" lon="0.50542">
        <time>2021-05-08T05:08:27Z</time>
      </trkpt>
      <trkpt lat="41.24415" lon="0.5055">
        <time>2021-05-08T05:08:27Z</time>
      </trkpt>
      <trkpt lat="41.24404" lon="0.5056000000000001">
        <time>2021-05-08T05:08:27Z</time>
      </trkpt>
      <trkpt lat="41.24397" lon="0.50568">
        <time>2021-05-08T05:08:27Z</time>
      </trkpt>
      <trkpt lat="41.24386" lon="0.50576">
        <time>2021-05-08T05:08:27Z</time>
      </trkpt>
      <trkpt lat="41.24375" lon="0.50581">
        <time>2021-05-08T05:08:27Z</time>
      </trkpt>
      <trkpt lat="41.24363" lon="0.50593">
        <time>2021-05-08T05:08:27Z</time>
      </trkpt>
      <trkpt lat="41.24357" lon="0.5059900000000001">
        <time>2021-05-08T05:08:27Z</time>
      </trkpt>
      <trkpt lat="41.24352" lon="0.5060400000000001">
        <time>2021-05-08T05:08:27Z</time>
      </trkpt>
      <trkpt lat="41.24346" lon="0.5061">
        <time>2021-05-08T05:08:27Z</time>
      </trkpt>
      <trkpt lat="41.24331" lon="0.50619">
        <time>2021-05-08T05:08:27Z</time>
      </trkpt>
      <trkpt lat="41.24321" lon="0.50626">
        <time>2021-05-08T05:08:27Z</time>
      </trkpt>
      <trkpt lat="41.24303" lon="0.50631">
        <time>2021-05-08T05:08:27Z</time>
      </trkpt>
      <trkpt lat="41.24288" lon="0.50637">
        <time>2021-05-08T05:08:27Z</time>
      </trkpt>
      <trkpt lat="41.24273" lon="0.50647">
        <time>2021-05-08T05:08:27Z</time>
      </trkpt>
      <trkpt lat="41.24264" lon="0.50653">
        <time>2021-05-08T05:08:27Z</time>
      </trkpt>
      <trkpt lat="41.24258" lon="0.50658">
        <time>2021-05-08T05:08:27Z</time>
      </trkpt>
      <trkpt lat="41.24249" lon="0.50662">
        <time>2021-05-08T05:08:27Z</time>
      </trkpt>
      <trkpt lat="41.24241" lon="0.50666">
        <time>2021-05-08T05:08:27Z</time>
      </trkpt>
      <trkpt lat="41.24233" lon="0.50678">
        <time>2021-05-08T05:08:27Z</time>
      </trkpt>
      <trkpt lat="41.24227" lon="0.5069">
        <time>2021-05-08T05:08:27Z</time>
      </trkpt>
      <trkpt lat="41.2422" lon="0.50698">
        <time>2021-05-08T05:08:27Z</time>
      </trkpt>
      <trkpt lat="41.24215" lon="0.50697">
        <time>2021-05-08T05:08:27Z</time>
      </trkpt>
      <trkpt lat="41.24199" lon="0.50683">
        <time>2021-05-08T05:08:27Z</time>
      </trkpt>
      <trkpt lat="41.24191" lon="0.5068">
        <time>2021-05-08T05:08:27Z</time>
      </trkpt>
      <trkpt lat="41.24185" lon="0.5068200000000001">
        <time>2021-05-08T05:08:27Z</time>
      </trkpt>
      <trkpt lat="41.24178" lon="0.50687">
        <time>2021-05-08T05:08:27Z</time>
      </trkpt>
      <trkpt lat="41.2415" lon="0.50714">
        <time>2021-05-08T05:08:27Z</time>
      </trkpt>
      <trkpt lat="41.24141" lon="0.50727">
        <time>2021-05-08T05:08:27Z</time>
      </trkpt>
      <trkpt lat="41.24135" lon="0.5074300000000001">
        <time>2021-05-08T05:08:27Z</time>
      </trkpt>
      <trkpt lat="41.2413" lon="0.50755">
        <time>2021-05-08T05:08:27Z</time>
      </trkpt>
      <trkpt lat="41.24122" lon="0.50769">
        <time>2021-05-08T05:08:27Z</time>
      </trkpt>
      <trkpt lat="41.24099" lon="0.50787">
        <time>2021-05-08T05:08:27Z</time>
      </trkpt>
      <trkpt lat="41.24094" lon="0.50794">
        <time>2021-05-08T05:08:27Z</time>
      </trkpt>
      <trkpt lat="41.2409" lon="0.50795">
        <time>2021-05-08T05:08:27Z</time>
      </trkpt>
      <trkpt lat="41.24078" lon="0.50794">
        <time>2021-05-08T05:08:27Z</time>
      </trkpt>
      <trkpt lat="41.24065" lon="0.5079">
        <time>2021-05-08T05:08:27Z</time>
      </trkpt>
      <trkpt lat="41.24058" lon="0.50791">
        <time>2021-05-08T05:08:27Z</time>
      </trkpt>
      <trkpt lat="41.24051" lon="0.50794">
        <time>2021-05-08T05:08:27Z</time>
      </trkpt>
      <trkpt lat="41.2404" lon="0.50802">
        <time>2021-05-08T05:08:27Z</time>
      </trkpt>
      <trkpt lat="41.24021" lon="0.50827">
        <time>2021-05-08T05:08:27Z</time>
      </trkpt>
      <trkpt lat="41.24011" lon="0.50847">
        <time>2021-05-08T05:08:27Z</time>
      </trkpt>
      <trkpt lat="41.24006" lon="0.50857">
        <time>2021-05-08T05:08:27Z</time>
      </trkpt>
      <trkpt lat="41.24003" lon="0.50861">
        <time>2021-05-08T05:08:27Z</time>
      </trkpt>
      <trkpt lat="41.23994" lon="0.50869">
        <time>2021-05-08T05:08:27Z</time>
      </trkpt>
      <trkpt lat="41.2398" lon="0.50884">
        <time>2021-05-08T05:08:27Z</time>
      </trkpt>
      <trkpt lat="41.23959" lon="0.50915">
        <time>2021-05-08T05:08:27Z</time>
      </trkpt>
      <trkpt lat="41.23942" lon="0.50948">
        <time>2021-05-08T05:08:27Z</time>
      </trkpt>
      <trkpt lat="41.23934" lon="0.5096500000000001">
        <time>2021-05-08T05:08:27Z</time>
      </trkpt>
      <trkpt lat="41.23918" lon="0.50988">
        <time>2021-05-08T05:08:27Z</time>
      </trkpt>
      <trkpt lat="41.23907" lon="0.51001">
        <time>2021-05-08T05:08:27Z</time>
      </trkpt>
      <trkpt lat="41.23889" lon="0.5103">
        <time>2021-05-08T05:08:27Z</time>
      </trkpt>
      <trkpt lat="41.23876" lon="0.51061">
        <time>2021-05-08T05:08:27Z</time>
      </trkpt>
      <trkpt lat="41.23854" lon="0.51116">
        <time>2021-05-08T05:08:27Z</time>
      </trkpt>
      <trkpt lat="41.23849" lon="0.51131">
        <time>2021-05-08T05:08:27Z</time>
      </trkpt>
      <trkpt lat="41.23832" lon="0.51189">
        <time>2021-05-08T05:08:27Z</time>
      </trkpt>
      <trkpt lat="41.23827" lon="0.51207">
        <time>2021-05-08T05:08:27Z</time>
      </trkpt>
      <trkpt lat="41.23822" lon="0.51234">
        <time>2021-05-08T05:08:27Z</time>
      </trkpt>
      <trkpt lat="41.2382" lon="0.51254">
        <time>2021-05-08T05:08:27Z</time>
      </trkpt>
      <trkpt lat="41.2382" lon="0.5127">
        <time>2021-05-08T05:08:27Z</time>
      </trkpt>
      <trkpt lat="41.23821" lon="0.51283">
        <time>2021-05-08T05:08:27Z</time>
      </trkpt>
      <trkpt lat="41.23821" lon="0.51295">
        <time>2021-05-08T05:08:27Z</time>
      </trkpt>
      <trkpt lat="41.23813" lon="0.51314">
        <time>2021-05-08T05:08:27Z</time>
      </trkpt>
      <trkpt lat="41.23803" lon="0.51329">
        <time>2021-05-08T05:08:27Z</time>
      </trkpt>
      <trkpt lat="41.23795" lon="0.51342">
        <time>2021-05-08T05:08:27Z</time>
      </trkpt>
      <trkpt lat="41.23791" lon="0.51356">
        <time>2021-05-08T05:08:27Z</time>
      </trkpt>
      <trkpt lat="41.23789" lon="0.51381">
        <time>2021-05-08T05:08:27Z</time>
      </trkpt>
      <trkpt lat="41.23784" lon="0.51402">
        <time>2021-05-08T05:08:27Z</time>
      </trkpt>
      <trkpt lat="41.23781" lon="0.51416">
        <time>2021-05-08T05:08:27Z</time>
      </trkpt>
      <trkpt lat="41.23779" lon="0.51428">
        <time>2021-05-08T05:08:27Z</time>
      </trkpt>
      <trkpt lat="41.23779" lon="0.51442">
        <time>2021-05-08T05:08:27Z</time>
      </trkpt>
      <trkpt lat="41.23777" lon="0.51475">
        <time>2021-05-08T05:08:27Z</time>
      </trkpt>
      <trkpt lat="41.23775" lon="0.51494">
        <time>2021-05-08T05:08:27Z</time>
      </trkpt>
      <trkpt lat="41.23775" lon="0.51525">
        <time>2021-05-08T05:08:27Z</time>
      </trkpt>
      <trkpt lat="41.23775" lon="0.51557">
        <time>2021-05-08T05:08:27Z</time>
      </trkpt>
      <trkpt lat="41.23772" lon="0.5158">
        <time>2021-05-08T05:08:27Z</time>
      </trkpt>
      <trkpt lat="41.2377" lon="0.51589">
        <time>2021-05-08T05:08:27Z</time>
      </trkpt>
      <trkpt lat="41.23752" lon="0.51647">
        <time>2021-05-08T05:08:27Z</time>
      </trkpt>
      <trkpt lat="41.23746" lon="0.51671">
        <time>2021-05-08T05:08:27Z</time>
      </trkpt>
      <trkpt lat="41.23741" lon="0.51716">
        <time>2021-05-08T05:08:27Z</time>
      </trkpt>
      <trkpt lat="41.2374" lon="0.51732">
        <time>2021-05-08T05:08:27Z</time>
      </trkpt>
      <trkpt lat="41.23734" lon="0.51758">
        <time>2021-05-08T05:08:27Z</time>
      </trkpt>
      <trkpt lat="41.23731" lon="0.51776">
        <time>2021-05-08T05:08:27Z</time>
      </trkpt>
      <trkpt lat="41.2373" lon="0.5178700000000001">
        <time>2021-05-08T05:08:27Z</time>
      </trkpt>
      <trkpt lat="41.23727" lon="0.51835">
        <time>2021-05-08T05:08:27Z</time>
      </trkpt>
      <trkpt lat="41.23726" lon="0.51851">
        <time>2021-05-08T05:08:27Z</time>
      </trkpt>
      <trkpt lat="41.23726" lon="0.51868">
        <time>2021-05-08T05:08:27Z</time>
      </trkpt>
      <trkpt lat="41.23729" lon="0.51883">
        <time>2021-05-08T05:08:27Z</time>
      </trkpt>
      <trkpt lat="41.23732" lon="0.51896">
        <time>2021-05-08T05:08:27Z</time>
      </trkpt>
      <trkpt lat="41.23731" lon="0.51932">
        <time>2021-05-08T05:08:27Z</time>
      </trkpt>
      <trkpt lat="41.23732" lon="0.51945">
        <time>2021-05-08T05:08:27Z</time>
      </trkpt>
      <trkpt lat="41.23733" lon="0.51966">
        <time>2021-05-08T05:08:27Z</time>
      </trkpt>
      <trkpt lat="41.23734" lon="0.51981">
        <time>2021-05-08T05:08:27Z</time>
      </trkpt>
      <trkpt lat="41.23741" lon="0.52005">
        <time>2021-05-08T05:08:27Z</time>
      </trkpt>
      <trkpt lat="41.23747" lon="0.52028">
        <time>2021-05-08T05:08:27Z</time>
      </trkpt>
      <trkpt lat="41.23753" lon="0.5205300000000001">
        <time>2021-05-08T05:08:27Z</time>
      </trkpt>
      <trkpt lat="41.23757" lon="0.52065">
        <time>2021-05-08T05:08:27Z</time>
      </trkpt>
      <trkpt lat="41.23762" lon="0.52082">
        <time>2021-05-08T05:08:27Z</time>
      </trkpt>
      <trkpt lat="41.23765" lon="0.52094">
        <time>2021-05-08T05:08:27Z</time>
      </trkpt>
      <trkpt lat="41.23764" lon="0.52107">
        <time>2021-05-08T05:08:27Z</time>
      </trkpt>
      <trkpt lat="41.23761" lon="0.52128">
        <time>2021-05-08T05:08:27Z</time>
      </trkpt>
      <trkpt lat="41.23758" lon="0.52144">
        <time>2021-05-08T05:08:27Z</time>
      </trkpt>
      <trkpt lat="41.23758" lon="0.52155">
        <time>2021-05-08T05:08:27Z</time>
      </trkpt>
      <trkpt lat="41.23759" lon="0.52171">
        <time>2021-05-08T05:08:27Z</time>
      </trkpt>
      <trkpt lat="41.23761" lon="0.5219">
        <time>2021-05-08T05:08:27Z</time>
      </trkpt>
      <trkpt lat="41.23763" lon="0.52207">
        <time>2021-05-08T05:08:27Z</time>
      </trkpt>
      <trkpt lat="41.23768" lon="0.52224">
        <time>2021-05-08T05:08:27Z</time>
      </trkpt>
      <trkpt lat="41.23773" lon="0.52237">
        <time>2021-05-08T05:08:27Z</time>
      </trkpt>
      <trkpt lat="41.23777" lon="0.52252">
        <time>2021-05-08T05:08:27Z</time>
      </trkpt>
      <trkpt lat="41.23782" lon="0.52273">
        <time>2021-05-08T05:08:27Z</time>
      </trkpt>
      <trkpt lat="41.238" lon="0.52315">
        <time>2021-05-08T05:08:27Z</time>
      </trkpt>
      <trkpt lat="41.23821" lon="0.5235">
        <time>2021-05-08T05:08:27Z</time>
      </trkpt>
      <trkpt lat="41.23846" lon="0.52381">
        <time>2021-05-08T05:08:27Z</time>
      </trkpt>
      <trkpt lat="41.2388" lon="0.52416">
        <time>2021-05-08T05:08:27Z</time>
      </trkpt>
      <trkpt lat="41.23885" lon="0.52429">
        <time>2021-05-08T05:08:27Z</time>
      </trkpt>
      <trkpt lat="41.23887" lon="0.52443">
        <time>2021-05-08T05:08:27Z</time>
      </trkpt>
      <trkpt lat="41.23887" lon="0.52457">
        <time>2021-05-08T05:08:27Z</time>
      </trkpt>
      <trkpt lat="41.23885" lon="0.52472">
        <time>2021-05-08T05:08:27Z</time>
      </trkpt>
      <trkpt lat="41.23881" lon="0.52488">
        <time>2021-05-08T05:08:27Z</time>
      </trkpt>
      <trkpt lat="41.23873" lon="0.5249700000000001">
        <time>2021-05-08T05:08:27Z</time>
      </trkpt>
      <trkpt lat="41.23864" lon="0.525">
        <time>2021-05-08T05:08:27Z</time>
      </trkpt>
      <trkpt lat="41.23854" lon="0.52495">
        <time>2021-05-08T05:08:27Z</time>
      </trkpt>
      <trkpt lat="41.23843" lon="0.52489">
        <time>2021-05-08T05:08:27Z</time>
      </trkpt>
      <trkpt lat="41.23829" lon="0.52483">
        <time>2021-05-08T05:08:27Z</time>
      </trkpt>
      <trkpt lat="41.23813" lon="0.52476">
        <time>2021-05-08T05:08:27Z</time>
      </trkpt>
      <trkpt lat="41.238" lon="0.5247000000000001">
        <time>2021-05-08T05:08:27Z</time>
      </trkpt>
      <trkpt lat="41.23787" lon="0.5247000000000001">
        <time>2021-05-08T05:08:27Z</time>
      </trkpt>
      <trkpt lat="41.23776" lon="0.52474">
        <time>2021-05-08T05:08:27Z</time>
      </trkpt>
      <trkpt lat="41.23762" lon="0.52488">
        <time>2021-05-08T05:08:27Z</time>
      </trkpt>
      <trkpt lat="41.23753" lon="0.52508">
        <time>2021-05-08T05:08:27Z</time>
      </trkpt>
      <trkpt lat="41.23748" lon="0.52522">
        <time>2021-05-08T05:08:27Z</time>
      </trkpt>
      <trkpt lat="41.2374" lon="0.52542">
        <time>2021-05-08T05:08:27Z</time>
      </trkpt>
      <trkpt lat="41.23731" lon="0.52551">
        <time>2021-05-08T05:08:27Z</time>
      </trkpt>
      <trkpt lat="41.23725" lon="0.52556">
        <time>2021-05-08T05:08:27Z</time>
      </trkpt>
      <trkpt lat="41.23717" lon="0.52569">
        <time>2021-05-08T05:08:27Z</time>
      </trkpt>
      <trkpt lat="41.23708" lon="0.52586">
        <time>2021-05-08T05:08:27Z</time>
      </trkpt>
      <trkpt lat="41.23697" lon="0.52612">
        <time>2021-05-08T05:08:27Z</time>
      </trkpt>
      <trkpt lat="41.2369" lon="0.52627">
        <time>2021-05-08T05:08:27Z</time>
      </trkpt>
      <trkpt lat="41.23677" lon="0.52648">
        <time>2021-05-08T05:08:27Z</time>
      </trkpt>
      <trkpt lat="41.23672" lon="0.52661">
        <time>2021-05-08T05:08:27Z</time>
      </trkpt>
      <trkpt lat="41.23668" lon="0.52676">
        <time>2021-05-08T05:08:27Z</time>
      </trkpt>
      <trkpt lat="41.23661" lon="0.5271">
        <time>2021-05-08T05:08:27Z</time>
      </trkpt>
      <trkpt lat="41.23655" lon="0.52733">
        <time>2021-05-08T05:08:27Z</time>
      </trkpt>
      <trkpt lat="41.23645" lon="0.52747">
        <time>2021-05-08T05:08:27Z</time>
      </trkpt>
      <trkpt lat="41.23639" lon="0.52756">
        <time>2021-05-08T05:08:27Z</time>
      </trkpt>
      <trkpt lat="41.23631" lon="0.52774">
        <time>2021-05-08T05:08:27Z</time>
      </trkpt>
      <trkpt lat="41.23624" lon="0.5279">
        <time>2021-05-08T05:08:27Z</time>
      </trkpt>
      <trkpt lat="41.23618" lon="0.52807">
        <time>2021-05-08T05:08:27Z</time>
      </trkpt>
      <trkpt lat="41.23606" lon="0.5283">
        <time>2021-05-08T05:08:27Z</time>
      </trkpt>
      <trkpt lat="41.23592" lon="0.52856">
        <time>2021-05-08T05:08:27Z</time>
      </trkpt>
      <trkpt lat="41.23582" lon="0.5287">
        <time>2021-05-08T05:08:27Z</time>
      </trkpt>
      <trkpt lat="41.23574" lon="0.52885">
        <time>2021-05-08T05:08:27Z</time>
      </trkpt>
      <trkpt lat="41.23563" lon="0.52909">
        <time>2021-05-08T05:08:27Z</time>
      </trkpt>
      <trkpt lat="41.23551" lon="0.52933">
        <time>2021-05-08T05:08:27Z</time>
      </trkpt>
      <trkpt lat="41.23536" lon="0.52965">
        <time>2021-05-08T05:08:27Z</time>
      </trkpt>
      <trkpt lat="41.23523" lon="0.52999">
        <time>2021-05-08T05:08:27Z</time>
      </trkpt>
      <trkpt lat="41.23519" lon="0.53021">
        <time>2021-05-08T05:08:27Z</time>
      </trkpt>
      <trkpt lat="41.23515" lon="0.53059">
        <time>2021-05-08T05:08:27Z</time>
      </trkpt>
      <trkpt lat="41.23515" lon="0.53089">
        <time>2021-05-08T05:08:27Z</time>
      </trkpt>
      <trkpt lat="41.23513" lon="0.53107">
        <time>2021-05-08T05:08:27Z</time>
      </trkpt>
      <trkpt lat="41.23507" lon="0.53126">
        <time>2021-05-08T05:08:27Z</time>
      </trkpt>
      <trkpt lat="41.23501" lon="0.53153">
        <time>2021-05-08T05:08:27Z</time>
      </trkpt>
      <trkpt lat="41.23496" lon="0.5317499999999999">
        <time>2021-05-08T05:08:27Z</time>
      </trkpt>
      <trkpt lat="41.23492" lon="0.5319">
        <time>2021-05-08T05:08:27Z</time>
      </trkpt>
      <trkpt lat="41.23487" lon="0.53216">
        <time>2021-05-08T05:08:27Z</time>
      </trkpt>
      <trkpt lat="41.23483" lon="0.53246">
        <time>2021-05-08T05:08:27Z</time>
      </trkpt>
      <trkpt lat="41.23483" lon="0.53264">
        <time>2021-05-08T05:08:27Z</time>
      </trkpt>
      <trkpt lat="41.23481" lon="0.5328500000000001">
        <time>2021-05-08T05:08:27Z</time>
      </trkpt>
      <trkpt lat="41.23482" lon="0.53303">
        <time>2021-05-08T05:08:27Z</time>
      </trkpt>
      <trkpt lat="41.23481" lon="0.53322">
        <time>2021-05-08T05:08:27Z</time>
      </trkpt>
      <trkpt lat="41.23482" lon="0.53338">
        <time>2021-05-08T05:08:27Z</time>
      </trkpt>
      <trkpt lat="41.23485" lon="0.53367">
        <time>2021-05-08T05:08:27Z</time>
      </trkpt>
      <trkpt lat="41.23488" lon="0.53388">
        <time>2021-05-08T05:08:27Z</time>
      </trkpt>
      <trkpt lat="41.23489" lon="0.53408">
        <time>2021-05-08T05:08:27Z</time>
      </trkpt>
      <trkpt lat="41.2349" lon="0.53451">
        <time>2021-05-08T05:08:27Z</time>
      </trkpt>
      <trkpt lat="41.23492" lon="0.53496">
        <time>2021-05-08T05:08:27Z</time>
      </trkpt>
      <trkpt lat="41.23491" lon="0.53526">
        <time>2021-05-08T05:08:27Z</time>
      </trkpt>
      <trkpt lat="41.23489" lon="0.53558">
        <time>2021-05-08T05:08:27Z</time>
      </trkpt>
      <trkpt lat="41.23489" lon="0.53588">
        <time>2021-05-08T05:08:27Z</time>
      </trkpt>
      <trkpt lat="41.2349" lon="0.53608">
        <time>2021-05-08T05:08:27Z</time>
      </trkpt>
      <trkpt lat="41.23488" lon="0.53634">
        <time>2021-05-08T05:08:27Z</time>
      </trkpt>
      <trkpt lat="41.23485" lon="0.53645">
        <time>2021-05-08T05:08:27Z</time>
      </trkpt>
      <trkpt lat="41.23473" lon="0.53678">
        <time>2021-05-08T05:08:27Z</time>
      </trkpt>
      <trkpt lat="41.23468" lon="0.537">
        <time>2021-05-08T05:08:27Z</time>
      </trkpt>
      <trkpt lat="41.23464" lon="0.5372400000000001">
        <time>2021-05-08T05:08:27Z</time>
      </trkpt>
      <trkpt lat="41.23462" lon="0.5374100000000001">
        <time>2021-05-08T05:08:27Z</time>
      </trkpt>
      <trkpt lat="41.23462" lon="0.53764">
        <time>2021-05-08T05:08:27Z</time>
      </trkpt>
      <trkpt lat="41.23463" lon="0.53781">
        <time>2021-05-08T05:08:27Z</time>
      </trkpt>
      <trkpt lat="41.23461" lon="0.53794">
        <time>2021-05-08T05:08:27Z</time>
      </trkpt>
      <trkpt lat="41.23459" lon="0.53806">
        <time>2021-05-08T05:08:27Z</time>
      </trkpt>
      <trkpt lat="41.23455" lon="0.53813">
        <time>2021-05-08T05:08:27Z</time>
      </trkpt>
      <trkpt lat="41.23451" lon="0.5382">
        <time>2021-05-08T05:08:27Z</time>
      </trkpt>
      <trkpt lat="41.23438" lon="0.53842">
        <time>2021-05-08T05:08:27Z</time>
      </trkpt>
      <trkpt lat="41.23433" lon="0.53856">
        <time>2021-05-08T05:08:27Z</time>
      </trkpt>
      <trkpt lat="41.23426" lon="0.53879">
        <time>2021-05-08T05:08:27Z</time>
      </trkpt>
      <trkpt lat="41.23421" lon="0.53911">
        <time>2021-05-08T05:08:27Z</time>
      </trkpt>
      <trkpt lat="41.23419" lon="0.53927">
        <time>2021-05-08T05:08:27Z</time>
      </trkpt>
      <trkpt lat="41.23414" lon="0.53945">
        <time>2021-05-08T05:08:27Z</time>
      </trkpt>
      <trkpt lat="41.23408" lon="0.5397">
        <time>2021-05-08T05:08:27Z</time>
      </trkpt>
      <trkpt lat="41.23402" lon="0.53991">
        <time>2021-05-08T05:08:27Z</time>
      </trkpt>
      <trkpt lat="41.2339" lon="0.54023">
        <time>2021-05-08T05:08:27Z</time>
      </trkpt>
      <trkpt lat="41.23382" lon="0.5405">
        <time>2021-05-08T05:08:27Z</time>
      </trkpt>
      <trkpt lat="41.23373" lon="0.54067">
        <time>2021-05-08T05:08:27Z</time>
      </trkpt>
      <trkpt lat="41.23369" lon="0.54084">
        <time>2021-05-08T05:08:27Z</time>
      </trkpt>
      <trkpt lat="41.23363" lon="0.54126">
        <time>2021-05-08T05:08:27Z</time>
      </trkpt>
      <trkpt lat="41.2336" lon="0.54159">
        <time>2021-05-08T05:08:27Z</time>
      </trkpt>
      <trkpt lat="41.23359" lon="0.54189">
        <time>2021-05-08T05:08:27Z</time>
      </trkpt>
      <trkpt lat="41.23356" lon="0.5421">
        <time>2021-05-08T05:08:27Z</time>
      </trkpt>
      <trkpt lat="41.23356" lon="0.54219">
        <time>2021-05-08T05:08:27Z</time>
      </trkpt>
      <trkpt lat="41.23354" lon="0.5425100000000001">
        <time>2021-05-08T05:08:27Z</time>
      </trkpt>
      <trkpt lat="41.23354" lon="0.5428">
        <time>2021-05-08T05:08:27Z</time>
      </trkpt>
      <trkpt lat="41.23354" lon="0.54311">
        <time>2021-05-08T05:08:27Z</time>
      </trkpt>
      <trkpt lat="41.23356" lon="0.54337">
        <time>2021-05-08T05:08:27Z</time>
      </trkpt>
      <trkpt lat="41.23357" lon="0.54347">
        <time>2021-05-08T05:08:27Z</time>
      </trkpt>
      <trkpt lat="41.2336" lon="0.54386">
        <time>2021-05-08T05:08:27Z</time>
      </trkpt>
      <trkpt lat="41.23369" lon="0.54433">
        <time>2021-05-08T05:08:27Z</time>
      </trkpt>
      <trkpt lat="41.23375" lon="0.54454">
        <time>2021-05-08T05:08:27Z</time>
      </trkpt>
      <trkpt lat="41.23384" lon="0.54487">
        <time>2021-05-08T05:08:27Z</time>
      </trkpt>
      <trkpt lat="41.23404" lon="0.54537">
        <time>2021-05-08T05:08:27Z</time>
      </trkpt>
      <trkpt lat="41.23426" lon="0.54592">
        <time>2021-05-08T05:08:27Z</time>
      </trkpt>
      <trkpt lat="41.23444" lon="0.5463">
        <time>2021-05-08T05:08:27Z</time>
      </trkpt>
      <trkpt lat="41.23455" lon="0.54645">
        <time>2021-05-08T05:08:27Z</time>
      </trkpt>
      <trkpt lat="41.23466" lon="0.54658">
        <time>2021-05-08T05:08:27Z</time>
      </trkpt>
      <trkpt lat="41.23475" lon="0.54663">
        <time>2021-05-08T05:08:27Z</time>
      </trkpt>
      <trkpt lat="41.23492" lon="0.54669">
        <time>2021-05-08T05:08:27Z</time>
      </trkpt>
      <trkpt lat="41.23501" lon="0.54672">
        <time>2021-05-08T05:08:27Z</time>
      </trkpt>
      <trkpt lat="41.23507" lon="0.54671">
        <time>2021-05-08T05:08:27Z</time>
      </trkpt>
      <trkpt lat="41.2351" lon="0.54674">
        <time>2021-05-08T05:08:27Z</time>
      </trkpt>
      <trkpt lat="41.23506" lon="0.54677">
        <time>2021-05-08T05:08:27Z</time>
      </trkpt>
      <trkpt lat="41.23519" lon="0.54697">
        <time>2021-05-08T05:08:27Z</time>
      </trkpt>
      <trkpt lat="41.2351" lon="0.54704">
        <time>2021-05-08T05:08:27Z</time>
      </trkpt>
      <trkpt lat="41.23501" lon="0.5471200000000001">
        <time>2021-05-08T05:08:27Z</time>
      </trkpt>
      <trkpt lat="41.23505" lon="0.5471200000000001">
        <time>2021-05-08T05:08:27Z</time>
      </trkpt>
      <trkpt lat="41.23522" lon="0.54739">
        <time>2021-05-08T05:08:27Z</time>
      </trkpt>
      <trkpt lat="41.23524" lon="0.54742">
        <time>2021-05-08T05:08:27Z</time>
      </trkpt>
      <trkpt lat="41.23524" lon="0.54745">
        <time>2021-05-08T05:08:27Z</time>
      </trkpt>
      <trkpt lat="41.23521" lon="0.54747">
        <time>2021-05-08T05:08:27Z</time>
      </trkpt>
      <trkpt lat="41.23517" lon="0.54743">
        <time>2021-05-08T05:08:27Z</time>
      </trkpt>
      <trkpt lat="41.23514" lon="0.54737">
        <time>2021-05-08T05:08:27Z</time>
      </trkpt>
      <trkpt lat="41.2351" lon="0.5473">
        <time>2021-05-08T05:08:27Z</time>
      </trkpt>
      <trkpt lat="41.23501" lon="0.54718">
        <time>2021-05-08T05:08:27Z</time>
      </trkpt>
      <trkpt lat="41.23487" lon="0.547">
        <time>2021-05-08T05:08:27Z</time>
      </trkpt>
      <trkpt lat="41.23477" lon="0.54692">
        <time>2021-05-08T05:08:27Z</time>
      </trkpt>
      <trkpt lat="41.2347" lon="0.54688">
        <time>2021-05-08T05:08:27Z</time>
      </trkpt>
      <trkpt lat="41.23464" lon="0.54687">
        <time>2021-05-08T05:08:27Z</time>
      </trkpt>
      <trkpt lat="41.2346" lon="0.54687">
        <time>2021-05-08T05:08:27Z</time>
      </trkpt>
      <trkpt lat="41.23456" lon="0.54686">
        <time>2021-05-08T05:08:27Z</time>
      </trkpt>
      <trkpt lat="41.2345" lon="0.54684">
        <time>2021-05-08T05:08:27Z</time>
      </trkpt>
      <trkpt lat="41.23443" lon="0.54683">
        <time>2021-05-08T05:08:27Z</time>
      </trkpt>
      <trkpt lat="41.23434" lon="0.54682">
        <time>2021-05-08T05:08:27Z</time>
      </trkpt>
      <trkpt lat="41.23431" lon="0.54681">
        <time>2021-05-08T05:08:27Z</time>
      </trkpt>
      <trkpt lat="41.23426" lon="0.5468">
        <time>2021-05-08T05:08:27Z</time>
      </trkpt>
      <trkpt lat="41.23423" lon="0.54677">
        <time>2021-05-08T05:08:27Z</time>
      </trkpt>
      <trkpt lat="41.23419" lon="0.54678">
        <time>2021-05-08T05:08:27Z</time>
      </trkpt>
      <trkpt lat="41.23415" lon="0.5468">
        <time>2021-05-08T05:08:27Z</time>
      </trkpt>
      <trkpt lat="41.23412" lon="0.54681">
        <time>2021-05-08T05:08:27Z</time>
      </trkpt>
      <trkpt lat="41.23344" lon="0.54714">
        <time>2021-05-08T05:08:27Z</time>
      </trkpt>
      <trkpt lat="41.23292" lon="0.54738">
        <time>2021-05-08T05:08:27Z</time>
      </trkpt>
      <trkpt lat="41.23203" lon="0.5478">
        <time>2021-05-08T05:08:27Z</time>
      </trkpt>
      <trkpt lat="41.23198" lon="0.54781">
        <time>2021-05-08T05:08:27Z</time>
      </trkpt>
      <trkpt lat="41.2319" lon="0.54784">
        <time>2021-05-08T05:08:27Z</time>
      </trkpt>
      <trkpt lat="41.23183" lon="0.54786">
        <time>2021-05-08T05:08:27Z</time>
      </trkpt>
      <trkpt lat="41.23178" lon="0.54789">
        <time>2021-05-08T05:08:27Z</time>
      </trkpt>
      <trkpt lat="41.23173" lon="0.54792">
        <time>2021-05-08T05:08:27Z</time>
      </trkpt>
      <trkpt lat="41.23168" lon="0.54796">
        <time>2021-05-08T05:08:27Z</time>
      </trkpt>
      <trkpt lat="41.23164" lon="0.54802">
        <time>2021-05-08T05:08:27Z</time>
      </trkpt>
      <trkpt lat="41.23162" lon="0.54811">
        <time>2021-05-08T05:08:27Z</time>
      </trkpt>
      <trkpt lat="41.23164" lon="0.54819">
        <time>2021-05-08T05:08:27Z</time>
      </trkpt>
      <trkpt lat="41.23167" lon="0.54828">
        <time>2021-05-08T05:08:27Z</time>
      </trkpt>
      <trkpt lat="41.23175" lon="0.54844">
        <time>2021-05-08T05:08:27Z</time>
      </trkpt>
      <trkpt lat="41.23188" lon="0.54869">
        <time>2021-05-08T05:08:27Z</time>
      </trkpt>
      <trkpt lat="41.23203" lon="0.54889">
        <time>2021-05-08T05:08:27Z</time>
      </trkpt>
      <trkpt lat="41.23215" lon="0.54902">
        <time>2021-05-08T05:08:27Z</time>
      </trkpt>
      <trkpt lat="41.23232" lon="0.54927">
        <time>2021-05-08T05:08:27Z</time>
      </trkpt>
      <trkpt lat="41.23222" lon="0.54941">
        <time>2021-05-08T05:08:27Z</time>
      </trkpt>
      <trkpt lat="41.23228" lon="0.54949">
        <time>2021-05-08T05:08:27Z</time>
      </trkpt>
      <trkpt lat="41.23238" lon="0.5497300000000001">
        <time>2021-05-08T05:08:27Z</time>
      </trkpt>
      <trkpt lat="41.23237" lon="0.54987">
        <time>2021-05-08T05:08:27Z</time>
      </trkpt>
      <trkpt lat="41.23227" lon="0.55001">
        <time>2021-05-08T05:08:27Z</time>
      </trkpt>
      <trkpt lat="41.23226" lon="0.55013">
        <time>2021-05-08T05:08:27Z</time>
      </trkpt>
      <trkpt lat="41.23201" lon="0.55024">
        <time>2021-05-08T05:08:27Z</time>
      </trkpt>
      <trkpt lat="41.23183" lon="0.55035">
        <time>2021-05-08T05:08:27Z</time>
      </trkpt>
      <trkpt lat="41.23172" lon="0.55036">
        <time>2021-05-08T05:08:27Z</time>
      </trkpt>
      <trkpt lat="41.23158" lon="0.55033">
        <time>2021-05-08T05:08:27Z</time>
      </trkpt>
      <trkpt lat="41.23124" lon="0.5501">
        <time>2021-05-08T05:08:27Z</time>
      </trkpt>
      <trkpt lat="41.23115" lon="0.5503">
        <time>2021-05-08T05:08:27Z</time>
      </trkpt>
      <trkpt lat="41.2311" lon="0.5504">
        <time>2021-05-08T05:08:27Z</time>
      </trkpt>
      <trkpt lat="41.23102" lon="0.55043">
        <time>2021-05-08T05:08:27Z</time>
      </trkpt>
      <trkpt lat="41.23097" lon="0.55043">
        <time>2021-05-08T05:08:27Z</time>
      </trkpt>
      <trkpt lat="41.23092" lon="0.55049">
        <time>2021-05-08T05:08:27Z</time>
      </trkpt>
      <trkpt lat="41.23053" lon="0.5507300000000001">
        <time>2021-05-08T05:08:27Z</time>
      </trkpt>
      <trkpt lat="41.23006" lon="0.55105">
        <time>2021-05-08T05:08:27Z</time>
      </trkpt>
      <trkpt lat="41.23" lon="0.55115">
        <time>2021-05-08T05:08:27Z</time>
      </trkpt>
      <trkpt lat="41.22996" lon="0.55118">
        <time>2021-05-08T05:08:27Z</time>
      </trkpt>
      <trkpt lat="41.22993" lon="0.55116">
        <time>2021-05-08T05:08:27Z</time>
      </trkpt>
      <trkpt lat="41.22962" lon="0.55137">
        <time>2021-05-08T05:08:27Z</time>
      </trkpt>
      <trkpt lat="41.2296" lon="0.55138">
        <time>2021-05-08T05:08:27Z</time>
      </trkpt>
      <trkpt lat="41.22951" lon="0.55142">
        <time>2021-05-08T05:08:27Z</time>
      </trkpt>
      <trkpt lat="41.22948" lon="0.55146">
        <time>2021-05-08T05:08:27Z</time>
      </trkpt>
      <trkpt lat="41.2295" lon="0.55154">
        <time>2021-05-08T05:08:27Z</time>
      </trkpt>
      <trkpt lat="41.22958" lon="0.55166">
        <time>2021-05-08T05:08:27Z</time>
      </trkpt>
      <trkpt lat="41.22965" lon="0.55177">
        <time>2021-05-08T05:08:27Z</time>
      </trkpt>
      <trkpt lat="41.2297" lon="0.55186">
        <time>2021-05-08T05:08:27Z</time>
      </trkpt>
      <trkpt lat="41.2297" lon="0.55193">
        <time>2021-05-08T05:08:27Z</time>
      </trkpt>
      <trkpt lat="41.2296" lon="0.55199">
        <time>2021-05-08T05:08:27Z</time>
      </trkpt>
      <trkpt lat="41.25124" lon="0.47424">
        <time>2021-05-08T05:08:27Z</time>
      </trkpt>
      <trkpt lat="41.25124" lon="0.47436">
        <time>2021-05-08T05:08:27Z</time>
      </trkpt>
      <trkpt lat="41.25121" lon="0.47442">
        <time>2021-05-08T05:08:27Z</time>
      </trkpt>
      <trkpt lat="41.25117" lon="0.47448">
        <time>2021-05-08T05:08:27Z</time>
      </trkpt>
      <trkpt lat="41.25101" lon="0.47454">
        <time>2021-05-08T05:08:27Z</time>
      </trkpt>
      <trkpt lat="41.25093" lon="0.47462">
        <time>2021-05-08T05:08:27Z</time>
      </trkpt>
      <trkpt lat="41.25088" lon="0.47475">
        <time>2021-05-08T05:08:27Z</time>
      </trkpt>
      <trkpt lat="41.25087" lon="0.47481">
        <time>2021-05-08T05:08:27Z</time>
      </trkpt>
      <trkpt lat="41.25064" lon="0.47483">
        <time>2021-05-08T05:08:27Z</time>
      </trkpt>
      <trkpt lat="41.25034" lon="0.47495">
        <time>2021-05-08T05:08:27Z</time>
      </trkpt>
      <trkpt lat="41.25008" lon="0.4751">
        <time>2021-05-08T05:08:27Z</time>
      </trkpt>
      <trkpt lat="41.24994" lon="0.47522">
        <time>2021-05-08T05:08:27Z</time>
      </trkpt>
      <trkpt lat="41.24973" lon="0.47542">
        <time>2021-05-08T05:08:27Z</time>
      </trkpt>
      <trkpt lat="41.24941" lon="0.47584">
        <time>2021-05-08T05:08:27Z</time>
      </trkpt>
      <trkpt lat="41.24922" lon="0.47609">
        <time>2021-05-08T05:08:27Z</time>
      </trkpt>
      <trkpt lat="41.24911" lon="0.47625">
        <time>2021-05-08T05:08:27Z</time>
      </trkpt>
      <trkpt lat="41.24904" lon="0.4763499999999999">
        <time>2021-05-08T05:08:27Z</time>
      </trkpt>
      <trkpt lat="41.24894" lon="0.47649">
        <time>2021-05-08T05:08:27Z</time>
      </trkpt>
      <trkpt lat="41.24885" lon="0.47662">
        <time>2021-05-08T05:08:27Z</time>
      </trkpt>
      <trkpt lat="41.24874" lon="0.47677">
        <time>2021-05-08T05:08:27Z</time>
      </trkpt>
      <trkpt lat="41.24865" lon="0.4769">
        <time>2021-05-08T05:08:27Z</time>
      </trkpt>
      <trkpt lat="41.24855" lon="0.47703">
        <time>2021-05-08T05:08:27Z</time>
      </trkpt>
      <trkpt lat="41.24844" lon="0.4771800000000001">
        <time>2021-05-08T05:08:27Z</time>
      </trkpt>
      <trkpt lat="41.24833" lon="0.47733">
        <time>2021-05-08T05:08:27Z</time>
      </trkpt>
      <trkpt lat="41.24824" lon="0.47746">
        <time>2021-05-08T05:08:27Z</time>
      </trkpt>
      <trkpt lat="41.24814" lon="0.47761">
        <time>2021-05-08T05:08:27Z</time>
      </trkpt>
      <trkpt lat="41.24803" lon="0.47776">
        <time>2021-05-08T05:08:27Z</time>
      </trkpt>
      <trkpt lat="41.24792" lon="0.47791">
        <time>2021-05-08T05:08:27Z</time>
      </trkpt>
      <trkpt lat="41.24782" lon="0.47804">
        <time>2021-05-08T05:08:27Z</time>
      </trkpt>
      <trkpt lat="41.24771" lon="0.4781900000000001">
        <time>2021-05-08T05:08:27Z</time>
      </trkpt>
      <trkpt lat="41.2476" lon="0.47834">
        <time>2021-05-08T05:08:27Z</time>
      </trkpt>
      <trkpt lat="41.24749" lon="0.47849">
        <time>2021-05-08T05:08:27Z</time>
      </trkpt>
      <trkpt lat="41.24713" lon="0.47901">
        <time>2021-05-08T05:08:27Z</time>
      </trkpt>
      <trkpt lat="41.24699" lon="0.4792000000000001">
        <time>2021-05-08T05:08:27Z</time>
      </trkpt>
      <trkpt lat="41.24685" lon="0.47938">
        <time>2021-05-08T05:08:27Z</time>
      </trkpt>
      <trkpt lat="41.2468" lon="0.47954">
        <time>2021-05-08T05:08:27Z</time>
      </trkpt>
      <trkpt lat="41.2468" lon="0.47971">
        <time>2021-05-08T05:08:27Z</time>
      </trkpt>
      <trkpt lat="41.2468" lon="0.47982">
        <time>2021-05-08T05:08:27Z</time>
      </trkpt>
      <trkpt lat="41.24678" lon="0.47992">
        <time>2021-05-08T05:08:27Z</time>
      </trkpt>
      <trkpt lat="41.24674" lon="0.47998">
        <time>2021-05-08T05:08:27Z</time>
      </trkpt>
      <trkpt lat="41.24669" lon="0.4800300000000001">
        <time>2021-05-08T05:08:27Z</time>
      </trkpt>
      <trkpt lat="41.24661" lon="0.48006">
        <time>2021-05-08T05:08:27Z</time>
      </trkpt>
      <trkpt lat="41.24655" lon="0.48009">
        <time>2021-05-08T05:08:27Z</time>
      </trkpt>
      <trkpt lat="41.2465" lon="0.4800400000000001">
        <time>2021-05-08T05:08:27Z</time>
      </trkpt>
      <trkpt lat="41.24644" lon="0.47998">
        <time>2021-05-08T05:08:27Z</time>
      </trkpt>
      <trkpt lat="41.24641" lon="0.47992">
        <time>2021-05-08T05:08:27Z</time>
      </trkpt>
      <trkpt lat="41.24638" lon="0.47983">
        <time>2021-05-08T05:08:27Z</time>
      </trkpt>
      <trkpt lat="41.24634" lon="0.4797300000000001">
        <time>2021-05-08T05:08:27Z</time>
      </trkpt>
      <trkpt lat="41.24626" lon="0.47963">
        <time>2021-05-08T05:08:27Z</time>
      </trkpt>
      <trkpt lat="41.24618" lon="0.4795699999999999">
        <time>2021-05-08T05:08:27Z</time>
      </trkpt>
      <trkpt lat="41.24608" lon="0.4795">
        <time>2021-05-08T05:08:27Z</time>
      </trkpt>
      <trkpt lat="41.24603" lon="0.4793999999999999">
        <time>2021-05-08T05:08:27Z</time>
      </trkpt>
      <trkpt lat="41.24599" lon="0.47929">
        <time>2021-05-08T05:08:27Z</time>
      </trkpt>
      <trkpt lat="41.24595" lon="0.47918">
        <time>2021-05-08T05:08:27Z</time>
      </trkpt>
      <trkpt lat="41.24594" lon="0.47906">
        <time>2021-05-08T05:08:27Z</time>
      </trkpt>
      <trkpt lat="41.24595" lon="0.47888">
        <time>2021-05-08T05:08:27Z</time>
      </trkpt>
      <trkpt lat="41.24604" lon="0.4785200000000001">
        <time>2021-05-08T05:08:27Z</time>
      </trkpt>
      <trkpt lat="41.24616" lon="0.47825">
        <time>2021-05-08T05:08:27Z</time>
      </trkpt>
      <trkpt lat="41.24621" lon="0.47813">
        <time>2021-05-08T05:08:27Z</time>
      </trkpt>
      <trkpt lat="41.24624" lon="0.47804">
        <time>2021-05-08T05:08:27Z</time>
      </trkpt>
      <trkpt lat="41.24623" lon="0.47796">
        <time>2021-05-08T05:08:27Z</time>
      </trkpt>
      <trkpt lat="41.24629" lon="0.47793">
        <time>2021-05-08T05:08:27Z</time>
      </trkpt>
      <trkpt lat="41.24633" lon="0.4779">
        <time>2021-05-08T05:08:27Z</time>
      </trkpt>
      <trkpt lat="41.24638" lon="0.47786">
        <time>2021-05-08T05:08:27Z</time>
      </trkpt>
      <trkpt lat="41.24643" lon="0.47795">
        <time>2021-05-08T05:08:27Z</time>
      </trkpt>
      <trkpt lat="41.24661" lon="0.47825">
        <time>2021-05-08T05:08:27Z</time>
      </trkpt>
      <trkpt lat="41.24689" lon="0.4787299999999999">
        <time>2021-05-08T05:08:27Z</time>
      </trkpt>
      <trkpt lat="41.24723" lon="0.47926">
        <time>2021-05-08T05:08:27Z</time>
      </trkpt>
      <trkpt lat="41.24752" lon="0.4797399999999999">
        <time>2021-05-08T05:08:27Z</time>
      </trkpt>
      <trkpt lat="41.24763" lon="0.47988">
        <time>2021-05-08T05:08:27Z</time>
      </trkpt>
      <trkpt lat="41.24775" lon="0.4800699999999999">
        <time>2021-05-08T05:08:27Z</time>
      </trkpt>
      <trkpt lat="41.24784" lon="0.4802100000000001">
        <time>2021-05-08T05:08:27Z</time>
      </trkpt>
      <trkpt lat="41.24794" lon="0.48048">
        <time>2021-05-08T05:08:27Z</time>
      </trkpt>
      <trkpt lat="41.24799" lon="0.48059">
        <time>2021-05-08T05:08:27Z</time>
      </trkpt>
      <trkpt lat="41.24828" lon="0.48099">
        <time>2021-05-08T05:08:27Z</time>
      </trkpt>
      <trkpt lat="41.24835" lon="0.48108">
        <time>2021-05-08T05:08:27Z</time>
      </trkpt>
      <trkpt lat="41.24839" lon="0.48113">
        <time>2021-05-08T05:08:27Z</time>
      </trkpt>
      <trkpt lat="41.24844" lon="0.4812">
        <time>2021-05-08T05:08:27Z</time>
      </trkpt>
      <trkpt lat="41.24851" lon="0.48127">
        <time>2021-05-08T05:08:27Z</time>
      </trkpt>
      <trkpt lat="41.24864" lon="0.4813">
        <time>2021-05-08T05:08:27Z</time>
      </trkpt>
      <trkpt lat="41.24875" lon="0.48135">
        <time>2021-05-08T05:08:27Z</time>
      </trkpt>
      <trkpt lat="41.24886" lon="0.4814399999999999">
        <time>2021-05-08T05:08:27Z</time>
      </trkpt>
      <trkpt lat="41.24898" lon="0.4816199999999999">
        <time>2021-05-08T05:08:27Z</time>
      </trkpt>
      <trkpt lat="41.24915" lon="0.48186">
        <time>2021-05-08T05:08:27Z</time>
      </trkpt>
      <trkpt lat="41.24932" lon="0.48214">
        <time>2021-05-08T05:08:27Z</time>
      </trkpt>
      <trkpt lat="41.24941" lon="0.48227">
        <time>2021-05-08T05:08:27Z</time>
      </trkpt>
      <trkpt lat="41.24956" lon="0.4824200000000001">
        <time>2021-05-08T05:08:27Z</time>
      </trkpt>
      <trkpt lat="41.24967" lon="0.4825800000000001">
        <time>2021-05-08T05:08:27Z</time>
      </trkpt>
    </trkseg>
  </trk>
</gpx>
